<
# Wetter Temperatur Luftdruck Luftfeuchtigkeit Sichtweite Windgeschwindigkeit Windrichtung Zeit
1 Rain 11 1000 81 10000 2.1 140 20:19 17.10.2019
2 Rain 11 1000 81 10000 2.1 140 19:56 17.10.2019
3 Rain 11 1000 81 10000 2.6 150 19:37 17.10.2019
4 Rain 11 1000 76 10000 2.1 0 19:18 17.10.2019
5 Rain 12 1000 76 10000 2.6 160 18:42 17.10.2019
6 Rain 12 1000 66 10000 2.1 160 18:21 17.10.2019
7 Rain 12 1000 66 10000 2.6 170 17:55 17.10.2019
8 Clouds 13 1000 66 10000 2.6 170 17:37 17.10.2019
9 Clouds 13 1000 66 10000 2.6 160 17:19 17.10.2019
10 Clouds 13 1001 67 10000 3.1 160 16:42 17.10.2019
11 Clouds 13 1001 67 10000 3.1 160 16:42 17.10.2019
12 Clouds 13 1001 67 10000 3.1 160 16:42 17.10.2019
13 Clouds 13 1001 62 10000 3.6 180 16:19 17.10.2019
14 Clouds 13 1001 66 10000 3.1 200 15:59 17.10.2019
15 Clouds 13 1001 66 10000 3.1 200 15:41 17.10.2019
16 Clouds 13 1002 62 10000 3.6 180 15:20 17.10.2019
17 Clouds 13 1002 62 10000 3.6 180 14:58 17.10.2019
18 Clouds 13 1002 71 10000 3.6 180 14:39 17.10.2019
19 Clouds 13 1002 66 10000 3.6 180 14:20 17.10.2019
20 Clear 13 1003 71 10000 2.6 170 13:41 17.10.2019
21 Clear 13 1003 76 10000 2.6 0 13:21 17.10.2019
22 Clear 12 1003 76 10000 3.1 0 12:58 17.10.2019
23 Clear 12 1003 76 10000 3.1 0 12:39 17.10.2019
24 Clear 11 1003 76 10000 2.6 170 12:20 17.10.2019
25 Clear 10 1003 81 10000 2.6 150 11:56 17.10.2019
26 Clear 10 1003 81 10000 2.6 150 11:38 17.10.2019
27 Clear 9 1004 87 10000 2.6 170 11:18 17.10.2019
28 Clear 8 1004 81 10000 2.6 170 10:42 17.10.2019
29 Clear 7 1004 87 10000 2.1 160 10:20 17.10.2019
30 Clear 7 1004 87 10000 1 0 09:57 17.10.2019
31 -273 0 0 0 0 0 09:57 17.10.2019
32 Clear 7 1004 87 10000 1 0 09:38 17.10.2019
33 Clear 7 1004 87 10000 1 0 09:38 17.10.2019
34 Clear 6 1004 87 10000 1.5 0 09:20 17.10.2019
35 Rain 6 1004 87 10000 1.5 0 08:56 17.10.2019
36 Rain 6 1004 87 10000 1.5 0 08:37 17.10.2019
37 Clear 6 1003 87 10000 2.1 170 08:18 17.10.2019
38 Clear 6 1003 87 10000 1.5 0 07:43 17.10.2019
39 Clear 6 1004 87 10000 1.5 0 07:21 17.10.2019
40 Clear 6 1004 87 10000 1.5 0 06:55 17.10.2019
41 Clear 6 1004 87 10000 1.5 0 06:37 17.10.2019
42 Clear 6 1004 87 10000 2.1 160 06:18 17.10.2019
43 Clear 6 1004 87 10000 1.5 0 05:40 17.10.2019
44 Clear 6 1004 81 10000 1.5 0 05:19 17.10.2019
45 Clear 6 1004 87 10000 1.5 0 04:48 17.10.2019
46 Clear 6 1004 93 10000 1 0 03:46 17.10.2019
47 Clear 6 1004 93 10000 2.6 180 01:57 17.10.2019
48 Clear 6 1004 93 10000 2.6 180 01:57 17.10.2019
49 Clear 6 1004 87 10000 2.1 190 00:42 17.10.2019
50 Clear 6 1004 87 10000 2.6 180 00:21 17.10.2019
51 Clear 7 1004 87 10000 2.6 180 23:58 16.10.2019
52 Clear 7 1004 93 10000 2.1 170 23:39 16.10.2019
53 Clear 7 1004 93 10000 1 140 23:18 16.10.2019
54 Clear 7 1004 93 10000 1.5 0 22:54 16.10.2019
55 Clear 7 1004 93 10000 1.5 0 22:36 16.10.2019
56 Clear 7 1003 93 10000 2.1 200 22:18 16.10.2019
57 Clouds 7 1003 93 10000 2.1 190 21:54 16.10.2019
58 Clouds 7 1003 93 10000 2.1 190 21:54 16.10.2019
59 -273 0 0 0 0 0 21:54 16.10.2019
60 Clouds 8 1003 93 10000 2.1 190 21:36 16.10.2019
61 Clouds 8 1003 93 10000 1 0 21:18 16.10.2019
62 Clouds 8 1003 81 10000 1 0 20:54 16.10.2019
63 Clouds 9 1003 81 10000 1 0 20:36 16.10.2019
64 Clouds 9 1003 81 10000 1 230 20:18 16.10.2019
65 Clouds 10 1002 76 10000 1.5 270 19:40 16.10.2019
66 Clouds 10 1002 76 10000 2.1 270 19:21 16.10.2019
67 Clouds 11 1002 76 10000 2.1 270 18:56 16.10.2019
68 -273 0 0 0 0 0 18:56 16.10.2019
69 Clouds 12 1002 71 10000 2.6 280 18:37 16.10.2019
70 Clouds 12 1002 66 10000 4.6 270 18:18 16.10.2019
71 Clouds 12 1002 66 10000 4.6 270 18:18 16.10.2019
72 Clouds 13 1002 66 10000 3.6 280 17:55 16.10.2019
73 Clouds 13 1002 66 10000 3.6 280 17:55 16.10.2019
74 Clouds 13 1002 66 10000 3.6 280 17:36 16.10.2019
75 Clouds 13 1001 71 10000 4.1 280 17:18 16.10.2019
76 Clouds 13 1001 66 10000 5.1 270 16:43 16.10.2019
77 Clouds 13 1001 66 10000 5.1 280 16:22 16.10.2019
78 Clouds 13 1001 66 10000 5.1 280 15:59 16.10.2019
79 Clouds 13 1001 71 10000 5.1 270 15:39 16.10.2019
80 Clouds 13 1001 76 10000 6.7 270 15:19 16.10.2019
81 Clouds 13 1001 76 10000 6.7 270 14:58 16.10.2019
82 Clouds 13 1001 76 10000 6.7 270 14:39 16.10.2019
83 Clouds 13 1000 76 10000 6.2 270 14:19 16.10.2019
84 Clouds 13 1000 76 10000 6.2 270 13:57 16.10.2019
85 Clouds 13 1000 81 10000 4.1 270 13:38 16.10.2019
86 Clouds 13 1000 81 10000 4.1 270 13:38 16.10.2019
87 Clouds 12 1000 81 10000 5.1 260 13:20 16.10.2019
88 Clouds 12 1000 87 10000 5.1 250 12:42 16.10.2019
89 Clouds 12 999 93 10000 4.6 260 12:20 16.10.2019
90 Rain 12 999 93 10000 4.1 260 11:45 16.10.2019
91 Rain 12 999 93 10000 4.1 260 11:45 16.10.2019
92 Rain 11 999 93 10000 6.7 270 11:19 16.10.2019
93 Rain 11 998 93 10000 6.7 280 10:55 16.10.2019
94 Rain 11 998 93 10000 6.7 280 10:36 16.10.2019
95 Rain 11 998 100 10000 3.1 190 10:18 16.10.2019
96 Rain 12 997 93 10000 2.6 0 09:40 16.10.2019
97 Rain 12 997 93 10000 2.6 0 09:21 16.10.2019
98 Rain 11 997 93 10000 3.1 170 08:46 16.10.2019
99 Rain 11 997 93 10000 3.1 170 08:26 16.10.2019
100 Rain 11 997 93 10000 3.6 0 07:58 16.10.2019
101 Rain 11 997 93 10000 3.6 150 07:40 16.10.2019
102 Rain 11 997 87 10000 3.6 0 07:21 16.10.2019
103 Rain 11 998 87 10000 3.1 150 06:40 16.10.2019
104 Rain 11 998 87 10000 3.6 150 06:19 16.10.2019
105 Clouds 10 1000 81 10000 2.6 150 03:46 16.10.2019
106 Clouds 10 1001 81 10000 2.6 150 02:50 16.10.2019
107 Clouds 10 1002 93 10000 1 0 01:20 16.10.2019
108 Clouds 10 1002 93 10000 1 0 00:57 16.10.2019
109 Clouds 10 1002 87 10000 1.5 0 00:37 16.10.2019
110 Clouds 10 1002 93 10000 1.5 0 23:42 15.10.2019
111 Clouds 10 1002 93 10000 1.5 0 23:23 15.10.2019
112 Clouds 10 1002 93 10000 1.5 0 22:58 15.10.2019
113 Clouds 11 1002 87 10000 2.6 180 22:40 15.10.2019
114 Clouds 11 1002 87 10000 2.1 170 22:21 15.10.2019
115 Clouds 11 1002 87 10000 2.1 170 21:57 15.10.2019
116 Clouds 11 1002 87 10000 1.5 0 21:38 15.10.2019
117 Clouds 11 1002 93 10000 1.5 0 21:20 15.10.2019
118 Clouds 11 1002 93 10000 1.5 0 20:58 15.10.2019
119 Clouds 11 1002 93 10000 1 0 20:40 15.10.2019
120 Clouds 11 1002 93 10000 1 0 20:40 15.10.2019
121 Clouds 11 1002 87 10000 1 0 20:21 15.10.2019
122 Rain 11 1002 87 10000 1 0 19:59 15.10.2019
123 Rain 11 1002 87 10000 1 0 19:41 15.10.2019
124 Rain 11 1002 87 10000 1.5 0 19:20 15.10.2019
125 Clouds 11 1002 81 10000 1.5 0 18:55 15.10.2019
126 Clouds 12 1002 81 10000 1.5 0 18:36 15.10.2019
127 Clouds 12 1002 81 10000 2.1 180 18:18 15.10.2019
128 Clouds 12 1002 81 10000 1.5 0 17:41 15.10.2019
129 Clouds 12 1002 81 10000 1.5 0 17:41 15.10.2019
130 Clouds 12 1002 76 10000 2.6 210 17:21 15.10.2019
131 Clouds 12 1002 76 10000 2.6 210 16:59 15.10.2019
132 Clouds 12 1002 76 10000 2.6 210 16:59 15.10.2019
133 Clouds 12 1002 81 10000 1.5 0 16:40 15.10.2019
134 Clouds 12 1002 81 10000 1.5 0 16:21 15.10.2019
135 Clouds 12 1003 87 10000 1.5 0 15:55 15.10.2019
136 Clouds 12 1003 87 10000 1.5 0 15:37 15.10.2019
137 Clouds 12 1003 87 10000 2.1 200 15:19 15.10.2019
138 Clouds 12 1003 81 10000 2.1 200 14:38 15.10.2019
139 Clouds 12 1003 81 10000 2.1 200 14:38 15.10.2019
140 Clouds 11 1003 87 10000 3.1 200 14:20 15.10.2019
141 Clouds 11 1003 87 10000 3.1 200 13:58 15.10.2019
142 Clouds 11 1003 87 8000 2.1 190 13:40 15.10.2019
143 Clouds 11 1003 93 10000 1.5 0 13:19 15.10.2019
144 Clouds 11 1003 100 10000 1.5 0 12:44 15.10.2019
145 Clouds 11 1003 100 10000 1.5 0 12:44 15.10.2019
146 Clouds 11 1003 100 10000 1.5 0 12:22 15.10.2019
147 Clouds 11 1003 100 10000 1.5 0 11:57 15.10.2019
148 Clouds 10 1003 100 10000 1 0 11:38 15.10.2019
149 Clouds 10 1003 93 6000 1 0 11:19 15.10.2019
150 Mist 10 1003 93 4400 1.5 210 10:45 15.10.2019
151 Rain 10 1003 100 2600 1.5 210 10:22 15.10.2019
152 Rain 9 1003 100 2900 1 0 09:58 15.10.2019
153 Rain 9 1003 100 2900 1 0 09:39 15.10.2019
154 Drizzle 9 1002 100 1700 1 0 09:20 15.10.2019
155 -273 0 0 0 0 0 08:57 15.10.2019
156 Drizzle 9 1002 100 2600 1.5 230 08:37 15.10.2019
157 Mist 9 1001 100 5000 1.5 0 08:18 15.10.2019
158 Drizzle 9 1001 100 9000 2.1 340 07:42 15.10.2019
159 Rain 9 1001 100 10000 2.1 350 07:21 15.10.2019
160 Rain 9 1002 100 5000 2.1 320 06:47 15.10.2019
161 Rain 9 1002 100 5000 2.1 320 06:29 15.10.2019
162 Rain 9 1002 93 10000 2.1 280 05:48 15.10.2019
163 Rain 9 1002 93 10000 2.1 280 05:29 15.10.2019
164 Rain 9 1001 93 10000 1.5 0 04:39 15.10.2019
165 Rain 9 1001 93 10000 2.6 320 03:38 15.10.2019
166 Rain 9 1001 93 10000 2.6 340 02:51 15.10.2019
167 Rain 9 1001 93 10000 2.6 350 01:49 15.10.2019
168 Rain 9 1002 93 10000 3.1 10 01:22 15.10.2019
169 Rain 10 1002 93 8000 3.1 360 00:50 15.10.2019
170 Rain 10 1002 93 10000 3.6 10 00:22 15.10.2019
171 Rain 10 1002 93 10000 2.6 360 23:46 14.10.2019
172 Rain 10 1002 93 10000 4.1 30 23:21 14.10.2019
173 Rain 10 1002 93 10000 4.1 30 22:59 14.10.2019
174 Rain 10 1003 93 10000 4.6 40 22:38 14.10.2019
175 Rain 10 1003 87 10000 4.1 50 22:19 14.10.2019
176 Rain 10 1003 87 10000 5.1 50 21:56 14.10.2019
177 Rain 10 1003 87 10000 5.1 50 21:56 14.10.2019
178 Rain 10 1003 87 10000 5.1 50 21:37 14.10.2019
179 Rain 10 1004 87 10000 3.6 40 21:19 14.10.2019
180 Rain 10 1004 87 10000 4.1 40 20:55 14.10.2019
181 Rain 10 1004 87 10000 4.1 40 20:36 14.10.2019
182 Rain 10 1004 87 10000 3.1 50 20:18 14.10.2019
183 Rain 11 1004 87 10000 2.6 60 19:41 14.10.2019
184 Rain 11 1004 87 10000 3.1 70 19:23 14.10.2019
185 Rain 11 1005 93 10000 2.6 60 18:58 14.10.2019
186 Rain 11 1005 93 10000 2.6 60 18:39 14.10.2019
187 Rain 11 1005 87 10000 2.1 70 18:19 14.10.2019
188 Rain 12 1006 81 10000 1.5 0 17:57 14.10.2019
189 Rain 12 1006 81 10000 1.5 0 17:57 14.10.2019
190 Rain 12 1006 81 10000 1.5 0 17:38 14.10.2019
191 Rain 12 1006 81 10000 1.5 0 17:38 14.10.2019
192 Rain 12 1006 76 10000 1.5 0 17:19 14.10.2019
193 Clouds 13 1006 82 10000 1.5 0 16:43 14.10.2019
194 Clouds 13 1006 82 10000 1.5 0 16:21 14.10.2019
195 Clouds 13 1006 76 10000 2.6 110 15:42 14.10.2019
196 Mist 13 1006 76 10000 3.6 120 15:23 14.10.2019
197 Clouds 13 1007 82 10000 1.5 0 14:57 14.10.2019
198 Clouds 13 1007 82 10000 1.5 0 14:57 14.10.2019
199 Clouds 13 1007 82 10000 1.5 0 14:39 14.10.2019
200 Clouds 13 1007 82 10000 1.5 0 14:19 14.10.2019
201 Clouds 12 1007 82 10000 1.5 0 13:44 14.10.2019
202 Haze 12 1008 76 10000 1.5 0 13:21 14.10.2019
203 Fog 12 1008 82 10000 1.5 0 12:55 14.10.2019
204 Fog 12 1008 82 10000 1.5 0 12:55 14.10.2019
205 Fog 11 1008 82 10000 1.5 0 12:36 14.10.2019
206 Clouds 11 1008 87 10000 1.5 0 12:18 14.10.2019
207 Clouds 10 1008 93 10000 2.1 60 11:44 14.10.2019
208 Rain 10 1008 87 10000 1 0 11:24 14.10.2019
209 Rain 9 1008 93 10000 1.5 80 10:55 14.10.2019
210 Rain 9 1008 93 10000 1.5 80 10:37 14.10.2019
211 Clouds 8 1009 93 10000 0.5 0 10:18 14.10.2019
212 Clouds 9 1009 93 10000 0.5 0 10:18 14.10.2019
213 Clouds 8 1009 93 10000 0.5 0 09:41 14.10.2019
214 Clouds 8 1009 93 10000 0.5 0 09:41 14.10.2019
215 Clouds 8 1008 93 10000 1 0 09:20 14.10.2019
216 Clouds 8 1008 93 10000 1 0 08:49 14.10.2019
217 Clouds 8 1008 93 10000 1 90 08:23 14.10.2019
218 Clouds 8 1009 93 10000 1 0 07:47 14.10.2019
219 Clouds 8 1009 93 10000 1.5 120 07:24 14.10.2019
220 Clouds 8 1009 93 10000 1 90 06:57 14.10.2019
221 Clouds 8 1009 93 10000 1 90 06:28 14.10.2019
222 Clouds 8 1009 87 10000 1 0 05:55 14.10.2019
223 Clouds 7 1009 87 10000 1.5 0 04:59 14.10.2019
224 Clouds 7 1009 93 10000 1 0 03:50 14.10.2019
225 Clouds 8 1008 93 10000 2.1 170 03:22 14.10.2019
226 Clouds 8 1008 93 10000 2.1 190 01:56 14.10.2019
227 Clouds 8 1008 93 10000 2.6 200 01:18 14.10.2019
228 Clouds 8 1007 93 10000 2.1 200 00:40 14.10.2019
229 Clouds 9 1007 93 10000 2.6 180 00:18 14.10.2019
230 Clouds 9 1007 93 10000 2.1 190 23:40 13.10.2019
231 Clear 9 1007 93 10000 2.1 160 23:19 13.10.2019
232 Clouds 9 1007 93 10000 2.6 180 22:55 13.10.2019
233 Clouds 9 1007 93 10000 2.6 180 22:55 13.10.2019
234 Clouds 9 1007 93 10000 2.6 180 22:55 13.10.2019
235 Clouds 9 1007 93 10000 2.6 180 22:37 13.10.2019
236 Clouds 9 1006 93 10000 2.1 170 22:19 13.10.2019
237 Clouds 9 1006 93 10000 2.1 170 22:19 13.10.2019
238 Clouds 10 1006 87 10000 1 0 21:55 13.10.2019
239 Clouds 10 1005 87 10000 2.6 240 21:36 13.10.2019
240 Clouds 10 1005 87 10000 2.6 240 21:18 13.10.2019
241 Clouds 10 1005 87 10000 2.6 240 21:18 13.10.2019
242 Drizzle 10 1004 81 10000 5.7 250 20:55 13.10.2019
243 Drizzle 10 1004 81 10000 5.7 250 20:55 13.10.2019
244 Rain 10 1004 81 10000 5.7 250 20:37 13.10.2019
245 Rain 11 1003 81 10000 6.7 260 20:18 13.10.2019
246 Rain 11 1003 76 10000 7.7 260 19:54 13.10.2019
247 Rain 11 1003 76 10000 7.7 260 19:54 13.10.2019
248 Drizzle 11 1003 76 10000 7.7 260 19:36 13.10.2019
249 Rain 11 1002 81 10000 7.2 250 19:18 13.10.2019
250 Rain 12 1001 82 10000 9.8 250 18:40 13.10.2019
251 Rain 12 999 87 10000 3.6 210 18:20 13.10.2019
252 Rain 12 999 93 10000 2.1 0 17:59 13.10.2019
253 Rain 12 999 93 10000 2.1 0 17:41 13.10.2019
254 Rain 12 999 93 9000 1.5 0 17:22 13.10.2019
255 Rain 12 999 87 7000 1.5 0 16:43 13.10.2019
256 Rain 12 999 87 10000 1 0 16:19 13.10.2019
257 Rain 12 998 87 10000 1.5 0 15:57 13.10.2019
258 Rain 12 998 87 10000 1.5 0 15:57 13.10.2019
259 Rain 12 998 87 10000 1.5 0 15:39 13.10.2019
260 Rain 12 999 87 10000 1 0 15:20 13.10.2019
261 Rain 12 999 87 10000 1 0 14:57 13.10.2019
262 Rain 12 999 87 10000 1 0 14:38 13.10.2019
263 Rain 12 999 87 10000 1 0 14:19 13.10.2019
264 Drizzle 11 999 87 10000 0.5 0 13:42 13.10.2019
265 Drizzle 11 999 81 10000 1 0 13:23 13.10.2019
266 Drizzle 11 999 81 10000 1 0 12:59 13.10.2019
267 Rain 11 999 87 10000 1 0 12:39 13.10.2019
268 Drizzle 11 999 93 10000 1.5 0 12:21 13.10.2019
269 Rain 11 999 93 10000 1.5 0 11:59 13.10.2019
270 Rain 11 999 93 10000 2.6 40 11:39 13.10.2019
271 Rain 11 1000 93 10000 1 0 11:20 13.10.2019
272 Rain 11 1000 93 10000 1 0 10:57 13.10.2019
273 Rain 11 1000 93 10000 1 0 10:38 13.10.2019
274 Rain 11 1001 93 10000 1 0 10:20 13.10.2019
275 Rain 11 1001 93 10000 1 0 09:39 13.10.2019
276 Rain 11 1001 87 10000 1 0 09:21 13.10.2019
277 Rain 11 1002 87 10000 1.5 0 08:45 13.10.2019
278 Rain 11 1002 93 10000 1.5 0 08:26 13.10.2019
279 Rain 11 1002 93 10000 2.6 130 07:52 13.10.2019
280 Fog 11 1003 93 10000 1.5 0 07:33 13.10.2019
281 Fog 11 1003 93 10000 1.5 0 06:54 13.10.2019
282 Fog 11 1003 93 10000 1.5 0 06:54 13.10.2019
283 Fog 11 1003 93 10000 2.1 120 06:24 13.10.2019
284 Fog 11 1003 93 10000 2.1 120 06:24 13.10.2019
285 Clouds 11 1003 93 10000 2.1 130 05:27 13.10.2019
286 Clouds 10 1004 93 10000 1.5 0 04:35 13.10.2019
287 Clouds 11 1005 93 10000 0.5 0 03:34 13.10.2019
288 Rain 11 1005 93 10000 1 0 02:31 13.10.2019
289 Rain 11 1005 93 10000 1 0 02:31 13.10.2019
290 Rain 11 1005 93 10000 1.5 0 01:37 13.10.2019
291 Rain 11 1006 87 10000 2.1 180 00:56 13.10.2019
292 Rain 11 1006 87 10000 2.1 180 00:56 13.10.2019
293 Clouds 11 1006 87 10000 2.1 180 00:38 13.10.2019
294 Rain 11 1006 87 10000 2.1 180 00:19 13.10.2019
295 Rain 11 1006 93 10000 2.1 190 23:42 12.10.2019
296 Rain 11 1006 93 10000 2.1 180 23:23 12.10.2019
297 Rain 11 1006 87 10000 1 0 22:58 12.10.2019
298 Rain 11 1006 87 10000 1 0 22:40 12.10.2019
299 Rain 11 1006 93 10000 1 0 22:22 12.10.2019
300 Rain 11 1006 93 10000 1 0 21:58 12.10.2019
301 Rain 11 1006 93 10000 1 0 21:58 12.10.2019
302 Rain 11 1006 93 10000 1.5 0 21:39 12.10.2019
303 Rain 11 1006 93 10000 1.5 0 21:21 12.10.2019
304 Rain 11 1006 93 10000 1 120 20:46 12.10.2019
305 Rain 11 1006 93 10000 1 120 20:46 12.10.2019
306 Rain 11 1006 93 10000 1 150 20:28 12.10.2019
307 Clouds 12 1005 93 10000 1.5 140 19:57 12.10.2019
308 Clouds 12 1005 93 10000 1.5 140 19:36 12.10.2019
309 Clouds 12 1006 93 10000 1.5 0 19:18 12.10.2019
310 Clouds 13 1006 93 10000 1.5 0 18:41 12.10.2019
311 Rain 13 1006 87 10000 1.5 0 18:23 12.10.2019
312 Rain 13 1006 87 10000 1.5 0 17:45 12.10.2019
313 Rain 14 1005 82 10000 4.1 200 17:21 12.10.2019
314 Rain 14 1006 71 10000 3.1 220 16:57 12.10.2019
315 Rain 14 1006 71 10000 3.1 220 16:57 12.10.2019
316 Rain 14 1006 71 10000 3.1 220 16:38 12.10.2019
317 Rain 14 1006 71 10000 4.1 210 16:19 12.10.2019
318 Rain 14 1006 72 10000 3.1 210 15:45 12.10.2019
319 Rain 14 1006 71 10000 3.6 220 15:26 12.10.2019
320 Rain 14 1006 71 10000 3.6 220 14:59 12.10.2019
321 Clouds 14 1006 76 10000 4.1 220 14:38 12.10.2019
322 Rain 14 1006 76 10000 3.6 210 14:19 12.10.2019
323 Clouds 14 1006 82 10000 2.6 200 13:45 12.10.2019
324 Clouds 13 1006 81 10000 3.1 220 13:27 12.10.2019
325 Clouds 13 1006 87 10000 3.1 200 12:41 12.10.2019
326 Clouds 12 1006 81 10000 3.1 220 12:22 12.10.2019
327 Clouds 12 1006 81 10000 3.1 220 12:22 12.10.2019
328 Clouds 12 1006 81 10000 3.1 220 11:59 12.10.2019
329 Clouds 11 1006 87 10000 2.6 210 11:40 12.10.2019
330 Clouds 11 1005 93 10000 2.6 210 11:22 12.10.2019
331 -273 0 0 0 0 0 10:56 12.10.2019
332 Clouds 10 1005 93 10000 2.6 210 10:37 12.10.2019
333 Clouds 9 1005 93 10000 2.6 210 10:18 12.10.2019
334 Clouds 9 1005 93 10000 2.1 200 09:55 12.10.2019
335 Clouds 9 1005 93 10000 2.1 200 09:37 12.10.2019
336 Clouds 9 1004 93 10000 2.1 200 09:18 12.10.2019
337 Clouds 8 1004 100 10000 2.6 200 08:41 12.10.2019
338 Clouds 8 1004 100 10000 2.6 200 08:41 12.10.2019
339 Clear 8 1004 93 10000 3.1 190 08:20 12.10.2019
340 Clear 8 1004 93 10000 3.1 190 08:20 12.10.2019
341 Clear 8 1004 93 10000 3.1 190 08:20 12.10.2019
342 Clear 9 1004 93 10000 2.6 180 07:35 12.10.2019
343 Clouds 9 1004 93 10000 3.1 190 07:35 12.10.2019
344 Clouds 9 1003 93 10000 3.1 180 06:59 12.10.2019
345 Clouds 9 1003 93 10000 2.6 180 05:48 12.10.2019
346 Clouds 9 1003 93 10000 2.6 190 05:24 12.10.2019
347 Clouds 9 1003 93 10000 3.1 190 04:24 12.10.2019
348 Clouds 10 1003 93 10000 2.6 190 03:33 12.10.2019
349 Rain 10 1003 93 10000 2.6 210 01:50 12.10.2019
350 Rain 11 1003 87 10000 2.6 220 01:24 12.10.2019
351 Rain 11 1003 87 10000 2.6 200 00:42 12.10.2019
352 Rain 11 1002 87 10000 3.6 220 00:19 12.10.2019
353 Rain 11 1002 93 10000 2.6 200 23:40 11.10.2019
354 Rain 11 1002 93 10000 2.6 200 23:40 11.10.2019
355 Rain 11 1002 87 10000 2.6 210 23:20 11.10.2019
356 Rain 11 1002 87 10000 3.1 220 22:41 11.10.2019
357 Rain 11 1002 87 10000 3.1 220 22:41 11.10.2019
358 Rain 11 1002 87 10000 1.5 0 22:21 11.10.2019
359 Rain 11 1002 87 10000 1.5 0 21:57 11.10.2019
360 Rain 12 1002 81 10000 2.6 190 21:39 11.10.2019
361 Rain 12 1002 76 10000 2.6 200 21:20 11.10.2019
362 Rain 12 1002 76 10000 3.1 220 20:44 11.10.2019
363 Rain 12 1001 76 10000 4.6 220 20:26 11.10.2019
364 Rain 12 1001 81 10000 4.1 230 19:58 11.10.2019
365 Rain 12 1001 81 10000 4.1 230 19:39 11.10.2019
366 Clouds 12 1001 81 10000 2.6 230 19:18 11.10.2019
367 Clouds 13 1001 76 10000 3.6 250 18:58 11.10.2019
368 Clouds 13 1001 76 10000 3.6 250 18:38 11.10.2019
369 Rain 13 1001 82 10000 3.6 250 18:19 11.10.2019
370 Rain 13 1001 76 10000 4.1 250 17:58 11.10.2019
371 Rain 14 1001 76 10000 4.1 250 17:37 11.10.2019
372 Clouds 14 1000 76 10000 4.1 250 17:19 11.10.2019
373 Clouds 14 1000 76 10000 3.6 240 16:56 11.10.2019
374 Clouds 14 1000 76 10000 3.6 240 16:37 11.10.2019
375 Rain 14 1000 82 10000 4.6 240 16:18 11.10.2019
376 Rain 14 1000 82 10000 4.6 240 16:18 11.10.2019
377 Clouds 14 1000 82 10000 3.6 230 15:41 11.10.2019
378 Clouds 13 1000 82 10000 2.6 220 15:19 11.10.2019
379 Rain 13 1000 87 10000 2.1 220 14:49 11.10.2019
380 Rain 13 1000 87 10000 2.1 220 14:30 11.10.2019
381 Rain 12 1000 87 10000 2.1 210 13:58 11.10.2019
382 Rain 12 1000 87 10000 2.6 240 13:40 11.10.2019
383 Rain 12 1000 93 10000 4.6 280 13:22 11.10.2019
384 Rain 12 1000 100 8000 4.1 240 12:56 11.10.2019
385 Rain 12 1000 100 8000 4.1 240 12:38 11.10.2019
386 Rain 12 999 93 4000 3.1 260 12:19 11.10.2019
387 Rain 13 999 93 2400 3.6 260 11:41 11.10.2019
388 Rain 13 999 93 2400 3.6 260 11:41 11.10.2019
389 Rain 13 999 93 1500 3.1 260 11:22 11.10.2019
390 Rain 13 999 93 1500 3.1 260 11:22 11.10.2019
391 Rain 12 999 93 1500 3.6 210 10:59 11.10.2019
392 Rain 12 999 93 1500 3.6 210 10:59 11.10.2019
393 Rain 12 999 93 1500 3.6 210 10:41 11.10.2019
394 Rain 12 1000 93 10000 3.1 220 10:23 11.10.2019
395 Rain 13 1000 93 10000 4.1 200 09:56 11.10.2019
396 Rain 13 1000 93 10000 4.1 200 09:37 11.10.2019
397 Rain 13 1000 93 10000 4.1 190 09:19 11.10.2019
398 Rain 13 1000 93 10000 3.6 190 08:55 11.10.2019
399 Rain 13 1000 93 10000 3.6 190 08:36 11.10.2019
400 Rain 13 1000 93 8000 2.6 210 08:18 11.10.2019
401 Rain 13 1001 87 4000 3.6 210 07:44 11.10.2019
402 Rain 13 1001 87 5000 4.1 200 07:25 11.10.2019
403 Rain 13 1001 87 10000 3.6 200 06:48 11.10.2019
404 Rain 13 1001 87 10000 3.6 200 06:23 11.10.2019
405 Rain 13 1002 87 5000 3.6 210 05:39 11.10.2019
406 Rain 13 1002 87 10000 4.1 200 04:59 11.10.2019
407 Rain 13 1002 76 10000 5.7 200 04:24 11.10.2019
408 Rain 13 1003 87 10000 4.6 200 02:32 11.10.2019
409 Rain 13 1003 76 10000 4.1 220 00:47 11.10.2019
410 Rain 13 1003 76 10000 6.2 220 00:27 11.10.2019
411 Rain 14 1003 77 10000 7.2 230 23:44 10.10.2019
412 Rain 14 1002 93 10000 6.7 220 23:22 10.10.2019
413 Rain 14 1002 93 10000 6.2 200 22:57 10.10.2019
414 Rain 14 1002 93 10000 6.2 200 22:39 10.10.2019
415 Rain 14 1002 87 10000 5.1 190 22:20 10.10.2019
416 Rain 13 1003 93 10000 4.1 190 21:57 10.10.2019
417 Rain 13 1003 93 10000 4.1 190 21:38 10.10.2019
418 Rain 13 1003 93 7000 3.1 180 21:20 10.10.2019
419 Rain 14 1003 87 10000 4.6 190 20:42 10.10.2019
420 Rain 14 1004 82 4100 4.6 200 20:21 10.10.2019
421 Rain 14 1004 82 10000 3.6 200 19:58 10.10.2019
422 Rain 14 1004 82 10000 3.6 200 19:40 10.10.2019
423 Rain 14 1004 82 10000 3.6 200 19:40 10.10.2019
424 Drizzle 14 1004 87 10000 3.1 200 19:20 10.10.2019
425 Drizzle 14 1004 87 10000 3.1 200 19:20 10.10.2019
426 Rain 14 1004 82 10000 4.6 200 18:57 10.10.2019
427 Rain 14 1004 82 10000 4.6 200 18:38 10.10.2019
428 Rain 14 1005 82 10000 5.1 200 18:19 10.10.2019
429 Rain 13 1005 87 10000 5.1 200 17:41 10.10.2019
430 Rain 13 1005 82 10000 4.6 200 17:21 10.10.2019
431 Rain 13 1006 76 10000 6.2 210 16:59 10.10.2019
432 Rain 13 1006 76 10000 6.2 210 16:41 10.10.2019
433 Rain 13 1006 82 10000 4.6 200 16:22 10.10.2019
434 Rain 13 1007 82 6000 5.1 210 15:44 10.10.2019
435 Rain 13 1007 76 10000 4.1 210 15:25 10.10.2019
436 Rain 13 1007 76 10000 4.1 210 14:59 10.10.2019
437 Rain 13 1007 76 10000 3.6 210 14:59 10.10.2019
438 Rain 13 1007 76 10000 3.6 210 14:38 10.10.2019
439 Rain 13 1007 76 10000 3.6 210 14:38 10.10.2019
440 Rain 13 1007 71 10000 4.6 220 14:19 10.10.2019
441 Rain 13 1007 71 10000 4.6 220 13:59 10.10.2019
442 Rain 14 1008 67 10000 8.2 240 13:40 10.10.2019
443 Rain 14 1008 71 10000 6.2 230 13:19 10.10.2019
444 Rain 14 1008 71 10000 6.2 230 13:19 10.10.2019
445 Rain 13 1008 76 10000 3.1 210 12:55 10.10.2019
446 Rain 13 1008 76 10000 3.1 210 12:37 10.10.2019
447 Rain 13 1008 71 10000 6.7 240 12:18 10.10.2019
448 -273 0 0 0 0 0 11:55 10.10.2019
449 Rain 12 1008 81 10000 5.1 230 11:36 10.10.2019
450 Clouds 12 1008 76 10000 3.6 220 11:18 10.10.2019
451 Clouds 11 1007 81 10000 3.1 210 10:43 10.10.2019
452 Rain 11 1007 87 10000 2.1 190 10:25 10.10.2019
453 Rain 10 1007 87 10000 2.6 190 09:55 10.10.2019
454 Rain 10 1007 87 10000 2.6 190 09:37 10.10.2019
455 Rain 10 1006 87 10000 3.1 220 09:19 10.10.2019
456 Rain 10 1006 87 10000 3.6 230 08:41 10.10.2019
457 Rain 10 1006 87 10000 5.1 230 08:22 10.10.2019
458 Rain 10 1006 81 10000 4.1 230 07:58 10.10.2019
459 Rain 10 1005 93 10000 3.1 230 07:37 10.10.2019
460 Rain 10 1005 93 10000 3.1 230 07:19 10.10.2019
461 Rain 10 1005 93 10000 3.6 230 06:40 10.10.2019
462 Rain 9 1005 87 10000 3.1 220 05:57 10.10.2019
463 Rain 9 1004 93 10000 2.6 210 05:22 10.10.2019
464 Rain 9 1004 93 10000 1 0 04:36 10.10.2019
465 Rain 10 1003 87 10000 3.6 210 02:46 10.10.2019
466 Rain 9 1003 87 10000 3.6 200 01:39 10.10.2019
467 Rain 9 1003 87 10000 3.6 200 01:39 10.10.2019
468 Rain 9 1003 87 10000 3.1 200 01:21 10.10.2019
469 Rain 9 1003 93 10000 4.1 220 00:41 10.10.2019
470 Rain 9 1003 87 10000 3.6 210 23:57 09.10.2019
471 Rain 9 1003 87 10000 3.6 200 23:36 09.10.2019
472 Rain 9 1002 87 10000 3.6 200 23:18 09.10.2019
473 Rain 9 1002 81 10000 3.1 200 22:41 09.10.2019
474 Rain 9 1002 81 10000 3.1 190 22:22 09.10.2019
475 Rain 9 1002 81 10000 3.1 210 21:58 09.10.2019
476 Rain 10 1002 81 10000 3.1 210 21:39 09.10.2019
477 Rain 10 1002 81 10000 3.1 210 21:39 09.10.2019
478 Rain 10 1002 76 10000 3.6 230 21:19 09.10.2019
479 Rain 10 1001 81 10000 3.6 220 20:55 09.10.2019
480 Rain 10 1001 81 10000 3.6 220 20:37 09.10.2019
481 Rain 11 1001 76 10000 3.1 200 20:18 09.10.2019
482 Rain 11 1001 76 10000 3.1 200 20:18 09.10.2019
483 Rain 11 1001 76 10000 2.6 210 19:44 09.10.2019
484 Rain 11 1001 71 10000 3.6 230 19:23 09.10.2019
485 Rain 12 1001 66 10000 5.1 240 18:40 09.10.2019
486 Rain 12 1001 62 10000 7.2 240 18:21 09.10.2019
487 Rain 12 1001 62 10000 7.2 240 17:59 09.10.2019
488 Rain 12 1001 66 10000 5.1 250 17:40 09.10.2019
489 Rain 12 1001 66 10000 5.1 250 17:40 09.10.2019
490 Rain 12 1001 71 10000 5.7 260 17:22 09.10.2019
491 Rain 12 1001 71 10000 5.7 260 16:58 09.10.2019
492 Rain 12 1001 66 10000 6.2 250 16:40 09.10.2019
493 Rain 12 1001 71 10000 4.6 260 16:21 09.10.2019
494 Rain 12 1001 62 10000 7.7 250 15:57 09.10.2019
495 Rain 12 1001 62 10000 7.7 250 15:38 09.10.2019
496 Rain 13 1001 58 10000 7.7 250 15:19 09.10.2019
497 Rain 13 1001 62 10000 8.2 240 14:55 09.10.2019
498 Rain 13 1001 62 10000 8.2 240 14:36 09.10.2019
499 Rain 13 1001 62 10000 8.2 240 14:36 09.10.2019
500 Rain 12 1001 62 10000 8.7 260 14:18 09.10.2019
501 Rain 12 1001 66 10000 7.2 260 13:38 09.10.2019
502 Rain 12 1001 71 10000 7.2 250 13:19 09.10.2019
503 Rain 12 1001 76 10000 6.7 230 12:55 09.10.2019
504 Rain 12 1001 76 10000 6.7 230 12:37 09.10.2019
505 Rain 12 1001 76 10000 4.1 220 12:18 09.10.2019
506 Rain 11 1001 81 10000 4.6 210 11:40 09.10.2019
507 Rain 11 1001 81 10000 3.6 210 11:20 09.10.2019
508 Rain 11 1001 87 10000 3.6 210 10:59 09.10.2019
509 Rain 11 1001 87 10000 3.6 210 10:40 09.10.2019
510 Rain 10 1001 87 10000 3.6 200 10:19 09.10.2019
511 Rain 10 1001 87 10000 3.6 200 10:19 09.10.2019
512 Rain 10 1001 87 10000 3.1 200 09:43 09.10.2019
513 Rain 10 1001 87 10000 2.6 190 09:20 09.10.2019
514 Rain 9 1001 87 10000 2.6 180 08:58 09.10.2019
515 Rain 10 1001 87 10000 2.6 180 08:38 09.10.2019
516 Rain 9 1000 87 10000 3.1 200 08:19 09.10.2019
517 Rain 10 1000 87 10000 2.6 190 07:47 09.10.2019
518 Rain 10 1000 87 10000 3.1 190 07:24 09.10.2019
519 Rain 10 1000 87 10000 3.1 180 06:56 09.10.2019
520 Rain 10 1000 87 10000 2.6 190 06:25 09.10.2019
521 Rain 10 1000 87 10000 3.1 200 05:51 09.10.2019
522 Rain 10 1001 87 10000 2.6 190 04:41 09.10.2019
523 Rain 10 1001 87 10000 3.6 190 03:43 09.10.2019
524 Rain 10 1001 87 10000 3.6 190 03:43 09.10.2019
525 Rain 10 1001 87 10000 3.1 190 01:55 09.10.2019
526 Rain 10 1001 87 10000 3.1 200 01:22 09.10.2019
527 Rain 10 1001 87 10000 4.1 210 00:59 09.10.2019
528 Rain 10 1001 87 10000 4.1 210 00:40 09.10.2019
529 Rain 10 1001 81 10000 4.1 210 00:22 09.10.2019
530 Rain 10 1001 81 10000 4.1 210 00:22 09.10.2019
531 Rain 10 1001 81 10000 4.1 220 23:57 08.10.2019
532 Rain 10 1001 81 10000 4.1 220 23:37 08.10.2019
533 Rain 11 1001 81 10000 4.1 210 23:18 08.10.2019
534 Rain 11 1001 81 10000 4.1 210 22:39 08.10.2019
535 Rain 11 1001 76 10000 4.1 210 22:20 08.10.2019
536 Rain 11 1001 76 10000 4.1 210 21:58 08.10.2019
537 Rain 11 1001 76 10000 4.1 210 21:39 08.10.2019
538 Clear 11 1001 76 10000 3.1 190 21:19 08.10.2019
539 Clear 12 1001 76 10000 3.1 190 20:57 08.10.2019
540 Clear 12 1001 76 10000 3.1 190 20:57 08.10.2019
541 Clear 12 1001 76 10000 3.1 190 20:57 08.10.2019
542 Clouds 12 1001 71 10000 3.6 210 20:39 08.10.2019
543 Clouds 12 1000 71 10000 4.6 210 20:21 08.10.2019
544 Clouds 12 1000 71 10000 4.6 210 19:58 08.10.2019
545 Rain 12 1000 71 10000 5.1 220 19:58 08.10.2019
546 Clouds 12 1000 71 10000 4.6 210 19:58 08.10.2019
547 Rain 12 1000 71 10000 5.1 220 19:40 08.10.2019
548 Rain 12 1000 71 10000 6.7 230 19:21 08.10.2019
549 Rain 12 1000 71 10000 6.7 230 19:21 08.10.2019
550 Rain 13 1000 66 10000 7.7 240 18:55 08.10.2019
551 Rain 13 1000 66 10000 7.7 240 18:55 08.10.2019
552 Rain 13 1000 66 10000 7.7 240 18:36 08.10.2019
553 Clouds 13 1000 62 10000 7.2 240 18:18 08.10.2019
554 Rain 14 1000 81 10000 4.6 230 17:40 08.10.2019
555 Clouds 14 1001 67 10000 4.6 210 17:21 08.10.2019
556 Clouds 14 1001 58 10000 6.7 240 16:59 08.10.2019
557 Clouds 14 1001 58 10000 6.7 240 16:40 08.10.2019
558 Rain 14 1001 58 10000 6.2 240 16:21 08.10.2019
559 Clouds 14 1001 54 10000 8.7 250 15:41 08.10.2019
560 Clouds 14 1001 58 10000 7.2 250 15:22 08.10.2019
561 Clouds 14 1001 58 10000 7.2 250 15:22 08.10.2019
562 Clouds 14 1001 58 10000 8.2 240 14:58 08.10.2019
563 Clouds 15 1001 58 10000 8.2 240 14:39 08.10.2019
564 Clouds 14 1001 72 10000 6.7 240 14:21 08.10.2019
565 Rain 14 1001 71 10000 6.2 210 13:57 08.10.2019
566 Rain 14 1001 71 10000 6.2 210 13:38 08.10.2019
567 Rain 14 1002 82 10000 4.6 210 13:19 08.10.2019
568 Rain 14 1002 82 10000 4.6 210 12:58 08.10.2019
569 Rain 14 1002 87 10000 4.1 200 12:37 08.10.2019
570 Rain 13 1002 87 10000 3.1 210 12:18 08.10.2019
571 Rain 13 1003 93 10000 2.6 210 11:42 08.10.2019
572 Rain 13 1003 87 9000 5.1 200 11:24 08.10.2019
573 Rain 13 1003 87 10000 4.1 200 10:56 08.10.2019
574 Rain 12 1003 87 10000 4.1 200 10:37 08.10.2019
575 Rain 12 1003 87 10000 4.1 190 10:19 08.10.2019
576 Rain 11 1003 87 10000 4.1 200 09:55 08.10.2019
577 Rain 11 1003 93 10000 3.6 200 09:37 08.10.2019
578 Rain 10 1003 93 10000 3.6 200 09:19 08.10.2019
579 Rain 10 1003 87 10000 3.1 190 08:42 08.10.2019
580 Rain 10 1003 93 10000 3.6 190 08:23 08.10.2019
581 Clear 10 1004 87 10000 3.1 190 07:44 08.10.2019
582 Clear 10 1004 93 10000 4.1 190 07:21 08.10.2019
583 Clear 10 1004 93 10000 3.6 190 06:50 08.10.2019
584 Clear 10 1004 93 10000 3.6 190 06:28 08.10.2019
585 Clear 10 1005 93 10000 2.6 210 05:46 08.10.2019
586 Clear 10 1005 93 10000 3.1 200 05:25 08.10.2019
587 Clear 10 1005 93 10000 2.6 190 03:57 08.10.2019
588 Clouds 11 1005 93 10000 2.6 190 03:24 08.10.2019
589 Clouds 11 1005 93 10000 2.6 180 02:35 08.10.2019
590 Clouds 11 1005 93 10000 3.1 190 01:44 08.10.2019
591 Clouds 11 1006 87 10000 3.6 190 01:25 08.10.2019
592 Clouds 11 1006 87 10000 3.6 190 00:45 08.10.2019
593 Clouds 12 1006 87 10000 3.1 200 00:20 08.10.2019
594 Clouds 12 1006 87 10000 2.6 200 23:39 07.10.2019
595 Clouds 12 1006 82 10000 2.6 200 23:19 07.10.2019
596 Clouds 12 1006 82 10000 3.6 210 22:55 07.10.2019
597 Clouds 12 1006 82 10000 3.6 210 22:55 07.10.2019
598 Clouds 13 1006 87 10000 2.6 200 22:37 07.10.2019
599 Clouds 13 1006 87 10000 2.6 200 22:19 07.10.2019
600 Clouds 13 1006 87 10000 2.6 200 22:19 07.10.2019
601 Clouds 13 1006 87 10000 2.1 180 21:55 07.10.2019
602 Clouds 13 1006 87 10000 2.1 180 21:37 07.10.2019
603 Rain 13 1007 87 10000 2.1 180 21:18 07.10.2019
604 Rain 13 1007 93 10000 2.6 200 20:56 07.10.2019
605 Rain 13 1007 93 10000 2.6 200 20:38 07.10.2019
606 Rain 13 1007 93 10000 2.6 200 20:38 07.10.2019
607 Clear 13 1006 93 10000 2.6 190 20:19 07.10.2019
608 Clouds 13 1007 93 10000 3.6 190 19:54 07.10.2019
609 Clouds 13 1007 93 10000 3.6 190 19:36 07.10.2019
610 Clouds 13 1007 93 10000 3.6 190 19:18 07.10.2019
611 Clouds 13 1007 93 10000 3.6 190 18:42 07.10.2019
612 Clouds 13 1007 93 10000 3.6 180 18:19 07.10.2019
613 Clouds 13 1008 93 10000 3.6 180 17:58 07.10.2019
614 Clouds 13 1008 93 10000 3.6 180 17:40 07.10.2019
615 Clouds 13 1008 93 10000 3.6 180 17:40 07.10.2019
616 Clouds 13 1008 93 10000 3.6 180 17:40 07.10.2019
617 Clouds 13 1008 93 10000 3.1 180 17:19 07.10.2019
618 Drizzle 12 1008 93 3000 3.6 190 16:46 07.10.2019
619 Drizzle 12 1008 93 3000 3.6 190 16:46 07.10.2019
620 Drizzle 12 1008 93 3000 3.6 190 16:28 07.10.2019
621 Rain 12 1009 87 10000 3.6 180 15:58 07.10.2019
622 Rain 12 1009 87 10000 3.6 180 15:39 07.10.2019
623 Rain 12 1009 87 10000 4.1 180 15:21 07.10.2019
624 Rain 12 1010 81 10000 4.6 180 14:41 07.10.2019
625 Rain 12 1010 76 10000 3.6 180 14:23 07.10.2019
626 Drizzle 12 1011 71 10000 4.1 190 13:45 07.10.2019
627 Drizzle 12 1011 71 10000 4.6 180 13:21 07.10.2019
628 Drizzle 12 1011 71 10000 3.6 0 12:58 07.10.2019
629 Drizzle 11 1011 71 10000 3.6 0 12:40 07.10.2019
630 Rain 11 1012 76 10000 4.1 180 12:21 07.10.2019
631 Rain 11 1012 76 10000 4.1 180 11:59 07.10.2019
632 Rain 11 1012 81 10000 3.6 180 11:40 07.10.2019
633 Rain 11 1012 87 10000 3.6 180 11:21 07.10.2019
634 Rain 11 1013 87 10000 3.1 160 10:56 07.10.2019
635 Rain 11 1013 87 10000 3.1 160 10:37 07.10.2019
636 Rain 10 1013 93 10000 2.6 160 10:19 07.10.2019
637 Rain 10 1014 93 10000 2.6 170 09:38 07.10.2019
638 Rain 10 1014 93 6000 2.1 150 09:20 07.10.2019
639 Rain 10 1014 93 9000 1.5 0 08:43 07.10.2019
640 Rain 10 1015 93 9000 1.5 0 08:20 07.10.2019
641 Rain 10 1015 93 10000 1.5 0 07:55 07.10.2019
642 Rain 10 1015 93 10000 2.6 160 07:28 07.10.2019
643 Rain 10 1015 93 10000 2.6 160 06:58 07.10.2019
644 Rain 10 1015 93 10000 2.6 140 06:39 07.10.2019
645 Rain 10 1015 93 10000 2.6 130 06:19 07.10.2019
646 Clouds 10 1015 93 10000 2.1 150 05:26 07.10.2019
647 Clouds 10 1016 93 10000 2.6 160 04:50 07.10.2019
648 Rain 10 1016 93 10000 1.5 0 03:46 07.10.2019
649 Rain 10 1016 100 10000 1 0 03:27 07.10.2019
650 Clouds 10 1016 100 7000 0.5 0 02:37 07.10.2019
651 Mist 10 1016 100 3600 2.6 210 02:19 07.10.2019
652 Mist 11 1016 100 5000 1 0 01:23 07.10.2019
653 Clouds 11 1016 100 7000 1 0 00:51 07.10.2019
654 Clouds 11 1016 100 7000 1.5 110 00:24 07.10.2019
655 Clouds 11 1016 100 8000 1.5 0 23:59 06.10.2019
656 Clouds 11 1016 100 8000 1.5 0 23:40 06.10.2019
657 Clouds 11 1016 100 8000 1.5 0 23:40 06.10.2019
658 Clouds 11 1015 100 10000 2.1 190 23:19 06.10.2019
659 Clouds 11 1015 100 10000 1.5 0 22:55 06.10.2019
660 Clouds 11 1015 100 10000 1.5 0 22:55 06.10.2019
661 Clouds 11 1015 100 10000 1.5 0 22:37 06.10.2019
662 Drizzle 11 1015 100 10000 1.5 180 22:18 06.10.2019
663 Drizzle 11 1015 100 10000 1 0 21:55 06.10.2019
664 Drizzle 11 1015 100 10000 1 0 21:54 06.10.2019
665 Drizzle 11 1015 100 10000 1 0 21:36 06.10.2019
666 Drizzle 11 1015 100 10000 1 0 21:36 06.10.2019
667 Drizzle 11 1015 100 10000 1 0 21:36 06.10.2019
668 Drizzle 11 1014 100 10000 1.5 0 21:18 06.10.2019
669 Drizzle 11 1014 100 10000 1.5 0 21:18 06.10.2019
670 Rain 11 1014 93 10000 2.1 250 20:54 06.10.2019
671 Rain 11 1014 93 10000 2.1 250 20:54 06.10.2019
672 Rain 11 1014 93 10000 2.1 250 20:36 06.10.2019
673 Rain 11 1014 93 10000 2.1 250 20:36 06.10.2019
674 Rain 11 1014 93 10000 2.1 250 20:36 06.10.2019
675 Rain 12 1014 100 10000 1.5 260 20:18 06.10.2019
676 Rain 12 1013 93 10000 1.5 290 19:54 06.10.2019
677 Rain 12 1013 93 10000 1.5 290 19:36 06.10.2019
678 Rain 12 1013 93 10000 2.6 270 19:18 06.10.2019
679 Rain 13 1013 93 10000 4.1 300 18:54 06.10.2019
680 Rain 13 1013 93 10000 4.1 300 18:36 06.10.2019
681 Rain 13 1013 87 10000 4.6 310 18:18 06.10.2019
682 Rain 13 1012 87 10000 5.7 280 17:42 06.10.2019
683 Rain 13 1012 82 10000 6.7 290 17:19 06.10.2019
684 Rain 13 1012 82 10000 7.2 290 16:54 06.10.2019
685 Rain 13 1012 82 10000 7.2 290 16:54 06.10.2019
686 Rain 14 1012 82 10000 7.2 290 16:36 06.10.2019
687 Rain 14 1011 82 10000 6.7 280 16:18 06.10.2019
688 Rain 14 1011 76 10000 7.2 290 15:42 06.10.2019
689 Rain 14 1010 76 10000 7.2 290 15:19 06.10.2019
690 Rain 14 1010 82 10000 6.7 290 14:44 06.10.2019
691 Rain 14 1010 82 10000 8.2 290 14:25 06.10.2019
692 Rain 14 1009 82 10000 7.7 280 13:58 06.10.2019
693 Rain 14 1009 82 10000 7.7 280 13:39 06.10.2019
694 Rain 14 1009 82 10000 7.7 280 13:39 06.10.2019
695 Rain 14 1009 82 10000 6.7 290 13:21 06.10.2019
696 Rain 13 1009 87 10000 6.2 280 12:57 06.10.2019
697 Rain 13 1009 87 10000 6.2 280 12:39 06.10.2019
698 Rain 13 1009 93 10000 5.1 280 12:20 06.10.2019
699 Rain 13 1009 93 10000 5.1 280 12:20 06.10.2019
700 Rain 13 1009 87 10000 5.1 270 11:57 06.10.2019
701 Rain 13 1009 87 10000 5.1 270 11:57 06.10.2019
702 Rain 12 1008 93 10000 4.1 290 11:38 06.10.2019
703 Rain 12 1008 93 10000 4.1 290 11:20 06.10.2019
704 Rain 12 1008 93 10000 4.6 300 10:44 06.10.2019
705 Rain 12 1008 93 10000 4.6 300 10:44 06.10.2019
706 Rain 12 1008 87 6000 5.7 280 10:26 06.10.2019
707 Rain 12 1008 87 6000 5.7 280 09:58 06.10.2019
708 Rain 12 1007 87 4900 5.7 260 09:39 06.10.2019
709 Rain 12 1007 93 10000 4.6 260 09:18 06.10.2019
710 Rain 12 1007 87 10000 4.1 260 08:43 06.10.2019
711 Rain 12 1007 100 5000 4.6 260 08:21 06.10.2019
712 Drizzle 12 1006 93 10000 4.1 240 07:44 06.10.2019
713 Clouds 12 1006 87 10000 4.1 230 07:19 06.10.2019
714 Rain 12 1006 87 10000 4.6 230 06:20 06.10.2019
715 Rain 12 1005 93 8000 5.1 200 05:34 06.10.2019
716 Rain 11 1007 93 1900 4.1 120 03:42 06.10.2019
717 Rain 11 1008 87 10000 2.6 0 02:43 06.10.2019
718 Rain 11 1009 87 10000 3.6 130 02:21 06.10.2019
719 Rain 11 1009 87 10000 4.1 120 01:44 06.10.2019
720 Rain 11 1010 87 10000 3.1 0 01:26 06.10.2019
721 Rain 11 1011 87 10000 3.1 130 00:52 06.10.2019
722 Rain 11 1011 87 10000 2.1 0 00:26 06.10.2019
723 Rain 12 1011 93 5000 3.1 120 23:44 05.10.2019
724 Rain 12 1012 87 6000 2.1 130 23:22 05.10.2019
725 Rain 12 1012 87 6000 2.1 130 22:58 05.10.2019
726 Rain 12 1012 82 6000 2.6 120 22:40 05.10.2019
727 Rain 12 1012 82 6000 2.6 120 22:40 05.10.2019
728 Rain 12 1012 82 10000 2.1 130 22:20 05.10.2019
729 Rain 12 1012 82 10000 2.1 130 22:20 05.10.2019
730 Drizzle 13 1012 76 10000 2.1 130 21:56 05.10.2019
731 Drizzle 13 1012 76 10000 2.1 130 21:37 05.10.2019
732 Clouds 13 1012 82 10000 2.1 0 21:18 05.10.2019
733 Clouds 13 1013 82 10000 2.6 120 20:55 05.10.2019
734 Clouds 13 1013 82 10000 2.6 120 20:55 05.10.2019
735 Clouds 13 1013 82 10000 2.6 120 20:36 05.10.2019
736 Rain 13 1013 82 10000 2.6 130 20:18 05.10.2019
737 Rain 13 1013 82 10000 2.1 0 19:37 05.10.2019
738 Rain 13 1013 76 10000 2.1 150 19:19 05.10.2019
739 Rain 14 1013 76 10000 2.1 140 18:55 05.10.2019
740 Rain 14 1013 76 10000 2.1 140 18:37 05.10.2019
741 Rain 14 1013 76 10000 2.6 140 18:19 05.10.2019
742 Clouds 14 1013 76 10000 2.6 0 17:43 05.10.2019
743 Clouds 14 1013 76 10000 2.6 140 17:23 05.10.2019
744 Clouds 15 1013 76 10000 2.6 0 16:57 05.10.2019
745 Clouds 15 1013 76 10000 2.6 0 16:39 05.10.2019
746 Clouds 15 1014 72 10000 2.6 140 16:20 05.10.2019
747 Clouds 15 1014 72 10000 2.6 140 16:20 05.10.2019
748 Clouds 15 1014 67 10000 2.1 150 15:56 05.10.2019
749 Clouds 15 1014 67 10000 2.1 150 15:38 05.10.2019
750 Clouds 15 1014 67 10000 2.6 140 15:19 05.10.2019
751 Clouds 15 1014 72 10000 2.6 150 14:42 05.10.2019
752 Clouds 14 1014 76 10000 2.6 140 14:24 05.10.2019
753 Clouds 14 1014 76 10000 3.1 0 13:44 05.10.2019
754 Clouds 14 1015 76 10000 2.6 150 13:26 05.10.2019
755 Clouds 14 1015 76 10000 2.6 150 13:26 05.10.2019
756 Clouds 14 1015 76 10000 2.6 150 12:59 05.10.2019
757 Clouds 13 1015 76 10000 1.5 0 12:59 05.10.2019
758 Clouds 13 1015 76 10000 1.5 0 12:41 05.10.2019
759 Clouds 13 1015 82 10000 1.5 0 12:19 05.10.2019
760 Clouds 12 1015 87 10000 2.1 90 11:41 05.10.2019
761 Clouds 12 1015 87 10000 1.5 0 11:20 05.10.2019
762 Clouds 11 1015 87 10000 2.1 90 10:57 05.10.2019
763 Clouds 11 1014 87 10000 1 0 10:38 05.10.2019
764 Clouds 11 1015 87 10000 2.1 90 10:38 05.10.2019
765 Clouds 11 1014 87 10000 1 0 10:20 05.10.2019
766 Clouds 10 1014 87 10000 1 0 09:41 05.10.2019
767 Clouds 10 1014 93 10000 1 0 09:23 05.10.2019
768 Clouds 10 1014 93 10000 1 100 08:42 05.10.2019
769 Clouds 10 1014 93 10000 1 0 08:23 05.10.2019
770 Clouds 9 1014 93 10000 1 0 07:59 05.10.2019
771 Clouds 9 1013 93 10000 1 70 07:39 05.10.2019
772 Clouds 9 1013 93 10000 1 0 07:20 05.10.2019
773 Clouds 9 1013 93 10000 1 360 06:52 05.10.2019
774 Clouds 9 1013 93 10000 1 360 06:52 05.10.2019
775 Clouds 9 1013 93 10000 1 360 06:20 05.10.2019
776 Clouds 9 1013 93 10000 1 20 04:46 05.10.2019
777 Clouds 10 1013 87 10000 1.5 50 03:31 05.10.2019
778 Clouds 10 1012 87 10000 2.1 50 02:25 05.10.2019
779 Clouds 10 1011 87 10000 1.5 60 01:25 05.10.2019
780 Clouds 10 1011 87 10000 1.5 60 01:25 05.10.2019
781 Clouds 10 1011 87 10000 2.1 70 00:47 05.10.2019
782 Clouds 10 1011 87 10000 2.1 70 00:47 05.10.2019
783 Clouds 10 1011 87 10000 2.1 70 00:27 05.10.2019
784 Clear 10 1011 87 10000 2.1 50 23:55 04.10.2019
785 Clear 10 1011 87 10000 2.1 50 23:37 04.10.2019
786 Clear 11 1010 87 10000 2.1 60 23:18 04.10.2019
787 Clear 11 1010 87 10000 3.1 60 22:41 04.10.2019
788 Clouds 11 1009 81 10000 4.6 60 22:23 04.10.2019
789 Clouds 11 1009 81 10000 4.6 60 21:58 04.10.2019
790 Clouds 11 1009 81 10000 4.6 60 21:58 04.10.2019
791 Clouds 11 1009 87 10000 4.6 60 21:39 04.10.2019
792 Clouds 12 1008 82 10000 5.7 50 21:21 04.10.2019
793 Clouds 12 1008 82 10000 5.7 30 20:57 04.10.2019
794 Clouds 12 1008 82 10000 5.7 30 20:39 04.10.2019
795 Clouds 12 1008 87 10000 4.1 40 20:21 04.10.2019
796 Clouds 13 1007 87 10000 3.6 40 19:55 04.10.2019
797 Clouds 13 1007 87 10000 3.6 40 19:37 04.10.2019
798 Rain 13 1006 87 10000 5.7 30 19:18 04.10.2019
799 Rain 14 1006 82 10000 6.2 40 18:39 04.10.2019
800 Rain 14 1005 82 10000 4.1 40 18:19 04.10.2019
801 Rain 14 1004 77 10000 3.1 30 17:57 04.10.2019
802 Rain 15 1004 77 10000 3.1 30 17:38 04.10.2019
803 Rain 14 1004 82 10000 2.1 40 17:20 04.10.2019
804 Rain 15 1004 87 10000 2.1 50 16:54 04.10.2019
805 Rain 15 1004 87 10000 2.1 50 16:36 04.10.2019
806 Rain 15 1004 87 10000 2.1 50 16:36 04.10.2019
807 Rain 15 1004 87 10000 2.1 50 16:36 04.10.2019
808 Rain 14 1004 87 10000 3.1 50 16:18 04.10.2019
809 Rain 14 1004 82 10000 1 0 15:55 04.10.2019
810 Rain 14 1004 82 10000 1 0 15:36 04.10.2019
811 Rain 14 1003 87 10000 0.5 0 15:18 04.10.2019
812 Rain 14 1003 87 10000 1 0 14:42 04.10.2019
813 Rain 14 1002 93 10000 1.5 0 14:22 04.10.2019
814 Rain 14 1002 93 3500 1.5 0 13:58 04.10.2019
815 Rain 14 1002 93 3500 1.5 0 13:40 04.10.2019
816 Drizzle 13 1002 93 3500 1 0 13:19 04.10.2019
817 Rain 13 1002 93 4000 1 0 12:45 04.10.2019
818 Rain 13 1002 93 4000 1 0 12:27 04.10.2019
819 Rain 13 1002 93 4000 1 0 12:27 04.10.2019
820 Rain 12 1002 93 6000 1 0 11:44 04.10.2019
821 Rain 12 1002 93 6000 1 0 11:44 04.10.2019
822 Rain 12 1002 93 6000 1 0 11:44 04.10.2019
823 Rain 12 1001 93 5000 2.1 190 11:22 04.10.2019
824 Rain 12 1001 93 5000 2.1 190 10:58 04.10.2019
825 Rain 12 1001 93 3200 1.5 0 10:38 04.10.2019
826 Rain 12 1001 100 5000 1.5 0 10:19 04.10.2019
827 Rain 11 1001 100 10000 1 0 09:44 04.10.2019
828 Rain 11 1001 100 10000 1 0 09:44 04.10.2019
829 Rain 11 1001 93 5000 1.5 0 09:25 04.10.2019
830 Rain 11 1001 93 10000 1.5 0 08:48 04.10.2019
831 Rain 11 1001 93 10000 2.6 180 08:29 04.10.2019
832 Rain 11 1001 100 9000 2.6 190 07:56 04.10.2019
833 Rain 11 1001 100 9000 2.6 190 07:38 04.10.2019
834 Rain 11 1001 100 6000 2.6 190 07:19 04.10.2019
835 Rain 11 1001 100 6000 2.6 200 06:40 04.10.2019
836 Rain 11 1001 100 7000 2.6 210 06:22 04.10.2019
837 Rain 11 1001 93 10000 2.6 220 05:22 04.10.2019
838 Rain 11 1001 100 10000 1.5 0 04:53 04.10.2019
839 Rain 11 1001 100 10000 2.6 210 03:42 04.10.2019
840 Rain 11 1001 93 10000 2.1 190 02:53 04.10.2019
841 Rain 11 1001 93 4100 3.1 180 01:54 04.10.2019
842 Rain 11 1001 93 4100 3.1 180 01:54 04.10.2019
843 Rain 10 1001 87 10000 3.1 170 01:27 04.10.2019
844 Rain 10 1002 87 10000 3.1 180 00:36 04.10.2019
845 Rain 10 1002 93 10000 4.1 160 23:41 03.10.2019
846 Rain 10 1003 93 10000 3.6 150 23:22 03.10.2019
847 Rain 10 1003 93 10000 3.6 150 23:22 03.10.2019
848 Rain 10 1003 93 10000 3.6 150 22:58 03.10.2019
849 Rain 10 1004 93 10000 4.1 140 22:39 03.10.2019
850 Rain 10 1004 93 10000 4.1 140 22:39 03.10.2019
851 Rain 10 1004 93 10000 4.1 140 22:39 03.10.2019
852 Rain 10 1004 93 10000 4.1 150 22:21 03.10.2019
853 Rain 10 1004 93 10000 4.1 150 21:59 03.10.2019
854 Rain 10 1005 93 8000 4.1 140 21:40 03.10.2019
855 Rain 10 1006 87 10000 3.6 0 21:20 03.10.2019
856 Rain 10 1007 81 8000 4.1 140 20:58 03.10.2019
857 Rain 10 1007 81 8000 4.1 140 20:40 03.10.2019
858 Rain 10 1007 81 10000 4.1 130 20:21 03.10.2019
859 Rain 10 1008 76 10000 3.6 130 19:57 03.10.2019
860 Rain 11 1008 76 10000 3.6 130 19:39 03.10.2019
861 Rain 11 1009 76 10000 3.1 130 19:20 03.10.2019
862 Rain 11 1009 76 10000 3.1 130 19:20 03.10.2019
863 Rain 11 1009 76 10000 3.6 120 18:56 03.10.2019
864 Rain 11 1009 76 10000 3.6 120 18:38 03.10.2019
865 Rain 11 1010 76 10000 3.1 130 18:18 03.10.2019
866 Rain 11 1011 71 10000 3.1 140 17:42 03.10.2019
867 Rain 11 1012 71 10000 3.1 140 17:22 03.10.2019
868 Rain 11 1012 71 10000 3.1 140 16:57 03.10.2019
869 Rain 12 1012 66 10000 4.1 0 16:39 03.10.2019
870 Rain 11 1012 66 10000 4.1 130 16:20 03.10.2019
871 Clouds 11 1013 66 10000 3.6 120 15:44 03.10.2019
872 Clouds 11 1013 66 10000 2.6 130 15:24 03.10.2019
873 Clouds 11 1013 66 10000 2.6 130 14:58 03.10.2019
874 Clouds 10 1014 66 10000 3.1 140 14:37 03.10.2019
875 Clouds 10 1015 76 10000 2.1 130 14:18 03.10.2019
876 Clouds 10 1016 71 10000 2.1 160 13:44 03.10.2019
877 Clouds 10 1016 71 10000 2.6 160 13:25 03.10.2019
878 Clouds 10 1016 71 10000 2.6 160 13:25 03.10.2019
879 Clouds 9 1016 76 10000 1.5 0 12:58 03.10.2019
880 Clouds 9 1016 76 10000 1.5 0 12:39 03.10.2019
881 Clouds 9 1016 76 10000 1.5 0 12:39 03.10.2019
882 Clouds 9 1017 76 10000 1.5 0 12:20 03.10.2019
883 Clouds 8 1017 76 10000 2.1 140 11:58 03.10.2019
884 Clouds 8 1017 76 10000 2.1 140 11:39 03.10.2019
885 Clouds 7 1018 87 10000 1 0 11:21 03.10.2019
886 Clouds 6 1018 87 10000 1 0 10:57 03.10.2019
887 Clouds 6 1018 87 10000 1 0 10:38 03.10.2019
888 Clouds 6 1018 93 10000 0.5 0 10:18 03.10.2019
889 Clouds 5 1018 93 10000 0.5 0 09:56 03.10.2019
890 Clouds 5 1018 93 10000 1.5 0 09:37 03.10.2019
891 Clouds 4 1018 93 10000 1 0 09:19 03.10.2019
892 Clouds 3 1019 93 10000 1.5 80 08:42 03.10.2019
893 Clouds 3 1019 93 10000 1 130 08:23 03.10.2019
894 Clouds 3 1019 100 10000 1.5 110 07:42 03.10.2019
895 Clouds 3 1019 100 10000 1.5 110 07:42 03.10.2019
896 Clouds 3 1019 93 10000 1.5 140 07:20 03.10.2019
897 Clouds 3 1020 93 10000 0.5 110 06:52 03.10.2019
898 Clouds 3 1020 93 10000 1 110 06:26 03.10.2019
899 Clouds 3 1020 93 10000 1 120 05:48 03.10.2019
900 Clouds 3 1020 93 10000 1.5 120 05:25 03.10.2019
901 Clouds 3 1020 100 10000 1 130 04:40 03.10.2019
902 Clouds 3 1021 100 10000 1 0 03:36 03.10.2019
903 Clouds 3 1021 93 10000 1 0 03:18 03.10.2019
904 Clouds 3 1021 93 10000 1 0 03:18 03.10.2019
905 Clouds 4 1021 93 10000 1 130 02:20 03.10.2019
906 Clouds 4 1021 86 10000 1.5 130 01:37 03.10.2019
907 Clouds 5 1022 93 10000 1 0 00:52 03.10.2019
908 Clouds 5 1022 93 10000 1 0 00:28 03.10.2019
909 Clouds 5 1022 93 10000 1.5 150 23:44 02.10.2019
910 Clouds 5 1022 93 10000 1 0 23:24 02.10.2019
911 Clouds 6 1022 93 10000 1 140 22:47 02.10.2019
912 Clouds 6 1022 86 10000 1 0 22:24 02.10.2019
913 Clouds 6 1022 86 10000 1 0 21:58 02.10.2019
914 Clouds 7 1022 81 10000 0.5 0 21:39 02.10.2019
915 Clear 7 1022 75 10000 2.1 260 21:20 02.10.2019
916 Clear 8 1021 66 10000 1.5 280 20:58 02.10.2019
917 Clear 8 1021 66 10000 1.5 280 20:39 02.10.2019
918 Clear 9 1021 66 10000 1.5 270 20:21 02.10.2019
919 Clear 9 1021 61 10000 3.1 280 19:57 02.10.2019
920 Clear 10 1021 61 10000 3.1 280 19:39 02.10.2019
921 Clear 11 1021 57 10000 3.6 290 19:21 02.10.2019
922 Clear 11 1020 54 10000 5.1 280 18:57 02.10.2019
923 Clear 12 1020 54 10000 5.1 280 18:38 02.10.2019
924 Clouds 12 1020 50 10000 4.1 310 18:19 02.10.2019
925 Clouds 12 1020 54 10000 5.7 310 17:56 02.10.2019
926 Clouds 12 1020 54 10000 5.7 310 17:36 02.10.2019
927 Clouds 12 1020 54 10000 5.7 310 17:36 02.10.2019
928 Clouds 12 1020 54 10000 5.1 300 17:18 02.10.2019
929 Clouds 12 1020 54 10000 4.6 320 16:41 02.10.2019
930 Clouds 12 1020 50 10000 5.7 290 16:21 02.10.2019
931 Clouds 13 1020 50 10000 5.7 290 15:57 02.10.2019
932 Clouds 12 1020 50 10000 6.2 300 15:38 02.10.2019
933 Clouds 12 1020 50 10000 6.2 300 15:19 02.10.2019
934 Clouds 12 1020 54 10000 6.2 300 14:55 02.10.2019
935 Clouds 12 1019 50 10000 5.7 320 14:37 02.10.2019
936 Clouds 12 1019 50 10000 5.7 320 14:37 02.10.2019
937 Clouds 12 1019 50 10000 5.7 320 14:18 02.10.2019
938 Clear 12 1019 53 10000 6.2 330 13:42 02.10.2019
939 Clear 11 1019 62 10000 3.1 330 13:22 02.10.2019
940 Clear 11 1019 61 10000 3.1 330 12:56 02.10.2019
941 Clear 10 1019 66 10000 3.1 330 12:37 02.10.2019
942 Clear 10 1019 66 10000 3.1 330 12:37 02.10.2019
943 Clear 10 1019 66 10000 3.1 330 12:18 02.10.2019
944 Rain 9 1018 81 10000 1.5 0 11:42 02.10.2019
945 Rain 9 1018 81 10000 1.5 0 11:21 02.10.2019
946 Clear 8 1018 87 10000 0.5 0 10:41 02.10.2019
947 Clear 7 1017 100 10000 0.5 0 10:19 02.10.2019
948 Rain 6 1017 93 10000 1.5 0 09:42 02.10.2019
949 Rain 5 1016 100 10000 1 190 09:21 02.10.2019
950 Rain 4 1016 100 10000 1.5 210 08:57 02.10.2019
951 Rain 4 1015 100 10000 1 200 08:39 02.10.2019
952 Rain 4 1015 100 10000 1 200 08:20 02.10.2019
953 Rain 4 1015 93 10000 1 0 07:55 02.10.2019
954 Clouds 4 1015 93 10000 0.5 150 07:37 02.10.2019
955 Clouds 4 1015 93 10000 0.5 150 07:37 02.10.2019
956 Clouds 4 1015 93 10000 0.5 150 07:18 02.10.2019
957 Clouds 4 1015 93 10000 1.5 110 06:27 02.10.2019
958 Clear 4 1015 93 10000 1 160 05:51 02.10.2019
959 Clear 4 1015 86 10000 0.5 0 05:21 02.10.2019
960 Clear 5 1014 86 10000 0.5 0 03:53 02.10.2019
961 Clear 5 1014 87 10000 1.5 330 03:31 02.10.2019
962 Clear 6 1013 87 10000 3.1 320 02:27 02.10.2019
963 Clear 6 1012 81 10000 3.1 330 01:59 02.10.2019
964 Clouds 6 1011 75 10000 2.6 320 00:52 02.10.2019
965 Clouds 7 1011 75 10000 3.6 10 00:29 02.10.2019
966 Clouds 7 1010 70 10000 4.1 10 23:55 01.10.2019
967 Clouds 8 1010 66 10000 5.1 20 23:36 01.10.2019
968 Clouds 8 1010 66 10000 5.1 20 23:18 01.10.2019
969 Clouds 8 1009 66 10000 5.1 20 22:57 01.10.2019
970 Clouds 9 1009 66 10000 5.1 30 22:37 01.10.2019
971 Clouds 9 1009 66 10000 5.1 30 22:18 01.10.2019
972 Clouds 9 1009 66 10000 5.1 30 22:18 01.10.2019
973 Clouds 9 1008 71 10000 4.6 40 21:42 01.10.2019
974 Rain 9 1007 71 10000 5.7 50 21:22 01.10.2019
975 Rain 9 1007 71 10000 5.7 50 21:22 01.10.2019
976 Rain 9 1007 76 10000 7.7 40 20:58 01.10.2019
977 Rain 9 1006 81 10000 8.2 40 20:39 01.10.2019
978 Rain 9 1006 81 10000 8.2 40 20:20 01.10.2019
979 Rain 9 1006 81 10000 8.2 40 20:20 01.10.2019
980 Rain 10 1005 76 10000 5.7 40 19:57 01.10.2019
981 Rain 10 1004 81 10000 6.7 50 19:38 01.10.2019
982 Rain 10 1004 81 10000 6.7 50 19:20 01.10.2019
983 Rain 10 1004 76 10000 7.7 50 18:55 01.10.2019
984 Rain 10 1003 76 10000 6.7 50 18:36 01.10.2019
985 Rain 10 1003 76 10000 6.7 50 18:18 01.10.2019
986 Rain 11 1002 81 10000 9.3 60 17:42 01.10.2019
987 Rain 11 1002 81 10000 9.3 60 17:42 01.10.2019
988 Rain 11 1002 81 10000 9.3 60 17:20 01.10.2019
989 Rain 11 1001 81 10000 8.7 50 16:58 01.10.2019
990 Rain 12 1001 81 10000 7.2 50 16:40 01.10.2019
991 Rain 12 1001 81 10000 7.2 50 16:21 01.10.2019
992 Rain 12 1000 76 10000 7.2 60 15:47 01.10.2019
993 Rain 12 1000 82 10000 7.7 60 15:24 01.10.2019
994 Rain 12 1000 82 10000 7.2 60 14:56 01.10.2019
995 Rain 12 999 82 10000 6.7 60 14:37 01.10.2019
996 Rain 12 999 82 10000 6.7 60 14:19 01.10.2019
997 Rain 12 999 93 10000 6.2 60 13:41 01.10.2019
998 Rain 12 999 93 10000 6.2 60 13:22 01.10.2019
999 Rain 12 998 87 10000 4.6 70 12:59 01.10.2019
1000 Rain 12 998 87 10000 4.1 60 12:41 01.10.2019
1001 Rain 12 998 87 10000 4.1 60 12:20 01.10.2019
1002 Rain 12 998 87 10000 3.6 60 11:58 01.10.2019
1003 Rain 12 997 87 10000 3.6 60 11:38 01.10.2019
1004 Rain 12 997 87 10000 3.6 60 11:19 01.10.2019
1005 Rain 12 997 93 10000 3.6 70 10:58 01.10.2019
1006 Rain 12 997 93 10000 3.6 60 10:40 01.10.2019
1007 Rain 12 997 93 10000 3.6 60 10:21 01.10.2019
1008 Rain 12 997 93 10000 4.1 60 09:40 01.10.2019
1009 Rain 12 997 93 10000 4.1 60 09:21 01.10.2019
1010 Rain 11 997 93 10000 3.1 60 08:42 01.10.2019
1011 Rain 11 997 100 10000 3.6 60 08:24 01.10.2019
1012 Rain 12 996 93 4500 3.1 60 07:49 01.10.2019
1013 Rain 12 997 93 2600 3.1 40 07:25 01.10.2019
1014 Rain 12 997 93 6000 0.5 0 06:48 01.10.2019
1015 Rain 12 997 93 5000 0.5 0 06:22 01.10.2019
1016 Rain 12 997 93 8000 1 150 05:46 01.10.2019
1017 Drizzle 12 997 93 10000 1 0 05:18 01.10.2019
1018 Drizzle 12 998 87 10000 1 0 04:30 01.10.2019
1019 Rain 12 998 93 10000 1.5 0 02:29 01.10.2019
1020 Rain 12 998 93 10000 1.5 0 01:59 01.10.2019
1021 Rain 12 999 87 5000 1.5 0 00:59 01.10.2019
1022 Rain 12 999 87 10000 1.5 0 00:37 01.10.2019
1023 Rain 12 999 87 10000 1.5 0 00:18 01.10.2019
1024 Rain 12 1000 87 10000 3.1 100 23:41 30.09.2019
1025 Rain 12 1000 87 10000 3.1 100 23:20 30.09.2019
1026 Rain 12 1000 93 9000 3.1 80 22:43 30.09.2019
1027 Rain 12 1001 93 4900 3.1 70 22:25 30.09.2019
1028 Rain 12 1001 93 4000 1.5 0 21:58 30.09.2019
1029 Rain 12 1002 100 5000 2.1 80 21:38 30.09.2019
1030 Rain 12 1002 100 5000 2.1 80 21:19 30.09.2019
1031 Rain 12 1003 93 5000 2.6 90 20:57 30.09.2019
1032 Rain 12 1003 93 7000 2.1 100 20:39 30.09.2019
1033 Rain 12 1003 93 7000 2.1 100 20:20 30.09.2019
1034 Rain 12 1004 93 8000 3.1 90 19:56 30.09.2019
1035 -273 0 0 0 0 0 19:56 30.09.2019
1036 Rain 12 1004 93 8000 3.1 90 19:56 30.09.2019
1037 Rain 13 1005 87 5000 1.5 0 19:38 30.09.2019
1038 Rain 13 1005 87 5000 1.5 0 19:19 30.09.2019
1039 Rain 13 1006 93 7000 1 0 18:56 30.09.2019
1040 Rain 13 1006 93 7000 1 0 18:56 30.09.2019
1041 Rain 13 1006 82 10000 1.5 0 18:37 30.09.2019
1042 Rain 13 1006 82 10000 1.5 0 18:37 30.09.2019
1043 Rain 14 1006 82 10000 1.5 0 18:19 30.09.2019
1044 Rain 14 1007 77 10000 1.5 0 17:41 30.09.2019
1045 Rain 14 1007 77 10000 1.5 0 17:22 30.09.2019
1046 Rain 15 1007 77 10000 1.5 0 16:56 30.09.2019
1047 Rain 15 1008 77 10000 1.5 0 16:38 30.09.2019
1048 Rain 15 1008 77 10000 1.5 0 16:19 30.09.2019
1049 Rain 15 1008 77 10000 1.5 0 16:19 30.09.2019
1050 Rain 15 1008 72 10000 1.5 0 15:56 30.09.2019
1051 Clouds 15 1009 72 10000 1 0 15:37 30.09.2019
1052 Clouds 15 1009 72 10000 1 0 15:19 30.09.2019
1053 Clouds 15 1009 72 10000 1 0 14:57 30.09.2019
1054 Clouds 16 1009 77 10000 1.5 0 14:37 30.09.2019
1055 Clouds 16 1009 77 10000 1.5 0 14:18 30.09.2019
1056 Clouds 16 1009 77 10000 1.5 0 14:18 30.09.2019
1057 Rain 16 1010 77 10000 1.5 0 13:44 30.09.2019
1058 Rain 15 1010 77 10000 1.5 0 13:23 30.09.2019
1059 Rain 15 1010 82 10000 1 0 12:59 30.09.2019
1060 Clouds 15 1010 82 10000 2.1 230 12:40 30.09.2019
1061 Clouds 14 1010 82 10000 2.1 230 12:21 30.09.2019
1062 Clouds 14 1010 87 10000 1.5 0 11:43 30.09.2019
1063 Clouds 13 1010 87 10000 1.5 0 11:22 30.09.2019
1064 Clouds 13 1010 87 10000 1.5 0 10:59 30.09.2019
1065 Clouds 12 1010 93 10000 2.1 200 10:39 30.09.2019
1066 Clouds 12 1010 93 10000 2.1 200 10:19 30.09.2019
1067 Clouds 12 1010 93 10000 2.1 200 10:19 30.09.2019
1068 Clouds 11 1010 93 10000 3.1 180 09:58 30.09.2019
1069 Clouds 11 1009 93 10000 2.1 180 09:39 30.09.2019
1070 Clouds 11 1009 93 10000 2.1 180 09:39 30.09.2019
1071 Clouds 10 1009 93 10000 2.1 180 09:19 30.09.2019
1072 Rain 10 1009 100 10000 1.5 0 08:46 30.09.2019
1073 Fog 10 1009 100 10000 1.5 0 08:28 30.09.2019
1074 Clouds 10 1009 100 9000 1.5 0 07:44 30.09.2019
1075 Mist 9 1009 100 5000 1.5 220 07:26 30.09.2019
1076 Mist 10 1009 93 4600 1.5 190 06:50 30.09.2019
1077 Mist 10 1009 100 3500 1.5 0 06:32 30.09.2019
1078 Mist 9 1008 100 4100 1.5 0 05:46 30.09.2019
1079 Mist 9 1008 100 4100 1.5 0 05:46 30.09.2019
1080 Fog 10 1008 100 10000 1 0 03:33 30.09.2019
1081 Fog 10 1008 100 10000 1 0 03:33 30.09.2019
1082 Mist 10 1007 93 450 1 0 02:45 30.09.2019
1083 Clouds 10 1007 93 10000 2.1 230 01:33 30.09.2019
1084 Clear 11 1005 100 10000 1.5 260 00:42 30.09.2019
1085 Clear 11 1005 100 10000 1.5 260 00:21 30.09.2019
1086 Clouds 11 1005 93 10000 2.1 240 23:45 29.09.2019
1087 Clear 11 1005 93 10000 2.1 280 23:22 29.09.2019
1088 Clear 11 1004 93 10000 2.6 280 22:55 29.09.2019
1089 Clear 11 1004 93 10000 2.6 280 22:55 29.09.2019
1090 Clear 11 1003 87 10000 2.6 300 22:36 29.09.2019
1091 Clear 11 1003 87 10000 2.6 300 22:18 29.09.2019
1092 Clear 11 1003 87 10000 3.1 300 21:56 29.09.2019
1093 Clear 12 1003 93 10000 3.1 300 21:37 29.09.2019
1094 Clear 12 1003 93 10000 3.1 300 21:37 29.09.2019
1095 Clear 12 1003 93 10000 3.1 300 21:18 29.09.2019
1096 Clouds 12 1002 87 10000 3.6 300 20:43 29.09.2019
1097 Rain 12 1001 87 10000 5.1 310 20:20 29.09.2019
1098 Clouds 13 1000 87 10000 5.1 310 19:58 29.09.2019
1099 Rain 13 1000 87 10000 4.1 300 19:37 29.09.2019
1100 Rain 13 1000 87 10000 4.1 300 19:19 29.09.2019
1101 Rain 13 999 87 10000 4.1 320 18:55 29.09.2019
1102 Rain 13 999 87 10000 4.1 320 18:55 29.09.2019
1103 Rain 13 998 93 10000 4.6 320 18:37 29.09.2019
1104 Rain 13 998 93 10000 4.6 320 18:37 29.09.2019
1105 Rain 13 998 93 10000 4.6 320 18:19 29.09.2019
1106 Rain 13 997 93 10000 5.7 320 17:55 29.09.2019
1107 Rain 13 997 93 10000 5.7 320 17:55 29.09.2019
1108 Rain 13 996 93 10000 5.7 330 17:37 29.09.2019
1109 Rain 13 996 93 10000 5.7 330 17:19 29.09.2019
1110 Rain 13 995 93 3900 6.2 340 16:57 29.09.2019
1111 Rain 13 994 93 3000 5.7 340 16:39 29.09.2019
1112 Rain 13 994 93 3000 5.7 340 16:18 29.09.2019
1113 Rain 13 993 93 5000 5.1 10 15:41 29.09.2019
1114 Rain 13 992 100 10000 5.1 20 15:19 29.09.2019
1115 Rain 13 991 100 10000 5.7 20 14:59 29.09.2019
1116 Rain 13 990 93 2000 5.1 20 14:39 29.09.2019
1117 Rain 13 990 93 2000 5.1 20 14:20 29.09.2019
1118 Rain 14 990 87 10000 3.1 0 13:57 29.09.2019
1119 Rain 14 990 82 10000 2.6 200 13:39 29.09.2019
1120 Rain 14 990 82 10000 2.6 200 13:18 29.09.2019
1121 Rain 14 990 82 10000 2.6 200 13:18 29.09.2019
1122 Rain 14 990 88 10000 3.1 200 12:57 29.09.2019
1123 Rain 14 990 88 10000 3.1 200 12:39 29.09.2019
1124 Rain 14 990 88 10000 3.1 200 12:21 29.09.2019
1125 -273 0 0 0 0 0 11:55 29.09.2019
1126 Rain 14 990 93 10000 2.6 190 11:36 29.09.2019
1127 Rain 14 990 93 10000 2.6 190 11:18 29.09.2019
1128 Rain 14 990 87 10000 2.6 190 10:55 29.09.2019
1129 Rain 14 990 93 10000 2.6 180 10:36 29.09.2019
1130 Rain 14 990 93 10000 2.6 180 10:18 29.09.2019
1131 Rain 13 990 93 10000 2.1 180 09:42 29.09.2019
1132 Rain 13 990 93 10000 2.1 180 09:20 29.09.2019
1133 Rain 13 990 93 10000 1.5 0 08:43 29.09.2019
1134 Rain 13 990 93 10000 1 0 08:22 29.09.2019
1135 Rain 13 990 93 10000 1 0 07:46 29.09.2019
1136 Clouds 13 991 93 10000 0.5 0 07:27 29.09.2019
1137 Rain 13 991 93 10000 1.5 0 06:57 29.09.2019
1138 Rain 13 991 93 10000 1.5 0 06:34 29.09.2019
1139 Rain 12 992 93 5000 2.6 150 04:54 29.09.2019
1140 Rain 12 993 93 10000 2.1 0 04:24 29.09.2019
1141 Rain 12 994 100 4900 1.5 0 03:47 29.09.2019
1142 Rain 11 997 100 4000 3.6 70 02:28 29.09.2019
1143 Rain 11 998 93 2000 3.1 70 01:46 29.09.2019
1144 Rain 11 1000 93 5000 3.6 80 01:23 29.09.2019
1145 Rain 12 1002 93 9000 1.5 0 00:41 29.09.2019
1146 Rain 12 1002 93 9000 1.5 0 00:19 29.09.2019
1147 Rain 12 1003 93 6000 2.1 180 23:40 28.09.2019
1148 Rain 12 1003 93 6000 2.1 180 23:21 28.09.2019
1149 Rain 13 1004 87 10000 1 0 22:42 28.09.2019
1150 Rain 13 1004 87 10000 1 0 22:23 28.09.2019
1151 Rain 13 1004 87 10000 2.1 180 21:59 28.09.2019
1152 Clouds 13 1004 82 10000 3.1 200 21:40 28.09.2019
1153 Rain 13 1004 82 10000 3.1 200 21:22 28.09.2019
1154 Rain 14 1005 82 10000 2.6 200 20:59 28.09.2019
1155 Rain 14 1005 87 10000 2.6 200 20:41 28.09.2019
1156 Rain 14 1005 87 10000 2.6 200 20:21 28.09.2019
1157 Rain 14 1005 82 10000 3.6 220 19:58 28.09.2019
1158 Rain 14 1005 82 10000 4.1 220 19:39 28.09.2019
1159 Rain 15 1005 82 10000 4.1 220 19:21 28.09.2019
1160 Rain 15 1005 82 10000 4.1 240 18:58 28.09.2019
1161 Rain 15 1005 82 10000 4.1 240 18:58 28.09.2019
1162 Rain 15 1005 82 10000 5.7 240 18:39 28.09.2019
1163 Rain 15 1005 82 10000 5.7 240 18:21 28.09.2019
1164 Rain 15 1005 87 10000 5.7 240 17:56 28.09.2019
1165 Rain 15 1005 87 10000 5.7 240 17:38 28.09.2019
1166 Rain 15 1005 87 10000 5.7 240 17:20 28.09.2019
1167 Rain 15 1005 87 10000 5.7 250 16:44 28.09.2019
1168 Rain 16 1005 87 10000 4.6 270 16:25 28.09.2019
1169 Rain 15 1005 77 10000 6.2 260 15:42 28.09.2019
1170 Rain 15 1005 82 10000 7.2 260 15:42 28.09.2019
1171 Rain 15 1005 82 10000 7.2 260 15:42 28.09.2019
1172 Rain 15 1005 82 10000 7.2 260 15:23 28.09.2019
1173 Rain 15 1005 82 10000 5.7 280 14:58 28.09.2019
1174 Rain 15 1005 93 10000 4.1 280 14:40 28.09.2019
1175 Rain 15 1005 93 10000 4.1 280 14:21 28.09.2019
1176 Rain 15 1004 93 10000 5.7 290 13:57 28.09.2019
1177 Rain 15 1004 87 10000 7.7 260 13:38 28.09.2019
1178 Rain 14 1004 87 10000 7.7 260 13:20 28.09.2019
1179 Rain 14 1004 87 10000 7.7 260 13:20 28.09.2019
1180 Rain 14 1004 93 10000 7.2 260 12:45 28.09.2019
1181 Rain 14 1003 87 10000 7.2 250 12:20 28.09.2019
1182 Rain 14 1003 82 10000 6.7 240 11:56 28.09.2019
1183 Rain 14 1002 87 10000 6.2 240 11:37 28.09.2019
1184 Rain 14 1002 87 10000 6.2 240 11:18 28.09.2019
1185 Rain 14 1002 87 10000 6.2 240 11:18 28.09.2019
1186 Rain 14 1002 82 10000 5.7 230 10:42 28.09.2019
1187 Rain 14 1001 87 10000 5.7 220 10:20 28.09.2019
1188 Rain 14 1001 87 10000 4.6 220 09:56 28.09.2019
1189 Rain 14 1001 87 10000 5.1 210 09:37 28.09.2019
1190 Rain 14 1001 87 10000 5.1 210 09:18 28.09.2019
1191 Rain 13 1000 93 10000 4.6 210 08:44 28.09.2019
1192 Rain 13 1000 93 10000 4.1 210 08:26 28.09.2019
1193 Rain 13 1000 93 10000 4.1 210 07:45 28.09.2019
1194 Rain 13 1000 93 10000 4.1 210 07:45 28.09.2019
1195 Rain 13 1001 87 10000 4.6 200 07:21 28.09.2019
1196 Rain 13 1001 93 10000 4.6 200 06:53 28.09.2019
1197 Rain 12 1001 93 10000 4.1 200 06:31 28.09.2019
1198 Rain 12 1001 93 10000 4.1 200 05:47 28.09.2019
1199 Rain 12 1001 87 10000 3.6 200 05:20 28.09.2019
1200 Rain 12 1002 87 6000 3.6 200 04:39 28.09.2019
1201 Rain 11 1002 87 10000 3.1 190 03:55 28.09.2019
1202 Rain 11 1002 87 10000 3.1 200 03:21 28.09.2019
1203 Rain 11 1002 87 10000 3.6 200 02:45 28.09.2019
1204 Rain 11 1002 87 10000 3.1 190 02:27 28.09.2019
1205 Rain 12 1002 87 10000 3.1 200 01:48 28.09.2019
1206 Rain 12 1002 87 10000 2.6 200 01:26 28.09.2019
1207 Rain 12 1002 87 10000 3.1 210 00:52 28.09.2019
1208 Rain 12 1002 81 10000 2.6 200 00:31 28.09.2019
1209 Rain 12 1002 81 10000 2.6 200 00:31 28.09.2019
1210 Rain 12 1002 93 10000 3.6 220 23:55 27.09.2019
1211 Rain 12 1001 87 10000 3.6 210 23:36 27.09.2019
1212 Rain 12 1001 87 10000 3.6 210 23:18 27.09.2019
1213 Rain 12 1001 87 10000 3.1 210 22:41 27.09.2019
1214 Rain 12 1001 87 10000 3.6 220 22:19 27.09.2019
1215 Rain 12 1001 87 10000 3.6 220 22:19 27.09.2019
1216 Rain 12 1001 87 10000 4.1 220 21:55 27.09.2019
1217 Rain 12 1000 87 10000 3.6 210 21:37 27.09.2019
1218 Rain 12 1000 87 10000 3.6 210 21:18 27.09.2019
1219 Rain 12 1000 82 10000 3.1 220 20:55 27.09.2019
1220 Rain 12 1000 82 10000 4.6 240 20:36 27.09.2019
1221 Rain 13 1000 82 10000 4.6 240 20:18 27.09.2019
1222 Rain 13 999 82 10000 5.7 270 19:42 27.09.2019
1223 Rain 13 999 82 10000 5.7 270 19:23 27.09.2019
1224 Rain 13 998 82 10000 5.7 250 18:56 27.09.2019
1225 Rain 13 998 87 10000 7.2 250 18:37 27.09.2019
1226 Rain 13 998 87 10000 7.2 250 18:19 27.09.2019
1227 Rain 13 997 82 10000 6.2 230 17:40 27.09.2019
1228 Rain 13 997 82 10000 6.2 230 17:22 27.09.2019
1229 Rain 13 997 82 10000 6.2 230 17:22 27.09.2019
1230 Rain 13 997 87 10000 5.1 230 16:59 27.09.2019
1231 Rain 13 997 87 10000 5.1 230 16:41 27.09.2019
1232 Rain 13 997 93 10000 6.2 240 16:20 27.09.2019
1233 Rain 13 997 93 10000 6.2 240 16:20 27.09.2019
1234 Rain 13 996 93 3200 6.2 220 15:55 27.09.2019
1235 Rain 13 995 87 4500 5.7 200 15:37 27.09.2019
1236 Rain 13 995 87 4500 5.7 200 15:19 27.09.2019
1237 Rain 14 996 87 10000 3.6 190 14:55 27.09.2019
1238 Rain 14 996 87 10000 3.6 190 14:37 27.09.2019
1239 Rain 14 996 87 10000 3.6 190 14:18 27.09.2019
1240 Rain 14 996 87 10000 3.1 190 13:41 27.09.2019
1241 Rain 14 997 87 10000 4.1 190 13:21 27.09.2019
1242 Rain 14 997 87 10000 3.6 180 12:57 27.09.2019
1243 Rain 14 997 93 6000 3.6 190 12:38 27.09.2019
1244 Rain 13 997 93 6000 3.6 190 12:19 27.09.2019
1245 Rain 13 997 93 10000 3.6 180 11:39 27.09.2019
1246 Rain 13 997 93 10000 3.6 180 11:21 27.09.2019
1247 Rain 13 997 87 10000 4.1 180 10:57 27.09.2019
1248 Rain 13 998 87 10000 4.1 180 10:38 27.09.2019
1249 Rain 13 998 87 10000 4.1 180 10:38 27.09.2019
1250 Rain 13 998 87 10000 4.1 180 10:20 27.09.2019
1251 Rain 13 998 87 10000 4.1 190 09:42 27.09.2019
1252 Rain 12 998 87 10000 3.6 180 09:21 27.09.2019
1253 Rain 12 998 87 10000 2.1 170 08:57 27.09.2019
1254 Rain 12 998 87 10000 3.6 180 08:37 27.09.2019
1255 Rain 12 998 87 10000 3.6 180 08:37 27.09.2019
1256 Rain 12 998 87 10000 3.6 180 08:19 27.09.2019
1257 Rain 12 998 87 10000 3.6 180 08:19 27.09.2019
1258 Rain 12 998 87 10000 3.1 190 07:45 27.09.2019
1259 Rain 12 998 87 10000 3.1 190 07:22 27.09.2019
1260 Rain 12 999 87 10000 3.1 190 06:42 27.09.2019
1261 Rain 12 999 87 10000 3.1 190 06:23 27.09.2019
1262 Rain 12 999 87 10000 3.1 190 05:49 27.09.2019
1263 Rain 12 999 87 10000 3.1 190 05:31 27.09.2019
1264 Rain 12 999 87 10000 3.6 190 03:54 27.09.2019
1265 Rain 13 1000 87 10000 3.6 190 01:59 27.09.2019
1266 Clouds 13 1000 87 10000 4.6 200 01:37 27.09.2019
1267 Rain 13 999 87 10000 4.1 200 00:59 27.09.2019
1268 Rain 13 999 82 10000 4.1 200 00:19 27.09.2019
1269 Rain 13 999 82 10000 4.1 190 23:55 26.09.2019
1270 Rain 13 999 82 10000 3.6 180 23:37 26.09.2019
1271 Rain 13 999 82 10000 3.6 180 23:18 26.09.2019
1272 Rain 13 999 82 10000 3.6 180 23:18 26.09.2019
1273 Rain 14 999 82 10000 2.6 190 22:55 26.09.2019
1274 Rain 14 999 87 10000 2.6 190 22:36 26.09.2019
1275 Rain 14 999 87 10000 2.6 190 22:18 26.09.2019
1276 Rain 14 999 82 10000 2.6 190 21:54 26.09.2019
1277 Rain 14 999 82 10000 2.6 190 21:54 26.09.2019
1278 Rain 14 999 82 10000 3.6 200 21:36 26.09.2019
1279 Rain 14 999 82 10000 3.6 200 21:36 26.09.2019
1280 Rain 14 999 82 10000 3.6 200 21:18 26.09.2019
1281 Rain 14 999 76 10000 3.6 200 20:55 26.09.2019
1282 Rain 14 999 82 10000 3.6 200 20:37 26.09.2019
1283 Rain 14 999 82 10000 3.6 200 20:19 26.09.2019
1284 Rain 15 998 77 10000 3.6 210 19:40 26.09.2019
1285 Rain 15 998 77 10000 5.1 220 19:18 26.09.2019
1286 Rain 15 998 77 10000 5.1 220 18:58 26.09.2019
1287 Rain 15 998 82 10000 4.6 230 18:38 26.09.2019
1288 Rain 15 998 82 10000 4.6 230 18:20 26.09.2019
1289 Rain 16 998 87 10000 3.1 230 17:39 26.09.2019
1290 Rain 16 998 87 10000 3.1 230 17:19 26.09.2019
1291 Rain 16 998 77 10000 3.6 200 16:58 26.09.2019
1292 Rain 16 998 72 10000 5.1 220 16:39 26.09.2019
1293 Rain 16 998 72 10000 5.1 220 16:20 26.09.2019
1294 Rain 16 998 82 10000 3.6 210 15:56 26.09.2019
1295 Rain 16 998 87 10000 3.6 210 15:37 26.09.2019
1296 Rain 17 998 87 10000 3.6 210 15:18 26.09.2019
1297 Rain 16 998 77 10000 5.1 210 14:41 26.09.2019
1298 Rain 16 998 77 10000 5.7 210 14:23 26.09.2019
1299 Rain 16 998 77 10000 5.1 210 13:58 26.09.2019
1300 Rain 16 998 77 10000 4.1 210 13:40 26.09.2019
1301 Rain 16 998 77 10000 4.1 210 13:19 26.09.2019
1302 Rain 16 998 77 10000 4.1 210 12:56 26.09.2019
1303 Rain 16 998 82 10000 4.6 200 12:38 26.09.2019
1304 Rain 16 998 82 10000 4.6 200 12:19 26.09.2019
1305 Rain 15 998 87 10000 3.6 200 11:42 26.09.2019
1306 Rain 15 998 87 10000 3.6 200 11:21 26.09.2019
1307 Rain 15 997 87 10000 3.1 210 10:43 26.09.2019
1308 Rain 15 997 87 10000 3.1 210 10:25 26.09.2019
1309 Rain 15 997 87 10000 3.1 210 10:25 26.09.2019
1310 Clouds 14 997 93 10000 2.1 220 09:59 26.09.2019
1311 Clouds 14 997 93 10000 2.1 220 09:59 26.09.2019
1312 Clouds 14 997 93 10000 2.1 220 09:59 26.09.2019
1313 Clouds 14 997 93 10000 2.1 220 09:59 26.09.2019
1314 Clouds 14 997 93 10000 2.1 220 09:41 26.09.2019
1315 Rain 14 997 93 10000 3.1 220 09:22 26.09.2019
1316 Rain 14 997 100 10000 3.1 220 08:54 26.09.2019
1317 Rain 14 996 93 10000 3.1 200 08:32 26.09.2019
1318 Rain 14 996 93 4000 3.6 190 07:57 26.09.2019
1319 Rain 14 996 93 3500 3.1 200 07:38 26.09.2019
1320 Rain 14 996 93 3500 3.1 200 07:18 26.09.2019
1321 Rain 15 996 93 10000 3.1 180 06:42 26.09.2019
1322 Rain 15 996 93 10000 3.1 180 06:23 26.09.2019
1323 Clouds 14 997 93 10000 3.1 180 05:36 26.09.2019
1324 Rain 14 997 93 10000 3.1 180 04:56 26.09.2019
1325 Rain 15 998 93 6000 2.1 170 02:34 26.09.2019
1326 Rain 15 999 93 4500 2.1 170 01:49 26.09.2019
1327 Rain 15 999 87 10000 1.5 0 01:26 26.09.2019
1328 Clouds 15 999 87 10000 1.5 0 00:46 26.09.2019
1329 Clouds 14 999 87 10000 1 0 00:28 26.09.2019
1330 Rain 14 1000 93 10000 1.5 0 23:44 25.09.2019
1331 Rain 14 1000 93 10000 1.5 0 23:26 25.09.2019
1332 Rain 14 1000 93 10000 1.5 0 23:26 25.09.2019
1333 Rain 14 1000 93 10000 0.5 0 22:56 25.09.2019
1334 Clouds 14 1000 93 10000 0.5 0 22:37 25.09.2019
1335 Clouds 14 1000 93 10000 0.5 0 22:19 25.09.2019
1336 Clouds 15 1000 93 10000 0.5 110 21:56 25.09.2019
1337 Clouds 15 1000 100 10000 1 0 21:37 25.09.2019
1338 Clouds 15 1000 100 10000 1 0 21:18 25.09.2019
1339 Rain 15 1000 93 10000 0.5 0 20:56 25.09.2019
1340 Rain 15 1000 93 10000 1 0 20:37 25.09.2019
1341 Rain 16 1000 93 10000 1 0 20:19 25.09.2019
1342 Rain 16 1000 87 10000 2.6 220 19:40 25.09.2019
1343 Rain 16 1000 87 10000 2.6 220 19:40 25.09.2019
1344 Rain 16 1000 87 10000 2.6 220 19:21 25.09.2019
1345 Rain 17 1000 82 10000 2.1 220 18:57 25.09.2019
1346 Rain 17 1000 82 10000 1 0 18:38 25.09.2019
1347 Rain 17 1000 82 10000 1 0 18:20 25.09.2019
1348 Rain 17 1000 82 10000 1 0 17:40 25.09.2019
1349 Rain 17 1000 82 10000 1 0 17:22 25.09.2019
1350 Rain 17 1000 82 10000 1 0 16:59 25.09.2019
1351 Clouds 17 999 82 10000 1.5 0 16:41 25.09.2019
1352 Clouds 17 999 82 10000 1.5 0 16:23 25.09.2019
1353 -273 0 0 0 0 0 15:56 25.09.2019
1354 Clouds 17 999 82 10000 2.6 260 15:38 25.09.2019
1355 Clouds 17 999 82 10000 2.6 260 15:19 25.09.2019
1356 Clouds 17 999 82 10000 1.5 0 14:42 25.09.2019
1357 Clouds 17 999 87 10000 2.1 280 14:22 25.09.2019
1358 Clouds 16 999 87 10000 2.1 260 13:58 25.09.2019
1359 Clouds 16 999 93 10000 2.1 270 13:39 25.09.2019
1360 Clouds 16 999 93 10000 2.1 270 13:20 25.09.2019
1361 Clouds 16 999 93 10000 2.6 280 12:54 25.09.2019
1362 Clouds 16 998 93 10000 2.1 300 12:36 25.09.2019
1363 Clouds 16 998 93 10000 2.1 300 12:18 25.09.2019
1364 Mist 15 998 93 10000 1.5 0 11:40 25.09.2019
1365 Mist 15 998 93 10000 1.5 0 11:40 25.09.2019
1366 Mist 15 998 93 10000 1.5 0 11:20 25.09.2019
1367 Rain 15 997 100 10000 1 0 10:47 25.09.2019
1368 Mist 14 997 93 8000 0.5 0 10:27 25.09.2019
1369 Mist 14 997 93 10000 1 210 09:59 25.09.2019
1370 Mist 14 997 93 10000 1 210 09:59 25.09.2019
1371 Mist 14 997 93 10000 1 210 09:59 25.09.2019
1372 Rain 14 997 87 10000 0.5 0 09:40 25.09.2019
1373 Rain 14 997 87 10000 0.5 0 09:22 25.09.2019
1374 Fog 14 996 93 10000 1 70 08:56 25.09.2019
1375 Fog 14 996 93 10000 1 70 08:56 25.09.2019
1376 Fog 14 996 93 10000 1.5 80 08:37 25.09.2019
1377 Fog 13 996 93 10000 1.5 80 08:19 25.09.2019
1378 Fog 13 996 93 10000 1.5 80 07:40 25.09.2019
1379 Fog 13 996 93 10000 1.5 80 07:22 25.09.2019
1380 Mist 13 996 93 10000 1.5 0 06:52 25.09.2019
1381 Mist 14 996 93 10000 1 0 06:32 25.09.2019
1382 Clouds 14 996 93 10000 1 0 05:39 25.09.2019
1383 Clouds 14 996 93 10000 1.5 0 04:57 25.09.2019
1384 Clouds 14 997 100 10000 1.5 0 02:32 25.09.2019
1385 Rain 14 997 100 10000 2.1 180 01:19 25.09.2019
1386 Rain 14 997 100 8000 2.1 190 00:37 25.09.2019
1387 Rain 14 997 100 8000 2.1 190 00:18 25.09.2019
1388 Rain 14 997 93 5000 2.1 180 23:41 24.09.2019
1389 Rain 14 997 93 5000 2.1 180 23:21 24.09.2019
1390 Clouds 14 997 93 10000 2.6 190 22:56 24.09.2019
1391 Clouds 14 997 87 10000 2.1 180 22:36 24.09.2019
1392 Clouds 14 997 87 10000 2.1 180 22:36 24.09.2019
1393 Clouds 14 997 87 10000 2.1 180 22:18 24.09.2019
1394 Clouds 14 997 87 10000 2.1 180 22:18 24.09.2019
1395 Clouds 14 997 87 10000 2.1 180 22:18 24.09.2019
1396 Clouds 14 997 87 10000 1.5 180 21:54 24.09.2019
1397 Rain 15 997 87 10000 2.6 190 21:36 24.09.2019
1398 Rain 15 997 87 10000 2.6 190 21:18 24.09.2019
1399 Rain 15 997 93 10000 1.5 160 20:54 24.09.2019
1400 Rain 15 997 87 10000 2.1 210 20:36 24.09.2019
1401 Rain 15 997 87 10000 2.1 210 20:18 24.09.2019
1402 Rain 15 997 93 10000 2.1 210 19:41 24.09.2019
1403 Rain 16 997 93 10000 2.1 210 19:19 24.09.2019
1404 Rain 16 997 93 10000 0.5 0 18:55 24.09.2019
1405 Rain 16 997 93 10000 0.5 0 18:55 24.09.2019
1406 Rain 16 997 93 10000 1.5 230 18:37 24.09.2019
1407 Rain 16 997 93 10000 1.5 230 18:19 24.09.2019
1408 Rain 16 997 93 10000 2.1 250 17:55 24.09.2019
1409 Rain 16 997 93 10000 4.1 270 17:37 24.09.2019
1410 Rain 16 997 93 10000 4.1 270 17:18 24.09.2019
1411 Rain 16 996 87 10000 1.5 220 16:41 24.09.2019
1412 Rain 15 996 87 10000 1.5 220 16:20 24.09.2019
1413 Rain 16 996 93 10000 2.1 220 15:57 24.09.2019
1414 Rain 16 996 93 10000 1 0 15:37 24.09.2019
1415 Rain 16 996 93 10000 1 0 15:19 24.09.2019
1416 Rain 16 997 87 10000 1 60 14:37 24.09.2019
1417 Rain 16 997 87 10000 1 60 14:18 24.09.2019
1418 Rain 16 997 93 9000 1 0 13:41 24.09.2019
1419 Rain 16 997 93 9000 1 0 13:21 24.09.2019
1420 Rain 16 997 93 9000 1 0 13:21 24.09.2019
1421 Rain 16 998 100 10000 2.1 70 12:42 24.09.2019
1422 Rain 16 998 100 10000 2.1 70 12:21 24.09.2019
1423 Rain 16 998 93 10000 1 0 11:57 24.09.2019
1424 Rain 16 998 93 10000 1 0 11:39 24.09.2019
1425 Rain 16 998 93 10000 1 0 11:21 24.09.2019
1426 Rain 15 998 93 10000 1 0 10:40 24.09.2019
1427 Rain 15 998 93 10000 1 0 10:21 24.09.2019
1428 Rain 15 998 93 10000 1.5 0 09:57 24.09.2019
1429 Rain 16 999 93 10000 1.5 0 09:39 24.09.2019
1430 Rain 16 999 93 10000 1.5 0 09:19 24.09.2019
1431 Rain 16 999 93 10000 1.5 0 08:55 24.09.2019
1432 Rain 16 999 93 10000 1.5 0 08:55 24.09.2019
1433 Rain 16 999 93 10000 1.5 0 08:55 24.09.2019
1434 Rain 16 999 93 10000 1.5 0 08:55 24.09.2019
1435 Rain 16 999 93 10000 1.5 0 08:55 24.09.2019
1436 Rain 15 999 93 8000 2.1 120 08:36 24.09.2019
1437 Rain 15 999 93 8000 2.1 120 08:18 24.09.2019
1438 Rain 15 1000 93 10000 2.1 130 07:41 24.09.2019
1439 Fog 15 1000 93 10000 1 0 07:22 24.09.2019
1440 Fog 15 1000 100 10000 1 0 06:46 24.09.2019
1441 Fog 15 1000 100 10000 1 0 06:46 24.09.2019
1442 Fog 15 1000 93 10000 1 0 06:26 24.09.2019
1443 Rain 15 1001 93 10000 2.1 130 05:25 24.09.2019
1444 Rain 15 1002 93 10000 2.1 0 03:47 24.09.2019
1445 Clouds 15 1003 93 10000 2.1 160 03:26 24.09.2019
1446 Rain 15 1003 93 10000 2.1 0 02:45 24.09.2019
1447 Rain 15 1003 93 10000 2.1 160 01:42 24.09.2019
1448 Rain 15 1004 87 10000 2.6 0 00:42 24.09.2019
1449 Rain 15 1004 87 10000 2.6 0 00:23 24.09.2019
1450 Rain 15 1004 93 10000 3.1 160 23:43 23.09.2019
1451 Rain 15 1004 93 10000 3.1 160 23:43 23.09.2019
1452 Rain 15 1004 93 10000 3.1 160 23:23 23.09.2019
1453 Rain 15 1004 93 10000 3.1 160 23:23 23.09.2019
1454 Rain 15 1004 93 10000 3.1 160 22:56 23.09.2019
1455 Rain 15 1004 87 10000 3.1 0 22:37 23.09.2019
1456 Rain 15 1004 87 10000 3.1 0 22:37 23.09.2019
1457 Rain 15 1004 87 10000 3.1 0 22:18 23.09.2019
1458 Rain 15 1004 87 10000 3.1 150 21:54 23.09.2019
1459 Rain 15 1004 87 10000 3.1 150 21:36 23.09.2019
1460 Rain 15 1004 87 10000 3.1 150 21:18 23.09.2019
1461 Rain 14 1005 93 10000 3.6 130 20:40 23.09.2019
1462 Rain 14 1005 93 10000 3.6 130 20:19 23.09.2019
1463 Rain 14 1005 93 10000 3.6 130 20:19 23.09.2019
1464 Rain 14 1005 93 6000 3.6 140 19:55 23.09.2019
1465 Rain 14 1005 93 6000 3.6 140 19:55 23.09.2019
1466 Rain 14 1006 87 10000 3.1 140 19:36 23.09.2019
1467 Rain 15 1006 87 10000 3.1 140 19:18 23.09.2019
1468 Rain 15 1006 77 10000 2.6 150 18:42 23.09.2019
1469 Rain 15 1006 77 10000 2.6 150 18:42 23.09.2019
1470 Rain 16 1006 67 10000 2.6 0 18:19 23.09.2019
1471 Rain 16 1006 77 10000 2.6 150 18:19 23.09.2019
1472 Rain 16 1006 67 10000 2.6 0 17:57 23.09.2019
1473 Rain 17 1006 67 10000 2.6 160 17:39 23.09.2019
1474 Rain 17 1006 67 10000 2.6 160 17:20 23.09.2019
1475 Clouds 17 1007 63 10000 3.1 170 16:57 23.09.2019
1476 Clouds 18 1007 63 10000 3.1 0 16:36 23.09.2019
1477 Clouds 18 1007 63 10000 3.1 0 16:18 23.09.2019
1478 Clouds 18 1007 67 10000 2.1 170 15:56 23.09.2019
1479 Clouds 18 1008 67 10000 3.6 180 15:38 23.09.2019
1480 Clouds 18 1008 67 10000 3.6 180 15:38 23.09.2019
1481 Clouds 18 1008 67 10000 3.6 180 15:18 23.09.2019
1482 Clouds 18 1008 67 10000 3.6 180 15:18 23.09.2019
1483 Clouds 18 1008 67 10000 3.1 190 14:40 23.09.2019
1484 Clouds 17 1008 67 10000 3.1 190 14:20 23.09.2019
1485 Clouds 17 1008 67 10000 3.1 190 14:20 23.09.2019
1486 Clouds 17 1008 72 10000 3.6 190 13:58 23.09.2019
1487 Clouds 17 1008 72 10000 3.6 190 13:38 23.09.2019
1488 Clouds 17 1008 72 10000 3.6 190 13:18 23.09.2019
1489 Clouds 17 1008 77 10000 4.1 200 13:18 23.09.2019
1490 Clouds 17 1008 77 10000 4.1 200 12:46 23.09.2019
1491 Clouds 17 1008 77 10000 4.1 200 12:46 23.09.2019
1492 Clouds 16 1008 77 10000 3.6 210 12:23 23.09.2019
1493 Clear 16 1008 82 10000 3.1 210 11:59 23.09.2019
1494 Rain 16 1008 82 10000 3.1 200 11:40 23.09.2019
1495 Rain 15 1008 82 10000 3.1 200 11:22 23.09.2019
1496 Clouds 15 1008 87 10000 2.6 200 10:49 23.09.2019
1497 Clouds 14 1008 87 10000 3.1 200 10:22 23.09.2019
1498 Clouds 14 1008 87 10000 3.1 200 10:22 23.09.2019
1499 Clear 14 1007 93 10000 2.1 180 09:59 23.09.2019
1500 Clear 13 1007 93 10000 2.6 190 09:38 23.09.2019
1501 Rain 13 1007 93 10000 2.6 190 09:20 23.09.2019
1502 Mist 13 1007 93 10000 1.5 0 08:47 23.09.2019
1503 Clouds 13 1007 93 10000 2.1 180 08:28 23.09.2019
1504 Clouds 13 1006 93 10000 1.5 0 07:56 23.09.2019
1505 Rain 13 1006 93 10000 2.6 190 07:28 23.09.2019
1506 Clouds 13 1006 93 10000 2.6 200 06:37 23.09.2019
1507 Clouds 14 1005 93 10000 2.1 190 05:51 23.09.2019
1508 Clouds 14 1005 93 10000 1.5 0 05:21 23.09.2019
1509 Fog 14 1005 93 10000 1.5 0 04:54 23.09.2019
1510 Rain 14 1004 93 4900 2.6 180 02:37 23.09.2019
1511 Fog 15 1003 87 10000 2.1 170 00:46 23.09.2019
1512 Fog 15 1003 87 10000 1 0 00:22 23.09.2019
1513 Mist 15 1003 87 10000 1 0 23:51 22.09.2019
1514 Mist 15 1003 87 10000 1 0 23:32 22.09.2019
1515 Mist 15 1003 87 10000 1.5 0 22:57 22.09.2019
1516 Clouds 15 1003 87 10000 1 0 22:39 22.09.2019
1517 Clouds 15 1003 87 10000 1 0 22:21 22.09.2019
1518 Fog 16 1003 87 10000 0.5 0 21:43 22.09.2019
1519 Fog 16 1002 87 10000 0.5 0 21:22 22.09.2019
1520 Mist 16 1002 82 10000 0.5 0 20:55 22.09.2019
1521 Rain 16 1002 88 10000 0.5 0 20:36 22.09.2019
1522 Rain 16 1002 88 10000 0.5 0 20:18 22.09.2019
1523 Rain 17 1002 82 10000 1.5 0 19:41 22.09.2019
1524 Rain 17 1002 82 10000 1.5 0 19:41 22.09.2019
1525 Rain 17 1002 82 10000 1.5 0 19:23 22.09.2019
1526 Rain 17 1002 82 10000 1 0 18:59 22.09.2019
1527 Rain 18 1002 82 10000 1.5 0 18:39 22.09.2019
1528 Rain 18 1002 82 10000 1.5 0 18:20 22.09.2019
1529 Rain 18 1002 82 10000 1.5 0 17:58 22.09.2019
1530 Rain 18 1001 88 10000 1 0 17:40 22.09.2019
1531 Rain 18 1001 88 10000 1 0 17:19 22.09.2019
1532 Rain 18 1002 88 10000 1.5 0 16:44 22.09.2019
1533 Rain 18 1002 88 10000 1.5 0 16:26 22.09.2019
1534 Rain 18 1002 88 10000 2.1 0 15:56 22.09.2019
1535 Rain 18 1001 82 10000 1.5 0 15:37 22.09.2019
1536 Rain 18 1001 82 10000 1.5 0 15:19 22.09.2019
1537 Rain 17 1002 82 10000 1.5 0 14:43 22.09.2019
1538 Rain 17 1002 82 10000 2.1 170 14:24 22.09.2019
1539 Drizzle 17 1002 82 10000 2.6 170 13:55 22.09.2019
1540 Drizzle 18 1001 82 10000 1.5 0 13:37 22.09.2019
1541 Drizzle 17 1001 82 10000 1.5 0 13:19 22.09.2019
1542 Rain 17 1001 88 10000 2.1 50 12:43 22.09.2019
1543 Rain 16 1001 88 10000 2.1 50 12:24 22.09.2019
1544 Rain 16 1002 93 10000 1.5 0 11:56 22.09.2019
1545 Rain 16 1002 87 10000 2.6 80 11:38 22.09.2019
1546 Rain 16 1002 87 10000 2.6 80 11:19 22.09.2019
1547 Rain 15 1002 93 10000 3.6 70 10:44 22.09.2019
1548 Rain 15 1002 93 10000 3.6 70 10:20 22.09.2019
1549 Rain 15 1002 93 4900 3.6 70 09:57 22.09.2019
1550 Rain 15 1002 100 3700 3.6 50 09:37 22.09.2019
1551 Rain 14 1002 100 3700 3.6 50 09:19 22.09.2019
1552 Rain 14 1002 93 7000 2.6 50 08:43 22.09.2019
1553 Rain 14 1003 93 4800 1 0 08:23 22.09.2019
1554 Rain 14 1003 93 6000 3.6 120 07:53 22.09.2019
1555 Rain 14 1003 93 6000 3.6 120 07:53 22.09.2019
1556 Rain 14 1002 87 7000 3.6 160 07:33 22.09.2019
1557 Rain 15 1002 68 10000 1.5 0 06:59 22.09.2019
1558 Rain 15 1002 72 10000 1.5 0 06:38 22.09.2019
1559 Rain 15 1003 63 10000 2.1 0 05:22 22.09.2019
1560 Rain 15 1005 63 10000 1 0 02:46 22.09.2019
1561 Rain 15 1006 63 10000 1 0 02:26 22.09.2019
1562 Rain 16 1006 63 10000 1 0 01:53 22.09.2019
1563 Clouds 16 1006 63 10000 1.5 0 00:55 22.09.2019
1564 Clouds 16 1006 55 10000 2.1 0 00:32 22.09.2019
1565 Clouds 16 1006 55 10000 2.1 0 23:56 21.09.2019
1566 Clouds 16 1007 52 10000 2.6 0 23:38 21.09.2019
1567 Clouds 17 1007 48 10000 2.6 0 22:57 21.09.2019
1568 Clouds 17 1007 48 10000 2.6 110 22:36 21.09.2019
1569 Clouds 17 1007 48 10000 2.6 110 22:18 21.09.2019
1570 Clouds 18 1007 48 10000 2.1 0 21:41 21.09.2019
1571 Clear 18 1007 48 10000 2.1 0 21:19 21.09.2019
1572 Clear 18 1007 45 10000 2.1 100 20:56 21.09.2019
1573 Clear 19 1007 49 10000 2.1 0 20:36 21.09.2019
1574 Clear 19 1007 49 10000 2.1 0 20:18 21.09.2019
1575 Clear 19 1007 49 10000 2.1 0 20:18 21.09.2019
1576 Clear 20 1008 46 10000 2.1 120 19:43 21.09.2019
1577 Clear 21 1008 46 10000 2.6 110 19:19 21.09.2019
1578 Clear 22 1008 46 10000 2.1 90 18:40 21.09.2019
1579 Clear 22 1008 46 10000 2.1 90 18:21 21.09.2019
1580 Clear 23 1009 43 10000 3.1 0 17:43 21.09.2019
1581 Clear 23 1009 43 10000 3.1 0 17:23 21.09.2019
1582 Clear 23 1010 46 10000 2.6 100 16:57 21.09.2019
1583 Clear 23 1010 43 10000 2.1 100 16:38 21.09.2019
1584 Clear 23 1010 43 10000 2.1 100 16:19 21.09.2019
1585 Clear 23 1010 40 10000 3.6 110 15:43 21.09.2019
1586 Clear 22 1010 40 10000 3.6 110 15:22 21.09.2019
1587 Clear 22 1011 43 10000 3.1 110 14:48 21.09.2019
1588 Clear 21 1011 43 10000 3.1 0 14:30 21.09.2019
1589 Clear 20 1012 43 10000 3.1 120 13:51 21.09.2019
1590 Clear 20 1012 45 10000 3.1 130 13:29 21.09.2019
1591 Clear 19 1012 48 10000 2.1 0 12:59 21.09.2019
1592 Clear 19 1013 52 10000 2.1 110 12:41 21.09.2019
1593 Clear 18 1013 52 10000 2.1 110 12:21 21.09.2019
1594 Clear 17 1013 52 10000 2.1 0 11:59 21.09.2019
1595 Clear 17 1014 55 10000 2.6 0 11:41 21.09.2019
1596 Clear 16 1014 55 10000 2.6 0 11:21 21.09.2019
1597 Clear 14 1014 71 10000 1 0 10:41 21.09.2019
1598 Clear 14 1014 71 10000 1 0 10:22 21.09.2019
1599 Fog 13 1014 71 10000 2.1 80 09:57 21.09.2019
1600 Fog 12 1014 76 10000 3.6 80 09:38 21.09.2019
1601 Fog 12 1014 76 10000 3.6 80 09:20 21.09.2019
1602 Fog 11 1015 76 10000 3.1 80 08:51 21.09.2019
1603 Fog 11 1015 76 10000 2.1 90 08:25 21.09.2019
1604 Fog 11 1015 71 10000 2.6 100 07:40 21.09.2019
1605 Fog 11 1015 71 10000 2.6 100 07:20 21.09.2019
1606 Mist 11 1016 71 10000 3.1 100 06:36 21.09.2019
1607 Mist 11 1016 71 10000 2.6 120 05:51 21.09.2019
1608 Clear 11 1016 71 10000 2.1 0 04:48 21.09.2019
1609 Clear 11 1016 71 10000 2.1 0 04:48 21.09.2019
1610 Clear 12 1017 71 10000 2.1 100 04:29 21.09.2019
1611 Clear 12 1018 67 10000 2.6 110 02:26 21.09.2019
1612 Clear 13 1017 82 10000 6.2 120 01:50 21.09.2019
1613 Clear 13 1019 62 10000 2.6 0 01:32 21.09.2019
1614 Clear 14 1019 72 10000 2.6 100 00:26 21.09.2019
1615 Clear 14 1019 77 10000 3.1 0 23:58 20.09.2019
1616 Clear 14 1019 82 10000 3.1 100 23:30 20.09.2019
1617 Clear 15 1019 77 10000 3.6 90 22:56 20.09.2019
1618 Clear 15 1019 77 10000 3.6 90 22:56 20.09.2019
1619 Clear 15 1020 77 10000 1.5 0 22:38 20.09.2019
1620 Clear 15 1020 77 10000 1.5 0 22:20 20.09.2019
1621 Clear 16 1020 77 10000 1.5 0 21:55 20.09.2019
1622 Clear 16 1020 72 10000 1.5 0 21:37 20.09.2019
1623 Clear 16 1020 72 10000 1.5 0 21:18 20.09.2019
1624 Clear 17 1020 68 10000 1.5 0 20:41 20.09.2019
1625 Clear 18 1020 68 10000 1.5 0 20:21 20.09.2019
1626 Clear 18 1021 63 10000 2.6 0 19:57 20.09.2019
1627 Clear 18 1021 63 10000 2.6 0 19:57 20.09.2019
1628 Clear 19 1021 63 10000 2.6 120 19:38 20.09.2019
1629 Clear 19 1021 63 10000 2.6 120 19:19 20.09.2019
1630 Clear 20 1022 64 10000 2.1 110 18:39 20.09.2019
1631 Clear 20 1022 64 10000 2.1 110 18:20 20.09.2019
1632 Clear 21 1022 60 10000 3.1 110 17:57 20.09.2019
1633 Clear 21 1023 60 10000 2.6 120 17:39 20.09.2019
1634 Clear 21 1023 60 10000 2.6 120 17:20 20.09.2019
1635 Clear 21 1024 64 10000 2.6 140 16:41 20.09.2019
1636 Clear 21 1024 64 10000 2.6 140 16:41 20.09.2019
1637 Clear 21 1024 64 10000 2.6 140 16:19 20.09.2019
1638 Clear 21 1024 60 10000 3.1 0 15:43 20.09.2019
1639 Clear 20 1024 60 10000 2.6 120 15:23 20.09.2019
1640 Clear 20 1024 60 10000 2.6 120 14:58 20.09.2019
1641 Clear 20 1025 60 10000 2.6 0 14:38 20.09.2019
1642 Clear 20 1025 63 10000 3.6 130 14:18 20.09.2019
1643 Clear 19 1026 63 10000 3.1 130 13:47 20.09.2019
1644 Clear 19 1026 67 10000 2.6 0 13:27 20.09.2019
1645 Clear 18 1026 67 10000 2.6 0 12:56 20.09.2019
1646 Clear 18 1027 72 10000 2.1 160 12:36 20.09.2019
1647 Clear 17 1027 72 10000 2.1 160 12:18 20.09.2019
1648 Clear 17 1027 67 10000 2.1 0 11:45 20.09.2019
1649 Clear 16 1027 72 10000 2.1 0 11:20 20.09.2019
1650 Clear 15 1027 76 10000 0.5 0 10:43 20.09.2019
1651 Clear 15 1027 76 10000 0.5 0 10:43 20.09.2019
1652 Clear 14 1027 76 10000 0.5 0 10:23 20.09.2019
1653 Fog 12 1027 81 10000 1 0 09:39 20.09.2019
1654 Fog 11 1027 81 10000 1 0 09:19 20.09.2019
1655 Fog 10 1027 81 10000 1 0 08:59 20.09.2019
1656 Fog 10 1027 81 10000 1 0 08:59 20.09.2019
1657 Fog 10 1027 81 10000 1 0 08:59 20.09.2019
1658 Fog 10 1027 81 10000 1 0 08:40 20.09.2019
1659 Fog 9 1027 81 10000 1 0 08:21 20.09.2019
1660 Mist 9 1027 93 10000 1 130 07:43 20.09.2019
1661 Mist 9 1027 93 10000 1.5 130 07:24 20.09.2019
1662 Mist 9 1028 100 10000 1.5 90 06:44 20.09.2019
1663 Mist 9 1028 100 10000 1.5 90 06:20 20.09.2019
1664 Mist 10 1028 93 10000 1 120 05:22 20.09.2019
1665 Mist 10 1029 93 10000 1.5 110 03:30 20.09.2019
1666 Mist 10 1029 93 10000 1.5 110 03:30 20.09.2019
1667 Mist 11 1029 93 10000 2.1 100 02:44 20.09.2019
1668 Clear 11 1030 93 10000 0.5 0 01:44 20.09.2019
1669 Clear 11 1030 93 10000 0.5 0 01:44 20.09.2019
1670 Clear 12 1030 87 10000 0.5 0 00:44 20.09.2019
1671 Clear 12 1030 93 10000 1 0 23:56 19.09.2019
1672 Clear 12 1030 93 10000 1.5 120 23:38 19.09.2019
1673 Clear 13 1030 93 10000 1.5 120 23:18 19.09.2019
1674 Clear 13 1030 87 10000 1.5 140 22:40 19.09.2019
1675 Clear 13 1030 87 10000 1.5 140 22:22 19.09.2019
1676 Clear 14 1029 87 10000 1.5 150 21:57 19.09.2019
1677 Clear 14 1029 82 10000 1 140 21:39 19.09.2019
1678 Clear 15 1029 82 10000 1 140 21:19 19.09.2019
1679 Clear 16 1029 67 10000 0.5 210 20:57 19.09.2019
1680 Clear 16 1030 63 10000 1 210 20:39 19.09.2019
1681 Clear 17 1030 63 10000 1 210 20:19 19.09.2019
1682 Clear 18 1030 63 10000 1 230 19:54 19.09.2019
1683 Clear 18 1030 77 10000 1.03 327.742 19:36 19.09.2019
1684 Clear 19 1030 63 10000 1.5 0 19:18 19.09.2019
1685 Clear 19 1030 59 10000 1.5 0 18:41 19.09.2019
1686 Clear 19 1030 59 10000 1.5 0 18:22 19.09.2019
1687 Clear 20 1030 59 10000 1.5 0 17:43 19.09.2019
1688 Clear 20 1030 59 10000 1.5 0 17:24 19.09.2019
1689 Clear 20 1031 59 10000 1.5 0 16:59 19.09.2019
1690 Haze 20 1031 59 5000 1.5 0 16:40 19.09.2019
1691 Haze 20 1031 59 5000 1.5 0 16:20 19.09.2019
1692 Clouds 20 1031 63 10000 1 0 15:40 19.09.2019
1693 Clouds 19 1031 63 10000 1 0 15:21 19.09.2019
1694 Clouds 19 1032 72 10000 1 0 14:58 19.09.2019
1695 Clouds 19 1032 72 10000 1.5 0 14:38 19.09.2019
1696 Clouds 18 1032 72 10000 1.5 0 14:18 19.09.2019
1697 Clouds 18 1032 77 10000 1.5 0 13:40 19.09.2019
1698 Clouds 18 1032 77 10000 1.5 0 13:40 19.09.2019
1699 Clouds 18 1032 77 10000 1.5 0 13:40 19.09.2019
1700 Clouds 17 1032 82 10000 1 0 13:21 19.09.2019
1701 Clouds 17 1032 82 10000 1 0 12:58 19.09.2019
1702 Clouds 16 1032 82 10000 1.5 0 12:36 19.09.2019
1703 Clouds 16 1032 82 10000 1.5 0 12:36 19.09.2019
1704 Clouds 15 1032 82 10000 1.5 0 12:18 19.09.2019
1705 Clouds 15 1032 82 10000 1.5 0 12:18 19.09.2019
1706 Clouds 14 1032 93 9000 1 0 11:41 19.09.2019
1707 Clouds 14 1032 93 9000 1 0 11:41 19.09.2019
1708 Clouds 14 1032 93 9000 1 0 11:21 19.09.2019
1709 Fog 13 1032 93 6000 1 0 10:57 19.09.2019
1710 Fog 12 1032 93 8000 0.5 0 10:37 19.09.2019
1711 Fog 12 1032 93 8000 0.5 0 10:18 19.09.2019
1712 Mist 11 1032 93 10000 1 0 09:42 19.09.2019
1713 Mist 10 1031 93 10000 0.5 0 09:22 19.09.2019
1714 Fog 9 1031 100 10000 1 0 08:56 19.09.2019
1715 Fog 8 1031 93 10000 1.5 100 08:37 19.09.2019
1716 Fog 8 1031 93 10000 1.5 100 08:19 19.09.2019
1717 Clouds 8 1031 93 10000 1.5 80 07:43 19.09.2019
1718 Clouds 8 1031 93 10000 1.5 80 07:22 19.09.2019
1719 Clouds 8 1031 93 10000 0.5 0 06:47 19.09.2019
1720 Clouds 8 1031 93 10000 1 110 06:27 19.09.2019
1721 Clouds 9 1031 93 10000 0.5 0 05:52 19.09.2019
1722 Clouds 9 1031 93 10000 1 0 04:58 19.09.2019
1723 Clouds 9 1031 93 10000 0.5 0 03:52 19.09.2019
1724 Clouds 9 1031 100 10000 1 120 02:45 19.09.2019
1725 Clouds 10 1031 93 10000 0.5 0 01:27 19.09.2019
1726 Clouds 11 1031 87 10000 1 0 00:50 19.09.2019
1727 Clear 11 1031 81 10000 0.5 0 00:26 19.09.2019
1728 Clear 12 1031 82 10000 1.5 300 23:42 18.09.2019
1729 Clear 12 1031 82 10000 1.5 300 23:21 18.09.2019
1730 Clear 13 1031 82 10000 1 290 22:48 18.09.2019
1731 Clear 13 1031 76 10000 2.1 290 22:23 18.09.2019
1732 Clear 13 1030 71 10000 1.5 300 21:59 18.09.2019
1733 Clear 14 1030 71 10000 1.5 0 21:41 18.09.2019
1734 Clouds 14 1030 71 10000 1.5 0 21:19 18.09.2019
1735 Clouds 14 1030 67 10000 2.1 280 20:59 18.09.2019
1736 Clouds 14 1030 67 10000 1.5 280 20:40 18.09.2019
1737 Clouds 15 1030 67 10000 1.5 280 20:22 18.09.2019
1738 Clouds 15 1030 67 10000 2.6 300 19:59 18.09.2019
1739 Clouds 15 1030 67 10000 3.1 290 19:41 18.09.2019
1740 Clouds 15 1030 63 10000 3.6 290 19:19 18.09.2019
1741 Clouds 16 1030 63 10000 3.6 290 18:56 18.09.2019
1742 Clouds 16 1030 67 10000 4.1 290 18:37 18.09.2019
1743 Clouds 16 1030 67 10000 4.1 290 18:19 18.09.2019
1744 Clouds 16 1030 67 10000 4.1 300 17:58 18.09.2019
1745 Clouds 16 1030 67 10000 3.6 280 17:39 18.09.2019
1746 Clouds 16 1030 67 10000 3.6 280 17:19 18.09.2019
1747 Clouds 16 1030 59 10000 3.1 300 16:56 18.09.2019
1748 Clouds 17 1030 63 10000 2.6 310 16:38 18.09.2019
1749 Clouds 17 1030 63 10000 2.6 310 16:18 18.09.2019
1750 Clouds 17 1030 63 10000 3.1 270 15:55 18.09.2019
1751 Clouds 17 1030 63 10000 2.6 270 15:37 18.09.2019
1752 Clouds 17 1030 63 10000 2.6 270 15:37 18.09.2019
1753 Clear 17 1030 63 10000 2.6 270 15:18 18.09.2019
1754 Clear 16 1030 62 10000 2.6 300 14:57 18.09.2019
1755 Clear 16 1031 67 10000 3.1 280 14:38 18.09.2019
1756 Clear 16 1031 67 10000 3.1 280 14:20 18.09.2019
1757 Clear 15 1031 71 10000 2.1 270 13:42 18.09.2019
1758 Clear 15 1030 76 10000 1.5 0 13:19 18.09.2019
1759 Clear 15 1030 82 10000 1.5 0 12:53 18.09.2019
1760 Clear 14 1030 81 10000 1 0 12:32 18.09.2019
1761 Clear 14 1030 81 10000 1 0 12:32 18.09.2019
1762 Clear 13 1031 81 10000 1 0 11:59 18.09.2019
1763 Clear 13 1031 81 10000 1 0 11:39 18.09.2019
1764 Clear 12 1031 81 10000 1 0 11:19 18.09.2019
1765 Clear 11 1030 81 10000 0.5 0 10:40 18.09.2019
1766 Clear 11 1030 81 10000 0.5 0 10:40 18.09.2019
1767 Clear 10 1030 81 10000 0.5 0 10:21 18.09.2019
1768 Clear 10 1030 81 10000 0.5 0 10:21 18.09.2019
1769 Clear 9 1030 87 10000 0.5 110 09:58 18.09.2019
1770 Clear 9 1030 87 10000 1 130 09:38 18.09.2019
1771 Clear 8 1030 87 10000 1 130 09:20 18.09.2019
1772 Clear 7 1030 93 10000 1 110 08:44 18.09.2019
1773 Clear 7 1029 93 10000 0.5 80 08:25 18.09.2019
1774 Clear 6 1029 93 10000 1.56 173.436 07:59 18.09.2019
1775 Clear 6 1029 93 10000 0.5 0 07:40 18.09.2019
1776 Clear 6 1029 93 10000 0.5 0 07:22 18.09.2019
1777 Clear 7 1029 93 10000 1 50 06:40 18.09.2019
1778 Clear 7 1029 87 10000 0.5 130 05:50 18.09.2019
1779 Clear 7 1029 87 10000 1 100 04:57 18.09.2019
1780 Clear 8 1029 87 10000 0.5 0 03:19 18.09.2019
1781 Clear 8 1029 93 10000 0.5 0 02:29 18.09.2019
1782 Clear 8 1029 93 10000 1.5 130 01:21 18.09.2019
1783 Clear 9 1029 93 10000 1 0 00:49 18.09.2019
1784 Clear 9 1029 93 10000 1.5 140 00:21 18.09.2019
1785 Clear 9 1029 87 10000 1 0 23:45 17.09.2019
1786 Clear 10 1028 87 10000 1 0 23:22 17.09.2019
1787 Clear 10 1028 87 10000 1 0 22:43 17.09.2019
1788 Clear 10 1028 76 10000 0.5 0 22:24 17.09.2019
1789 Clear 11 1028 76 10000 2.1 290 21:55 17.09.2019
1790 Clear 11 1028 76 10000 2.1 290 21:55 17.09.2019
1791 Clear 11 1027 71 10000 2.1 270 21:37 17.09.2019
1792 Clear 12 1027 71 10000 2.1 270 21:19 17.09.2019
1793 Clouds 12 1027 71 10000 3.1 300 20:58 17.09.2019
1794 Clouds 13 1027 67 10000 3.1 290 20:40 17.09.2019
1795 Clouds 13 1027 67 10000 3.1 290 20:22 17.09.2019
1796 Clouds 14 1027 62 10000 3.1 300 19:58 17.09.2019
1797 Clouds 15 1027 59 10000 4.1 290 19:39 17.09.2019
1798 Clouds 15 1027 59 10000 4.1 290 19:19 17.09.2019
1799 Clouds 15 1027 58 10000 3.1 320 18:56 17.09.2019
1800 Clouds 15 1026 59 10000 4.6 300 18:38 17.09.2019
1801 Clouds 16 1026 59 10000 4.6 300 18:20 17.09.2019
1802 Clouds 16 1026 59 10000 4.6 300 18:20 17.09.2019
1803 Clouds 16 1027 55 10000 5.1 300 17:45 17.09.2019
1804 Clouds 16 1027 55 10000 5.1 300 17:20 17.09.2019
1805 Clouds 16 1027 55 10000 4.6 320 16:57 17.09.2019
1806 Clouds 16 1026 59 10000 4.6 320 16:37 17.09.2019
1807 Clouds 16 1026 59 10000 4.6 320 16:19 17.09.2019
1808 Clouds 16 1027 55 10000 5.1 340 15:40 17.09.2019
1809 Clouds 16 1027 55 10000 5.1 340 15:20 17.09.2019
1810 Clouds 16 1027 51 10000 4.1 330 14:56 17.09.2019
1811 Clouds 16 1027 54 10000 5.1 330 14:38 17.09.2019
1812 Clouds 16 1027 54 10000 5.1 330 14:19 17.09.2019
1813 Clouds 16 1027 58 10000 4.6 320 13:56 17.09.2019
1814 Clouds 16 1027 58 10000 4.6 320 13:56 17.09.2019
1815 Clouds 16 1026 51 10000 4.6 340 13:38 17.09.2019
1816 Clear 16 1026 51 10000 4.6 340 13:20 17.09.2019
1817 Rain 15 1026 54 10000 5.7 340 12:42 17.09.2019
1818 Rain 15 1026 54 10000 5.7 340 12:19 17.09.2019
1819 Rain 15 1026 54 10000 5.7 340 12:19 17.09.2019
1820 Rain 14 1026 67 10000 4.1 330 11:44 17.09.2019
1821 Rain 14 1026 71 10000 4.1 340 11:26 17.09.2019
1822 Clear 14 1026 76 10000 2.6 330 10:57 17.09.2019
1823 Clouds 13 1026 81 10000 2.6 340 10:39 17.09.2019
1824 Clouds 13 1026 81 10000 2.6 340 10:20 17.09.2019
1825 Clear 12 1026 87 10000 1.5 0 09:43 17.09.2019
1826 Clouds 11 1025 87 10000 0.5 0 09:24 17.09.2019
1827 Clouds 10 1025 87 10000 1.5 0 08:57 17.09.2019
1828 Clouds 10 1025 87 10000 2.1 310 08:38 17.09.2019
1829 Clouds 10 1025 87 10000 2.1 310 08:19 17.09.2019
1830 Clouds 10 1024 87 10000 0.5 0 07:42 17.09.2019
1831 Clouds 10 1024 87 10000 0.5 0 07:24 17.09.2019
1832 Clouds 10 1024 87 10000 0.5 0 06:52 17.09.2019
1833 Clouds 10 1024 87 10000 3.44 330.994 06:25 17.09.2019
1834 Clouds 10 1024 93 10000 1 260 05:51 17.09.2019
1835 Clouds 10 1024 93 10000 0.5 0 04:32 17.09.2019
1836 Clear 10 1024 93 10000 1.5 300 03:34 17.09.2019
1837 Clear 9 1024 93 10000 2.1 280 02:39 17.09.2019
1838 Clear 9 1024 93 10000 2.1 280 02:39 17.09.2019
1839 Clear 10 1024 87 10000 0.5 0 01:34 17.09.2019
1840 Clear 10 1024 81 10000 2.6 290 00:43 17.09.2019
1841 Clear 10 1024 81 10000 1.5 0 23:41 16.09.2019
1842 Clear 11 1024 81 10000 1.5 0 23:19 16.09.2019
1843 Clouds 11 1024 81 10000 1.5 240 22:56 16.09.2019
1844 Clouds 11 1024 81 10000 1.5 240 22:56 16.09.2019
1845 Clouds 11 1024 81 10000 1.5 270 22:38 16.09.2019
1846 Clouds 11 1024 81 10000 1.5 270 22:20 16.09.2019
1847 Clouds 12 1024 76 10000 1.5 300 21:55 16.09.2019
1848 Clouds 12 1024 76 10000 1.5 300 21:55 16.09.2019
1849 Clouds 12 1024 76 10000 2.6 300 21:36 16.09.2019
1850 Clouds 12 1024 76 10000 2.6 300 21:18 16.09.2019
1851 Rain 13 1023 71 10000 3.6 310 20:40 16.09.2019
1852 Rain 13 1023 71 10000 3.6 310 20:21 16.09.2019
1853 Rain 14 1023 67 10000 3.6 300 19:57 16.09.2019
1854 Clouds 14 1023 62 10000 4.6 310 19:39 16.09.2019
1855 Clouds 14 1023 62 10000 4.6 310 19:19 16.09.2019
1856 Clouds 15 1023 62 10000 4.1 300 18:47 16.09.2019
1857 Clouds 15 1023 59 10000 4.1 290 18:28 16.09.2019
1858 Clouds 16 1023 63 10000 3.6 290 17:57 16.09.2019
1859 Clouds 16 1023 63 10000 3.6 290 17:57 16.09.2019
1860 Clouds 16 1023 63 10000 3.6 310 17:38 16.09.2019
1861 Clouds 16 1023 63 10000 3.6 310 17:20 16.09.2019
1862 Clouds 16 1023 63 10000 3.6 280 16:54 16.09.2019
1863 Clouds 16 1023 63 10000 4.1 290 16:36 16.09.2019
1864 Clouds 16 1023 63 10000 4.1 290 16:18 16.09.2019
1865 Clouds 16 1023 72 10000 3.1 280 15:54 16.09.2019
1866 Clouds 16 1023 67 10000 3.1 290 15:36 16.09.2019
1867 Clouds 16 1023 67 10000 3.1 290 15:18 16.09.2019
1868 Clouds 16 1023 72 10000 2.6 310 14:40 16.09.2019
1869 Clouds 16 1023 72 10000 2.6 310 14:22 16.09.2019
1870 Clouds 16 1023 67 10000 2.1 310 13:55 16.09.2019
1871 Clouds 16 1023 77 10000 1.5 0 13:37 16.09.2019
1872 Clouds 15 1023 77 10000 1.5 0 13:18 16.09.2019
1873 Clouds 15 1023 77 10000 1.5 0 13:18 16.09.2019
1874 Clouds 15 1023 82 10000 2.1 50 12:39 16.09.2019
1875 Clouds 14 1023 82 10000 2.1 50 12:21 16.09.2019
1876 Clouds 14 1023 76 10000 2.1 40 11:46 16.09.2019
1877 Rain 13 1023 82 10000 1.5 0 11:23 16.09.2019
1878 Clouds 13 1022 87 10000 2.1 60 10:56 16.09.2019
1879 Clouds 12 1022 100 10000 2.1 30 10:38 16.09.2019
1880 Clouds 12 1022 100 10000 2.1 30 10:19 16.09.2019
1881 Rain 12 1022 100 10000 2.1 310 09:55 16.09.2019
1882 Rain 12 1022 100 8000 2.6 320 09:36 16.09.2019
1883 Rain 12 1022 100 8000 2.6 320 09:18 16.09.2019
1884 Drizzle 11 1021 100 9000 2.1 300 08:41 16.09.2019
1885 Drizzle 11 1021 100 9000 2.1 300 08:41 16.09.2019
1886 Rain 11 1021 100 9000 2.1 300 08:22 16.09.2019
1887 Rain 11 1021 100 10000 1.5 320 07:43 16.09.2019
1888 Rain 11 1021 100 7000 1.5 320 07:24 16.09.2019
1889 Rain 12 1021 100 8000 2.1 330 06:58 16.09.2019
1890 Rain 12 1021 100 7000 1 330 06:39 16.09.2019
1891 Rain 12 1021 100 7000 1 330 06:20 16.09.2019
1892 Clouds 12 1022 100 10000 1.5 340 05:42 16.09.2019
1893 Clouds 12 1022 100 10000 1.5 340 05:21 16.09.2019
1894 Rain 12 1022 100 3800 2.1 350 03:37 16.09.2019
1895 Rain 12 1022 100 3100 2.1 40 01:20 16.09.2019
1896 Rain 12 1023 100 4500 1.5 40 00:38 16.09.2019
1897 Rain 12 1023 100 4500 1.5 40 00:20 16.09.2019
1898 Rain 12 1023 100 4500 1 330 23:39 15.09.2019
1899 Rain 12 1023 100 4500 1 330 23:20 15.09.2019
1900 Rain 12 1023 93 7000 1.5 270 22:39 15.09.2019
1901 Rain 12 1023 93 7000 1.5 270 22:39 15.09.2019
1902 Rain 13 1023 93 7000 1.5 270 22:20 15.09.2019
1903 Rain 13 1023 93 10000 1 280 21:57 15.09.2019
1904 Rain 13 1023 93 8000 0.5 0 21:39 15.09.2019
1905 Rain 13 1023 93 8000 0.5 0 21:39 15.09.2019
1906 Rain 13 1023 93 8000 0.5 0 21:20 15.09.2019
1907 Rain 13 1023 93 8000 0.5 0 21:20 15.09.2019
1908 Rain 13 1023 93 7000 1 0 20:46 15.09.2019
1909 Rain 13 1023 93 10000 1 0 20:27 15.09.2019
1910 Rain 13 1023 93 10000 1 0 19:59 15.09.2019
1911 Rain 13 1023 93 10000 1.5 300 19:41 15.09.2019
1912 Rain 13 1023 93 10000 1.5 300 19:22 15.09.2019
1913 Drizzle 14 1024 87 2800 3.1 320 18:42 15.09.2019
1914 Drizzle 14 1024 87 2800 3.1 320 18:23 15.09.2019
1915 Rain 14 1024 87 10000 2.6 330 17:56 15.09.2019
1916 Rain 14 1024 82 10000 2.6 310 17:36 15.09.2019
1917 Rain 14 1024 82 10000 2.6 310 17:18 15.09.2019
1918 Drizzle 15 1024 82 10000 1.5 0 16:42 15.09.2019
1919 Rain 15 1024 82 10000 2.1 250 16:22 15.09.2019
1920 Rain 15 1024 82 10000 2.1 240 15:57 15.09.2019
1921 Clouds 15 1024 82 10000 2.1 250 15:38 15.09.2019
1922 Clouds 15 1024 82 10000 2.1 250 15:19 15.09.2019
1923 Clouds 15 1024 82 10000 2.1 250 15:19 15.09.2019
1924 Clouds 15 1024 82 10000 3.1 270 14:55 15.09.2019
1925 Clouds 15 1024 82 10000 3.1 270 14:55 15.09.2019
1926 Clouds 15 1024 82 10000 3.1 270 14:55 15.09.2019
1927 Rain 15 1024 82 10000 2.6 270 14:37 15.09.2019
1928 Rain 15 1024 82 10000 2.6 270 14:19 15.09.2019
1929 Rain 15 1024 87 10000 3.1 240 13:43 15.09.2019
1930 Rain 15 1024 93 10000 2.1 290 13:22 15.09.2019
1931 Rain 15 1024 93 10000 2.1 290 13:22 15.09.2019
1932 Rain 15 1024 93 10000 3.1 320 12:43 15.09.2019
1933 Rain 15 1024 93 10000 3.1 320 12:24 15.09.2019
1934 Rain 15 1024 93 8000 3.1 310 11:58 15.09.2019
1935 Rain 15 1024 93 2800 4.6 330 11:40 15.09.2019
1936 Rain 15 1024 93 2800 4.6 330 11:20 15.09.2019
1937 Rain 15 1024 93 3500 4.6 250 10:42 15.09.2019
1938 Rain 15 1024 93 3500 4.6 250 10:22 15.09.2019
1939 Rain 15 1024 100 1500 4.6 240 09:58 15.09.2019
1940 Rain 15 1023 93 1800 3.6 230 09:37 15.09.2019
1941 Rain 15 1023 93 1800 3.6 230 09:19 15.09.2019
1942 Rain 15 1023 93 2500 3.1 220 08:45 15.09.2019
1943 Rain 15 1023 100 3800 2.1 180 08:26 15.09.2019
1944 Rain 15 1023 93 2500 2.1 180 07:48 15.09.2019
1945 Rain 14 1023 87 4400 2.6 190 07:25 15.09.2019
1946 Rain 14 1024 82 10000 2.1 200 06:33 15.09.2019
1947 Clouds 14 1024 87 10000 2.1 180 03:25 15.09.2019
1948 Clouds 13 1025 87 10000 2.1 170 02:30 15.09.2019
1949 Clouds 14 1025 82 10000 2.6 190 01:38 15.09.2019
1950 Clouds 14 1026 82 10000 3.1 190 00:58 15.09.2019
1951 Clouds 14 1026 87 10000 3.1 210 00:39 15.09.2019
1952 Clouds 14 1026 87 10000 3.1 210 00:19 15.09.2019
1953 Clouds 14 1026 82 10000 2.1 200 23:56 14.09.2019
1954 Clouds 14 1026 82 10000 2.1 200 23:56 14.09.2019
1955 Clouds 14 1026 82 10000 1.5 200 23:38 14.09.2019
1956 Clouds 14 1026 82 10000 1.5 200 23:19 14.09.2019
1957 Clouds 15 1026 76 10000 2.6 190 22:57 14.09.2019
1958 Clouds 15 1027 76 10000 2.6 180 22:38 14.09.2019
1959 Clouds 15 1027 76 10000 2.6 180 22:18 14.09.2019
1960 Clouds 16 1027 67 10000 2.1 200 21:40 14.09.2019
1961 Clouds 16 1027 67 10000 2.1 200 21:21 14.09.2019
1962 Clouds 16 1027 67 10000 3.1 220 20:59 14.09.2019
1963 Clouds 17 1027 59 10000 3.6 200 20:39 14.09.2019
1964 Clouds 17 1027 59 10000 3.6 200 20:21 14.09.2019
1965 Clouds 18 1027 59 10000 3.1 220 19:49 14.09.2019
1966 Clouds 19 1027 55 10000 2.6 220 19:23 14.09.2019
1967 Clouds 19 1028 59 10000 3.6 220 18:58 14.09.2019
1968 Clouds 20 1028 52 10000 3.6 230 18:38 14.09.2019
1969 Clouds 19 1028 52 10000 3.6 230 18:38 14.09.2019
1970 Clouds 20 1028 52 10000 3.6 230 18:20 14.09.2019
1971 Clouds 20 1028 52 10000 4.6 230 17:44 14.09.2019
1972 Clouds 20 1029 52 10000 3.6 220 17:24 14.09.2019
1973 Clouds 20 1029 52 10000 5.1 230 16:54 14.09.2019
1974 Clouds 20 1030 52 10000 4.6 230 16:36 14.09.2019
1975 Clouds 20 1030 52 10000 4.6 230 16:18 14.09.2019
1976 Clear 19 1031 52 10000 4.6 220 15:41 14.09.2019
1977 Clear 19 1031 52 10000 4.6 220 15:22 14.09.2019
1978 Clouds 19 1031 52 10000 3.1 200 14:45 14.09.2019
1979 Clouds 19 1031 55 10000 3.6 200 14:20 14.09.2019
1980 Clouds 19 1032 59 10000 3.6 210 13:56 14.09.2019
1981 Clouds 18 1032 63 10000 3.6 210 13:38 14.09.2019
1982 Clouds 18 1032 63 10000 3.6 210 13:20 14.09.2019
1983 Clouds 18 1032 67 10000 2.6 190 12:45 14.09.2019
1984 Clouds 16 1033 72 10000 3.1 200 12:22 14.09.2019
1985 Clear 15 1033 82 10000 2.1 190 11:41 14.09.2019
1986 Clouds 14 1033 81 10000 2.1 190 11:20 14.09.2019
1987 Clouds 13 1034 87 10000 2.1 180 10:40 14.09.2019
1988 Clouds 12 1034 87 10000 2.1 180 10:21 14.09.2019
1989 Clouds 11 1034 93 10000 1 0 09:58 14.09.2019
1990 Clouds 10 1034 93 10000 1 190 09:40 14.09.2019
1991 Clouds 9 1034 93 10000 1 190 09:20 14.09.2019
1992 Clouds 7 1033 93 10000 1 0 08:48 14.09.2019
1993 Clouds 7 1034 100 10000 2.1 160 08:26 14.09.2019
1994 Clouds 6 1034 93 10000 0.5 0 07:49 14.09.2019
1995 Clouds 7 1034 93 10000 0.5 0 07:29 14.09.2019
1996 Clouds 6 1035 93 10000 0.5 60 06:54 14.09.2019
1997 Clouds 7 1035 93 10000 0.5 0 06:31 14.09.2019
1998 Clouds 7 1035 100 10000 1.5 90 05:27 14.09.2019
1999 Clouds 7 1036 100 10000 0.5 120 03:47 14.09.2019
2000 Clouds 7 1036 93 10000 0.5 0 02:55 14.09.2019
2001 Clouds 7 1036 93 10000 0.5 0 02:55 14.09.2019
2002 Clouds 8 1036 93 10000 0.5 0 01:59 14.09.2019
2003 Clouds 8 1036 93 10000 1 100 01:39 14.09.2019
2004 Clouds 8 1036 93 10000 1 100 01:18 14.09.2019
2005 Clouds 9 1036 93 10000 1 0 00:39 14.09.2019
2006 Clear 9 1036 93 10000 1 0 00:21 14.09.2019
2007 Clear 9 1036 93 10000 1 0 00:21 14.09.2019
2008 Clear 9 1036 93 10000 1 0 00:21 14.09.2019
2009 Clear 10 1037 76 10000 1 0 23:38 13.09.2019
2010 Clear 10 1037 76 10000 1 0 23:38 13.09.2019
2011 Clear 10 1037 76 10000 1 0 23:19 13.09.2019
2012 Clear 10 1037 71 10000 0.5 0 22:59 13.09.2019
2013 Clear 11 1037 66 10000 0.5 0 22:39 13.09.2019
2014 Clear 11 1037 66 10000 0.5 0 22:20 13.09.2019
2015 Clear 12 1037 66 10000 2.1 330 21:55 13.09.2019
2016 Clear 12 1037 58 10000 2.1 300 21:37 13.09.2019
2017 Clear 13 1037 58 10000 2.1 300 21:18 13.09.2019
2018 Clouds 13 1036 58 10000 2.1 300 20:55 13.09.2019
2019 Clear 14 1036 54 10000 2.6 290 20:36 13.09.2019
2020 Clear 14 1036 54 10000 2.6 290 20:18 13.09.2019
2021 Clouds 15 1036 55 10000 3.6 270 19:42 13.09.2019
2022 Clouds 16 1036 55 10000 3.6 270 19:20 13.09.2019
2023 Clouds 16 1036 55 10000 3.6 290 18:57 13.09.2019
2024 Clouds 16 1036 51 10000 4.1 290 18:37 13.09.2019
2025 Clouds 16 1036 51 10000 4.1 290 18:18 13.09.2019
2026 Clouds 17 1036 51 10000 4.1 300 17:39 13.09.2019
2027 Clouds 17 1036 51 10000 4.1 300 17:19 13.09.2019
2028 Clouds 17 1036 55 10000 4.6 290 16:42 13.09.2019
2029 Clouds 17 1036 55 10000 4.1 300 16:22 13.09.2019
2030 Clouds 17 1036 55 10000 4.1 290 15:58 13.09.2019
2031 Clouds 17 1036 59 10000 3.1 280 15:39 13.09.2019
2032 Clouds 17 1036 59 10000 3.1 280 15:20 13.09.2019
2033 Clouds 17 1036 59 10000 3.1 310 14:44 13.09.2019
2034 Clouds 17 1036 55 10000 2.1 220 14:22 13.09.2019
2035 Clouds 17 1036 62 10000 2.1 300 13:56 13.09.2019
2036 Clouds 17 1036 63 10000 2.6 280 13:37 13.09.2019
2037 Clouds 16 1036 72 10000 2.1 260 13:18 13.09.2019
2038 Clouds 16 1036 72 10000 1.5 0 12:41 13.09.2019
2039 Clouds 15 1036 72 10000 1.5 0 12:23 13.09.2019
2040 Clouds 15 1036 76 10000 2.1 280 11:55 13.09.2019
2041 Clouds 15 1036 82 10000 1.5 0 11:19 13.09.2019
2042 Clouds 13 1035 87 10000 1.5 0 10:40 13.09.2019
2043 Clouds 13 1035 87 10000 1.5 0 10:20 13.09.2019
2044 Clouds 12 1035 93 10000 1 0 09:46 13.09.2019
2045 Clouds 10 1035 93 10000 1 0 09:25 13.09.2019
2046 Clouds 10 1034 93 10000 1.5 120 08:59 13.09.2019
2047 Clouds 9 1034 93 10000 1 0 08:40 13.09.2019
2048 Clouds 9 1034 93 10000 1 0 08:20 13.09.2019
2049 Clouds 8 1033 93 10000 2.1 300 07:46 13.09.2019
2050 Clouds 9 1033 93 10000 2.6 300 07:27 13.09.2019
2051 Clouds 9 1033 93 10000 1 0 06:48 13.09.2019
2052 Clouds 10 1032 93 10000 1 0 05:49 13.09.2019
2053 Clouds 11 1032 87 10000 1.5 310 04:57 13.09.2019
2054 Clouds 10 1031 87 10000 2.1 320 03:40 13.09.2019
2055 Clouds 11 1030 81 10000 2.6 310 02:20 13.09.2019
2056 Clouds 12 1030 81 10000 4.1 310 01:52 13.09.2019
2057 Clouds 12 1029 82 10000 3.6 300 01:33 13.09.2019
2058 Clouds 12 1029 82 10000 3.6 300 01:33 13.09.2019
2059 Clouds 13 1029 87 10000 3.6 290 00:39 13.09.2019
2060 Clouds 13 1028 87 10000 4.6 300 23:59 12.09.2019
2061 Clouds 14 1028 82 10000 4.6 300 23:37 12.09.2019
2062 Clouds 14 1027 87 10000 4.6 300 22:59 12.09.2019
2063 Clouds 14 1027 93 10000 4.1 280 22:41 12.09.2019
2064 Clouds 14 1027 93 10000 4.1 280 22:41 12.09.2019
2065 Clouds 15 1027 93 10000 4.1 280 22:23 12.09.2019
2066 Rain 15 1026 93 10000 6.2 300 21:57 12.09.2019
2067 Rain 15 1025 93 10000 6.2 270 21:38 12.09.2019
2068 Rain 16 1025 93 10000 6.2 270 21:19 12.09.2019
2069 Rain 16 1024 88 3500 7.2 250 20:55 12.09.2019
2070 Rain 17 1024 77 10000 5.7 230 20:37 12.09.2019
2071 Rain 17 1024 77 10000 5.7 230 20:19 12.09.2019
2072 Rain 17 1024 77 10000 5.7 230 20:19 12.09.2019
2073 Rain 18 1023 77 10000 9.3 240 19:41 12.09.2019
2074 Rain 18 1023 77 10000 9.3 240 19:20 12.09.2019
2075 Rain 18 1023 82 10000 6.2 230 18:58 12.09.2019
2076 Rain 19 1023 72 10000 6.2 220 18:37 12.09.2019
2077 Rain 19 1023 72 10000 5.7 220 18:18 12.09.2019
2078 Rain 19 1023 68 10000 6.7 220 17:41 12.09.2019
2079 Rain 19 1023 68 10000 6.7 220 17:22 12.09.2019
2080 Rain 19 1023 68 10000 7.2 220 16:58 12.09.2019
2081 Rain 19 1023 68 10000 7.2 220 16:58 12.09.2019
2082 Rain 19 1023 77 10000 8.7 220 16:40 12.09.2019
2083 Rain 19 1023 77 10000 8.7 220 16:20 12.09.2019
2084 Rain 20 1023 77 10000 5.7 210 15:42 12.09.2019
2085 Rain 20 1023 77 10000 5.7 210 15:24 12.09.2019
2086 Rain 20 1023 73 10000 6.2 220 14:48 12.09.2019
2087 Clouds 20 1023 77 10000 4.1 210 14:23 12.09.2019
2088 Clouds 19 1023 77 10000 4.6 200 13:59 12.09.2019
2089 Drizzle 19 1023 82 10000 5.1 210 13:39 12.09.2019
2090 Drizzle 19 1023 82 10000 5.1 210 13:20 12.09.2019
2091 Clouds 18 1023 82 10000 4.6 200 12:48 12.09.2019
2092 Rain 18 1023 82 10000 2.6 190 12:19 12.09.2019
2093 Clouds 17 1023 82 10000 3.1 190 11:58 12.09.2019
2094 Clouds 17 1023 82 10000 3.1 180 11:39 12.09.2019
2095 Clouds 17 1023 82 10000 3.1 180 11:21 12.09.2019
2096 Rain 16 1023 87 10000 3.6 190 10:48 12.09.2019
2097 Rain 15 1023 93 10000 2.6 180 10:26 12.09.2019
2098 Rain 14 1023 87 10000 2.6 190 09:56 12.09.2019
2099 Rain 14 1023 87 10000 2.6 190 09:38 12.09.2019
2100 Rain 14 1023 87 10000 2.6 190 09:18 12.09.2019
2101 Rain 14 1023 93 10000 2.6 190 08:43 12.09.2019
2102 Rain 13 1023 87 10000 2.6 190 08:22 12.09.2019
2103 Clouds 13 1023 87 10000 2.6 200 07:45 12.09.2019
2104 Clouds 13 1022 87 10000 2.6 200 07:20 12.09.2019
2105 Clouds 13 1022 87 10000 2.1 190 06:51 12.09.2019
2106 Clouds 13 1022 87 10000 2.1 180 06:31 12.09.2019
2107 Clouds 13 1022 87 10000 2.1 190 05:52 12.09.2019
2108 Clouds 13 1022 93 10000 2.1 190 05:34 12.09.2019
2109 Clouds 13 1023 93 10000 2.6 190 04:41 12.09.2019
2110 Clouds 13 1022 87 10000 2.1 210 02:59 12.09.2019
2111 Clouds 13 1021 82 10000 2.1 210 01:37 12.09.2019
2112 Clouds 13 1021 82 10000 2.1 210 01:19 12.09.2019
2113 Clouds 13 1021 82 10000 2.6 220 00:44 12.09.2019
2114 Clouds 14 1021 82 10000 2.6 220 00:24 12.09.2019
2115 Clouds 14 1021 82 10000 2.6 200 23:42 11.09.2019
2116 Clouds 14 1021 82 10000 2.6 200 23:24 11.09.2019
2117 Clouds 14 1021 82 10000 2.6 200 23:24 11.09.2019
2118 Clouds 14 1021 82 10000 2.1 180 22:57 11.09.2019
2119 Clouds 14 1021 82 10000 2.1 210 22:37 11.09.2019
2120 Clouds 14 1021 82 10000 2.1 210 22:19 11.09.2019
2121 Clouds 15 1020 76 10000 2.1 230 21:43 11.09.2019
2122 Clouds 15 1020 72 10000 2.6 220 21:25 11.09.2019
2123 Clouds 15 1020 67 10000 3.6 250 20:58 11.09.2019
2124 Rain 16 1020 67 10000 5.1 270 20:40 11.09.2019
2125 Rain 16 1020 67 10000 5.1 270 20:20 11.09.2019
2126 Clouds 16 1019 67 10000 5.1 280 19:58 11.09.2019
2127 Clouds 17 1019 67 10000 5.1 280 19:40 11.09.2019
2128 Clouds 17 1019 67 10000 5.1 280 19:21 11.09.2019
2129 Clouds 17 1019 67 10000 6.2 280 18:58 11.09.2019
2130 Clouds 17 1019 67 10000 5.7 280 18:40 11.09.2019
2131 Clouds 18 1019 67 10000 5.7 280 18:22 11.09.2019
2132 Clouds 18 1019 59 10000 6.7 290 17:56 11.09.2019
2133 Clouds 18 1018 59 10000 7.2 280 17:38 11.09.2019
2134 Clouds 18 1018 59 10000 7.2 280 17:19 11.09.2019
2135 Clouds 18 1018 63 10000 6.2 270 16:48 11.09.2019
2136 Clouds 18 1018 55 10000 7.2 280 16:25 11.09.2019
2137 Clouds 18 1018 63 10000 9.3 290 15:54 11.09.2019
2138 Clouds 18 1018 63 10000 9.3 290 15:54 11.09.2019
2139 Clouds 18 1017 59 10000 10.3 280 15:36 11.09.2019
2140 Clouds 18 1017 59 10000 10.3 280 15:18 11.09.2019
2141 Clouds 18 1016 68 10000 8.7 270 14:42 11.09.2019
2142 Clouds 18 1016 68 10000 8.7 270 14:21 11.09.2019
2143 Rain 18 1016 72 10000 9.3 270 13:59 11.09.2019
2144 Rain 17 1015 82 10000 7.7 280 13:38 11.09.2019
2145 Rain 17 1015 82 10000 7.7 280 13:20 11.09.2019
2146 Rain 17 1015 82 10000 6.7 290 12:56 11.09.2019
2147 Rain 17 1014 93 10000 6.7 270 12:37 11.09.2019
2148 Rain 17 1014 93 10000 6.7 270 12:19 11.09.2019
2149 Rain 17 1014 93 3100 6.2 230 11:39 11.09.2019
2150 Rain 17 1014 93 3100 6.2 230 11:21 11.09.2019
2151 Rain 17 1013 100 6000 5.7 230 10:55 11.09.2019
2152 Rain 17 1013 93 5000 6.2 230 10:37 11.09.2019
2153 Rain 17 1013 93 5000 6.2 230 10:19 11.09.2019
2154 Rain 16 1013 93 4000 4.6 230 09:38 11.09.2019
2155 Rain 16 1013 93 4000 4.6 230 09:19 11.09.2019
2156 Rain 16 1012 93 10000 4.1 210 08:42 11.09.2019
2157 Rain 16 1013 93 6000 3.1 200 08:22 11.09.2019
2158 Rain 16 1013 93 10000 3.6 220 07:59 11.09.2019
2159 Rain 15 1013 93 10000 4.1 190 07:39 11.09.2019
2160 Rain 15 1013 93 10000 4.1 190 07:20 11.09.2019
2161 Rain 15 1013 87 10000 3.6 190 06:44 11.09.2019
2162 Rain 15 1013 87 10000 3.6 190 06:21 11.09.2019
2163 Clouds 14 1014 87 10000 3.6 200 05:35 11.09.2019
2164 Rain 14 1014 93 10000 3.6 190 04:53 11.09.2019
2165 Rain 13 1015 87 5000 4.1 200 04:18 11.09.2019
2166 Rain 13 1015 82 10000 3.6 200 03:27 11.09.2019
2167 Clouds 13 1016 82 10000 3.1 200 02:32 11.09.2019
2168 Clouds 13 1017 81 10000 3.6 190 01:32 11.09.2019
2169 Rain 12 1017 81 10000 3.1 200 00:37 11.09.2019
2170 Rain 13 1017 81 10000 3.1 200 00:19 11.09.2019
2171 Rain 13 1018 71 10000 2.6 210 23:40 10.09.2019
2172 Rain 13 1018 71 10000 2.6 210 23:21 10.09.2019
2173 Drizzle 13 1018 71 10000 5.1 250 22:55 10.09.2019
2174 Clouds 13 1018 76 10000 2.1 220 22:37 10.09.2019
2175 Clouds 13 1018 76 10000 2.1 220 22:18 10.09.2019
2176 Clouds 13 1018 76 10000 1.5 200 21:54 10.09.2019
2177 Clouds 14 1018 82 10000 1.5 250 21:36 10.09.2019
2178 Clouds 14 1018 82 10000 1.5 250 21:18 10.09.2019
2179 Clouds 14 1018 82 10000 1.5 250 21:18 10.09.2019
2180 Clouds 14 1018 71 10000 2.6 270 20:54 10.09.2019
2181 Clouds 14 1019 67 10000 3.1 280 20:36 10.09.2019
2182 Clouds 14 1019 67 10000 3.1 280 20:18 10.09.2019
2183 Clouds 15 1019 67 10000 2.6 270 19:54 10.09.2019
2184 Clouds 15 1019 67 10000 3.1 270 19:36 10.09.2019
2185 Clouds 15 1019 67 10000 3.1 270 19:18 10.09.2019
2186 Clouds 16 1019 55 10000 3.6 280 18:42 10.09.2019
2187 Clouds 16 1019 55 10000 3.6 280 18:22 10.09.2019
2188 Clouds 16 1019 55 10000 4.6 280 17:55 10.09.2019
2189 Clouds 16 1019 59 10000 5.1 270 17:37 10.09.2019
2190 Clouds 16 1019 59 10000 5.1 270 17:19 10.09.2019
2191 Clouds 16 1020 59 10000 4.6 280 16:56 10.09.2019
2192 Clouds 16 1020 62 10000 5.1 270 16:37 10.09.2019
2193 Clouds 16 1020 62 10000 5.1 270 16:18 10.09.2019
2194 Clouds 16 1020 59 10000 5.1 270 15:43 10.09.2019
2195 Clouds 16 1020 59 10000 5.1 260 15:21 10.09.2019
2196 Clouds 16 1020 63 10000 5.1 280 14:55 10.09.2019
2197 -273 0 0 0 0 0 14:55 10.09.2019
2198 Clouds 16 1019 62 10000 5.1 280 14:36 10.09.2019
2199 Clouds 16 1019 62 10000 5.1 280 14:36 10.09.2019
2200 Clouds 16 1019 62 10000 5.1 280 14:18 10.09.2019
2201 Clouds 16 1019 67 10000 4.6 290 13:43 10.09.2019
2202 Clouds 16 1019 72 10000 5.7 280 13:22 10.09.2019
2203 Clouds 15 1019 77 10000 5.1 270 12:50 10.09.2019
2204 Clouds 15 1019 72 10000 5.1 300 12:28 10.09.2019
2205 Rain 15 1019 72 10000 5.1 310 11:58 10.09.2019
2206 Clouds 14 1019 93 10000 2.6 280 11:39 10.09.2019
2207 Clouds 14 1019 93 10000 2.6 280 11:21 10.09.2019
2208 Fog 13 1019 77 10000 3.6 310 10:42 10.09.2019
2209 Fog 13 1019 77 10000 3.6 310 10:20 10.09.2019
2210 Fog 13 1018 100 5000 1.5 220 09:57 10.09.2019
2211 Mist 12 1018 100 2900 1.5 0 09:39 10.09.2019
2212 Mist 12 1018 100 2900 1.5 0 09:19 10.09.2019
2213 Fog 11 1018 100 1000 1 0 08:45 10.09.2019
2214 Fog 11 1018 100 1000 1 0 08:27 10.09.2019
2215 Fog 11 1017 100 100 1 0 07:46 10.09.2019
2216 Fog 11 1017 100 100 1 0 07:46 10.09.2019
2217 Fog 11 1017 100 100 1 0 07:27 10.09.2019
2218 Fog 11 1016 93 50 0.5 160 06:56 10.09.2019
2219 Fog 11 1016 93 50 1.08 324.506 06:36 10.09.2019
2220 Fog 10 1016 93 350 0.5 0 06:18 10.09.2019
2221 Fog 11 1015 93 8000 1 250 03:58 10.09.2019
2222 Fog 11 1015 93 8000 1 250 03:58 10.09.2019
2223 Rain 12 1015 100 10000 1 340 02:24 10.09.2019
2224 Rain 12 1015 100 10000 1 340 02:24 10.09.2019
2225 Mist 12 1015 100 7000 1.5 310 01:59 10.09.2019
2226 Mist 12 1015 100 7000 1.5 310 01:59 10.09.2019
2227 Mist 12 1015 100 7000 1.5 310 01:59 10.09.2019
2228 Mist 12 1015 93 10000 1.5 300 01:41 10.09.2019
2229 Mist 12 1015 93 10000 1.5 300 01:21 10.09.2019
2230 Rain 13 1014 100 7000 3.1 320 00:25 10.09.2019
2231 Rain 13 1013 87 10000 0.5 0 23:48 09.09.2019
2232 Rain 13 1013 87 10000 0.5 0 23:20 09.09.2019
2233 Drizzle 13 1013 87 10000 0.5 0 22:57 09.09.2019
2234 Drizzle 13 1012 87 10000 0.5 0 22:39 09.09.2019
2235 Drizzle 13 1012 93 10000 1 0 22:20 09.09.2019
2236 Drizzle 13 1012 93 10000 1 0 21:58 09.09.2019
2237 Drizzle 13 1012 93 10000 1 0 21:39 09.09.2019
2238 Drizzle 13 1012 93 10000 1 0 21:20 09.09.2019
2239 Drizzle 14 1011 87 10000 1 0 20:57 09.09.2019
2240 Rain 14 1011 87 10000 1.5 0 20:37 09.09.2019
2241 Rain 14 1011 87 10000 2.1 360 20:19 09.09.2019
2242 Rain 14 1011 87 10000 2.1 360 19:58 09.09.2019
2243 Rain 14 1010 82 10000 2.1 170 19:39 09.09.2019
2244 Rain 14 1010 87 10000 1.5 0 19:19 09.09.2019
2245 Rain 14 1010 87 10000 1.5 0 18:57 09.09.2019
2246 Rain 14 1009 87 10000 4.6 320 18:39 09.09.2019
2247 Rain 14 1009 93 10000 2.6 50 18:21 09.09.2019
2248 Rain 14 1009 93 10000 2.6 50 17:58 09.09.2019
2249 Rain 14 1009 87 10000 2.6 140 17:40 09.09.2019
2250 Rain 14 1009 87 10000 2.6 140 17:21 09.09.2019
2251 Drizzle 14 1009 87 10000 1.5 0 16:55 09.09.2019
2252 Rain 14 1009 87 10000 1.5 0 16:37 09.09.2019
2253 Rain 14 1009 87 10000 1.5 0 16:18 09.09.2019
2254 Rain 14 1009 87 10000 1.5 0 15:55 09.09.2019
2255 Rain 14 1009 87 10000 1.5 0 15:55 09.09.2019
2256 Rain 14 1009 87 10000 1.5 0 15:55 09.09.2019
2257 Rain 14 1008 100 2500 2.1 90 15:36 09.09.2019
2258 Rain 14 1008 100 2500 2.1 90 15:18 09.09.2019
2259 Rain 14 1009 93 9000 2.1 180 14:54 09.09.2019
2260 Rain 13 1009 93 10000 2.1 180 14:36 09.09.2019
2261 Rain 13 1009 93 10000 2.1 180 14:18 09.09.2019
2262 Rain 13 1008 100 8000 3.1 150 13:43 09.09.2019
2263 Rain 13 1009 93 9000 2.6 180 13:19 09.09.2019
2264 Rain 13 1009 93 9000 2.6 180 12:57 09.09.2019
2265 -273 0 0 0 0 0 12:38 09.09.2019
2266 Rain 12 1009 100 5000 4.6 150 12:19 09.09.2019
2267 Rain 12 1010 93 10000 2.1 170 11:43 09.09.2019
2268 Rain 12 1010 93 10000 2.1 170 11:20 09.09.2019
2269 Rain 12 1010 93 10000 1.5 0 10:57 09.09.2019
2270 Rain 12 1010 93 10000 2.1 140 10:39 09.09.2019
2271 Rain 11 1010 93 10000 2.1 140 10:19 09.09.2019
2272 Rain 11 1011 93 2400 2.1 140 09:49 09.09.2019
2273 Rain 11 1011 87 2700 2.1 150 09:30 09.09.2019
2274 Rain 11 1011 87 10000 1.5 0 08:57 09.09.2019
2275 Rain 11 1011 87 10000 1.5 0 08:38 09.09.2019
2276 Rain 11 1012 87 10000 1.5 0 08:19 09.09.2019
2277 Rain 11 1012 87 10000 1.5 0 08:19 09.09.2019
2278 Rain 11 1012 81 10000 1.5 0 07:41 09.09.2019
2279 Rain 11 1012 81 10000 1.5 0 07:21 09.09.2019
2280 Rain 11 1012 81 10000 1 0 06:54 09.09.2019
2281 Rain 11 1012 81 10000 1 0 06:54 09.09.2019
2282 Rain 11 1013 81 10000 1.5 0 06:27 09.09.2019
2283 Clouds 12 1015 93 10000 1 220 03:21 09.09.2019
2284 Clouds 12 1016 81 10000 1 100 02:42 09.09.2019
2285 Clouds 12 1017 87 10000 0.5 80 01:25 09.09.2019
2286 Clouds 12 1018 87 10000 1 0 00:24 09.09.2019
2287 Clouds 12 1018 87 10000 1 0 23:56 08.09.2019
2288 Clouds 12 1018 87 10000 1 0 23:56 08.09.2019
2289 Clouds 13 1018 87 10000 1 110 23:38 08.09.2019
2290 Clouds 13 1019 87 10000 1.5 110 23:19 08.09.2019
2291 Clouds 13 1019 81 10000 1.5 100 22:41 08.09.2019
2292 Clouds 13 1019 81 10000 1.5 100 22:23 08.09.2019
2293 Clouds 13 1019 81 10000 1.5 100 22:23 08.09.2019
2294 Clouds 13 1019 81 10000 1 0 21:59 08.09.2019
2295 Clouds 13 1019 76 9000 1 100 21:40 08.09.2019
2296 Clouds 14 1019 76 9000 1 100 21:22 08.09.2019
2297 Clouds 14 1020 67 10000 0.5 0 20:55 08.09.2019
2298 Clouds 15 1020 62 10000 1.5 290 20:37 08.09.2019
2299 Clouds 15 1020 62 10000 1.5 290 20:18 08.09.2019
2300 Clouds 16 1020 62 10000 2.1 290 19:39 08.09.2019
2301 Clouds 16 1020 62 10000 2.1 290 19:21 08.09.2019
2302 Clouds 16 1021 63 10000 2.6 290 18:59 08.09.2019
2303 Clouds 16 1021 59 10000 2.1 260 18:39 08.09.2019
2304 Clouds 17 1021 59 10000 2.6 280 18:19 08.09.2019
2305 Clouds 17 1021 59 10000 2.6 280 17:58 08.09.2019
2306 Clouds 17 1022 63 10000 2.6 300 17:37 08.09.2019
2307 Clouds 17 1022 63 10000 2.6 300 17:18 08.09.2019
2308 Clouds 17 1022 63 10000 3.1 300 16:56 08.09.2019
2309 Clouds 17 1022 63 10000 1.5 0 16:37 08.09.2019
2310 Clouds 17 1022 63 10000 1.5 0 16:19 08.09.2019
2311 Clouds 17 1023 59 10000 3.1 240 15:42 08.09.2019
2312 Clouds 17 1023 59 10000 3.1 240 15:22 08.09.2019
2313 Clouds 17 1023 59 10000 3.1 240 15:22 08.09.2019
2314 Clouds 17 1023 67 10000 2.6 250 14:59 08.09.2019
2315 Clouds 16 1023 67 10000 0.5 0 14:39 08.09.2019
2316 Clouds 16 1023 67 10000 0.5 0 14:21 08.09.2019
2317 Clouds 16 1024 67 10000 1 0 13:57 08.09.2019
2318 Clouds 16 1024 67 10000 1 0 13:38 08.09.2019
2319 Clouds 16 1024 67 10000 1 0 13:20 08.09.2019
2320 Clouds 15 1025 71 10000 1.5 0 12:44 08.09.2019
2321 Clouds 15 1025 71 10000 1.5 0 12:24 08.09.2019
2322 Clouds 15 1025 76 10000 1.5 0 11:59 08.09.2019
2323 Clouds 14 1025 76 10000 2.1 220 11:41 08.09.2019
2324 Clouds 13 1025 76 10000 2.1 220 11:20 08.09.2019
2325 Clouds 13 1025 76 10000 2.1 220 11:20 08.09.2019
2326 Clouds 13 1025 81 10000 1.5 0 10:59 08.09.2019
2327 Clouds 12 1025 81 10000 1 0 10:41 08.09.2019
2328 Clouds 11 1025 81 10000 1 0 10:22 08.09.2019
2329 Clouds 11 1025 81 10000 1 0 10:22 08.09.2019
2330 Clouds 10 1025 81 10000 1 0 09:55 08.09.2019
2331 Clouds 9 1025 93 10000 0.5 110 09:37 08.09.2019
2332 Clouds 8 1025 93 10000 0.5 110 09:18 08.09.2019
2333 Clouds 6 1026 93 10000 1.5 110 08:39 08.09.2019
2334 Clouds 5 1026 93 10000 1.5 110 08:18 08.09.2019
2335 Clouds 5 1026 93 10000 1.5 100 07:41 08.09.2019
2336 Clouds 6 1026 93 10000 1.5 100 07:21 08.09.2019
2337 Clouds 6 1026 93 10000 1.5 110 06:57 08.09.2019
2338 Clear 6 1025 87 10000 2.1 280 06:34 08.09.2019
2339 Clear 6 1027 93 10000 1.5 100 05:39 08.09.2019
2340 Clear 7 1027 93 10000 0.5 70 04:27 08.09.2019
2341 Clear 7 1027 87 10000 0.5 60 03:19 08.09.2019
2342 Clear 8 1027 87 10000 1 120 02:36 08.09.2019
2343 Clear 8 1027 87 10000 0.5 120 01:53 08.09.2019
2344 Clear 8 1027 87 10000 0.5 40 01:25 08.09.2019
2345 Clear 9 1027 76 10000 2.6 70 00:47 08.09.2019
2346 Clear 9 1027 76 10000 2.6 70 00:28 08.09.2019
2347 Clear 10 1027 76 10000 1.5 70 23:39 07.09.2019
2348 Clear 10 1027 76 10000 1.5 70 23:21 07.09.2019
2349 Clear 10 1027 71 10000 2.6 40 22:59 07.09.2019
2350 Clear 10 1027 71 10000 2.6 40 22:59 07.09.2019
2351 Clouds 11 1027 71 10000 1 70 22:40 07.09.2019
2352 Clouds 11 1027 71 10000 1 70 22:22 07.09.2019
2353 Clouds 12 1027 62 10000 2.1 70 21:54 07.09.2019
2354 Clouds 12 1026 54 10000 2.1 50 21:36 07.09.2019
2355 Clouds 13 1026 54 10000 2.1 50 21:18 07.09.2019
2356 Clouds 14 1026 51 10000 1.5 0 20:39 07.09.2019
2357 Clouds 15 1026 54 10000 2.1 60 20:20 07.09.2019
2358 Clouds 15 1026 54 10000 2.1 60 20:20 07.09.2019
2359 Clouds 15 1026 54 10000 2.1 60 19:56 07.09.2019
2360 Clouds 15 1026 51 10000 3.1 350 19:37 07.09.2019
2361 Clouds 16 1026 51 10000 2.1 350 19:19 07.09.2019
2362 Clouds 16 1026 51 10000 2.1 350 18:58 07.09.2019
2363 Clouds 16 1026 51 10000 3.6 20 18:38 07.09.2019
2364 Clouds 16 1026 55 10000 3.1 320 18:20 07.09.2019
2365 Clouds 16 1026 55 10000 3.1 320 17:56 07.09.2019
2366 Clouds 16 1025 55 10000 2.6 40 17:38 07.09.2019
2367 Clouds 16 1025 55 10000 2.6 40 17:18 07.09.2019
2368 Clouds 17 1025 55 10000 3.1 10 16:43 07.09.2019
2369 Clouds 17 1025 59 10000 3.1 40 16:23 07.09.2019
2370 Clouds 17 1025 59 10000 3.1 40 15:57 07.09.2019
2371 Clouds 16 1025 59 10000 2.1 30 15:38 07.09.2019
2372 Clouds 16 1025 62 10000 4.6 30 15:20 07.09.2019
2373 Clouds 16 1025 62 10000 4.6 30 14:55 07.09.2019
2374 Clouds 16 1025 62 10000 4.6 30 14:55 07.09.2019
2375 Clouds 16 1025 62 10000 3.1 10 14:36 07.09.2019
2376 Clouds 16 1025 62 10000 3.1 360 14:18 07.09.2019
2377 Clouds 15 1025 62 10000 2.1 0 13:43 07.09.2019
2378 -273 0 0 0 0 0 13:25 07.09.2019
2379 Clouds 15 1025 62 10000 2.1 0 13:25 07.09.2019
2380 Clouds 15 1024 71 10000 1 0 12:46 07.09.2019
2381 Clouds 15 1024 71 10000 1 0 12:26 07.09.2019
2382 Clouds 14 1024 76 10000 2.1 50 11:59 07.09.2019
2383 Clouds 14 1024 76 10000 3.1 40 11:40 07.09.2019
2384 Clouds 14 1024 76 10000 3.1 40 11:21 07.09.2019
2385 Clouds 14 1023 82 10000 2.1 10 10:41 07.09.2019
2386 Clouds 13 1023 82 10000 2.1 10 10:22 07.09.2019
2387 Rain 13 1023 82 10000 2.1 360 09:58 07.09.2019
2388 Rain 13 1023 82 10000 2.6 360 09:39 07.09.2019
2389 Rain 13 1023 82 10000 2.6 360 09:39 07.09.2019
2390 Rain 12 1023 82 10000 2.6 360 09:20 07.09.2019
2391 Clouds 12 1022 87 10000 2.6 300 08:44 07.09.2019
2392 Clouds 12 1022 87 10000 2.6 300 08:26 07.09.2019
2393 Clouds 12 1022 87 10000 2.6 300 08:26 07.09.2019
2394 Clouds 12 1022 87 10000 3.1 330 07:48 07.09.2019
2395 Clouds 12 1022 93 10000 2.1 340 07:28 07.09.2019
2396 Rain 12 1021 93 10000 2.1 320 06:53 07.09.2019
2397 Clouds 12 1021 93 10000 2.6 270 06:29 07.09.2019
2398 Rain 12 1021 93 10000 1.5 300 05:32 07.09.2019
2399 Clouds 12 1021 93 10000 3.1 280 04:23 07.09.2019
2400 Rain 12 1021 87 10000 2.6 270 02:52 07.09.2019
2401 Rain 12 1020 93 10000 3.6 270 02:20 07.09.2019
2402 Clouds 12 1020 93 10000 3.6 280 01:26 07.09.2019
2403 Rain 12 1020 87 5000 2.6 290 00:44 07.09.2019
2404 Clouds 12 1020 87 10000 2.6 270 00:21 07.09.2019
2405 Rain 13 1020 87 10000 2.1 240 23:43 06.09.2019
2406 Rain 13 1020 87 10000 2.1 240 23:22 06.09.2019
2407 Rain 13 1020 87 10000 2.1 240 23:22 06.09.2019
2408 Rain 13 1020 82 10000 3.6 260 22:58 06.09.2019
2409 Rain 13 1020 82 10000 2.6 260 22:39 06.09.2019
2410 Rain 13 1020 82 10000 2.6 260 22:19 06.09.2019
2411 Rain 14 1020 76 10000 2.6 290 21:58 06.09.2019
2412 Rain 14 1019 76 10000 3.1 300 21:39 06.09.2019
2413 Rain 14 1019 76 10000 3.1 300 21:21 06.09.2019
2414 Rain 14 1019 76 10000 3.1 290 20:58 06.09.2019
2415 Rain 14 1019 76 10000 5.1 290 20:39 06.09.2019
2416 Rain 14 1019 76 10000 5.1 290 20:39 06.09.2019
2417 Rain 14 1019 76 10000 5.1 290 20:21 06.09.2019
2418 Rain 15 1019 67 10000 5.1 280 19:55 06.09.2019
2419 Rain 15 1019 67 10000 5.7 280 19:37 06.09.2019
2420 Rain 15 1019 67 10000 5.7 280 19:18 06.09.2019
2421 Rain 15 1019 67 10000 7.2 280 18:41 06.09.2019
2422 Rain 15 1019 67 10000 7.2 280 18:41 06.09.2019
2423 Rain 15 1019 67 10000 7.2 280 18:23 06.09.2019
2424 Rain 15 1018 72 10000 4.1 280 17:59 06.09.2019
2425 Rain 16 1018 67 10000 6.2 290 17:38 06.09.2019
2426 Rain 16 1018 59 10000 8.2 290 17:19 06.09.2019
2427 Rain 16 1018 59 10000 8.2 290 17:19 06.09.2019
2428 Clouds 16 1018 63 10000 7.2 290 16:39 06.09.2019
2429 Clouds 16 1018 59 10000 9.3 290 16:19 06.09.2019
2430 Rain 16 1018 67 10000 8.2 290 15:42 06.09.2019
2431 Rain 16 1018 67 10000 8.2 290 15:42 06.09.2019
2432 Rain 16 1018 67 10000 8.2 290 15:24 06.09.2019
2433 Rain 16 1018 67 10000 7.7 310 14:55 06.09.2019
2434 Rain 16 1018 67 10000 7.7 310 14:55 06.09.2019
2435 Rain 16 1018 82 10000 4.6 270 14:37 06.09.2019
2436 Rain 16 1018 82 10000 4.6 270 14:37 06.09.2019
2437 Rain 15 1017 67 10000 8.7 290 14:18 06.09.2019
2438 Rain 15 1017 82 10000 7.2 260 13:41 06.09.2019
2439 Rain 15 1017 82 10000 7.2 260 13:20 06.09.2019
2440 Rain 14 1017 93 10000 4.6 210 12:38 06.09.2019
2441 Rain 15 1017 93 10000 4.6 210 12:19 06.09.2019
2442 Rain 14 1017 93 8000 3.6 210 11:54 06.09.2019
2443 Rain 14 1018 87 10000 3.1 210 11:36 06.09.2019
2444 Rain 14 1018 87 10000 3.6 200 11:18 06.09.2019
2445 Rain 14 1018 93 10000 4.6 210 10:40 06.09.2019
2446 Rain 13 1018 93 10000 4.6 210 10:21 06.09.2019
2447 Rain 13 1018 93 4100 4.1 210 09:57 06.09.2019
2448 Rain 13 1016 87 9000 10.3 250 09:36 06.09.2019
2449 Rain 13 1018 76 4000 4.1 210 09:18 06.09.2019
2450 Rain 13 1019 76 10000 3.6 210 08:42 06.09.2019
2451 Rain 13 1019 76 10000 3.6 210 08:24 06.09.2019
2452 Rain 13 1019 76 10000 3.1 200 07:47 06.09.2019
2453 Rain 13 1019 76 10000 3.1 200 07:27 06.09.2019
2454 Clouds 13 1020 81 10000 3.6 200 06:57 06.09.2019
2455 Rain 13 1020 81 10000 2.6 200 06:21 06.09.2019
2456 Clouds 13 1022 76 10000 5.7 240 05:43 06.09.2019
2457 Clouds 13 1022 87 10000 4.6 240 04:48 06.09.2019
2458 Drizzle 13 1022 87 10000 2.6 200 03:52 06.09.2019
2459 Clouds 12 1024 81 10000 2.6 200 01:54 06.09.2019
2460 Clouds 12 1025 81 10000 2.6 200 00:41 06.09.2019
2461 Clouds 12 1025 81 10000 3.1 220 23:45 05.09.2019
2462 Clouds 12 1025 81 10000 3.1 220 23:45 05.09.2019
2463 Clouds 13 1025 81 10000 3.1 220 23:26 05.09.2019
2464 Clouds 13 1025 81 10000 3.1 230 22:58 05.09.2019
2465 Clouds 13 1025 81 10000 3.1 230 22:58 05.09.2019
2466 Clouds 13 1025 81 10000 2.6 230 22:40 05.09.2019
2467 Clouds 13 1025 81 10000 2.6 230 22:40 05.09.2019
2468 Clouds 13 1025 81 10000 2.6 230 22:22 05.09.2019
2469 Clouds 13 1025 81 10000 2.1 220 21:56 05.09.2019
2470 Clouds 13 1026 76 10000 2.6 220 21:37 05.09.2019
2471 Clouds 13 1026 76 10000 2.6 220 21:37 05.09.2019
2472 Clouds 14 1026 76 10000 3.6 250 21:19 05.09.2019
2473 Clouds 14 1026 76 10000 3.6 250 20:56 05.09.2019
2474 Clouds 14 1026 67 10000 4.1 260 20:37 05.09.2019
2475 Clouds 15 1025 67 10000 7.7 270 20:19 05.09.2019
2476 Clouds 15 1026 72 10000 4.6 270 19:42 05.09.2019
2477 Clouds 15 1026 72 10000 4.6 270 19:24 05.09.2019
2478 Rain 16 1026 72 10000 8.2 280 18:58 05.09.2019
2479 Rain 15 1026 72 10000 5.7 280 18:39 05.09.2019
2480 Rain 16 1026 72 10000 5.7 250 18:20 05.09.2019
2481 Rain 16 1026 72 10000 5.7 250 17:56 05.09.2019
2482 Rain 16 1027 72 10000 6.2 280 17:37 05.09.2019
2483 Rain 16 1026 72 10000 7.2 280 17:18 05.09.2019
2484 Rain 16 1026 67 10000 5.7 270 16:40 05.09.2019
2485 Rain 16 1026 67 10000 5.7 270 16:20 05.09.2019
2486 Rain 16 1026 62 10000 6.2 280 15:58 05.09.2019
2487 Rain 16 1026 67 10000 6.2 270 15:39 05.09.2019
2488 Rain 16 1027 71 10000 6.7 290 15:18 05.09.2019
2489 Rain 16 1027 71 10000 6.7 290 15:18 05.09.2019
2490 Rain 15 1027 71 10000 6.7 290 15:18 05.09.2019
2491 Rain 15 1026 67 10000 6.7 280 14:43 05.09.2019
2492 Rain 15 1026 67 10000 6.7 280 14:22 05.09.2019
2493 Rain 15 1026 76 10000 6.7 290 13:44 05.09.2019
2494 Rain 14 1026 76 10000 6.7 290 13:23 05.09.2019
2495 Rain 14 1026 67 10000 5.7 280 12:59 05.09.2019
2496 Rain 14 1026 76 10000 5.1 300 12:41 05.09.2019
2497 Rain 14 1026 76 10000 5.1 300 12:41 05.09.2019
2498 Rain 14 1026 76 10000 5.1 300 12:22 05.09.2019
2499 Rain 14 1026 66 10000 4.6 290 11:44 05.09.2019
2500 Rain 13 1025 66 10000 3.1 300 11:20 05.09.2019
2501 Rain 13 1025 66 10000 3.1 300 10:55 05.09.2019
2502 Rain 13 1025 71 10000 2.1 270 10:36 05.09.2019
2503 Rain 12 1025 66 10000 1.5 0 10:18 05.09.2019
2504 Rain 11 1025 81 10000 1.5 0 09:40 05.09.2019
2505 Rain 11 1025 81 10000 1.5 0 09:20 05.09.2019
2506 Rain 10 1024 76 10000 2.1 310 08:47 05.09.2019
2507 Rain 9 1024 76 10000 2.1 310 08:28 05.09.2019
2508 Rain 9 1024 76 10000 2.1 310 08:28 05.09.2019
2509 Clear 9 1024 81 10000 3.1 300 07:56 05.09.2019
2510 Clear 9 1024 81 10000 3.1 300 07:56 05.09.2019
2511 Clear 9 1024 81 10000 3.1 300 07:56 05.09.2019
2512 Clear 9 1023 81 10000 4.1 320 07:37 05.09.2019
2513 Clear 9 1023 81 10000 4.1 320 07:19 05.09.2019
2514 Clear 9 1022 81 10000 3.1 310 06:39 05.09.2019
2515 Clouds 9 1021 75 10000 6.2 290 06:18 05.09.2019
2516 Clouds 10 1022 76 10000 4.6 310 05:41 05.09.2019
2517 Clouds 10 1022 76 10000 4.6 310 05:22 05.09.2019
2518 Rain 11 1021 81 10000 4.6 310 04:29 05.09.2019
2519 Rain 11 1020 81 10000 3.6 310 03:41 05.09.2019
2520 Clouds 11 1020 81 10000 3.6 320 02:54 05.09.2019
2521 Rain 12 1019 81 10000 4.6 320 02:28 05.09.2019
2522 Rain 12 1018 76 10000 4.6 300 01:43 05.09.2019
2523 Rain 12 1018 76 10000 5.7 300 00:51 05.09.2019
2524 Rain 12 1018 76 10000 7.2 320 00:23 05.09.2019
2525 Clouds 12 1016 81 10000 6.7 300 23:59 04.09.2019
2526 Clouds 13 1016 82 10000 7.2 300 23:39 04.09.2019
2527 Rain 13 1015 76 10000 7.7 300 23:18 04.09.2019
2528 Rain 13 1016 82 10000 7.2 300 23:18 04.09.2019
2529 Rain 13 1016 82 10000 7.2 300 23:18 04.09.2019
2530 Rain 13 1015 82 10000 7.7 300 22:47 04.09.2019
2531 Rain 13 1014 82 10000 8.2 290 22:19 04.09.2019
2532 Rain 13 1013 82 10000 8.2 290 21:41 04.09.2019
2533 Rain 14 1013 82 10000 8.2 290 21:21 04.09.2019
2534 Rain 14 1013 72 10000 9.8 310 20:58 04.09.2019
2535 Rain 14 1013 72 10000 9.8 310 20:58 04.09.2019
2536 Rain 14 1012 82 10000 8.2 280 20:40 04.09.2019
2537 Rain 14 1012 82 8000 9.8 300 20:20 04.09.2019
2538 Rain 14 1012 82 8000 9.8 300 19:58 04.09.2019
2539 Rain 14 1012 82 10000 9.3 270 19:39 04.09.2019
2540 Rain 14 1012 82 10000 11.3 260 19:20 04.09.2019
2541 Rain 15 1012 72 10000 9.3 260 18:39 04.09.2019
2542 Rain 15 1011 72 10000 7.7 260 18:20 04.09.2019
2543 Rain 15 1011 72 10000 7.7 260 17:55 04.09.2019
2544 Rain 15 1011 77 10000 9.3 250 17:36 04.09.2019
2545 Rain 15 1011 77 10000 9.3 250 17:18 04.09.2019
2546 Rain 15 1011 77 10000 9.3 250 17:18 04.09.2019
2547 Rain 15 1012 82 10000 6.2 250 16:46 04.09.2019
2548 Rain 15 1012 82 10000 6.2 250 16:46 04.09.2019
2549 Rain 15 1012 82 10000 6.2 250 16:27 04.09.2019
2550 Rain 15 1012 63 10000 8.7 240 15:56 04.09.2019
2551 Rain 15 1010 72 10000 12.9 270 15:38 04.09.2019
2552 Rain 15 1010 72 10000 12.9 270 15:20 04.09.2019
2553 Rain 15 1012 59 10000 8.2 250 14:56 04.09.2019
2554 Rain 16 1012 59 10000 9.3 250 14:37 04.09.2019
2555 Rain 16 1012 59 10000 9.3 260 14:19 04.09.2019
2556 Clouds 16 1011 67 10000 11.8 260 13:40 04.09.2019
2557 Clouds 16 1011 67 10000 11.8 260 13:22 04.09.2019
2558 Rain 15 1012 67 10000 8.7 250 12:58 04.09.2019
2559 Rain 15 1011 67 10000 11.3 260 12:38 04.09.2019
2560 Rain 15 1011 67 10000 11.3 260 12:19 04.09.2019
2561 Rain 14 1011 71 10000 10.3 270 11:55 04.09.2019
2562 Rain 14 1013 76 10000 6.7 260 11:36 04.09.2019
2563 Rain 14 1013 82 10000 6.2 250 11:18 04.09.2019
2564 Rain 14 1013 87 10000 4.1 250 10:42 04.09.2019
2565 Rain 14 1013 87 10000 4.1 250 10:23 04.09.2019
2566 Rain 13 1012 93 10000 4.1 260 09:47 04.09.2019
2567 Rain 13 1012 93 10000 4.1 260 09:27 04.09.2019
2568 Rain 13 1012 87 10000 4.1 270 08:59 04.09.2019
2569 Rain 13 1012 87 10000 5.1 290 08:40 04.09.2019
2570 Rain 13 1012 87 10000 5.1 290 08:21 04.09.2019
2571 Rain 13 1011 93 10000 2.6 270 07:49 04.09.2019
2572 Rain 13 1011 93 10000 2.6 270 07:29 04.09.2019
2573 Clear 14 1010 93 10000 2.6 260 06:40 04.09.2019
2574 Rain 14 1012 93 10000 1.5 250 05:51 04.09.2019
2575 Rain 15 1012 93 5000 3.6 240 04:52 04.09.2019
2576 Rain 15 1013 93 3000 3.6 200 03:52 04.09.2019
2577 Rain 16 1013 93 10000 4.6 220 01:27 04.09.2019
2578 Rain 16 1013 93 10000 4.6 220 01:27 04.09.2019
2579 Rain 16 1014 93 10000 2.6 140 00:50 04.09.2019
2580 Rain 16 1014 93 10000 2.6 140 00:32 04.09.2019
2581 Rain 16 1016 93 10000 3.1 180 23:54 03.09.2019
2582 Rain 16 1015 93 10000 3.1 190 23:54 03.09.2019
2583 Rain 16 1016 93 10000 3.1 180 23:28 03.09.2019
2584 Rain 16 1016 93 10000 3.6 200 22:58 03.09.2019
2585 Rain 16 1016 93 10000 3.1 190 22:39 03.09.2019
2586 Rain 17 1017 93 10000 3.1 200 22:21 03.09.2019
2587 Rain 17 1017 93 10000 3.1 200 21:56 03.09.2019
2588 Rain 17 1017 93 8000 3.6 200 21:36 03.09.2019
2589 Rain 17 1015 93 10000 3.1 220 21:18 03.09.2019
2590 Rain 17 1016 93 10000 2.6 210 20:42 03.09.2019
2591 Rain 17 1018 88 5000 4.1 220 20:24 03.09.2019
2592 Rain 17 1016 93 10000 2.6 210 20:24 03.09.2019
2593 Rain 17 1016 93 10000 2.6 210 20:24 03.09.2019
2594 Rain 18 1018 88 5000 4.1 220 19:55 03.09.2019
2595 Rain 18 1018 82 10000 4.1 220 19:37 03.09.2019
2596 Rain 18 1018 77 10000 4.6 220 19:18 03.09.2019
2597 Rain 18 1018 82 10000 4.1 220 18:44 03.09.2019
2598 -273 0 0 0 0 0 18:25 03.09.2019
2599 Rain 18 1018 82 10000 4.1 220 18:25 03.09.2019
2600 -273 0 0 0 0 0 18:25 03.09.2019
2601 Rain 19 1018 77 10000 4.6 220 17:57 03.09.2019
2602 Rain 19 1019 77 10000 3.1 200 17:39 03.09.2019
2603 Rain 19 1019 77 10000 3.1 200 17:19 03.09.2019
2604 Rain 19 1018 88 10000 7.2 250 16:44 03.09.2019
2605 Rain 19 1018 88 10000 7.2 250 16:23 03.09.2019
2606 Clouds 19 1018 88 10000 6.7 240 15:59 03.09.2019
2607 Clouds 19 1020 72 10000 7.2 240 15:39 03.09.2019
2608 Rain 19 1020 72 10000 6.2 230 15:20 03.09.2019
2609 Rain 19 1020 72 10000 6.2 230 14:57 03.09.2019
2610 Rain 19 1020 77 10000 3.1 210 14:39 03.09.2019
2611 Rain 19 1020 77 10000 3.1 210 14:20 03.09.2019
2612 Clouds 19 1020 68 10000 3.6 210 13:56 03.09.2019
2613 Clouds 19 1021 72 10000 3.1 200 13:37 03.09.2019
2614 Clouds 19 1021 72 10000 3.1 200 13:37 03.09.2019
2615 Clouds 19 1019 82 10000 6.7 250 13:19 03.09.2019
2616 Clouds 19 1020 68 10000 8.7 240 12:48 03.09.2019
2617 Clouds 18 1020 68 10000 8.7 240 12:29 03.09.2019
2618 Clouds 18 1021 72 10000 4.1 210 11:44 03.09.2019
2619 Clouds 17 1021 72 10000 4.1 210 11:25 03.09.2019
2620 Clouds 17 1021 82 10000 2.6 210 10:59 03.09.2019
2621 Clouds 17 1021 82 10000 1.5 0 10:40 03.09.2019
2622 Clouds 16 1021 82 10000 1.5 0 10:22 03.09.2019
2623 Clouds 15 1020 82 10000 7.7 260 09:51 03.09.2019
2624 Clouds 15 1021 87 10000 2.6 180 09:33 03.09.2019
2625 Clouds 14 1021 87 10000 2.1 190 08:57 03.09.2019
2626 Clouds 14 1020 93 10000 2.1 210 08:38 03.09.2019
2627 Clouds 14 1020 93 10000 2.1 210 08:38 03.09.2019
2628 Clouds 14 1020 93 10000 2.1 210 08:19 03.09.2019
2629 Clouds 13 1020 93 10000 2.1 230 07:43 03.09.2019
2630 Clouds 13 1020 93 10000 2.1 230 07:24 03.09.2019
2631 Clouds 13 1020 87 10000 2.1 220 06:50 03.09.2019
2632 Rain 14 1018 87 10000 4.6 240 06:32 03.09.2019
2633 Rain 14 1020 93 10000 2.1 180 03:44 03.09.2019
2634 Clouds 14 1020 87 10000 2.1 200 02:48 03.09.2019
2635 Clouds 14 1020 87 10000 2.6 190 02:29 03.09.2019
2636 Clouds 14 1020 93 10000 3.1 210 01:58 03.09.2019
2637 Clouds 14 1020 87 10000 3.6 220 01:39 03.09.2019
2638 Clouds 14 1020 82 10000 4.1 210 01:20 03.09.2019
2639 Clouds 14 1020 93 10000 2.6 200 00:27 03.09.2019
2640 Clouds 14 1020 87 10000 3.6 210 23:41 02.09.2019
2641 Clouds 14 1020 87 10000 3.6 210 23:41 02.09.2019
2642 Clouds 14 1020 87 10000 3.6 210 23:21 02.09.2019
2643 Rain 14 1020 82 10000 3.6 210 22:58 02.09.2019
2644 Rain 14 1020 82 10000 3.6 210 22:58 02.09.2019
2645 Rain 15 1020 82 10000 3.6 220 22:39 02.09.2019
2646 Rain 15 1020 82 10000 3.6 220 22:39 02.09.2019
2647 Rain 15 1020 82 10000 3.6 220 22:21 02.09.2019
2648 Rain 15 1020 82 10000 3.6 230 21:59 02.09.2019
2649 Rain 15 1020 82 10000 4.1 210 21:40 02.09.2019
2650 Rain 15 1020 82 10000 4.1 210 21:40 02.09.2019
2651 Rain 15 1020 82 10000 4.1 210 21:40 02.09.2019
2652 Rain 15 1020 82 10000 4.1 210 21:20 02.09.2019
2653 Rain 15 1020 82 10000 2.6 210 20:59 02.09.2019
2654 Rain 15 1020 82 10000 2.6 210 20:40 02.09.2019
2655 Rain 15 1019 93 10000 8.2 250 20:19 02.09.2019
2656 Rain 15 1020 82 10000 6.2 230 19:57 02.09.2019
2657 Rain 15 1020 82 10000 6.2 230 19:57 02.09.2019
2658 Rain 15 1020 87 6000 4.1 220 19:39 02.09.2019
2659 Rain 15 1020 82 10000 4.6 220 19:20 02.09.2019
2660 Rain 15 1020 82 10000 4.1 220 18:40 02.09.2019
2661 Rain 15 1020 82 10000 5.1 230 18:22 02.09.2019
2662 Rain 15 1020 82 10000 5.1 230 17:58 02.09.2019
2663 Rain 15 1020 82 10000 5.1 230 17:58 02.09.2019
2664 Rain 16 1020 67 10000 7.7 230 17:39 02.09.2019
2665 Rain 16 1020 67 10000 7.7 230 17:20 02.09.2019
2666 Rain 17 1020 67 10000 4.6 220 16:58 02.09.2019
2667 Clouds 17 1019 77 10000 8.2 260 16:36 02.09.2019
2668 Clouds 17 1019 77 10000 8.2 260 16:18 02.09.2019
2669 Rain 17 1021 67 10000 6.7 230 15:44 02.09.2019
2670 Rain 17 1021 67 10000 6.7 230 15:22 02.09.2019
2671 Clouds 17 1019 77 10000 8.2 250 14:56 02.09.2019
2672 Rain 17 1019 77 10000 8.2 250 14:56 02.09.2019
2673 Clouds 17 1021 67 10000 6.2 240 14:37 02.09.2019
2674 Clouds 17 1020 82 10000 7.7 250 14:19 02.09.2019
2675 Clouds 17 1020 77 10000 6.7 240 13:45 02.09.2019
2676 Clouds 17 1020 77 10000 6.7 240 13:25 02.09.2019
2677 Clouds 17 1021 68 10000 7.2 230 12:59 02.09.2019
2678 Clouds 17 1021 77 10000 5.7 230 12:40 02.09.2019
2679 Clouds 17 1021 77 10000 5.7 230 12:22 02.09.2019
2680 Clouds 16 1021 77 10000 5.7 230 11:55 02.09.2019
2681 Rain 16 1022 72 10000 3.1 210 11:36 02.09.2019
2682 Rain 15 1022 82 10000 3.1 210 11:18 02.09.2019
2683 Rain 15 1022 87 10000 2.1 210 10:42 02.09.2019
2684 Clouds 14 1022 87 10000 2.6 190 10:22 02.09.2019
2685 Clouds 14 1022 87 10000 2.6 190 09:58 02.09.2019
2686 Rain 13 1022 93 10000 2.6 190 09:38 02.09.2019
2687 Rain 12 1021 87 10000 2.1 190 09:20 02.09.2019
2688 Rain 12 1021 93 10000 2.1 190 08:42 02.09.2019
2689 Rain 12 1021 93 10000 2.1 190 08:42 02.09.2019
2690 Rain 11 1021 93 10000 2.1 190 08:21 02.09.2019
2691 Rain 11 1021 93 10000 2.1 170 07:54 02.09.2019
2692 Rain 11 1021 93 10000 2.1 170 07:54 02.09.2019
2693 Rain 11 1021 93 10000 1.5 0 07:36 02.09.2019
2694 Clouds 11 1020 93 10000 3.6 260 07:18 02.09.2019
2695 Rain 11 1021 93 10000 5.7 270 06:39 02.09.2019
2696 Rain 11 1021 93 10000 2.1 210 05:53 02.09.2019
2697 Rain 11 1021 93 6000 2.6 190 05:22 02.09.2019
2698 Rain 11 1021 87 10000 3.1 180 04:47 02.09.2019
2699 Rain 11 1021 81 10000 2.1 170 01:59 02.09.2019
2700 Rain 12 1020 82 10000 3.1 190 00:58 02.09.2019
2701 Clouds 12 1020 81 10000 2.6 270 00:32 02.09.2019
2702 Clear 12 1021 81 10000 2.1 190 00:00 02.09.2019
2703 Clear 12 1021 87 10000 2.1 170 23:38 01.09.2019
2704 Clear 12 1021 87 10000 1.5 0 23:18 01.09.2019
2705 Clear 12 1021 87 10000 1.5 0 22:54 01.09.2019
2706 Clear 12 1020 76 10000 1 220 22:36 01.09.2019
2707 Clear 12 1020 71 10000 1.5 240 22:18 01.09.2019
2708 Clear 12 1020 71 10000 2.6 260 21:41 01.09.2019
2709 Rain 13 1020 71 10000 2.6 260 21:23 01.09.2019
2710 Rain 13 1020 71 10000 2.6 260 21:23 01.09.2019
2711 Rain 13 1020 67 10000 3.6 280 20:57 01.09.2019
2712 Rain 14 1018 71 10000 7.2 270 20:38 01.09.2019
2713 Rain 14 1019 63 10000 6.2 280 20:19 01.09.2019
2714 Rain 15 1019 63 10000 6.2 280 19:58 01.09.2019
2715 Rain 15 1019 71 10000 3.6 280 19:39 01.09.2019
2716 Clouds 15 1019 72 10000 5.1 270 19:20 01.09.2019
2717 Rain 15 1019 76 10000 5.1 290 18:43 01.09.2019
2718 Rain 15 1019 76 10000 5.1 290 18:25 01.09.2019
2719 Rain 15 1019 76 10000 6.2 320 17:57 01.09.2019
2720 Rain 15 1018 71 10000 6.2 270 17:38 01.09.2019
2721 Rain 15 1018 71 10000 6.2 270 17:19 01.09.2019
2722 Rain 15 1017 63 10000 9.3 270 16:41 01.09.2019
2723 Rain 15 1017 63 10000 9.3 270 16:20 01.09.2019
2724 Rain 16 1017 63 10000 8.2 260 15:55 01.09.2019
2725 Rain 16 1017 62 10000 7.2 270 15:37 01.09.2019
2726 Rain 16 1017 62 10000 7.2 270 15:37 01.09.2019
2727 Rain 16 1017 62 10000 7.2 270 15:19 01.09.2019
2728 Rain 15 1017 62 10000 8.2 280 14:41 01.09.2019
2729 Rain 15 1017 62 10000 8.2 280 14:21 01.09.2019
2730 Rain 15 1017 67 10000 7.2 270 13:58 01.09.2019
2731 Clouds 15 1017 82 10000 5.7 260 13:39 01.09.2019
2732 Rain 15 1017 82 10000 5.7 260 13:20 01.09.2019
2733 Rain 15 1017 82 10000 5.7 260 13:20 01.09.2019
2734 Rain 15 1016 82 10000 7.7 250 12:43 01.09.2019
2735 Rain 14 1016 82 10000 7.7 250 12:25 01.09.2019
2736 Rain 14 1016 87 10000 5.7 230 11:55 01.09.2019
2737 Rain 14 1016 87 10000 6.7 250 11:36 01.09.2019
2738 Rain 14 1016 87 10000 4.6 240 11:18 01.09.2019
2739 Rain 13 1015 87 10000 4.6 240 10:43 01.09.2019
2740 Rain 13 1015 87 10000 4.6 240 10:23 01.09.2019
2741 Rain 12 1015 93 10000 2.6 220 09:43 01.09.2019
2742 Rain 12 1015 93 10000 2.6 220 09:25 01.09.2019
2743 Rain 11 1014 93 10000 3.1 240 08:45 01.09.2019
2744 Rain 11 1014 93 10000 3.1 240 08:24 01.09.2019
2745 Rain 10 1014 93 10000 3.1 240 07:56 01.09.2019
2746 Rain 10 1014 93 10000 3.1 220 07:38 01.09.2019
2747 Rain 10 1014 93 10000 3.1 220 07:38 01.09.2019
2748 Rain 10 1014 93 10000 3.1 220 06:51 01.09.2019
2749 Rain 10 1012 81 10000 4.6 260 06:28 01.09.2019
2750 Rain 10 1013 87 10000 4.1 260 05:56 01.09.2019
2751 Rain 10 1013 87 10000 3.6 240 04:32 01.09.2019
2752 Rain 11 1013 81 10000 3.6 240 03:42 01.09.2019
2753 Rain 11 1013 81 10000 3.6 240 03:42 01.09.2019
2754 Clouds 11 1013 81 10000 4.1 250 02:58 01.09.2019
2755 Clouds 11 1013 87 10000 2.6 230 02:28 01.09.2019
2756 Clouds 11 1013 81 10000 2.1 240 01:51 01.09.2019
2757 Clear 11 1013 81 10000 2.1 250 01:23 01.09.2019
2758 Clouds 11 1013 82 10000 5.7 250 00:46 01.09.2019
2759 Clouds 11 1013 82 10000 5.7 250 00:22 01.09.2019
2760 Clouds 12 1013 82 10000 5.7 250 23:54 31.08.2019
2761 Clear 12 1012 81 10000 3.1 230 23:36 31.08.2019
2762 Clear 12 1012 87 10000 1.5 0 23:18 31.08.2019
2763 Clear 12 1012 81 10000 3.1 230 23:18 31.08.2019
2764 Clear 12 1012 81 10000 3.1 230 23:18 31.08.2019
2765 Clear 12 1012 81 10000 2.1 230 22:43 31.08.2019
2766 -273 0 0 0 0 0 22:25 31.08.2019
2767 Clear 13 1011 81 10000 2.1 230 21:56 31.08.2019
2768 Clouds 13 1011 76 10000 3.6 250 21:37 31.08.2019
2769 Rain 14 1011 76 10000 3.6 250 21:19 31.08.2019
2770 Rain 14 1011 59 10000 5.7 270 20:47 31.08.2019
2771 Rain 15 1011 59 10000 5.7 270 20:28 31.08.2019
2772 Rain 16 1010 59 10000 6.7 280 19:56 31.08.2019
2773 Clouds 16 1010 63 10000 6.2 270 19:37 31.08.2019
2774 Clouds 16 1010 63 10000 6.2 270 19:19 31.08.2019
2775 Clouds 16 1010 67 10000 8.7 280 18:39 31.08.2019
2776 Rain 17 1009 63 10000 7.2 270 18:20 31.08.2019
2777 Rain 17 1009 63 10000 7.2 270 17:55 31.08.2019
2778 Rain 16 1009 67 10000 8.2 280 17:37 31.08.2019
2779 Rain 17 1008 67 10000 7.2 270 17:18 31.08.2019
2780 Rain 16 1008 67 10000 7.2 270 16:56 31.08.2019
2781 Rain 17 1008 72 10000 6.7 280 16:37 31.08.2019
2782 Rain 17 1008 72 10000 6.7 280 16:19 31.08.2019
2783 Rain 16 1008 77 10000 7.7 260 15:42 31.08.2019
2784 Rain 16 1008 77 10000 7.7 260 15:19 31.08.2019
2785 Rain 16 1008 82 10000 6.2 260 14:55 31.08.2019
2786 Rain 16 1008 87 10000 4.6 260 14:36 31.08.2019
2787 Rain 16 1008 87 10000 4.6 260 14:18 31.08.2019
2788 Rain 16 1006 82 8000 5.7 200 13:40 31.08.2019
2789 Rain 16 1006 82 8000 5.7 200 13:21 31.08.2019
2790 Rain 16 1006 77 10000 4.1 190 12:57 31.08.2019
2791 Rain 16 1006 77 10000 4.1 190 12:57 31.08.2019
2792 Rain 16 1006 77 10000 4.1 200 12:38 31.08.2019
2793 Rain 16 1006 77 10000 4.1 200 12:19 31.08.2019
2794 Rain 16 1005 77 10000 5.7 180 11:44 31.08.2019
2795 Rain 17 1005 77 10000 5.7 180 11:26 31.08.2019
2796 Rain 17 1006 77 10000 5.1 190 10:57 31.08.2019
2797 Rain 17 1006 77 10000 5.1 190 10:57 31.08.2019
2798 Rain 17 1006 77 10000 5.1 190 10:57 31.08.2019
2799 Rain 16 1006 77 10000 6.2 190 10:39 31.08.2019
2800 Clouds 16 1007 77 10000 5.7 180 10:18 31.08.2019
2801 Clouds 16 1007 72 10000 5.7 190 09:40 31.08.2019
2802 Clouds 16 1007 72 10000 5.7 190 09:22 31.08.2019
2803 Clouds 16 1007 77 10000 4.6 180 08:59 31.08.2019
2804 Clouds 16 1008 77 10000 4.1 180 08:41 31.08.2019
2805 Clouds 15 1008 77 10000 4.1 180 08:22 31.08.2019
2806 Clouds 15 1009 82 10000 3.6 180 07:40 31.08.2019
2807 Clouds 15 1009 82 10000 3.6 180 07:19 31.08.2019
2808 Clouds 15 1009 77 10000 3.6 190 06:28 31.08.2019
2809 Clouds 16 1008 77 10000 5.1 220 05:55 31.08.2019
2810 Clouds 16 1010 77 10000 3.6 200 05:29 31.08.2019
2811 Clouds 16 1011 77 10000 3.1 190 04:30 31.08.2019
2812 Clouds 16 1012 72 10000 3.6 190 03:44 31.08.2019
2813 Clouds 16 1012 72 10000 3.6 190 02:23 31.08.2019
2814 Clear 16 1012 77 10000 4.6 210 01:49 31.08.2019
2815 Clear 16 1012 77 10000 4.6 210 01:49 31.08.2019
2816 Clear 16 1012 77 10000 4.6 210 01:31 31.08.2019
2817 Clouds 17 1013 72 10000 2.1 180 00:48 31.08.2019
2818 Clouds 17 1013 72 10000 2.1 180 00:27 31.08.2019
2819 Clouds 17 1013 72 10000 2.1 180 00:27 31.08.2019
2820 Clouds 17 1013 82 10000 3.1 170 23:51 30.08.2019
2821 Rain 17 1014 68 10000 5.1 200 23:20 30.08.2019
2822 Rain 17 1014 72 10000 4.6 190 23:20 30.08.2019
2823 Rain 17 1014 72 10000 4.6 190 22:59 30.08.2019
2824 Rain 18 1015 72 10000 4.1 190 22:39 30.08.2019
2825 Rain 18 1015 72 10000 4.1 190 22:21 30.08.2019
2826 Rain 18 1015 72 10000 4.1 200 21:57 30.08.2019
2827 Rain 18 1015 68 10000 4.1 200 21:37 30.08.2019
2828 Clouds 18 1015 68 10000 4.6 200 21:18 30.08.2019
2829 Clouds 18 1015 68 10000 4.6 200 20:56 30.08.2019
2830 Rain 18 1015 68 10000 4.6 210 20:38 30.08.2019
2831 Rain 19 1016 68 10000 3.6 210 20:19 30.08.2019
2832 Rain 19 1016 68 10000 3.6 210 19:55 30.08.2019
2833 Rain 19 1015 77 10000 2.6 210 19:36 30.08.2019
2834 Rain 19 1016 68 10000 4.6 210 19:18 30.08.2019
2835 Rain 19 1015 68 10000 6.2 230 18:44 30.08.2019
2836 Rain 20 1015 68 10000 6.2 230 18:24 30.08.2019
2837 Rain 20 1016 60 10000 6.2 220 17:56 30.08.2019
2838 Clouds 21 1016 64 10000 6.2 200 17:38 30.08.2019
2839 Clouds 21 1015 64 10000 6.2 210 17:19 30.08.2019
2840 Clouds 21 1016 64 10000 7.2 220 16:48 30.08.2019
2841 Clouds 21 1016 64 10000 7.2 220 16:29 30.08.2019
2842 Clouds 21 1016 64 10000 6.2 220 15:58 30.08.2019
2843 Clouds 20 1015 68 10000 7.2 210 15:38 30.08.2019
2844 Clouds 20 1015 68 10000 7.2 210 15:19 30.08.2019
2845 Clouds 20 1015 68 10000 7.2 210 15:19 30.08.2019
2846 Clouds 20 1016 64 10000 5.1 210 14:44 30.08.2019
2847 Clouds 20 1016 64 10000 5.1 210 14:25 30.08.2019
2848 Clouds 20 1017 68 10000 5.7 210 13:56 30.08.2019
2849 Clouds 20 1015 68 10000 5.7 210 13:37 30.08.2019
2850 Clouds 19 1017 68 10000 4.6 210 13:19 30.08.2019
2851 Clouds 19 1015 68 10000 5.7 210 13:19 30.08.2019
2852 Clouds 19 1015 68 10000 7.2 210 12:42 30.08.2019
2853 Clouds 19 1015 68 10000 7.2 210 12:22 30.08.2019
2854 Rain 19 1017 77 10000 4.1 200 11:43 30.08.2019
2855 Rain 18 1017 77 10000 4.1 200 11:25 30.08.2019
2856 Clouds 18 1017 77 10000 4.6 200 10:59 30.08.2019
2857 Clouds 18 1017 77 10000 4.6 190 10:37 30.08.2019
2858 Clouds 18 1017 77 10000 4.6 190 10:37 30.08.2019
2859 Clouds 17 1017 77 10000 4.6 190 10:18 30.08.2019
2860 Clouds 17 1016 82 10000 3.6 180 09:42 30.08.2019
2861 Clouds 16 1016 82 10000 3.6 180 09:20 30.08.2019
2862 Clouds 16 1016 82 10000 3.6 190 08:58 30.08.2019
2863 Clouds 16 1016 82 10000 4.1 180 08:39 30.08.2019
2864 Clouds 16 1016 82 10000 4.1 180 08:21 30.08.2019
2865 Clouds 15 1016 82 10000 3.6 180 07:43 30.08.2019
2866 Clouds 15 1016 82 10000 3.6 180 07:23 30.08.2019
2867 Clouds 15 1016 82 10000 3.6 190 06:47 30.08.2019
2868 Clouds 15 1016 82 10000 3.6 190 06:29 30.08.2019
2869 Clouds 15 1017 82 10000 3.1 180 05:54 30.08.2019
2870 Clouds 15 1017 82 10000 3.1 190 04:27 30.08.2019
2871 Clouds 15 1017 82 10000 3.1 190 03:46 30.08.2019
2872 Clouds 15 1017 82 10000 3.1 190 03:27 30.08.2019
2873 Clouds 15 1017 77 10000 2.1 190 02:32 30.08.2019
2874 Clouds 16 1017 77 10000 4.1 200 01:38 30.08.2019
2875 Clear 16 1016 77 10000 6.2 230 00:45 30.08.2019
2876 Clouds 16 1017 77 10000 4.6 200 00:18 30.08.2019
2877 Clouds 16 1017 77 10000 4.6 210 23:41 29.08.2019
2878 Rain 16 1017 77 10000 4.6 210 23:21 29.08.2019
2879 Rain 16 1017 77 10000 4.1 190 22:44 29.08.2019
2880 Rain 16 1017 77 10000 4.1 190 22:26 29.08.2019
2881 Rain 16 1017 72 10000 3.6 200 21:57 29.08.2019
2882 Rain 16 1017 72 10000 3.1 200 21:38 29.08.2019
2883 Rain 17 1017 72 10000 3.1 200 21:20 29.08.2019
2884 Rain 17 1017 72 10000 3.1 200 20:54 29.08.2019
2885 Rain 17 1017 72 10000 3.1 200 20:36 29.08.2019
2886 Rain 17 1017 72 10000 4.6 220 20:18 29.08.2019
2887 Rain 18 1017 68 10000 5.1 220 19:44 29.08.2019
2888 Clouds 18 1017 72 10000 5.7 220 19:25 29.08.2019
2889 Clouds 18 1017 68 10000 5.1 210 18:44 29.08.2019
2890 Clouds 19 1016 68 10000 8.2 220 18:21 29.08.2019
2891 Clouds 19 1017 59 10000 5.7 220 17:57 29.08.2019
2892 Clouds 19 1017 59 10000 5.7 220 17:39 29.08.2019
2893 Clouds 19 1017 60 10000 6.7 210 17:19 29.08.2019
2894 Clouds 19 1017 56 10000 7.7 220 16:57 29.08.2019
2895 Clouds 20 1017 56 10000 7.7 220 16:39 29.08.2019
2896 Clouds 20 1015 63 10000 9.3 230 16:21 29.08.2019
2897 Clouds 19 1017 59 10000 6.2 220 15:39 29.08.2019
2898 Clouds 19 1017 59 10000 4.6 210 15:21 29.08.2019
2899 Clouds 19 1017 59 10000 4.6 210 14:50 29.08.2019
2900 Clouds 19 1017 68 10000 4.6 200 14:26 29.08.2019
2901 Clouds 18 1017 72 10000 4.1 200 13:59 29.08.2019
2902 Clouds 19 1015 63 10000 6.2 230 13:41 29.08.2019
2903 Clouds 18 1015 63 10000 6.2 230 13:21 29.08.2019
2904 Clouds 18 1016 72 10000 4.6 200 12:59 29.08.2019
2905 Clouds 18 1016 72 10000 4.6 200 12:59 29.08.2019
2906 Clouds 18 1015 67 10000 7.2 240 12:40 29.08.2019
2907 Clouds 17 1016 77 10000 5.1 210 12:22 29.08.2019
2908 Clouds 17 1017 77 10000 5.7 210 11:59 29.08.2019
2909 Clouds 17 1016 77 10000 3.6 200 11:39 29.08.2019
2910 Clouds 17 1016 77 10000 3.6 200 11:20 29.08.2019
2911 Clouds 15 1016 87 10000 3.1 190 10:45 29.08.2019
2912 Clouds 15 1016 87 10000 3.1 190 10:25 29.08.2019
2913 -273 0 0 0 0 0 10:25 29.08.2019
2914 Rain 14 1016 87 10000 3.1 190 09:56 29.08.2019
2915 Rain 13 1016 87 10000 3.1 190 09:38 29.08.2019
2916 Rain 13 1016 87 10000 3.1 190 09:18 29.08.2019
2917 Clouds 12 1016 93 10000 1.5 0 08:41 29.08.2019
2918 Clouds 11 1016 93 10000 1.5 0 08:22 29.08.2019
2919 Clouds 11 1016 93 10000 2.1 170 07:51 29.08.2019
2920 Clouds 11 1016 87 10000 2.6 180 07:29 29.08.2019
2921 Clouds 10 1016 93 10000 2.6 180 06:54 29.08.2019
2922 Clouds 10 1016 93 10000 2.6 180 06:33 29.08.2019
2923 Clouds 10 1016 93 10000 2.6 180 05:48 29.08.2019
2924 Clouds 10 1015 93 10000 2.1 170 04:51 29.08.2019
2925 Clouds 10 1015 100 10000 1.5 0 04:30 29.08.2019
2926 Clouds 10 1015 93 7000 1.5 150 03:35 29.08.2019
2927 Mist 10 1015 100 4200 1.5 0 01:52 29.08.2019
2928 Mist 11 1015 100 3500 1.5 0 01:32 29.08.2019
2929 Clear 11 1015 87 10000 2.6 210 00:45 29.08.2019
2930 Clear 11 1015 87 10000 2.6 210 00:21 29.08.2019
2931 Clear 11 1014 82 10000 1 0 23:44 28.08.2019
2932 Clear 12 1014 82 10000 1 0 23:26 28.08.2019
2933 Fog 12 1014 87 10000 0.5 0 22:59 28.08.2019
2934 Fog 12 1014 93 10000 1 0 22:39 28.08.2019
2935 Fog 13 1014 93 10000 1 0 22:19 28.08.2019
2936 Fog 13 1014 93 10000 1 210 21:59 28.08.2019
2937 Clouds 14 1013 87 10000 1 0 21:39 28.08.2019
2938 Clouds 14 1013 87 10000 1 0 21:21 28.08.2019
2939 Clouds 15 1013 87 10000 2.1 250 20:46 28.08.2019
2940 Clouds 15 1013 87 10000 2.1 250 20:27 28.08.2019
2941 Clouds 15 1012 77 10000 5.1 270 19:59 28.08.2019
2942 Clouds 15 1013 77 10000 5.7 280 19:40 28.08.2019
2943 Clouds 15 1013 93 10000 2.1 240 19:21 28.08.2019
2944 Rain 15 1013 93 10000 1.5 0 18:42 28.08.2019
2945 Rain 15 1013 93 10000 1.5 0 18:22 28.08.2019
2946 Rain 15 1012 72 10000 6.2 260 17:59 28.08.2019
2947 Rain 15 1013 87 10000 4.6 250 17:37 28.08.2019
2948 Rain 15 1013 87 10000 4.6 250 17:19 28.08.2019
2949 Rain 15 1012 87 10000 3.1 240 16:43 28.08.2019
2950 Rain 15 1012 93 10000 3.1 250 16:19 28.08.2019
2951 Rain 15 1012 93 10000 3.1 250 15:58 28.08.2019
2952 Rain 15 1012 93 10000 3.1 250 15:37 28.08.2019
2953 Rain 16 1012 93 10000 3.1 250 15:19 28.08.2019
2954 Rain 15 1012 93 10000 3.6 240 14:56 28.08.2019
2955 Rain 15 1012 87 8000 4.6 240 14:37 28.08.2019
2956 Rain 15 1012 87 10000 4.1 250 14:19 28.08.2019
2957 Rain 15 1012 87 10000 4.1 250 13:56 28.08.2019
2958 Rain 15 1011 87 10000 5.7 250 13:37 28.08.2019
2959 Rain 15 1012 93 10000 3.6 250 13:18 28.08.2019
2960 Rain 16 1011 93 9000 6.7 260 12:41 28.08.2019
2961 Rain 16 1011 93 9000 6.7 260 12:23 28.08.2019
2962 Rain 16 1011 87 10000 3.1 200 11:41 28.08.2019
2963 Rain 16 1011 87 10000 3.1 200 11:23 28.08.2019
2964 Rain 16 1011 87 10000 2.6 180 10:59 28.08.2019
2965 Rain 16 1011 87 10000 2.1 180 10:41 28.08.2019
2966 Rain 16 1011 87 10000 2.1 180 10:21 28.08.2019
2967 Rain 16 1011 87 10000 2.1 190 09:56 28.08.2019
2968 Rain 16 1011 82 10000 1.5 0 09:38 28.08.2019
2969 Rain 15 1011 87 10000 1 0 09:18 28.08.2019
2970 Clouds 15 1011 87 10000 1 0 08:38 28.08.2019
2971 Clouds 15 1011 87 10000 1.5 0 08:20 28.08.2019
2972 Clouds 15 1011 87 10000 1 0 07:39 28.08.2019
2973 Clouds 15 1011 87 10000 1 0 07:20 28.08.2019
2974 Clouds 15 1011 87 10000 1.5 0 06:51 28.08.2019
2975 Clouds 15 1011 87 10000 1.5 0 06:31 28.08.2019
2976 Clouds 15 1012 93 10000 2.1 180 05:29 28.08.2019
2977 Clouds 17 1013 93 6000 1.5 230 02:24 28.08.2019
2978 Clouds 17 1013 93 8000 1 0 01:31 28.08.2019
2979 Rain 17 1013 88 10000 0.5 0 00:54 28.08.2019
2980 Rain 17 1013 88 9000 2.1 280 00:34 28.08.2019
2981 Clouds 17 1013 88 10000 2.6 280 23:58 27.08.2019
2982 Rain 18 1013 93 10000 3.6 280 23:38 27.08.2019
2983 Rain 18 1013 93 10000 3.6 280 23:19 27.08.2019
2984 Clear 18 1012 82 10000 0.5 0 22:42 27.08.2019
2985 Clear 18 1012 82 10000 0.5 0 22:23 27.08.2019
2986 Rain 18 1012 82 10000 2.67 312.816 21:57 27.08.2019
2987 Rain 19 1012 82 10000 1 230 21:38 27.08.2019
2988 Rain 19 1012 82 10000 1 230 21:38 27.08.2019
2989 Rain 20 1012 82 10000 1 230 21:20 27.08.2019
2990 Rain 20 1012 77 10000 0.5 0 20:58 27.08.2019
2991 Rain 20 1012 73 10000 0.5 0 20:39 27.08.2019
2992 Rain 20 1012 73 10000 0.5 0 20:19 27.08.2019
2993 Rain 21 1012 82 10000 2.6 330 19:44 27.08.2019
2994 Rain 21 1012 82 10000 2.6 330 19:26 27.08.2019
2995 Rain 22 1013 68 10000 1.5 250 18:57 27.08.2019
2996 Rain 21 1013 73 10000 2.6 270 18:39 27.08.2019
2997 Rain 22 1013 73 9000 1 0 18:18 27.08.2019
2998 Rain 22 1014 68 10000 3.1 250 17:43 27.08.2019
2999 Rain 22 1014 68 10000 3.1 250 17:25 27.08.2019
3000 Rain 23 1014 88 10000 2.6 310 16:58 27.08.2019
3001 Rain 23 1014 88 10000 2.6 330 16:40 27.08.2019
3002 Rain 23 1014 88 10000 2.6 330 16:21 27.08.2019
3003 Rain 24 1014 88 10000 4.1 310 15:42 27.08.2019
3004 Rain 24 1014 88 10000 4.1 310 15:23 27.08.2019
3005 Clouds 24 1014 60 10000 2.1 210 14:59 27.08.2019
3006 Clouds 24 1014 83 10000 1.5 0 14:41 27.08.2019
3007 Clouds 24 1014 83 10000 1.5 0 14:23 27.08.2019
3008 Clouds 24 1015 73 10000 1 0 13:43 27.08.2019
3009 Clouds 24 1015 73 10000 1 0 13:24 27.08.2019
3010 Clouds 23 1016 77 10000 1.5 0 12:56 27.08.2019
3011 Clouds 23 1015 77 10000 1 0 12:38 27.08.2019
3012 Clouds 22 1015 77 10000 1 0 12:19 27.08.2019
3013 Clouds 21 1016 82 10000 1.5 0 11:44 27.08.2019
3014 Clouds 20 1016 82 10000 1.5 0 11:25 27.08.2019
3015 Clouds 20 1016 88 9000 0.5 0 10:46 27.08.2019
3016 Clouds 19 1016 88 9000 0.5 0 10:22 27.08.2019
3017 Fog 18 1016 87 7000 1 0 09:59 27.08.2019
3018 Mist 17 1016 93 7000 1.5 230 09:39 27.08.2019
3019 Mist 17 1016 93 7000 1.5 230 09:20 27.08.2019
3020 Mist 15 1016 93 7000 0.5 0 08:55 27.08.2019
3021 Fog 15 1016 93 6000 0.5 0 08:37 27.08.2019
3022 Fog 14 1016 93 6000 0.5 0 08:18 27.08.2019
3023 Fog 14 1016 93 7000 1 90 07:39 27.08.2019
3024 Clouds 14 1016 93 6000 1 120 07:19 27.08.2019
3025 Clouds 14 1016 93 6000 1.5 120 06:51 27.08.2019
3026 Clouds 15 1016 93 6000 1.5 120 06:23 27.08.2019
3027 Mist 15 1017 93 5000 1 0 05:36 27.08.2019
3028 Clouds 15 1016 93 10000 0.5 0 04:33 27.08.2019
3029 Clouds 15 1016 93 10000 1 0 03:33 27.08.2019
3030 Clouds 16 1017 87 10000 1.5 160 02:23 27.08.2019
3031 Clear 16 1017 82 10000 2.1 290 01:35 27.08.2019
3032 Clouds 17 1017 82 10000 1.5 270 00:54 27.08.2019
3033 Clouds 17 1017 77 10000 1 0 00:29 27.08.2019
3034 Clouds 17 1017 82 10000 1.5 260 23:59 26.08.2019
3035 Clouds 17 1017 77 10000 1.5 0 23:37 26.08.2019
3036 Clouds 18 1017 77 10000 1.5 0 23:19 26.08.2019
3037 Clouds 18 1017 77 10000 2.6 290 22:38 26.08.2019
3038 Clouds 18 1017 77 10000 2.6 290 22:19 26.08.2019
3039 Clear 19 1017 77 10000 3.1 320 21:55 26.08.2019
3040 Clear 19 1017 77 10000 3.1 320 21:37 26.08.2019
3041 Clear 20 1016 77 10000 4.6 320 21:18 26.08.2019
3042 Clear 21 1016 69 10000 3.6 310 20:41 26.08.2019
3043 Clear 21 1016 69 10000 2.6 270 20:22 26.08.2019
3044 Clear 22 1016 64 10000 2.1 270 19:59 26.08.2019
3045 Clear 22 1016 64 10000 2.1 270 19:41 26.08.2019
3046 Clear 23 1017 64 10000 1.5 0 19:19 26.08.2019
3047 Clear 23 1017 64 10000 1.5 0 19:19 26.08.2019
3048 Clear 23 1017 64 10000 3.1 260 18:55 26.08.2019
3049 Clear 24 1017 64 10000 3.1 260 18:37 26.08.2019
3050 Clear 24 1017 64 10000 3.1 260 18:37 26.08.2019
3051 Clear 25 1017 64 10000 2.1 240 18:18 26.08.2019
3052 Clear 25 1017 64 10000 2.1 230 17:43 26.08.2019
3053 Clear 25 1017 64 10000 2.6 250 17:19 26.08.2019
3054 Clear 26 1017 69 10000 2.1 240 16:57 26.08.2019
3055 Clear 25 1017 69 10000 2.1 240 16:38 26.08.2019
3056 -273 0 0 0 0 0 16:18 26.08.2019
3057 Haze 24 1018 73 10000 2.6 260 15:42 26.08.2019
3058 Haze 24 1018 77 9000 1.5 0 15:22 26.08.2019
3059 Haze 24 1018 77 10000 1.5 0 14:58 26.08.2019
3060 Haze 23 1018 77 10000 1.5 0 14:38 26.08.2019
3061 Haze 23 1018 82 9000 1.5 0 14:19 26.08.2019
3062 Mist 22 1018 82 6000 1 0 13:43 26.08.2019
3063 Haze 21 1019 88 4700 1 0 13:21 26.08.2019
3064 Haze 20 1019 88 3500 1.5 0 12:46 26.08.2019
3065 Mist 20 1019 88 6000 1 0 12:28 26.08.2019
3066 Haze 19 1019 93 4000 1.5 0 11:59 26.08.2019
3067 Haze 19 1019 93 4000 1.5 0 11:38 26.08.2019
3068 Haze 18 1019 93 4700 1 0 11:19 26.08.2019
3069 Haze 19 1019 93 3400 1 0 10:55 26.08.2019
3070 Haze 19 1019 93 3400 1 0 10:55 26.08.2019
3071 Haze 18 1019 93 3400 1 0 10:36 26.08.2019
3072 Haze 17 1019 93 3000 1.5 0 10:18 26.08.2019
3073 Haze 17 1019 93 2900 1.5 0 09:41 26.08.2019
3074 Haze 16 1019 93 3600 0.5 0 09:23 26.08.2019
3075 Haze 16 1019 93 4200 1 0 08:55 26.08.2019
3076 Haze 15 1019 93 4200 1 0 08:37 26.08.2019
3077 Haze 15 1019 93 4200 1 0 08:37 26.08.2019
3078 Mist 15 1019 100 5000 1.5 0 08:18 26.08.2019
3079 Mist 15 1019 93 3200 0.5 0 07:42 26.08.2019
3080 Fog 15 1019 100 600 0.5 0 07:23 26.08.2019
3081 Mist 15 1019 100 2400 0.5 0 06:49 26.08.2019
3082 Mist 15 1019 93 2400 0.5 210 06:25 26.08.2019
3083 Haze 15 1019 93 5000 0.5 0 05:51 26.08.2019
3084 Mist 15 1019 93 5000 1 220 04:31 26.08.2019
3085 Haze 15 1019 100 5000 0.5 0 03:19 26.08.2019
3086 Clear 16 1019 93 7000 1.5 250 01:40 26.08.2019
3087 Clear 16 1019 93 9000 1 250 01:21 26.08.2019
3088 Clear 17 1019 88 10000 1 270 00:41 26.08.2019
3089 Clear 17 1019 93 10000 1.5 260 00:22 26.08.2019
3090 Clear 18 1019 88 10000 2.1 290 23:43 25.08.2019
3091 Clear 18 1019 82 10000 2.1 300 23:19 25.08.2019
3092 Clear 18 1019 82 10000 2.6 300 22:57 25.08.2019
3093 Clear 18 1019 82 10000 2.6 300 22:38 25.08.2019
3094 Clear 18 1019 82 10000 2.6 300 22:38 25.08.2019
3095 Clear 18 1019 82 10000 3.1 300 22:19 25.08.2019
3096 Clear 19 1019 77 10000 2.1 290 21:56 25.08.2019
3097 Clear 19 1019 77 10000 2.1 290 21:37 25.08.2019
3098 Clear 21 1018 77 10000 2.6 290 21:18 25.08.2019
3099 Clear 22 1018 73 10000 3.6 290 20:40 25.08.2019
3100 Clear 22 1018 68 10000 3.1 280 20:20 25.08.2019
3101 Clear 23 1018 73 10000 4.1 310 19:56 25.08.2019
3102 Clear 23 1018 73 10000 4.1 310 19:38 25.08.2019
3103 Clear 24 1017 64 10000 6.7 290 19:18 25.08.2019
3104 Clear 24 1017 39 10000 3.6 200 18:57 25.08.2019
3105 Clear 24 1017 42 10000 2.6 160 18:39 25.08.2019
3106 Clear 24 1017 42 10000 2.6 160 18:39 25.08.2019
3107 Clear 26 1017 42 10000 2.6 160 18:18 25.08.2019
3108 Clear 27 1017 42 10000 3.1 160 17:42 25.08.2019
3109 Clear 27 1017 42 10000 2.6 0 17:23 25.08.2019
3110 Clear 28 1017 39 10000 2.6 150 16:45 25.08.2019
3111 Clear 28 1017 39 10000 3.1 150 16:24 25.08.2019
3112 Clear 29 1017 37 10000 3.6 150 15:59 25.08.2019
3113 Clear 29 1017 37 10000 3.6 150 15:40 25.08.2019
3114 Clear 28 1017 37 10000 2.6 0 15:21 25.08.2019
3115 Clear 28 1017 37 10000 2.6 0 15:21 25.08.2019
3116 Clear 28 1017 39 10000 3.1 130 14:41 25.08.2019
3117 Clear 28 1017 39 10000 3.1 130 14:23 25.08.2019
3118 Clear 27 1018 42 10000 2.6 0 13:47 25.08.2019
3119 Clear 27 1018 44 10000 2.6 0 13:22 25.08.2019
3120 Clear 27 1018 44 10000 2.6 0 13:22 25.08.2019
3121 Clear 26 1018 47 10000 2.1 170 12:59 25.08.2019
3122 Clear 26 1018 47 10000 2.1 170 12:40 25.08.2019
3123 Clouds 25 1018 47 10000 2.1 0 12:22 25.08.2019
3124 Clouds 24 1018 50 10000 0.5 0 11:57 25.08.2019
3125 Clouds 24 1018 50 10000 0.5 0 11:37 25.08.2019
3126 Clouds 23 1018 53 10000 0.5 0 11:18 25.08.2019
3127 Clouds 22 1018 56 10000 1.5 30 10:55 25.08.2019
3128 Clouds 22 1018 56 10000 1.5 30 10:36 25.08.2019
3129 Clouds 20 1018 64 10000 1.5 50 10:18 25.08.2019
3130 Clouds 19 1017 68 10000 2.1 40 09:42 25.08.2019
3131 Clear 18 1017 68 10000 2.1 50 09:23 25.08.2019
3132 Clear 17 1017 68 10000 1 70 08:44 25.08.2019
3133 Clear 16 1017 68 10000 1.5 70 08:23 25.08.2019
3134 Haze 15 1017 77 10000 1 110 07:47 25.08.2019
3135 Mist 15 1017 72 10000 1 70 07:27 25.08.2019
3136 Clear 15 1017 72 10000 1.5 80 06:37 25.08.2019
3137 Clear 16 1017 72 10000 1.5 100 05:27 25.08.2019
3138 Clear 16 1017 67 10000 2.1 90 03:43 25.08.2019
3139 Clear 17 1017 63 10000 1.5 90 02:41 25.08.2019
3140 Clear 17 1017 68 10000 2.1 100 01:42 25.08.2019
3141 Clouds 18 1017 63 10000 1.5 100 00:41 25.08.2019
3142 Clouds 19 1017 63 10000 1.5 110 00:21 25.08.2019
3143 Clouds 19 1017 63 10000 1.5 110 23:53 24.08.2019
3144 Clouds 19 1017 63 10000 1.5 0 23:23 24.08.2019
3145 Clouds 20 1017 68 10000 1 0 22:57 24.08.2019
3146 Clouds 20 1017 68 10000 1 0 22:39 24.08.2019
3147 Clouds 21 1017 64 10000 1.5 90 22:19 24.08.2019
3148 Clouds 21 1016 64 10000 1.5 100 21:56 24.08.2019
3149 Clouds 21 1016 64 10000 1.5 100 21:38 24.08.2019
3150 Clear 23 1016 53 10000 1.5 120 21:19 24.08.2019
3151 Clear 24 1016 50 10000 1.5 0 20:55 24.08.2019
3152 Clear 24 1016 50 10000 1.5 0 20:37 24.08.2019
3153 Clear 25 1016 47 10000 1 0 20:18 24.08.2019
3154 Clear 25 1016 47 10000 1 0 20:18 24.08.2019
3155 Clear 25 1016 44 10000 2.1 120 19:55 24.08.2019
3156 Clear 26 1016 44 10000 2.1 120 19:37 24.08.2019
3157 Clear 26 1017 44 10000 1 0 19:18 24.08.2019
3158 Clear 26 1017 44 10000 2.1 140 18:41 24.08.2019
3159 Clear 26 1017 41 10000 2.1 180 18:21 24.08.2019
3160 Clear 26 1017 41 10000 2.6 180 17:44 24.08.2019
3161 Clear 27 1017 44 10000 1.5 0 17:24 24.08.2019
3162 Clear 27 1018 47 10000 2.1 170 16:51 24.08.2019
3163 Clear 26 1018 47 10000 2.6 180 16:21 24.08.2019
3164 Clear 26 1018 47 10000 2.6 0 15:59 24.08.2019
3165 Clear 26 1018 47 10000 2.6 0 15:59 24.08.2019
3166 Clear 26 1018 47 10000 2.6 180 15:40 24.08.2019
3167 Clouds 26 1018 47 10000 2.6 180 15:22 24.08.2019
3168 Clouds 25 1018 50 10000 1.5 0 14:43 24.08.2019
3169 Clear 25 1019 47 10000 2.1 160 14:22 24.08.2019
3170 Clouds 24 1019 49 10000 2.6 150 13:57 24.08.2019
3171 Clouds 24 1019 49 10000 2.6 150 13:57 24.08.2019
3172 Clouds 24 1019 49 10000 2.6 150 13:39 24.08.2019
3173 Clear 24 1019 53 10000 2.6 150 13:21 24.08.2019
3174 Clear 23 1019 56 10000 2.1 150 12:55 24.08.2019
3175 Clear 23 1019 56 10000 2.1 150 12:37 24.08.2019
3176 Clear 22 1019 56 10000 2.1 0 12:19 24.08.2019
3177 Clear 21 1019 60 10000 2.1 140 11:43 24.08.2019
3178 Clear 21 1019 68 10000 1.5 0 11:22 24.08.2019
3179 Clear 20 1019 68 10000 1.5 0 10:49 24.08.2019
3180 Clear 19 1020 77 10000 0.5 0 10:23 24.08.2019
3181 Clear 17 1020 82 10000 1 220 09:44 24.08.2019
3182 Fog 16 1019 77 10000 0.5 0 09:21 24.08.2019
3183 Fog 15 1019 82 10000 1 0 08:58 24.08.2019
3184 Fog 15 1019 82 10000 1 0 08:39 24.08.2019
3185 Fog 14 1020 93 10000 1.5 120 08:21 24.08.2019
3186 Fog 14 1020 100 10000 1.5 120 07:47 24.08.2019
3187 Fog 13 1020 93 10000 1.5 120 07:26 24.08.2019
3188 Clouds 14 1020 100 10000 1 120 06:28 24.08.2019
3189 Clouds 14 1020 93 10000 1.5 130 05:41 24.08.2019
3190 Clouds 15 1020 87 10000 1 90 04:36 24.08.2019
3191 Clouds 15 1020 93 10000 0.5 0 03:36 24.08.2019
3192 Clouds 16 1020 87 10000 0.5 120 02:25 24.08.2019
3193 Clouds 17 1020 77 10000 1 0 01:31 24.08.2019
3194 Clouds 17 1020 77 10000 1 0 00:52 24.08.2019
3195 Clouds 18 1020 77 10000 1 0 00:25 24.08.2019
3196 Clouds 18 1021 77 10000 0.5 0 23:57 23.08.2019
3197 Clouds 18 1021 77 10000 0.5 0 23:37 23.08.2019
3198 Clouds 19 1021 77 10000 1 0 23:18 23.08.2019
3199 Clouds 19 1021 77 10000 1 0 22:42 23.08.2019
3200 Clear 19 1021 82 10000 1 0 22:23 23.08.2019
3201 Clouds 20 1021 77 10000 1 130 21:40 23.08.2019
3202 Clouds 20 1021 73 10000 1 140 21:21 23.08.2019
3203 Clouds 21 1021 68 10000 1 0 20:56 23.08.2019
3204 Clouds 22 1021 68 10000 1 0 20:38 23.08.2019
3205 Clouds 22 1021 60 10000 2.1 180 20:19 23.08.2019
3206 Clouds 23 1021 64 10000 2.6 200 19:43 23.08.2019
3207 Clouds 23 1021 64 10000 2.1 200 19:18 23.08.2019
3208 Clouds 23 1021 64 10000 2.1 200 18:45 23.08.2019
3209 Clouds 23 1022 64 10000 1.5 0 18:27 23.08.2019
3210 Clouds 24 1022 64 10000 2.1 200 17:54 23.08.2019
3211 Clouds 24 1022 64 10000 2.1 200 17:36 23.08.2019
3212 Clouds 24 1022 64 10000 1.5 0 17:18 23.08.2019
3213 Clouds 24 1023 64 10000 1 0 16:44 23.08.2019
3214 Clouds 23 1023 68 10000 1.5 0 16:25 23.08.2019
3215 Clouds 23 1023 68 10000 3.1 200 15:55 23.08.2019
3216 Clouds 23 1023 68 10000 3.1 200 15:36 23.08.2019
3217 Clouds 22 1023 68 10000 2.6 200 15:18 23.08.2019
3218 Clouds 22 1023 77 10000 2.6 210 14:41 23.08.2019
3219 Clouds 22 1024 77 10000 2.6 210 14:21 23.08.2019
3220 Clouds 22 1024 72 10000 3.1 220 13:56 23.08.2019
3221 Clouds 22 1024 72 10000 3.1 220 13:56 23.08.2019
3222 Clouds 21 1024 72 10000 3.1 220 13:38 23.08.2019
3223 Rain 21 1024 77 10000 3.6 210 13:19 23.08.2019
3224 Clouds 21 1024 82 10000 2.6 190 12:54 23.08.2019
3225 Clouds 21 1024 82 10000 2.6 190 12:36 23.08.2019
3226 Clouds 20 1024 77 10000 2.6 200 12:18 23.08.2019
3227 Clouds 20 1024 82 10000 3.1 190 11:41 23.08.2019
3228 Clouds 19 1024 77 10000 3.1 190 11:20 23.08.2019
3229 Clouds 19 1024 82 10000 2.1 180 10:59 23.08.2019
3230 Clouds 19 1024 82 10000 2.1 180 10:59 23.08.2019
3231 Clouds 19 1024 82 10000 2.1 180 10:41 23.08.2019
3232 Clouds 19 1024 82 10000 2.1 180 10:21 23.08.2019
3233 Clouds 18 1024 88 10000 2.6 180 09:48 23.08.2019
3234 Clouds 18 1024 88 10000 3.1 180 09:30 23.08.2019
3235 Clouds 17 1024 93 10000 2.6 180 08:58 23.08.2019
3236 Clouds 16 1024 93 10000 2.6 180 08:39 23.08.2019
3237 Clouds 16 1023 87 10000 2.1 180 08:19 23.08.2019
3238 Clouds 15 1023 93 10000 1 0 07:42 23.08.2019
3239 Clouds 15 1023 93 10000 1.5 0 07:24 23.08.2019
3240 Clouds 15 1023 93 10000 1.5 0 06:56 23.08.2019
3241 Clouds 15 1023 93 10000 1.5 0 06:37 23.08.2019
3242 Clouds 15 1023 93 10000 1.5 0 06:19 23.08.2019
3243 Clouds 16 1023 93 10000 1.5 0 05:32 23.08.2019
3244 Clouds 16 1023 93 10000 1 0 04:20 23.08.2019
3245 Clouds 16 1023 93 10000 2.1 170 02:49 23.08.2019
3246 Clouds 16 1023 93 10000 2.6 190 02:22 23.08.2019
3247 Clouds 16 1023 93 10000 2.6 200 01:37 23.08.2019
3248 Clouds 17 1023 93 10000 2.1 180 00:44 23.08.2019
3249 Clouds 17 1023 88 10000 3.6 200 00:18 23.08.2019
3250 Clouds 17 1022 88 10000 3.6 200 23:43 22.08.2019
3251 Clouds 17 1022 88 10000 3.1 190 23:23 22.08.2019
3252 Clouds 17 1022 88 10000 3.6 200 22:54 22.08.2019
3253 Clouds 17 1022 88 10000 3.6 200 22:36 22.08.2019
3254 Clouds 17 1022 88 10000 3.6 200 22:36 22.08.2019
3255 Clouds 17 1022 88 10000 3.6 200 22:18 22.08.2019
3256 Clouds 18 1022 77 10000 3.6 210 21:41 22.08.2019
3257 Drizzle 18 1021 77 10000 3.6 200 21:23 22.08.2019
3258 Drizzle 18 1021 77 10000 3.6 200 21:23 22.08.2019
3259 Drizzle 18 1021 77 10000 4.6 210 20:59 22.08.2019
3260 Drizzle 18 1021 77 10000 4.6 210 20:41 22.08.2019
3261 Drizzle 18 1021 77 10000 4.1 210 20:20 22.08.2019
3262 Clouds 18 1021 72 10000 4.1 210 19:58 22.08.2019
3263 Clouds 18 1021 72 10000 4.1 210 19:39 22.08.2019
3264 Rain 19 1021 77 10000 5.7 220 19:21 22.08.2019
3265 Clouds 19 1020 72 10000 5.1 220 18:58 22.08.2019
3266 Clouds 19 1020 72 10000 5.1 220 18:39 22.08.2019
3267 Clouds 19 1020 72 10000 5.1 220 18:19 22.08.2019
3268 Clouds 19 1020 72 10000 4.1 220 17:56 22.08.2019
3269 Clouds 19 1020 72 10000 4.1 220 17:56 22.08.2019
3270 Clouds 20 1020 72 10000 4.1 220 17:38 22.08.2019
3271 Rain 20 1020 77 10000 5.1 230 17:19 22.08.2019
3272 Rain 20 1020 77 10000 5.1 230 16:56 22.08.2019
3273 Rain 20 1020 77 10000 5.1 230 16:37 22.08.2019
3274 Rain 20 1020 77 10000 5.7 220 16:18 22.08.2019
3275 Rain 20 1020 77 10000 5.7 220 16:18 22.08.2019
3276 Rain 20 1020 77 10000 5.7 220 16:18 22.08.2019
3277 Rain 20 1020 77 10000 5.1 210 15:41 22.08.2019
3278 Rain 20 1020 77 10000 5.1 210 15:41 22.08.2019
3279 Rain 19 1020 82 10000 4.1 220 15:22 22.08.2019
3280 Rain 19 1020 82 10000 4.1 210 14:57 22.08.2019
3281 Rain 19 1020 82 10000 4.1 210 14:39 22.08.2019
3282 Rain 19 1020 88 10000 3.6 220 14:19 22.08.2019
3283 Rain 18 1021 88 10000 2.6 210 13:56 22.08.2019
3284 Rain 18 1021 88 10000 2.6 210 13:37 22.08.2019
3285 Rain 18 1021 88 9000 4.1 230 13:18 22.08.2019
3286 Rain 18 1020 77 10000 4.1 210 12:40 22.08.2019
3287 Rain 18 1020 77 10000 4.6 210 12:22 22.08.2019
3288 Rain 18 1020 77 10000 4.6 210 11:57 22.08.2019
3289 Rain 18 1020 77 10000 4.6 210 11:57 22.08.2019
3290 Rain 18 1020 77 10000 4.6 210 11:39 22.08.2019
3291 Rain 18 1020 82 10000 4.1 210 11:19 22.08.2019
3292 Drizzle 18 1020 82 10000 4.1 200 10:57 22.08.2019
3293 Drizzle 18 1020 82 10000 4.1 200 10:57 22.08.2019
3294 Rain 18 1020 82 10000 3.1 190 10:36 22.08.2019
3295 Rain 17 1020 82 10000 3.1 190 10:18 22.08.2019
3296 Rain 17 1020 87 10000 3.6 190 09:40 22.08.2019
3297 Rain 16 1020 87 10000 3.1 190 09:21 22.08.2019
3298 Rain 16 1018 93 10000 6.7 230 08:59 22.08.2019
3299 Rain 16 1020 87 10000 3.1 190 08:40 22.08.2019
3300 Rain 15 1019 87 10000 3.6 180 08:21 22.08.2019
3301 Drizzle 15 1020 82 10000 2.6 170 07:43 22.08.2019
3302 Drizzle 15 1020 82 10000 2.6 170 07:24 22.08.2019
3303 Drizzle 15 1020 82 10000 2.6 170 06:58 22.08.2019
3304 Drizzle 15 1020 82 10000 2.6 170 06:40 22.08.2019
3305 Drizzle 15 1020 82 10000 2.1 170 06:19 22.08.2019
3306 Clouds 15 1020 77 10000 3.1 190 04:42 22.08.2019
3307 Rain 15 1021 77 10000 3.6 190 02:56 22.08.2019
3308 Rain 15 1021 77 10000 3.6 190 02:34 22.08.2019
3309 Rain 15 1021 82 10000 3.6 180 01:26 22.08.2019
3310 Rain 15 1021 82 10000 3.6 190 00:48 22.08.2019
3311 Rain 15 1022 82 10000 3.1 180 00:30 22.08.2019
3312 Rain 15 1022 82 10000 3.1 190 23:58 21.08.2019
3313 Rain 15 1022 82 10000 3.1 190 23:39 21.08.2019
3314 Rain 15 1022 82 10000 3.6 200 23:19 21.08.2019
3315 Rain 16 1022 82 10000 2.6 190 22:55 21.08.2019
3316 Rain 16 1022 82 10000 2.6 190 22:37 21.08.2019
3317 Rain 16 1022 77 10000 2.1 200 22:19 21.08.2019
3318 Rain 16 1022 77 10000 2.1 200 21:55 21.08.2019
3319 Rain 16 1022 77 10000 2.1 200 21:36 21.08.2019
3320 Rain 16 1022 72 10000 2.1 200 21:18 21.08.2019
3321 Rain 17 1022 82 10000 2.6 210 20:43 21.08.2019
3322 Rain 17 1022 82 10000 3.1 230 20:24 21.08.2019
3323 Rain 17 1022 77 10000 4.1 220 19:57 21.08.2019
3324 Rain 17 1022 77 10000 4.1 220 19:39 21.08.2019
3325 Rain 17 1022 82 10000 3.1 220 19:20 21.08.2019
3326 Rain 18 1023 87 10000 4.1 230 18:55 21.08.2019
3327 Rain 18 1023 87 10000 4.1 230 18:37 21.08.2019
3328 Rain 18 1023 82 10000 3.6 240 18:19 21.08.2019
3329 Rain 18 1023 82 10000 4.6 250 17:42 21.08.2019
3330 Rain 18 1023 72 10000 4.1 230 17:20 21.08.2019
3331 Rain 19 1023 63 10000 5.1 220 16:54 21.08.2019
3332 Rain 19 1023 63 10000 5.1 220 16:36 21.08.2019
3333 Rain 19 1023 68 10000 4.1 220 16:18 21.08.2019
3334 Rain 19 1023 63 10000 4.6 210 15:41 21.08.2019
3335 Rain 19 1024 60 10000 4.6 230 15:22 21.08.2019
3336 Clouds 20 1024 63 10000 3.1 210 14:58 21.08.2019
3337 Rain 19 1024 63 10000 3.1 210 14:39 21.08.2019
3338 Rain 19 1024 63 10000 4.1 210 14:20 21.08.2019
3339 Rain 19 1025 68 10000 4.6 220 13:56 21.08.2019
3340 Rain 19 1025 68 10000 4.6 220 13:38 21.08.2019
3341 Clouds 19 1024 68 10000 3.6 220 13:18 21.08.2019
3342 Clouds 19 1024 72 10000 4.1 220 12:41 21.08.2019
3343 Clouds 18 1025 77 10000 3.6 210 12:23 21.08.2019
3344 Clouds 18 1025 82 10000 2.6 200 11:59 21.08.2019
3345 Clouds 17 1025 82 10000 2.6 200 11:41 21.08.2019
3346 Clouds 17 1025 82 10000 2.6 190 11:22 21.08.2019
3347 Clouds 16 1025 87 10000 2.1 180 10:57 21.08.2019
3348 Clouds 16 1025 87 10000 2.1 180 10:38 21.08.2019
3349 Clouds 15 1025 87 10000 2.6 190 10:19 21.08.2019
3350 Clouds 15 1025 87 10000 2.1 180 09:55 21.08.2019
3351 Clouds 14 1025 87 10000 2.1 180 09:37 21.08.2019
3352 Clouds 14 1025 93 10000 2.1 180 09:18 21.08.2019
3353 Rain 13 1025 93 10000 2.6 190 08:42 21.08.2019
3354 Rain 13 1024 87 10000 2.1 180 08:23 21.08.2019
3355 Rain 13 1024 93 10000 2.1 180 07:42 21.08.2019
3356 Clouds 13 1024 87 10000 2.1 180 07:23 21.08.2019
3357 Clouds 13 1024 93 10000 2.1 180 06:50 21.08.2019
3358 Clouds 13 1024 93 10000 1.5 0 06:24 21.08.2019
3359 Clouds 13 1024 93 10000 2.6 180 05:46 21.08.2019
3360 Clouds 13 1024 93 10000 2.6 190 05:23 21.08.2019
3361 Clouds 13 1024 93 10000 2.1 190 03:39 21.08.2019
3362 Rain 13 1024 93 10000 2.1 180 01:51 21.08.2019
3363 Drizzle 13 1024 93 10000 2.6 180 01:22 21.08.2019
3364 Clouds 13 1024 93 10000 2.1 170 00:37 21.08.2019
3365 Rain 13 1024 93 10000 2.1 180 00:18 21.08.2019
3366 Rain 13 1024 93 4800 1 0 23:42 20.08.2019
3367 Rain 14 1024 93 1200 1.5 0 23:19 20.08.2019
3368 Rain 14 1024 93 3500 1 0 22:56 20.08.2019
3369 Rain 14 1024 93 3500 1 0 22:38 20.08.2019
3370 Rain 14 1024 93 3500 1 0 22:38 20.08.2019
3371 Rain 14 1024 87 5000 3.1 200 22:20 20.08.2019
3372 Rain 14 1024 87 5000 3.1 200 22:20 20.08.2019
3373 Rain 14 1024 87 5000 3.1 200 22:20 20.08.2019
3374 Rain 14 1024 77 10000 3.1 220 21:57 20.08.2019
3375 Rain 14 1024 77 10000 3.1 220 21:38 20.08.2019
3376 Rain 15 1023 67 10000 3.6 250 21:19 20.08.2019
3377 Rain 16 1023 63 10000 2.1 250 20:43 20.08.2019
3378 Rain 16 1023 63 10000 2.1 250 20:24 20.08.2019
3379 Rain 16 1023 59 9000 1.5 0 19:59 20.08.2019
3380 Rain 17 1023 59 9000 1.5 0 19:39 20.08.2019
3381 Clouds 17 1023 55 10000 3.6 270 19:20 20.08.2019
3382 Clouds 17 1023 55 10000 3.1 260 18:55 20.08.2019
3383 Clouds 17 1023 55 10000 3.1 260 18:37 20.08.2019
3384 Clear 18 1022 55 10000 4.6 270 18:18 20.08.2019
3385 Clear 18 1022 55 10000 4.6 270 17:54 20.08.2019
3386 Clouds 18 1022 55 10000 4.6 290 17:36 20.08.2019
3387 Clouds 18 1022 55 10000 4.6 290 17:18 20.08.2019
3388 Clear 18 1022 59 10000 5.1 280 16:41 20.08.2019
3389 Clear 18 1022 59 10000 5.1 280 16:23 20.08.2019
3390 Clouds 18 1022 63 10000 7.2 260 15:41 20.08.2019
3391 Rain 17 1022 67 10000 5.7 260 15:18 20.08.2019
3392 Rain 17 1022 67 10000 5.7 260 14:56 20.08.2019
3393 Rain 17 1022 72 10000 5.1 250 14:38 20.08.2019
3394 Rain 16 1022 72 10000 5.1 250 14:18 20.08.2019
3395 Rain 16 1022 76 10000 6.7 250 13:55 20.08.2019
3396 Rain 16 1022 72 10000 5.1 260 13:36 20.08.2019
3397 Rain 16 1022 72 10000 5.1 260 13:18 20.08.2019
3398 Rain 16 1021 76 10000 4.6 250 12:45 20.08.2019
3399 Rain 15 1021 76 10000 4.6 250 12:24 20.08.2019
3400 Rain 15 1021 82 10000 6.2 260 11:55 20.08.2019
3401 Rain 15 1020 82 10000 6.2 270 11:37 20.08.2019
3402 Rain 15 1020 87 10000 4.1 250 11:18 20.08.2019
3403 Rain 15 1020 87 10000 4.1 250 11:18 20.08.2019
3404 Rain 15 1020 87 10000 4.1 250 10:55 20.08.2019
3405 Rain 14 1019 72 10000 6.2 280 10:37 20.08.2019
3406 Rain 14 1020 93 10000 4.1 230 10:18 20.08.2019
3407 Rain 14 1019 93 10000 4.1 230 09:40 20.08.2019
3408 Rain 13 1019 93 10000 4.1 230 09:22 20.08.2019
3409 Rain 12 1018 100 7000 3.6 220 08:42 20.08.2019
3410 Rain 12 1018 100 7000 3.6 220 08:24 20.08.2019
3411 Rain 12 1018 93 9000 2.6 210 07:58 20.08.2019
3412 Rain 12 1018 93 10000 2.1 190 07:39 20.08.2019
3413 Rain 12 1018 93 10000 2.1 190 07:21 20.08.2019
3414 Rain 12 1017 93 3900 2.1 230 06:47 20.08.2019
3415 Rain 12 1017 93 3900 2.1 230 06:47 20.08.2019
3416 Rain 12 1017 93 3900 2.1 230 06:21 20.08.2019
3417 Rain 12 1017 93 10000 3.6 220 05:47 20.08.2019
3418 Rain 12 1017 87 10000 2.1 200 04:30 20.08.2019
3419 Clear 12 1016 87 10000 2.6 200 02:51 20.08.2019
3420 Clear 12 1016 93 10000 3.1 220 01:58 20.08.2019
3421 Rain 13 1016 87 10000 2.6 190 01:21 20.08.2019
3422 Clear 13 1016 87 10000 2.1 180 00:45 20.08.2019
3423 Rain 13 1016 87 10000 2.1 180 00:25 20.08.2019
3424 Rain 13 1015 87 10000 2.6 200 23:50 19.08.2019
3425 Rain 13 1015 82 10000 2.6 210 23:19 19.08.2019
3426 Rain 13 1015 82 10000 2.6 210 22:58 19.08.2019
3427 Rain 14 1015 82 10000 2.6 220 22:40 19.08.2019
3428 Rain 14 1015 82 10000 2.6 220 22:20 19.08.2019
3429 Rain 14 1014 76 10000 3.6 230 21:57 19.08.2019
3430 Rain 15 1014 76 10000 5.7 240 21:38 19.08.2019
3431 Rain 15 1014 76 10000 5.7 240 21:19 19.08.2019
3432 Rain 16 1014 77 10000 3.1 230 20:54 19.08.2019
3433 Rain 16 1014 77 10000 3.1 270 20:36 19.08.2019
3434 Rain 16 1012 72 10000 9.3 260 20:18 19.08.2019
3435 Rain 17 1012 72 10000 9.3 260 19:54 19.08.2019
3436 Rain 17 1013 63 10000 9.3 240 19:36 19.08.2019
3437 Rain 17 1013 63 10000 9.3 240 19:36 19.08.2019
3438 Rain 17 1013 59 10000 5.1 250 19:18 19.08.2019
3439 Clouds 18 1013 63 10000 6.7 270 18:40 19.08.2019
3440 Clouds 18 1013 63 10000 6.7 270 18:40 19.08.2019
3441 Clouds 18 1012 67 10000 9.3 260 18:21 19.08.2019
3442 Clouds 18 1012 67 10000 9.3 260 17:56 19.08.2019
3443 Clouds 18 1013 59 10000 6.7 280 17:37 19.08.2019
3444 Clouds 18 1013 59 10000 6.7 280 17:19 19.08.2019
3445 Rain 18 1012 63 10000 5.7 270 16:39 19.08.2019
3446 Rain 18 1012 77 10000 4.6 260 16:21 19.08.2019
3447 Rain 17 1012 87 10000 3.6 250 15:56 19.08.2019
3448 Rain 17 1012 87 10000 3.6 250 15:38 19.08.2019
3449 Rain 17 1012 77 10000 4.1 270 15:19 19.08.2019
3450 Rain 17 1012 82 10000 5.7 270 14:44 19.08.2019
3451 Rain 16 1011 77 8000 8.7 270 14:23 19.08.2019
3452 Rain 17 1011 59 10000 5.1 240 13:58 19.08.2019
3453 Rain 17 1011 59 10000 5.1 240 13:39 19.08.2019
3454 Rain 17 1011 59 10000 6.7 240 13:20 19.08.2019
3455 Rain 17 1011 59 10000 5.7 260 12:58 19.08.2019
3456 Rain 17 1011 59 10000 5.7 260 12:40 19.08.2019
3457 Rain 17 1011 59 10000 6.2 250 12:20 19.08.2019
3458 Rain 16 1010 63 10000 5.7 250 11:40 19.08.2019
3459 Rain 16 1010 67 10000 6.7 250 11:22 19.08.2019
3460 Clouds 16 1010 72 10000 5.7 250 10:58 19.08.2019
3461 Clouds 16 1010 72 10000 5.7 250 10:38 19.08.2019
3462 Rain 16 1010 77 10000 6.2 250 10:18 19.08.2019
3463 Rain 15 1009 87 10000 4.6 250 09:45 19.08.2019
3464 Clouds 14 1009 87 10000 4.1 240 09:24 19.08.2019
3465 Clouds 14 1009 87 10000 2.6 220 08:59 19.08.2019
3466 Clouds 14 1009 87 10000 2.6 220 08:41 19.08.2019
3467 Clouds 14 1009 87 10000 2.6 220 08:41 19.08.2019
3468 Clouds 13 1009 87 10000 2.6 210 08:20 19.08.2019
3469 Clouds 13 1008 87 10000 2.6 230 07:49 19.08.2019
3470 Clouds 13 1008 93 10000 3.6 230 07:31 19.08.2019
3471 Clouds 13 1007 87 10000 3.1 220 06:52 19.08.2019
3472 Clouds 13 1007 93 10000 2.6 220 06:33 19.08.2019
3473 Rain 13 1006 93 10000 2.6 230 05:21 19.08.2019
3474 Rain 13 1006 87 10000 2.6 200 04:27 19.08.2019
3475 Rain 13 1006 87 10000 2.6 200 04:27 19.08.2019
3476 Rain 13 1006 87 10000 2.6 200 04:27 19.08.2019
3477 Rain 13 1006 93 10000 3.1 200 03:23 19.08.2019
3478 Drizzle 13 1006 87 10000 3.1 200 02:24 19.08.2019
3479 Rain 14 1005 87 10000 3.1 190 01:34 19.08.2019
3480 Clouds 14 1005 87 10000 3.6 200 00:44 19.08.2019
3481 Clouds 14 1005 87 10000 2.6 190 00:23 19.08.2019
3482 Clouds 14 1004 82 10000 3.1 210 23:42 18.08.2019
3483 Rain 14 1004 82 10000 3.6 210 23:21 18.08.2019
3484 Rain 15 1004 82 10000 3.6 210 22:56 18.08.2019
3485 Rain 15 1004 82 10000 3.6 210 22:38 18.08.2019
3486 Rain 15 1003 77 10000 4.6 210 22:20 18.08.2019
3487 Rain 15 1003 72 10000 4.6 220 21:55 18.08.2019
3488 Rain 15 1003 72 10000 4.6 220 21:37 18.08.2019
3489 Rain 16 1003 67 10000 4.6 220 21:18 18.08.2019
3490 Rain 16 1003 67 10000 4.6 220 21:18 18.08.2019
3491 Rain 16 1003 67 10000 7.2 240 20:42 18.08.2019
3492 Rain 16 1003 63 10000 6.2 240 20:24 18.08.2019
3493 Rain 16 1002 59 10000 6.2 240 19:55 18.08.2019
3494 Rain 16 1002 59 10000 6.2 240 19:36 18.08.2019
3495 Rain 17 1002 59 10000 7.2 240 19:18 18.08.2019
3496 Rain 17 1002 59 10000 8.2 240 18:41 18.08.2019
3497 Rain 18 1002 52 10000 8.7 240 18:23 18.08.2019
3498 Rain 19 1002 48 10000 10.3 230 17:57 18.08.2019
3499 Rain 19 1002 48 10000 10.3 230 17:39 18.08.2019
3500 Rain 19 1002 48 10000 11.3 230 17:19 18.08.2019
3501 Clear 19 1001 52 10000 11.3 240 16:56 18.08.2019
3502 Clear 19 1001 52 10000 11.3 240 16:37 18.08.2019
3503 Clouds 19 1001 52 10000 10.3 230 16:18 18.08.2019
3504 Clouds 19 1001 52 10000 9.8 240 15:40 18.08.2019
3505 Clouds 19 1001 52 10000 9.8 240 15:20 18.08.2019
3506 Clouds 19 1001 55 10000 8.7 240 14:59 18.08.2019
3507 Clouds 19 1001 55 10000 8.7 240 14:59 18.08.2019
3508 Clouds 18 1001 55 10000 8.7 240 14:40 18.08.2019
3509 Clouds 19 1001 55 10000 9.3 230 14:20 18.08.2019
3510 Clouds 18 1000 59 10000 7.2 240 13:58 18.08.2019
3511 Clouds 18 1000 59 10000 6.2 220 13:40 18.08.2019
3512 Clouds 18 1000 59 10000 6.2 220 13:20 18.08.2019
3513 Clouds 18 1000 67 10000 4.6 210 12:54 18.08.2019
3514 Clouds 18 1000 67 10000 4.6 210 12:36 18.08.2019
3515 Clouds 17 1000 67 10000 6.2 220 12:18 18.08.2019
3516 Clouds 16 1000 77 10000 4.1 220 11:41 18.08.2019
3517 Clouds 16 1000 72 10000 4.1 210 11:21 18.08.2019
3518 Clouds 15 1000 82 10000 4.6 210 10:42 18.08.2019
3519 Clouds 15 1000 82 10000 4.1 200 10:22 18.08.2019
3520 Clouds 15 1000 82 10000 4.1 200 10:22 18.08.2019
3521 Clouds 14 999 82 10000 4.1 200 09:56 18.08.2019
3522 Clouds 14 999 82 10000 4.1 200 09:37 18.08.2019
3523 Clouds 14 999 87 10000 3.1 190 09:18 18.08.2019
3524 Clouds 13 999 87 10000 2.6 190 08:42 18.08.2019
3525 Rain 13 1000 87 10000 2.1 190 08:24 18.08.2019
3526 Rain 13 1000 87 10000 2.6 190 07:49 18.08.2019
3527 Clouds 12 1000 87 10000 2.6 200 07:29 18.08.2019
3528 Rain 13 1000 82 10000 3.1 200 05:50 18.08.2019
3529 Rain 12 1000 82 10000 2.6 200 04:58 18.08.2019
3530 Rain 13 1000 82 10000 3.1 200 03:44 18.08.2019
3531 Clear 14 1001 76 10000 3.6 200 02:49 18.08.2019
3532 Clear 14 1001 82 10000 2.6 190 02:25 18.08.2019
3533 Clear 13 1001 82 10000 2.1 190 01:47 18.08.2019
3534 Clear 14 1002 76 10000 3.1 190 01:22 18.08.2019
3535 Clear 14 1001 76 10000 1.5 0 00:39 18.08.2019
3536 Clear 14 1002 71 10000 4.1 210 00:19 18.08.2019
3537 Clear 14 1002 71 10000 4.1 210 00:19 18.08.2019
3538 Clear 14 1002 71 10000 3.6 200 23:57 17.08.2019
3539 Clear 15 1001 62 10000 5.1 220 23:37 17.08.2019
3540 Clear 15 1001 62 10000 5.1 220 23:18 17.08.2019
3541 Clear 15 1002 67 10000 5.1 220 22:56 17.08.2019
3542 Clear 16 1002 62 10000 3.6 210 22:37 17.08.2019
3543 Clear 16 1002 62 10000 3.6 210 22:19 17.08.2019
3544 Clear 16 1002 59 10000 2.6 210 21:41 17.08.2019
3545 Rain 17 1001 59 10000 5.1 220 21:23 17.08.2019
3546 Rain 17 1001 59 10000 5.1 220 21:23 17.08.2019
3547 Rain 17 1001 59 10000 4.6 220 20:41 17.08.2019
3548 Rain 18 1001 55 10000 5.1 220 20:21 17.08.2019
3549 Clouds 19 1001 55 10000 6.2 210 19:59 17.08.2019
3550 Clouds 19 1001 55 10000 6.2 210 19:41 17.08.2019
3551 Rain 19 1002 59 10000 4.1 220 19:22 17.08.2019
3552 Rain 19 1002 52 10000 6.2 230 18:54 17.08.2019
3553 Rain 19 1002 52 10000 6.2 230 18:36 17.08.2019
3554 Clouds 19 1002 55 10000 7.2 240 18:18 17.08.2019
3555 Clouds 20 1002 52 10000 6.2 230 17:41 17.08.2019
3556 Rain 19 1002 52 10000 4.6 210 17:21 17.08.2019
3557 Rain 19 1002 52 10000 6.7 240 16:55 17.08.2019
3558 Clouds 19 1002 52 10000 8.7 240 16:36 17.08.2019
3559 Clouds 19 1002 52 10000 8.7 240 16:18 17.08.2019
3560 Clouds 19 1002 49 10000 9.3 230 15:42 17.08.2019
3561 Rain 19 1002 52 10000 8.7 230 15:21 17.08.2019
3562 Clouds 19 1002 52 10000 8.7 240 14:57 17.08.2019
3563 Clouds 19 1002 52 10000 8.7 240 14:37 17.08.2019
3564 Rain 19 1002 55 10000 7.2 240 14:18 17.08.2019
3565 Clouds 19 1002 59 10000 8.2 250 13:42 17.08.2019
3566 Clouds 18 1001 67 10000 3.1 260 13:19 17.08.2019
3567 Clouds 18 1001 72 10000 4.6 270 12:42 17.08.2019
3568 Rain 18 1001 72 10000 5.7 230 12:20 17.08.2019
3569 Rain 17 1001 77 10000 4.6 230 11:58 17.08.2019
3570 Rain 17 1001 77 10000 4.6 230 11:38 17.08.2019
3571 Rain 17 1001 82 10000 4.6 240 11:19 17.08.2019
3572 Rain 16 1000 87 10000 5.7 250 10:39 17.08.2019
3573 Rain 16 1000 87 10000 3.6 220 10:20 17.08.2019
3574 Rain 16 1000 87 10000 3.1 220 09:52 17.08.2019
3575 Rain 15 1000 87 10000 3.1 220 09:33 17.08.2019
3576 Rain 15 999 87 10000 4.6 210 08:58 17.08.2019
3577 Rain 15 999 87 10000 4.6 210 08:58 17.08.2019
3578 Rain 14 999 87 10000 3.1 200 08:28 17.08.2019
3579 Clouds 14 999 87 10000 3.6 200 07:56 17.08.2019
3580 Clouds 14 999 87 10000 3.6 200 07:38 17.08.2019
3581 Rain 14 999 93 10000 3.1 190 07:19 17.08.2019
3582 Clouds 14 999 87 10000 4.1 210 05:58 17.08.2019
3583 Rain 14 999 87 10000 3.6 210 04:32 17.08.2019
3584 Rain 14 999 87 10000 4.1 200 03:38 17.08.2019
3585 Rain 14 998 87 10000 4.1 200 02:36 17.08.2019
3586 Rain 14 998 87 10000 4.1 200 02:36 17.08.2019
3587 Rain 15 999 87 10000 4.1 200 01:36 17.08.2019
3588 Clouds 15 999 87 10000 4.1 210 01:18 17.08.2019
3589 Clouds 15 998 93 10000 3.1 220 00:44 17.08.2019
3590 Clouds 16 999 93 10000 3.1 190 23:58 16.08.2019
3591 Clouds 16 999 93 10000 3.1 190 23:39 16.08.2019
3592 Rain 16 999 93 10000 3.1 200 23:20 16.08.2019
3593 Rain 16 999 93 10000 3.1 200 22:42 16.08.2019
3594 Rain 16 999 93 10000 3.6 190 22:19 16.08.2019
3595 Rain 17 999 93 10000 4.1 190 21:43 16.08.2019
3596 Rain 17 999 93 10000 4.1 190 21:22 16.08.2019
3597 Rain 17 999 88 10000 3.6 190 20:59 16.08.2019
3598 Rain 16 999 88 10000 3.6 190 20:40 16.08.2019
3599 Rain 17 999 88 10000 3.1 170 20:19 16.08.2019
3600 Rain 16 1000 93 10000 3.1 170 19:45 16.08.2019
3601 Rain 16 1000 93 4000 3.6 160 19:24 16.08.2019
3602 Rain 16 1001 93 8000 5.1 180 18:59 16.08.2019
3603 Rain 16 1001 93 8000 5.1 180 18:41 16.08.2019
3604 Rain 16 1001 93 8000 5.1 180 18:41 16.08.2019
3605 Rain 16 1001 93 10000 4.6 180 18:22 16.08.2019
3606 Rain 16 1001 93 10000 4.6 180 17:45 16.08.2019
3607 Rain 16 1002 93 10000 4.1 180 17:25 16.08.2019
3608 Rain 16 1003 93 7000 4.1 180 16:56 16.08.2019
3609 Rain 16 1003 93 7000 4.1 180 16:38 16.08.2019
3610 Rain 16 1003 87 7000 4.6 180 16:18 16.08.2019
3611 Rain 16 1003 87 8000 4.1 180 15:54 16.08.2019
3612 Rain 15 1003 87 8000 4.1 180 15:36 16.08.2019
3613 Rain 15 1004 93 10000 4.1 180 15:18 16.08.2019
3614 Rain 15 1004 93 9000 3.1 180 14:41 16.08.2019
3615 Rain 15 1005 93 8000 4.1 180 14:19 16.08.2019
3616 Rain 15 1005 93 8000 4.1 180 14:19 16.08.2019
3617 Rain 15 1005 93 5000 4.6 180 13:59 16.08.2019
3618 Rain 15 1005 93 5000 4.6 180 13:38 16.08.2019
3619 Rain 15 1005 93 9000 5.1 180 13:20 16.08.2019
3620 Rain 15 1006 93 10000 4.1 180 12:39 16.08.2019
3621 Rain 15 1006 87 10000 4.1 180 12:20 16.08.2019
3622 Rain 15 1007 87 10000 3.6 170 11:43 16.08.2019
3623 Rain 15 1007 87 9000 3.1 180 11:24 16.08.2019
3624 Rain 15 1007 87 9000 2.6 170 10:58 16.08.2019
3625 Rain 15 1007 87 9000 2.6 170 10:40 16.08.2019
3626 Rain 14 1008 87 8000 3.6 180 10:18 16.08.2019
3627 Rain 14 1009 87 10000 3.1 180 09:38 16.08.2019
3628 Rain 14 1009 87 10000 3.1 180 09:19 16.08.2019
3629 Rain 14 1010 93 4500 3.6 190 08:56 16.08.2019
3630 Rain 14 1010 93 4500 3.6 190 08:38 16.08.2019
3631 Rain 14 1010 82 10000 2.6 180 08:19 16.08.2019
3632 Rain 14 1010 87 10000 2.6 180 07:44 16.08.2019
3633 Drizzle 14 1011 87 9000 2.1 170 07:25 16.08.2019
3634 Clouds 13 1011 87 10000 1.5 0 06:38 16.08.2019
3635 Clouds 14 1012 87 10000 2.1 180 05:58 16.08.2019
3636 Clouds 13 1012 87 10000 2.1 180 05:33 16.08.2019
3637 Clouds 13 1013 82 10000 2.1 180 03:19 16.08.2019
3638 Clouds 13 1014 82 10000 1.5 0 01:45 16.08.2019
3639 Clouds 13 1015 82 10000 1 0 01:25 16.08.2019
3640 Clouds 13 1015 82 10000 1 0 00:48 16.08.2019
3641 Clouds 13 1015 87 10000 1.5 0 00:22 16.08.2019
3642 Clouds 13 1015 81 10000 1.5 160 23:46 15.08.2019
3643 Clouds 13 1015 87 10000 1.5 150 23:25 15.08.2019
3644 Clouds 13 1015 81 10000 1 0 22:59 15.08.2019
3645 Clouds 13 1015 81 10000 1 0 22:41 15.08.2019
3646 Clouds 14 1015 76 10000 1 0 22:21 15.08.2019
3647 Clear 15 1015 71 10000 1 0 21:56 15.08.2019
3648 Clear 15 1015 71 10000 1 0 21:38 15.08.2019
3649 Clouds 16 1015 63 10000 3.6 260 21:19 15.08.2019
3650 Clouds 16 1015 59 10000 4.1 280 20:44 15.08.2019
3651 Clouds 17 1015 55 10000 6.2 270 20:22 15.08.2019
3652 Clouds 17 1015 51 10000 6.2 280 19:58 15.08.2019
3653 Clouds 17 1015 51 10000 6.2 280 19:39 15.08.2019
3654 Clouds 17 1014 59 10000 7.2 270 19:21 15.08.2019
3655 Clouds 17 1014 59 10000 8.2 270 18:47 15.08.2019
3656 Clouds 17 1014 63 10000 6.7 270 18:23 15.08.2019
3657 Clouds 17 1014 63 10000 6.7 270 17:58 15.08.2019
3658 Clouds 17 1014 63 10000 6.7 270 17:38 15.08.2019
3659 Clouds 17 1013 67 10000 7.2 280 17:19 15.08.2019
3660 Clouds 17 1013 63 10000 7.2 290 16:57 15.08.2019
3661 Clouds 17 1013 63 10000 7.2 290 16:38 15.08.2019
3662 Clouds 17 1013 63 10000 7.7 280 16:20 15.08.2019
3663 Rain 17 1013 63 10000 7.7 280 15:38 15.08.2019
3664 Clouds 17 1012 59 10000 8.2 280 15:20 15.08.2019
3665 Rain 17 1012 67 10000 7.2 280 14:56 15.08.2019
3666 Rain 17 1012 67 10000 7.2 280 14:37 15.08.2019
3667 Rain 17 1012 59 10000 8.2 290 14:18 15.08.2019
3668 Rain 17 1011 67 10000 8.2 290 13:55 15.08.2019
3669 Rain 17 1011 67 10000 8.2 290 13:55 15.08.2019
3670 Rain 17 1011 67 10000 8.2 290 13:55 15.08.2019
3671 Rain 17 1011 67 10000 8.2 290 13:37 15.08.2019
3672 Rain 16 1011 67 10000 7.7 290 13:19 15.08.2019
3673 Clouds 16 1010 77 10000 7.2 280 12:40 15.08.2019
3674 Rain 16 1010 82 10000 7.2 280 12:20 15.08.2019
3675 Rain 16 1009 77 10000 6.2 280 11:57 15.08.2019
3676 Rain 16 1009 77 10000 6.2 280 11:57 15.08.2019
3677 Rain 16 1009 77 10000 6.2 280 11:38 15.08.2019
3678 Rain 15 1009 82 10000 8.2 280 11:18 15.08.2019
3679 Rain 15 1008 82 10000 8.2 280 10:58 15.08.2019
3680 Rain 15 1008 82 10000 8.2 280 10:37 15.08.2019
3681 Rain 15 1008 87 10000 6.7 280 10:18 15.08.2019
3682 Rain 15 1007 87 10000 7.2 260 09:43 15.08.2019
3683 Drizzle 15 1007 87 1600 6.7 260 09:22 15.08.2019
3684 Rain 15 1007 93 10000 7.2 260 08:39 15.08.2019
3685 Rain 15 1006 93 10000 7.2 260 08:21 15.08.2019
3686 Rain 14 1006 87 10000 6.2 260 07:56 15.08.2019
3687 Rain 14 1006 87 10000 6.2 260 07:38 15.08.2019
3688 Rain 15 1006 87 10000 6.2 260 07:20 15.08.2019
3689 Rain 15 1005 87 5000 5.7 250 06:47 15.08.2019
3690 Rain 15 1005 87 10000 4.6 230 06:25 15.08.2019
3691 Rain 15 1005 87 10000 4.6 230 05:30 15.08.2019
3692 Rain 15 1005 87 10000 3.1 220 04:57 15.08.2019
3693 Clouds 15 1005 87 10000 3.1 220 03:53 15.08.2019
3694 Clouds 15 1005 87 10000 2.6 230 03:18 15.08.2019
3695 Clouds 15 1005 87 10000 4.6 250 02:25 15.08.2019
3696 Clouds 15 1005 93 10000 4.6 250 01:39 15.08.2019
3697 Rain 15 1005 93 10000 5.7 260 00:55 15.08.2019
3698 Rain 16 1005 93 10000 5.7 260 00:36 15.08.2019
3699 Rain 16 1003 100 8000 2.1 200 00:18 15.08.2019
3700 Rain 16 1004 93 10000 3.1 210 23:54 14.08.2019
3701 Rain 16 1004 93 10000 3.1 210 23:36 14.08.2019
3702 Rain 16 1004 93 10000 3.1 190 23:18 14.08.2019
3703 Rain 17 1004 93 10000 2.6 200 22:40 14.08.2019
3704 Rain 17 1004 93 10000 2.1 190 22:22 14.08.2019
3705 Drizzle 17 1004 88 10000 2.1 220 21:57 14.08.2019
3706 Drizzle 17 1004 88 10000 2.1 220 21:38 14.08.2019
3707 Drizzle 17 1004 88 10000 3.6 230 21:20 14.08.2019
3708 Rain 17 1004 93 10000 3.1 210 20:54 14.08.2019
3709 Rain 17 1004 93 10000 3.1 210 20:54 14.08.2019
3710 Rain 17 1004 93 10000 3.1 210 20:36 14.08.2019
3711 Rain 17 1004 93 10000 2.6 190 20:18 14.08.2019
3712 Rain 17 1004 93 10000 2.6 200 19:40 14.08.2019
3713 Rain 17 1004 93 10000 2.6 200 19:22 14.08.2019
3714 Rain 17 1004 93 10000 2.1 0 18:57 14.08.2019
3715 Rain 17 1004 93 10000 2.1 0 18:57 14.08.2019
3716 Rain 17 1004 93 10000 2.1 0 18:39 14.08.2019
3717 Rain 17 1004 93 10000 2.1 0 18:39 14.08.2019
3718 Rain 17 1005 93 10000 1.5 0 18:20 14.08.2019
3719 Rain 17 1005 93 10000 1.5 0 18:20 14.08.2019
3720 Rain 17 1005 93 10000 1.5 0 17:58 14.08.2019
3721 Rain 17 1005 93 10000 1.5 0 17:37 14.08.2019
3722 Drizzle 16 1006 93 5000 1.5 0 17:19 14.08.2019
3723 Drizzle 16 1006 87 4000 2.1 150 16:43 14.08.2019
3724 Rain 16 1006 87 8000 2.6 140 16:21 14.08.2019
3725 Rain 16 1007 87 10000 2.6 160 15:59 14.08.2019
3726 Rain 16 1007 87 10000 2.6 160 15:40 14.08.2019
3727 Rain 16 1007 87 10000 2.1 160 15:18 14.08.2019
3728 Rain 16 1007 87 10000 2.1 170 14:41 14.08.2019
3729 Rain 15 1007 93 10000 2.1 160 14:19 14.08.2019
3730 Rain 15 1008 93 10000 2.6 160 13:59 14.08.2019
3731 Rain 15 1008 93 10000 2.6 160 13:41 14.08.2019
3732 Rain 15 1008 93 10000 2.6 170 13:22 14.08.2019
3733 Rain 15 1008 93 10000 2.6 170 13:22 14.08.2019
3734 Rain 15 1008 93 10000 2.6 170 13:22 14.08.2019
3735 Rain 15 1008 93 10000 2.6 160 12:56 14.08.2019
3736 Rain 15 1008 93 10000 2.6 160 12:38 14.08.2019
3737 Rain 15 1009 93 10000 2.6 150 12:20 14.08.2019
3738 Rain 15 1009 93 3800 3.1 0 11:46 14.08.2019
3739 Rain 15 1010 87 10000 2.1 0 11:23 14.08.2019
3740 Rain 14 1010 93 10000 2.6 140 10:59 14.08.2019
3741 Rain 14 1010 93 10000 2.6 140 10:39 14.08.2019
3742 Rain 14 1011 93 10000 2.6 140 10:21 14.08.2019
3743 Rain 14 1011 93 8000 2.6 140 09:45 14.08.2019
3744 Rain 13 1011 93 7000 2.1 160 09:21 14.08.2019
3745 Rain 13 1011 93 7000 2.1 160 09:21 14.08.2019
3746 Rain 13 1011 93 10000 2.1 140 08:47 14.08.2019
3747 Rain 12 1012 93 10000 1.5 0 08:29 14.08.2019
3748 Rain 13 1012 93 10000 1.5 0 07:57 14.08.2019
3749 Rain 13 1012 93 10000 1.5 0 07:38 14.08.2019
3750 Rain 12 1012 100 10000 1.5 0 07:19 14.08.2019
3751 Rain 12 1013 100 10000 1 0 06:43 14.08.2019
3752 Rain 12 1013 93 10000 1.5 0 05:35 14.08.2019
3753 Rain 12 1014 87 10000 1 0 04:43 14.08.2019
3754 Clouds 12 1015 81 10000 0.5 0 02:44 14.08.2019
3755 Clouds 12 1015 87 10000 0.5 0 02:18 14.08.2019
3756 Clouds 12 1016 93 10000 1.5 120 01:30 14.08.2019
3757 Clouds 12 1016 87 10000 1.5 120 00:38 14.08.2019
3758 Clouds 13 1016 87 10000 1 130 23:43 13.08.2019
3759 Clouds 13 1016 81 10000 0.5 0 23:20 13.08.2019
3760 Clouds 13 1016 67 10000 0.5 0 22:56 13.08.2019
3761 Clouds 13 1016 67 10000 0.5 0 22:38 13.08.2019
3762 Clouds 13 1016 67 10000 0.5 0 22:38 13.08.2019
3763 Clouds 13 1016 67 10000 0.5 0 22:19 13.08.2019
3764 Clouds 14 1016 62 10000 2.1 270 21:55 13.08.2019
3765 Rain 14 1016 62 10000 2.1 270 21:36 13.08.2019
3766 Rain 14 1016 62 10000 2.1 270 21:36 13.08.2019
3767 Rain 15 1016 59 10000 3.6 270 21:18 13.08.2019
3768 Clear 16 1016 59 10000 4.1 270 20:43 13.08.2019
3769 Clear 16 1016 55 10000 4.6 280 20:20 13.08.2019
3770 Clear 17 1016 55 10000 4.6 280 19:56 13.08.2019
3771 Clear 17 1016 55 10000 4.6 280 19:38 13.08.2019
3772 Clouds 17 1016 55 10000 4.1 280 19:20 13.08.2019
3773 Clouds 18 1016 55 10000 4.1 280 18:41 13.08.2019
3774 Clouds 18 1016 51 10000 5.1 290 18:22 13.08.2019
3775 Clouds 18 1016 51 10000 5.7 280 17:56 13.08.2019
3776 Clouds 18 1016 51 10000 5.7 280 17:38 13.08.2019
3777 Clouds 18 1016 51 10000 6.2 280 17:18 13.08.2019
3778 Clouds 18 1016 55 10000 5.7 260 16:54 13.08.2019
3779 Clouds 18 1016 55 10000 5.7 260 16:36 13.08.2019
3780 Clouds 18 1016 52 10000 5.1 260 16:18 13.08.2019
3781 Clouds 17 1016 59 10000 5.7 280 15:38 13.08.2019
3782 Clouds 17 1016 59 10000 5.7 270 15:20 13.08.2019
3783 Clouds 17 1016 67 10000 5.1 270 14:47 13.08.2019
3784 Rain 16 1016 67 10000 5.7 270 14:20 13.08.2019
3785 Rain 17 1017 77 10000 2.1 270 13:59 13.08.2019
3786 Rain 17 1017 77 10000 2.1 270 13:59 13.08.2019
3787 Rain 17 1017 77 10000 2.1 270 13:40 13.08.2019
3788 Rain 16 1017 82 10000 4.1 260 13:20 13.08.2019
3789 Rain 16 1017 77 10000 7.7 260 12:57 13.08.2019
3790 Rain 16 1017 77 10000 7.7 260 12:39 13.08.2019
3791 Rain 15 1017 77 10000 3.6 230 12:20 13.08.2019
3792 Rain 15 1017 82 10000 3.6 240 11:42 13.08.2019
3793 Rain 15 1017 82 10000 5.1 260 11:22 13.08.2019
3794 Rain 14 1016 87 10000 4.1 250 10:58 13.08.2019
3795 Rain 14 1016 87 10000 4.1 250 10:38 13.08.2019
3796 Rain 13 1016 87 10000 4.6 250 10:19 13.08.2019
3797 Rain 12 1016 93 10000 4.1 240 09:46 13.08.2019
3798 Rain 12 1016 87 10000 3.1 230 09:25 13.08.2019
3799 Rain 11 1016 93 10000 3.6 220 08:57 13.08.2019
3800 Rain 11 1016 93 10000 3.6 220 08:39 13.08.2019
3801 Rain 11 1016 93 10000 2.1 220 08:20 13.08.2019
3802 Rain 10 1016 93 10000 3.1 230 07:45 13.08.2019
3803 Rain 10 1015 93 10000 2.1 200 07:23 13.08.2019
3804 Rain 10 1015 93 9000 2.1 180 06:44 13.08.2019
3805 Rain 10 1015 93 10000 2.1 260 05:53 13.08.2019
3806 Rain 11 1015 100 7000 2.6 230 04:36 13.08.2019
3807 Rain 11 1015 87 10000 1.5 0 02:22 13.08.2019
3808 Rain 11 1015 87 10000 2.1 180 01:29 13.08.2019
3809 Clouds 11 1015 87 10000 1.5 170 00:48 13.08.2019
3810 Clouds 12 1015 87 10000 1 0 00:22 13.08.2019
3811 Rain 12 1016 81 10000 1.5 170 23:43 12.08.2019
3812 Rain 12 1016 76 10000 1.5 220 23:21 12.08.2019
3813 Rain 13 1016 81 10000 1.5 0 22:41 12.08.2019
3814 Rain 13 1015 77 10000 4.1 240 22:20 12.08.2019
3815 Rain 14 1015 67 10000 2.1 300 21:57 12.08.2019
3816 Rain 14 1015 67 10000 2.1 300 21:38 12.08.2019
3817 Rain 15 1015 62 10000 3.6 300 21:20 12.08.2019
3818 Rain 15 1015 58 10000 3.6 310 20:59 12.08.2019
3819 Rain 15 1015 58 10000 3.6 310 20:41 12.08.2019
3820 Clouds 16 1015 51 10000 4.6 290 20:20 12.08.2019
3821 Clouds 16 1015 51 10000 4.6 290 19:57 12.08.2019
3822 Clouds 16 1015 51 10000 4.6 290 19:39 12.08.2019
3823 Clouds 16 1015 48 10000 5.7 290 19:20 12.08.2019
3824 Clouds 16 1015 48 10000 5.1 290 18:56 12.08.2019
3825 Clouds 17 1015 48 10000 5.1 290 18:38 12.08.2019
3826 Clouds 17 1015 48 10000 5.7 300 18:19 12.08.2019
3827 Rain 17 1015 51 10000 6.2 300 17:48 12.08.2019
3828 Rain 17 1015 59 10000 4.6 290 17:29 12.08.2019
3829 Rain 17 1015 62 10000 5.1 300 16:58 12.08.2019
3830 Rain 17 1015 62 10000 5.1 300 16:39 12.08.2019
3831 Rain 17 1015 67 10000 4.6 330 16:20 12.08.2019
3832 Rain 17 1015 67 10000 4.6 330 16:20 12.08.2019
3833 Rain 17 1015 59 10000 4.6 310 15:59 12.08.2019
3834 -273 0 0 0 0 0 15:41 12.08.2019
3835 Rain 17 1015 59 10000 4.6 310 15:41 12.08.2019
3836 Rain 17 1015 59 10000 4.6 310 15:40 12.08.2019
3837 Clouds 16 1015 67 10000 2.1 300 15:21 12.08.2019
3838 Clouds 16 1015 71 10000 2.6 340 14:55 12.08.2019
3839 Rain 16 1015 71 10000 2.6 340 14:37 12.08.2019
3840 Rain 16 1015 63 10000 6.7 300 14:18 12.08.2019
3841 Rain 16 1015 63 10000 6.7 300 14:18 12.08.2019
3842 Rain 15 1014 71 10000 2.6 300 13:42 12.08.2019
3843 Rain 15 1014 71 10000 4.6 350 13:23 12.08.2019
3844 Rain 15 1014 67 10000 4.1 300 12:44 12.08.2019
3845 Rain 15 1014 67 10000 5.7 300 12:23 12.08.2019
3846 Rain 15 1014 67 10000 4.1 300 11:58 12.08.2019
3847 Rain 15 1014 67 10000 4.1 300 11:58 12.08.2019
3848 Rain 14 1014 67 10000 4.1 300 11:40 12.08.2019
3849 Rain 14 1014 67 10000 4.1 300 11:40 12.08.2019
3850 Rain 14 1014 67 10000 4.6 290 11:21 12.08.2019
3851 Rain 14 1014 71 10000 4.1 280 10:42 12.08.2019
3852 Rain 14 1014 67 10000 6.2 300 10:23 12.08.2019
3853 Rain 13 1013 87 10000 3.6 230 09:56 12.08.2019
3854 Rain 13 1013 87 10000 3.6 230 09:37 12.08.2019
3855 Rain 13 1013 87 10000 2.6 220 09:19 12.08.2019
3856 Rain 12 1013 87 10000 2.1 220 08:43 12.08.2019
3857 Rain 11 1013 93 10000 1.5 180 08:25 12.08.2019
3858 Clouds 11 1013 93 10000 1.5 190 08:00 12.08.2019
3859 Clouds 10 1013 93 10000 1.5 190 07:41 12.08.2019
3860 Clouds 10 1013 100 10000 1.5 220 07:20 12.08.2019
3861 Clouds 10 1012 93 10000 1 0 06:44 12.08.2019
3862 Clear 10 1012 100 10000 2.1 190 04:40 12.08.2019
3863 Clear 11 1012 93 10000 1.5 220 02:44 12.08.2019
3864 Clouds 11 1012 87 10000 1.5 240 01:52 12.08.2019
3865 Clouds 11 1012 93 10000 2.1 230 01:20 12.08.2019
3866 Clouds 12 1012 87 10000 2.6 240 00:56 12.08.2019
3867 Clouds 12 1012 87 10000 2.6 240 00:38 12.08.2019
3868 Clouds 12 1012 82 10000 3.1 250 00:18 12.08.2019
3869 Clouds 12 1012 82 10000 2.6 250 23:41 11.08.2019
3870 Rain 13 1012 82 10000 3.1 260 23:20 11.08.2019
3871 Clouds 13 1012 82 10000 2.1 280 22:58 11.08.2019
3872 Clouds 13 1012 82 10000 2.1 280 22:39 11.08.2019
3873 Rain 13 1011 82 10000 2.6 260 22:19 11.08.2019
3874 Clouds 13 1011 82 10000 3.1 280 21:58 11.08.2019
3875 Clouds 14 1011 82 10000 3.1 280 21:39 11.08.2019
3876 Rain 14 1011 87 10000 3.6 280 21:20 11.08.2019
3877 Rain 14 1011 87 10000 2.6 270 20:45 11.08.2019
3878 Rain 14 1010 87 10000 4.1 290 20:26 11.08.2019
3879 Rain 15 1010 87 10000 4.6 290 19:59 11.08.2019
3880 Rain 15 1010 87 10000 4.6 290 19:41 11.08.2019
3881 Rain 15 1010 72 10000 5.1 270 19:18 11.08.2019
3882 Rain 15 1009 72 10000 6.2 270 18:41 11.08.2019
3883 Rain 16 1009 67 10000 7.2 260 18:21 11.08.2019
3884 Rain 16 1009 67 10000 6.7 270 17:57 11.08.2019
3885 Rain 16 1009 67 10000 6.7 270 17:39 11.08.2019
3886 Rain 16 1009 67 10000 6.7 280 17:20 11.08.2019
3887 Rain 16 1009 72 10000 6.7 270 16:55 11.08.2019
3888 Rain 16 1009 72 10000 6.7 270 16:37 11.08.2019
3889 Rain 17 1009 72 10000 7.2 270 16:18 11.08.2019
3890 Rain 16 1009 72 10000 6.7 270 15:43 11.08.2019
3891 Rain 16 1009 72 10000 6.7 270 15:43 11.08.2019
3892 Rain 16 1009 77 10000 7.2 270 15:23 11.08.2019
3893 Rain 17 1008 77 10000 6.2 280 14:56 11.08.2019
3894 Rain 16 1008 77 10000 6.2 280 14:38 11.08.2019
3895 Rain 16 1008 82 10000 5.7 250 14:19 11.08.2019
3896 Rain 16 1008 82 10000 6.2 260 13:44 11.08.2019
3897 Rain 16 1008 82 10000 5.7 280 13:24 11.08.2019
3898 Rain 16 1008 82 10000 5.7 280 13:24 11.08.2019
3899 Rain 16 1008 87 10000 6.2 250 12:48 11.08.2019
3900 Rain 15 1007 82 10000 5.7 260 12:23 11.08.2019
3901 Rain 15 1007 87 10000 5.1 250 11:56 11.08.2019
3902 Rain 15 1007 87 10000 5.1 250 11:38 11.08.2019
3903 Rain 15 1007 93 10000 5.1 240 11:20 11.08.2019
3904 Rain 15 1006 93 10000 5.1 240 10:41 11.08.2019
3905 Rain 15 1006 93 10000 4.1 250 10:22 11.08.2019
3906 Rain 15 1005 93 10000 4.6 260 09:59 11.08.2019
3907 Rain 15 1005 93 10000 4.6 260 09:38 11.08.2019
3908 Rain 14 1005 100 8000 4.1 260 09:20 11.08.2019
3909 Rain 14 1005 93 3000 4.6 240 08:44 11.08.2019
3910 Rain 14 1004 82 8000 5.1 210 08:26 11.08.2019
3911 Rain 14 1004 82 10000 5.1 200 07:54 11.08.2019
3912 Rain 15 1003 82 10000 4.6 200 07:23 11.08.2019
3913 Rain 15 1003 82 10000 4.6 200 06:44 11.08.2019
3914 Rain 15 1003 82 8000 5.1 200 05:35 11.08.2019
3915 Rain 15 1004 77 10000 3.6 200 03:41 11.08.2019
3916 Clouds 15 1004 77 10000 4.1 200 02:48 11.08.2019
3917 Clouds 15 1004 77 10000 4.1 190 01:38 11.08.2019
3918 Clouds 15 1004 82 10000 3.6 210 01:19 11.08.2019
3919 Clouds 15 1004 77 10000 3.6 200 00:43 11.08.2019
3920 Clouds 15 1004 77 10000 4.6 210 00:23 11.08.2019
3921 Clouds 15 1004 77 10000 5.1 210 23:43 10.08.2019
3922 Clouds 16 1004 72 10000 6.2 210 23:24 10.08.2019
3923 Clouds 16 1003 77 10000 6.7 210 22:43 10.08.2019
3924 Clouds 16 1003 77 10000 6.7 210 22:43 10.08.2019
3925 Drizzle 16 1003 77 10000 6.2 210 22:24 10.08.2019
3926 Rain 16 1003 77 10000 6.2 220 21:58 10.08.2019
3927 Rain 16 1003 77 10000 6.2 220 21:38 10.08.2019
3928 Rain 16 1002 82 10000 5.7 220 21:19 10.08.2019
3929 Rain 17 1002 77 10000 6.2 220 20:56 10.08.2019
3930 Rain 17 1002 77 10000 6.2 220 20:37 10.08.2019
3931 Rain 17 1001 77 10000 6.2 220 20:18 10.08.2019
3932 Rain 17 1001 77 10000 5.7 220 19:39 10.08.2019
3933 Rain 17 1001 77 10000 8.2 230 19:20 10.08.2019
3934 Rain 17 1000 82 10000 6.2 220 18:40 10.08.2019
3935 Rain 17 1000 82 10000 6.2 220 18:40 10.08.2019
3936 Rain 17 1000 72 10000 10.3 230 18:22 10.08.2019
3937 Rain 17 999 77 10000 12.3 230 17:45 10.08.2019
3938 Rain 17 998 77 10000 10.3 230 17:25 10.08.2019
3939 Rain 18 998 82 10000 8.7 230 16:47 10.08.2019
3940 Rain 18 997 77 10000 8.2 220 16:28 10.08.2019
3941 Rain 18 997 77 10000 8.7 230 15:56 10.08.2019
3942 Rain 18 996 77 10000 6.7 220 15:26 10.08.2019
3943 Rain 18 996 77 10000 9.8 230 14:45 10.08.2019
3944 Rain 18 996 77 10000 9.8 230 14:45 10.08.2019
3945 Rain 18 995 77 10000 7.7 220 14:23 10.08.2019
3946 Rain 19 995 93 10000 5.1 210 13:57 10.08.2019
3947 Rain 19 995 93 10000 5.1 210 13:39 10.08.2019
3948 Rain 18 994 88 10000 4.6 200 13:18 10.08.2019
3949 Rain 18 994 88 10000 4.6 200 13:18 10.08.2019
3950 Rain 18 994 93 10000 4.6 190 12:41 10.08.2019
3951 Rain 18 994 88 10000 4.1 190 12:21 10.08.2019
3952 Rain 17 994 88 10000 4.6 190 11:56 10.08.2019
3953 Rain 18 994 88 10000 4.6 190 11:37 10.08.2019
3954 Clouds 18 993 77 10000 6.2 200 11:19 10.08.2019
3955 Rain 18 993 77 10000 4.6 200 10:38 10.08.2019
3956 Clouds 17 993 82 10000 5.1 200 10:20 10.08.2019
3957 Clouds 17 993 82 10000 5.7 200 09:44 10.08.2019
3958 Clouds 17 992 82 10000 6.7 200 09:25 10.08.2019
3959 Rain 17 992 82 10000 6.2 200 08:59 10.08.2019
3960 Rain 17 992 82 10000 6.2 200 08:38 10.08.2019
3961 Rain 17 992 88 10000 5.7 200 08:18 10.08.2019
3962 Rain 16 992 88 10000 4.6 190 07:46 10.08.2019
3963 Drizzle 16 991 88 10000 4.1 190 07:25 10.08.2019
3964 Clouds 16 991 88 10000 4.1 180 06:47 10.08.2019
3965 Rain 16 991 88 10000 4.1 190 06:18 10.08.2019
3966 Rain 16 991 88 10000 4.1 180 05:21 10.08.2019
3967 Rain 16 991 88 10000 2.6 170 03:55 10.08.2019
3968 Rain 16 991 93 10000 2.6 160 02:50 10.08.2019
3969 Rain 16 992 88 4500 3.6 160 01:57 10.08.2019
3970 Rain 17 992 88 4500 3.6 160 01:37 10.08.2019
3971 Rain 17 992 88 10000 2.1 160 01:19 10.08.2019
3972 Rain 17 992 88 10000 3.1 170 00:42 10.08.2019
3973 Rain 17 992 88 10000 2.6 0 00:19 10.08.2019
3974 Rain 17 993 88 10000 2.1 0 23:41 09.08.2019
3975 Rain 17 993 88 10000 2.6 180 23:21 09.08.2019
3976 Rain 17 993 88 10000 2.6 180 23:21 09.08.2019
3977 Rain 18 993 88 10000 2.1 170 22:55 09.08.2019
3978 Rain 18 993 88 10000 2.1 170 22:37 09.08.2019
3979 Rain 18 993 88 10000 2.6 180 22:18 09.08.2019
3980 Rain 18 993 88 10000 2.1 170 21:41 09.08.2019
3981 Rain 19 993 88 10000 2.1 180 21:22 09.08.2019
3982 Rain 19 993 88 10000 2.1 180 20:57 09.08.2019
3983 Rain 19 993 88 10000 2.1 180 20:39 09.08.2019
3984 Rain 19 993 100 10000 2.1 170 20:18 09.08.2019
3985 Rain 19 993 93 7000 3.1 180 19:43 09.08.2019
3986 Rain 20 993 82 10000 3.1 190 19:23 09.08.2019
3987 Rain 20 993 73 10000 3.6 180 18:58 09.08.2019
3988 Rain 20 993 73 10000 3.6 180 18:38 09.08.2019
3989 Rain 21 994 68 10000 4.6 170 18:19 09.08.2019
3990 Rain 21 994 73 10000 3.1 0 17:43 09.08.2019
3991 Rain 21 994 73 10000 3.1 0 17:43 09.08.2019
3992 Rain 21 994 73 10000 4.6 190 17:24 09.08.2019
3993 -273 0 0 0 0 0 16:56 09.08.2019
3994 Rain 21 995 73 10000 4.1 180 16:37 09.08.2019
3995 Rain 21 995 82 10000 3.1 170 16:18 09.08.2019
3996 Rain 20 995 73 10000 2.1 190 15:42 09.08.2019
3997 Rain 21 996 68 10000 3.6 170 15:21 09.08.2019
3998 Rain 21 996 64 10000 4.1 190 14:58 09.08.2019
3999 Rain 21 996 64 10000 4.1 190 14:38 09.08.2019
4000 Rain 22 996 60 10000 4.6 200 14:20 09.08.2019
4001 Clouds 23 996 60 10000 3.6 180 13:45 09.08.2019
4002 Rain 23 996 64 10000 4.6 190 13:21 09.08.2019
4003 Rain 22 996 73 10000 3.6 180 12:56 09.08.2019
4004 Clouds 22 996 77 10000 2.6 190 12:37 09.08.2019
4005 Clouds 21 996 77 10000 2.6 190 12:18 09.08.2019
4006 Rain 21 996 82 10000 4.1 180 11:41 09.08.2019
4007 Rain 20 996 88 10000 3.1 170 11:20 09.08.2019
4008 Rain 19 997 88 10000 2.6 150 10:42 09.08.2019
4009 Rain 19 997 88 9000 3.1 140 10:22 09.08.2019
4010 Rain 18 997 88 10000 4.1 140 09:59 09.08.2019
4011 Rain 18 997 88 10000 4.1 140 09:38 09.08.2019
4012 Rain 18 997 88 10000 3.1 130 09:19 09.08.2019
4013 Rain 17 997 93 10000 2.6 120 08:44 09.08.2019
4014 Rain 17 998 93 10000 2.1 120 08:25 09.08.2019
4015 Rain 17 999 93 4400 2.6 0 07:56 09.08.2019
4016 Rain 17 999 93 4400 2.6 0 07:37 09.08.2019
4017 Rain 17 999 93 10000 2.1 0 07:19 09.08.2019
4018 Rain 17 999 93 2900 3.1 0 06:40 09.08.2019
4019 Rain 17 1000 93 10000 3.1 0 06:20 09.08.2019
4020 Rain 16 1001 93 10000 2.6 100 05:30 09.08.2019
4021 Rain 17 1004 72 10000 3.6 80 02:27 09.08.2019
4022 Rain 18 1006 68 10000 2.6 90 01:23 09.08.2019
4023 Clouds 18 1006 68 10000 2.1 90 00:41 09.08.2019
4024 Clouds 18 1006 68 10000 2.6 90 00:22 09.08.2019
4025 Clouds 18 1006 68 10000 2.6 90 23:56 08.08.2019
4026 Clouds 18 1006 68 10000 2.6 90 23:36 08.08.2019
4027 Clouds 19 1007 72 10000 2.6 90 23:18 08.08.2019
4028 Clouds 19 1007 72 10000 2.6 80 22:38 08.08.2019
4029 Clouds 19 1007 68 10000 2.6 90 22:19 08.08.2019
4030 Clouds 20 1007 64 10000 2.1 80 21:59 08.08.2019
4031 Clouds 20 1007 64 10000 2.1 80 21:59 08.08.2019
4032 Clouds 20 1007 64 10000 2.1 80 21:41 08.08.2019
4033 Rain 20 1007 68 10000 2.1 80 21:22 08.08.2019
4034 Rain 21 1008 60 10000 1.5 0 20:56 08.08.2019
4035 Rain 21 1008 60 10000 1.5 0 20:56 08.08.2019
4036 Rain 21 1008 60 10000 1.5 0 20:56 08.08.2019
4037 Clouds 21 1008 60 10000 1.5 0 20:38 08.08.2019
4038 Clouds 22 1008 60 10000 1.5 0 20:19 08.08.2019
4039 Clouds 22 1008 56 10000 1.5 0 19:45 08.08.2019
4040 Clouds 22 1008 53 10000 1 0 19:24 08.08.2019
4041 Clouds 23 1008 53 10000 1.5 0 18:45 08.08.2019
4042 Clouds 22 1009 53 10000 0.5 0 18:24 08.08.2019
4043 Clouds 23 1009 53 10000 1 0 17:58 08.08.2019
4044 Clouds 23 1009 53 10000 1 0 17:40 08.08.2019
4045 Clouds 22 1009 53 10000 1 0 17:22 08.08.2019
4046 Clouds 22 1009 56 10000 1 0 16:55 08.08.2019
4047 Clouds 22 1009 56 10000 1 0 16:37 08.08.2019
4048 Clouds 22 1009 56 10000 1 0 16:19 08.08.2019
4049 Clouds 22 1009 56 10000 2.1 0 15:41 08.08.2019
4050 Clear 21 1009 56 10000 2.1 220 15:23 08.08.2019
4051 Clouds 21 1010 60 10000 1.5 0 14:56 08.08.2019
4052 Clouds 21 1010 60 10000 1.5 0 14:37 08.08.2019
4053 Clouds 21 1010 68 10000 3.1 250 14:18 08.08.2019
4054 Clouds 21 1010 68 10000 2.1 270 13:39 08.08.2019
4055 Clouds 20 1010 68 10000 3.1 250 13:20 08.08.2019
4056 Clouds 20 1009 68 10000 1.5 0 12:40 08.08.2019
4057 Clouds 19 1009 77 10000 3.1 250 12:21 08.08.2019
4058 Clouds 19 1009 77 10000 1 0 11:58 08.08.2019
4059 Clouds 19 1009 77 10000 1 0 11:39 08.08.2019
4060 Clouds 19 1009 82 10000 1.5 0 11:20 08.08.2019
4061 Clouds 18 1009 82 10000 2.1 270 10:41 08.08.2019
4062 Haze 18 1009 87 2900 2.6 260 10:21 08.08.2019
4063 Clouds 17 1009 87 10000 1 0 09:49 08.08.2019
4064 Clouds 16 1008 93 10000 0.5 0 09:30 08.08.2019
4065 Clouds 16 1008 93 10000 0.5 0 09:30 08.08.2019
4066 Clouds 15 1008 93 10000 1 0 08:57 08.08.2019
4067 Clouds 15 1008 93 10000 1 0 08:38 08.08.2019
4068 Clouds 14 1008 93 10000 1 0 08:19 08.08.2019
4069 Clouds 13 1008 93 10000 1 220 07:40 08.08.2019
4070 Clouds 13 1008 93 10000 1 0 07:20 08.08.2019
4071 Clouds 13 1008 93 10000 2.1 180 06:48 08.08.2019
4072 Clouds 13 1007 93 10000 2.6 180 06:27 08.08.2019
4073 Clouds 13 1007 93 10000 2.6 180 05:53 08.08.2019
4074 Clouds 13 1007 93 10000 1.5 170 04:54 08.08.2019
4075 Clouds 14 1007 93 10000 1.5 0 03:53 08.08.2019
4076 Clouds 14 1007 87 10000 1.5 0 02:28 08.08.2019
4077 Clouds 15 1007 82 10000 2.6 180 01:36 08.08.2019
4078 Clouds 15 1007 82 10000 3.1 220 00:26 08.08.2019
4079 Clouds 15 1007 82 10000 3.1 210 23:50 07.08.2019
4080 Clear 16 1006 77 10000 4.1 230 23:19 07.08.2019
4081 Clouds 16 1006 77 10000 1.5 180 22:56 07.08.2019
4082 Clouds 16 1006 77 10000 1.5 180 22:38 07.08.2019
4083 Clouds 16 1006 67 10000 1.5 0 22:19 07.08.2019
4084 Clouds 17 1005 67 10000 2.6 280 21:55 07.08.2019
4085 Clouds 17 1005 67 10000 2.6 280 21:37 07.08.2019
4086 Rain 17 1005 63 10000 3.6 270 21:18 07.08.2019
4087 Clouds 18 1005 68 10000 4.6 280 20:42 07.08.2019
4088 Rain 18 1005 63 10000 6.2 280 20:23 07.08.2019
4089 Rain 18 1005 68 10000 5.1 250 19:57 07.08.2019
4090 Rain 19 1005 68 10000 5.1 250 19:39 07.08.2019
4091 Clouds 19 1005 72 10000 6.2 270 19:21 07.08.2019
4092 Rain 19 1005 72 10000 6.2 260 18:43 07.08.2019
4093 Rain 19 1005 77 10000 4.6 260 18:21 07.08.2019
4094 Rain 19 1004 77 10000 5.1 280 17:58 07.08.2019
4095 Rain 19 1004 77 10000 5.1 280 17:39 07.08.2019
4096 Rain 18 1004 77 10000 5.1 280 17:21 07.08.2019
4097 Rain 18 1004 77 10000 5.1 280 17:21 07.08.2019
4098 Rain 19 1004 72 10000 7.2 260 16:57 07.08.2019
4099 Rain 18 1004 72 10000 7.2 260 16:39 07.08.2019
4100 Rain 18 1004 88 10000 5.1 280 16:20 07.08.2019
4101 Rain 18 1004 93 10000 2.6 280 15:56 07.08.2019
4102 Rain 18 1004 93 10000 2.6 280 15:37 07.08.2019
4103 Rain 18 1004 93 10000 4.1 300 15:19 07.08.2019
4104 Rain 18 1004 82 10000 6.2 270 14:45 07.08.2019
4105 Rain 18 1004 82 10000 2.6 270 14:27 07.08.2019
4106 Rain 18 1003 68 10000 3.6 260 13:45 07.08.2019
4107 Rain 18 1003 72 10000 3.6 270 13:19 07.08.2019
4108 Rain 18 1003 77 10000 5.1 260 12:58 07.08.2019
4109 Rain 18 1003 77 10000 5.1 260 12:39 07.08.2019
4110 Rain 18 1003 77 10000 5.7 250 12:21 07.08.2019
4111 Rain 18 1003 77 10000 6.2 240 11:59 07.08.2019
4112 Rain 17 1003 77 10000 6.2 240 11:41 07.08.2019
4113 Rain 17 1003 77 10000 6.2 250 11:19 07.08.2019
4114 Rain 17 1003 77 10000 6.2 250 11:19 07.08.2019
4115 Rain 17 1003 77 10000 6.2 240 10:55 07.08.2019
4116 Rain 17 1003 77 10000 6.2 240 10:37 07.08.2019
4117 Rain 16 1002 82 10000 5.7 230 10:18 07.08.2019
4118 Rain 16 1002 82 10000 4.1 230 09:44 07.08.2019
4119 Rain 16 1002 82 10000 3.6 220 09:21 07.08.2019
4120 Rain 15 1002 82 10000 3.1 220 08:45 07.08.2019
4121 Rain 15 1002 87 10000 2.1 200 08:26 07.08.2019
4122 Rain 15 1002 87 10000 2.6 210 07:52 07.08.2019
4123 Rain 14 1002 87 10000 2.6 220 07:34 07.08.2019
4124 Rain 14 1002 93 10000 2.1 190 06:57 07.08.2019
4125 Rain 14 1002 93 10000 2.1 210 06:29 07.08.2019
4126 Clouds 15 1002 93 10000 2.1 200 05:46 07.08.2019
4127 Rain 15 1002 87 10000 3.1 220 04:46 07.08.2019
4128 Rain 15 1001 87 10000 3.6 220 03:21 07.08.2019
4129 Rain 15 1001 87 10000 3.6 210 02:43 07.08.2019
4130 Clouds 15 1002 82 10000 4.1 200 01:58 07.08.2019
4131 Clouds 16 1001 93 10000 5.7 210 01:24 07.08.2019
4132 Rain 16 1002 77 10000 3.6 210 00:38 07.08.2019
4133 Clouds 16 1002 82 10000 4.1 210 00:19 07.08.2019
4134 Rain 16 1002 82 10000 3.1 210 23:40 06.08.2019
4135 Rain 16 1002 82 10000 3.6 210 23:21 06.08.2019
4136 Rain 16 1002 82 10000 3.6 210 23:21 06.08.2019
4137 Rain 17 1002 72 10000 3.6 200 22:42 06.08.2019
4138 Rain 17 1002 67 10000 4.1 210 22:22 06.08.2019
4139 Rain 17 1002 63 10000 4.1 210 21:59 06.08.2019
4140 Rain 18 1002 63 10000 4.1 210 21:40 06.08.2019
4141 Rain 18 1002 63 10000 6.7 230 21:20 06.08.2019
4142 Rain 18 1002 63 10000 6.7 230 21:20 06.08.2019
4143 Rain 18 1002 63 10000 6.7 230 21:20 06.08.2019
4144 Rain 18 1002 63 10000 6.7 230 21:20 06.08.2019
4145 Rain 18 1002 59 10000 7.2 230 20:47 06.08.2019
4146 Rain 19 1001 60 10000 6.2 240 20:29 06.08.2019
4147 Rain 19 1001 56 10000 7.2 230 19:58 06.08.2019
4148 Rain 20 1001 56 10000 7.2 230 19:38 06.08.2019
4149 Clouds 20 1001 56 10000 6.7 240 19:19 06.08.2019
4150 Clouds 21 1002 60 10000 7.2 230 18:43 06.08.2019
4151 Clouds 21 1002 60 10000 7.2 220 18:25 06.08.2019
4152 Clouds 21 1002 60 10000 8.7 230 17:58 06.08.2019
4153 Clouds 21 1002 60 10000 8.7 230 17:38 06.08.2019
4154 Rain 21 1002 60 10000 8.7 230 17:19 06.08.2019
4155 Rain 21 1002 60 10000 8.2 250 16:54 06.08.2019
4156 Rain 21 1002 64 10000 6.2 220 16:36 06.08.2019
4157 Rain 21 1002 64 10000 6.2 220 16:18 06.08.2019
4158 Rain 21 1002 56 10000 6.7 210 15:54 06.08.2019
4159 Rain 22 1002 56 10000 6.7 210 15:36 06.08.2019
4160 Rain 21 1003 56 10000 5.7 220 15:18 06.08.2019
4161 Clouds 21 1003 56 10000 5.7 220 14:40 06.08.2019
4162 Clouds 21 1003 56 10000 5.7 220 14:40 06.08.2019
4163 Rain 21 1003 60 10000 5.1 210 14:21 06.08.2019
4164 Clouds 21 1004 64 10000 4.6 210 13:55 06.08.2019
4165 Clouds 21 1004 64 10000 4.6 210 13:36 06.08.2019
4166 Clouds 20 1004 63 10000 5.1 210 13:18 06.08.2019
4167 Rain 20 1004 68 10000 6.2 210 12:40 06.08.2019
4168 Rain 19 1004 68 10000 4.6 200 12:22 06.08.2019
4169 Rain 19 1004 72 10000 4.1 210 11:46 06.08.2019
4170 Rain 19 1004 72 10000 4.1 200 11:21 06.08.2019
4171 Rain 18 1004 77 10000 4.6 190 10:59 06.08.2019
4172 Rain 18 1004 77 10000 4.6 190 10:40 06.08.2019
4173 Rain 18 1005 77 10000 4.6 200 10:21 06.08.2019
4174 Rain 17 1005 77 10000 4.1 200 09:43 06.08.2019
4175 Rain 16 1005 82 10000 4.1 200 09:22 06.08.2019
4176 Rain 16 1005 87 10000 3.1 180 08:51 06.08.2019
4177 Rain 15 1005 87 10000 2.1 180 08:30 06.08.2019
4178 Clouds 14 1005 87 10000 3.1 180 07:59 06.08.2019
4179 Clouds 14 1005 87 10000 3.1 190 07:31 06.08.2019
4180 Clouds 14 1005 82 10000 3.6 190 06:45 06.08.2019
4181 Clear 14 1005 82 10000 2.6 190 06:24 06.08.2019
4182 Rain 14 1005 87 10000 3.6 190 05:46 06.08.2019
4183 Clear 15 1006 82 10000 3.1 190 02:51 06.08.2019
4184 Clear 15 1006 82 10000 2.6 180 01:26 06.08.2019
4185 Clear 15 1007 82 10000 3.1 190 00:52 06.08.2019
4186 Clear 16 1007 77 10000 3.6 200 00:19 06.08.2019
4187 Clear 16 1007 77 10000 2.1 190 23:20 05.08.2019
4188 Clouds 17 1007 67 10000 2.6 210 22:57 05.08.2019
4189 Clouds 17 1007 67 10000 2.6 210 22:38 05.08.2019
4190 Clouds 17 1007 67 10000 1.5 0 22:20 05.08.2019
4191 Clear 18 1007 63 10000 3.1 250 21:42 05.08.2019
4192 Clouds 19 1007 59 10000 5.1 250 21:20 05.08.2019
4193 Clouds 19 1006 59 10000 5.1 250 20:57 05.08.2019
4194 Clouds 19 1006 59 10000 5.1 250 20:39 05.08.2019
4195 Clouds 20 1006 56 10000 5.7 240 20:21 05.08.2019
4196 Clouds 20 1006 56 10000 5.7 240 20:21 05.08.2019
4197 Clouds 20 1006 52 10000 4.6 230 19:55 05.08.2019
4198 Clouds 20 1006 52 10000 4.6 230 19:55 05.08.2019
4199 Clouds 20 1006 52 10000 4.6 230 19:36 05.08.2019
4200 Clouds 20 1006 52 10000 4.6 220 19:18 05.08.2019
4201 Clouds 21 1006 52 10000 5.1 230 18:40 05.08.2019
4202 Clouds 21 1007 52 10000 6.7 250 18:19 05.08.2019
4203 Clouds 21 1007 56 10000 6.2 240 17:47 05.08.2019
4204 Clouds 21 1007 52 10000 7.2 230 17:29 05.08.2019
4205 Clouds 21 1007 52 10000 8.2 240 16:47 05.08.2019
4206 Clouds 21 1007 52 10000 4.1 270 16:27 05.08.2019
4207 Clouds 21 1007 56 10000 5.1 230 15:58 05.08.2019
4208 Clouds 21 1007 56 10000 5.1 230 15:40 05.08.2019
4209 Clouds 20 1007 60 10000 5.1 230 15:20 05.08.2019
4210 Clouds 20 1007 68 10000 3.1 210 14:40 05.08.2019
4211 Clouds 20 1007 68 10000 5.1 230 14:21 05.08.2019
4212 Rain 20 1007 63 10000 4.6 240 13:45 05.08.2019
4213 Rain 20 1007 63 10000 5.7 240 13:23 05.08.2019
4214 Clouds 20 1007 63 10000 4.1 240 12:49 05.08.2019
4215 Clouds 19 1007 68 10000 5.7 240 12:21 05.08.2019
4216 Clouds 19 1007 68 10000 5.1 260 11:54 05.08.2019
4217 Clouds 19 1007 68 10000 5.1 260 11:36 05.08.2019
4218 Clouds 18 1007 68 10000 5.7 240 11:18 05.08.2019
4219 Clouds 18 1007 77 10000 5.7 230 10:43 05.08.2019
4220 Clouds 18 1007 77 10000 5.7 250 10:22 05.08.2019
4221 Rain 17 1007 82 10000 5.1 240 09:43 05.08.2019
4222 Rain 17 1007 93 10000 3.6 210 09:25 05.08.2019
4223 Rain 16 1007 93 10000 2.6 200 08:59 05.08.2019
4224 Rain 16 1007 93 10000 2.6 200 08:40 05.08.2019
4225 Rain 16 1007 93 10000 3.1 200 08:20 05.08.2019
4226 Rain 16 1007 93 10000 3.1 200 08:20 05.08.2019
4227 Rain 16 1007 93 2000 3.1 190 07:42 05.08.2019
4228 Rain 16 1006 82 10000 2.6 180 07:22 05.08.2019
4229 Clouds 16 1006 87 10000 1.5 0 06:32 05.08.2019
4230 Rain 16 1007 87 10000 1.5 0 05:51 05.08.2019
4231 Rain 16 1007 87 10000 1.5 0 05:51 05.08.2019
4232 Clouds 16 1007 87 10000 1 0 05:19 05.08.2019
4233 Clouds 16 1008 82 10000 1 0 04:24 05.08.2019
4234 Clouds 16 1008 77 10000 1.5 0 03:30 05.08.2019
4235 Rain 17 1008 77 10000 2.1 180 02:35 05.08.2019
4236 Rain 17 1009 82 10000 1.5 0 01:33 05.08.2019
4237 Rain 17 1009 88 10000 2.1 190 00:41 05.08.2019
4238 Rain 17 1009 93 10000 2.6 200 00:21 05.08.2019
4239 Clouds 18 1009 88 10000 1 200 23:56 04.08.2019
4240 Clouds 18 1009 88 10000 1 200 23:36 04.08.2019
4241 Clouds 18 1009 88 10000 1 0 23:18 04.08.2019
4242 Clouds 18 1009 88 10000 1.5 150 22:54 04.08.2019
4243 Thunderstorm 18 1009 88 10000 1.5 150 22:36 04.08.2019
4244 Clouds 18 1009 88 10000 1.5 150 22:36 04.08.2019
4245 Thunderstorm 18 1009 82 10000 2.1 190 22:18 04.08.2019
4246 Thunderstorm 19 1009 82 10000 1 0 21:42 04.08.2019
4247 Rain 19 1009 82 10000 2.6 220 21:20 04.08.2019
4248 Rain 20 1009 77 10000 3.6 230 20:44 04.08.2019
4249 Rain 20 1009 82 10000 4.6 230 20:19 04.08.2019
4250 Rain 21 1009 68 10000 3.6 210 19:57 04.08.2019
4251 Rain 21 1009 68 10000 3.6 210 19:37 04.08.2019
4252 Rain 22 1009 64 10000 2.6 200 19:19 04.08.2019
4253 Rain 23 1009 64 10000 3.6 190 18:42 04.08.2019
4254 Rain 23 1009 64 10000 3.6 190 18:42 04.08.2019
4255 Rain 23 1009 69 10000 2.6 190 18:20 04.08.2019
4256 Rain 23 1009 69 10000 2.1 160 17:44 04.08.2019
4257 Rain 23 1010 64 10000 2.1 180 17:24 04.08.2019
4258 Rain 23 1010 64 10000 3.6 170 16:55 04.08.2019
4259 Rain 23 1010 64 10000 3.6 170 16:36 04.08.2019
4260 Clouds 23 1010 64 10000 2.6 160 16:18 04.08.2019
4261 Rain 24 1011 64 10000 2.1 180 15:39 04.08.2019
4262 Rain 23 1011 60 10000 2.1 170 15:20 04.08.2019
4263 Rain 23 1011 60 10000 2.1 140 14:44 04.08.2019
4264 Rain 23 1011 56 10000 3.1 140 14:26 04.08.2019
4265 Rain 23 1012 60 10000 3.1 160 13:47 04.08.2019
4266 Clouds 22 1012 60 10000 2.6 150 13:27 04.08.2019
4267 Clouds 23 1012 60 10000 2.6 150 13:27 04.08.2019
4268 Clouds 22 1012 64 10000 2.1 170 12:57 04.08.2019
4269 Clouds 22 1012 64 10000 2.1 170 12:39 04.08.2019
4270 Clouds 22 1012 68 10000 2.1 160 12:21 04.08.2019
4271 Clouds 21 1013 72 10000 2.1 140 11:49 04.08.2019
4272 Clouds 21 1013 72 10000 1.5 0 11:23 04.08.2019
4273 Clouds 20 1013 77 10000 1.5 0 10:51 04.08.2019
4274 Clouds 20 1013 77 10000 1.5 0 10:23 04.08.2019
4275 Clouds 19 1013 82 10000 1.5 0 09:47 04.08.2019
4276 Clouds 19 1014 82 10000 1.5 0 09:27 04.08.2019
4277 Clouds 18 1014 88 10000 1.5 0 08:59 04.08.2019
4278 Clouds 17 1014 88 10000 1.5 0 08:38 04.08.2019
4279 Clouds 17 1014 88 10000 1.5 0 07:56 04.08.2019
4280 Clouds 16 1014 88 10000 1.5 0 07:37 04.08.2019
4281 Clouds 16 1014 93 10000 0.5 120 06:43 04.08.2019
4282 Clouds 17 1014 93 10000 0.5 0 06:19 04.08.2019
4283 Clouds 17 1015 93 10000 1 0 03:38 04.08.2019
4284 Clouds 18 1015 93 10000 0.5 0 01:55 04.08.2019
4285 Clouds 18 1015 93 10000 1 0 01:32 04.08.2019
4286 Clouds 18 1016 93 10000 1 0 00:42 04.08.2019
4287 Clouds 18 1016 93 10000 1.5 70 00:24 04.08.2019
4288 Rain 19 1016 88 7000 0.5 0 23:55 03.08.2019
4289 Rain 19 1016 82 7000 3.1 210 23:36 03.08.2019
4290 Rain 19 1016 82 7000 3.1 210 23:18 03.08.2019
4291 Clouds 20 1016 72 10000 1 0 22:39 03.08.2019
4292 Clouds 20 1016 77 10000 0.5 0 22:19 03.08.2019
4293 Clouds 21 1016 77 10000 0.5 0 21:39 03.08.2019
4294 Rain 21 1016 72 10000 1 130 21:21 03.08.2019
4295 Rain 22 1016 68 10000 1.5 0 20:45 03.08.2019
4296 Rain 22 1016 68 10000 1.5 0 20:45 03.08.2019
4297 Rain 22 1016 73 10000 1 0 20:24 03.08.2019
4298 Rain 22 1016 73 10000 1 0 19:44 03.08.2019
4299 Rain 22 1017 73 10000 1 0 19:25 03.08.2019
4300 Rain 23 1017 68 10000 1 0 18:57 03.08.2019
4301 Rain 23 1017 68 10000 1 0 18:39 03.08.2019
4302 Rain 23 1017 68 10000 1 0 18:20 03.08.2019
4303 Clouds 23 1017 64 10000 2.1 0 17:42 03.08.2019
4304 Clouds 23 1017 64 10000 2.1 0 17:42 03.08.2019
4305 Clouds 23 1018 64 10000 2.1 160 17:18 03.08.2019
4306 Clouds 23 1018 60 10000 2.1 180 16:38 03.08.2019
4307 Clouds 23 1018 60 10000 1.5 0 16:19 03.08.2019
4308 Clouds 23 1018 60 10000 2.1 170 15:45 03.08.2019
4309 Clouds 23 1018 60 10000 2.1 180 15:25 03.08.2019
4310 Rain 23 1018 56 10000 1.5 0 14:44 03.08.2019
4311 Rain 23 1018 56 10000 2.1 0 14:23 03.08.2019
4312 Rain 24 1019 64 10000 2.1 160 13:57 03.08.2019
4313 Rain 23 1019 64 10000 2.1 160 13:36 03.08.2019
4314 Clouds 23 1019 64 10000 1.5 0 13:18 03.08.2019
4315 Clouds 23 1019 68 10000 1.5 0 12:40 03.08.2019
4316 Clouds 22 1019 68 10000 1.5 0 12:22 03.08.2019
4317 Clouds 21 1019 68 10000 2.1 170 11:49 03.08.2019
4318 Clouds 20 1019 72 10000 1 0 11:28 03.08.2019
4319 Clouds 19 1019 77 10000 1 0 10:42 03.08.2019
4320 Clouds 19 1019 77 10000 1 0 10:24 03.08.2019
4321 Clouds 19 1019 77 10000 1 0 10:24 03.08.2019
4322 Clouds 18 1019 82 10000 1.5 0 09:44 03.08.2019
4323 Mist 17 1020 82 10000 1 0 09:23 03.08.2019
4324 Clouds 16 1020 87 10000 1.5 80 08:55 03.08.2019
4325 Mist 16 1020 93 10000 0.5 0 08:18 03.08.2019
4326 Mist 15 1020 93 10000 1 0 07:36 03.08.2019
4327 Clouds 14 1020 93 10000 1.67 134.685 06:39 03.08.2019
4328 Clouds 15 1020 87 10000 1 160 04:56 03.08.2019
4329 Clouds 16 1020 87 10000 1.5 70 02:40 03.08.2019
4330 Clouds 16 1020 82 10000 1.5 0 01:50 03.08.2019
4331 Clouds 16 1020 82 10000 1.5 0 01:50 03.08.2019
4332 Clouds 17 1020 87 10000 0.5 0 00:49 03.08.2019
4333 Clouds 17 1020 87 10000 1.5 90 00:28 03.08.2019
4334 Clouds 17 1020 82 10000 2.6 80 23:41 02.08.2019
4335 Clouds 18 1020 77 10000 2.1 80 23:19 02.08.2019
4336 Clouds 18 1020 77 10000 2.6 80 22:57 02.08.2019
4337 Clouds 19 1020 77 10000 2.6 80 22:38 02.08.2019
4338 Clouds 19 1020 77 10000 1.5 0 22:19 02.08.2019
4339 Clouds 20 1020 72 10000 2.1 90 21:43 02.08.2019
4340 Clouds 21 1020 68 10000 1 0 21:25 02.08.2019
4341 Clouds 21 1020 68 10000 1 0 21:25 02.08.2019
4342 Clouds 21 1020 68 10000 1 0 20:59 02.08.2019
4343 Clouds 21 1020 68 10000 1 0 20:40 02.08.2019
4344 Clouds 21 1020 68 10000 1 90 20:20 02.08.2019
4345 Clouds 21 1020 68 10000 2.1 90 19:46 02.08.2019
4346 Clouds 22 1020 60 10000 1.5 0 19:26 02.08.2019
4347 Clouds 22 1020 60 10000 1.5 0 18:45 02.08.2019
4348 Clouds 22 1020 64 10000 2.1 80 18:26 02.08.2019
4349 Clouds 22 1020 60 10000 3.1 40 17:48 02.08.2019
4350 Clouds 22 1020 60 10000 4.1 30 17:25 02.08.2019
4351 Clouds 22 1020 60 10000 2.1 20 16:58 02.08.2019
4352 Clouds 22 1020 60 10000 2.1 40 16:38 02.08.2019
4353 Clouds 23 1020 60 10000 2.1 40 16:19 02.08.2019
4354 Clouds 23 1020 60 10000 3.6 50 15:39 02.08.2019
4355 Clouds 22 1020 56 10000 2.1 0 15:19 02.08.2019
4356 Clouds 22 1020 60 10000 1 0 14:46 02.08.2019
4357 Clouds 22 1020 60 10000 1 0 14:19 02.08.2019
4358 Clouds 22 1021 68 10000 1.5 0 13:49 02.08.2019
4359 Clouds 22 1021 64 10000 2.6 40 13:27 02.08.2019
4360 Clouds 21 1021 68 10000 2.1 50 12:46 02.08.2019
4361 Clouds 20 1021 72 10000 2.1 10 12:23 02.08.2019
4362 Clouds 20 1021 72 10000 2.1 40 11:55 02.08.2019
4363 Clouds 20 1021 72 10000 2.1 40 11:37 02.08.2019
4364 Clouds 19 1021 72 10000 2.1 50 11:18 02.08.2019
4365 Clouds 19 1021 77 10000 1 0 10:41 02.08.2019
4366 Rain 18 1021 82 10000 2.1 30 10:23 02.08.2019
4367 Clouds 18 1021 82 10000 1.5 0 09:52 02.08.2019
4368 Fog 16 1020 93 10000 0.5 0 09:26 02.08.2019
4369 Fog 16 1020 93 10000 1.5 0 08:50 02.08.2019
4370 Fog 15 1020 93 10000 1.5 70 08:23 02.08.2019
4371 Fog 14 1020 100 8000 1 0 07:51 02.08.2019
4372 Clear 14 1020 93 10000 3.1 40 07:31 02.08.2019
4373 Fog 13 1020 100 1000 0.5 0 06:51 02.08.2019
4374 Fog 14 1020 100 750 1 100 06:24 02.08.2019
4375 Clouds 14 1020 93 6000 0.5 0 05:26 02.08.2019
4376 Fog 15 1020 100 9000 0.5 0 03:29 02.08.2019
4377 Fog 15 1020 100 10000 0.5 0 02:33 02.08.2019
4378 Clouds 16 1020 93 6000 0.5 30 00:41 02.08.2019
4379 Rain 17 1020 93 10000 1 0 23:56 01.08.2019
4380 Rain 17 1020 93 10000 1 0 23:38 01.08.2019
4381 Rain 17 1020 88 10000 1.5 310 23:18 01.08.2019
4382 Rain 17 1019 88 10000 2.6 360 22:40 01.08.2019
4383 Rain 18 1019 88 10000 2.1 340 22:21 01.08.2019
4384 Rain 18 1019 88 10000 3.1 320 21:44 01.08.2019
4385 Rain 18 1019 82 10000 4.6 340 21:24 01.08.2019
4386 Rain 19 1019 88 10000 2.1 320 20:59 01.08.2019
4387 Rain 19 1019 88 10000 2.1 320 20:40 01.08.2019
4388 Rain 19 1019 88 10000 3.1 340 20:21 01.08.2019
4389 Rain 20 1019 88 4700 4.1 350 19:42 01.08.2019
4390 Rain 20 1018 82 10000 2.6 290 19:20 01.08.2019
4391 Rain 20 1018 82 10000 3.6 270 18:44 01.08.2019
4392 Rain 20 1018 88 10000 3.6 260 18:25 01.08.2019
4393 Rain 21 1019 88 10000 3.1 270 17:55 01.08.2019
4394 Rain 21 1019 88 10000 3.1 270 17:36 01.08.2019
4395 Thunderstorm 21 1019 82 5000 1.5 0 17:18 01.08.2019
4396 Rain 21 1018 88 10000 3.6 70 16:44 01.08.2019
4397 Rain 21 1018 73 10000 5.1 300 16:21 01.08.2019
4398 Rain 21 1018 60 10000 2.6 330 15:41 01.08.2019
4399 Rain 21 1018 60 10000 2.6 310 15:20 01.08.2019
4400 Rain 21 1018 64 10000 2.1 350 14:43 01.08.2019
4401 Rain 21 1018 64 10000 4.1 310 14:20 01.08.2019
4402 Clouds 21 1018 68 10000 3.1 330 13:58 01.08.2019
4403 Clouds 21 1018 68 10000 3.1 330 13:40 01.08.2019
4404 Clouds 21 1018 68 10000 2.1 290 13:21 01.08.2019
4405 Clouds 21 1018 72 10000 2.6 320 12:46 01.08.2019
4406 Clouds 20 1018 72 10000 3.1 330 12:27 01.08.2019
4407 Rain 20 1018 77 10000 3.1 320 11:44 01.08.2019
4408 Rain 19 1018 88 10000 3.1 310 11:25 01.08.2019
4409 Rain 18 1018 88 10000 2.1 290 10:56 01.08.2019
4410 Rain 18 1018 88 10000 2.1 290 10:38 01.08.2019
4411 Rain 18 1018 93 10000 2.6 280 10:20 01.08.2019
4412 Clouds 17 1018 93 10000 2.6 280 09:45 01.08.2019
4413 Rain 17 1017 93 10000 2.6 280 09:23 01.08.2019
4414 Rain 16 1017 93 10000 2.6 280 08:47 01.08.2019
4415 Rain 16 1017 93 8000 2.6 290 08:21 01.08.2019
4416 Rain 16 1017 93 8000 2.1 300 07:52 01.08.2019
4417 Rain 16 1017 93 8000 2.1 300 07:52 01.08.2019
4418 Rain 15 1016 93 9000 2.1 290 07:28 01.08.2019
4419 Rain 15 1016 93 10000 2.6 290 06:49 01.08.2019
4420 Rain 15 1016 93 10000 2.6 290 06:49 01.08.2019
4421 Clouds 15 1016 93 10000 2.6 290 06:29 01.08.2019
4422 Clouds 15 1016 93 10000 2.6 280 05:30 01.08.2019
4423 Clouds 16 1015 93 10000 4.1 280 02:35 01.08.2019
4424 Rain 16 1015 88 10000 4.1 280 00:51 01.08.2019
4425 Clouds 16 1015 88 10000 4.1 290 00:26 01.08.2019
4426 Clouds 17 1014 88 10000 3.6 280 23:44 31.07.2019
4427 Rain 17 1014 88 10000 3.1 270 23:21 31.07.2019
4428 Rain 17 1014 88 10000 3.1 270 23:21 31.07.2019
4429 Rain 17 1014 88 10000 4.6 280 22:59 31.07.2019
4430 Rain 17 1014 88 10000 4.6 280 22:41 31.07.2019
4431 Rain 17 1013 93 10000 5.1 280 22:23 31.07.2019
4432 Rain 17 1013 88 10000 5.1 280 21:39 31.07.2019
4433 Rain 17 1013 88 10000 5.1 280 21:21 31.07.2019
4434 Rain 18 1012 88 10000 4.1 250 20:48 31.07.2019
4435 Rain 18 1012 93 10000 4.1 270 20:22 31.07.2019
4436 Rain 18 1012 93 10000 4.6 280 19:48 31.07.2019
4437 Rain 18 1012 88 10000 4.1 280 19:28 31.07.2019
4438 Rain 18 1011 88 10000 5.7 270 18:55 31.07.2019
4439 Rain 18 1011 88 10000 5.7 270 18:55 31.07.2019
4440 Rain 18 1011 88 10000 6.2 260 18:37 31.07.2019
4441 Rain 18 1011 88 10000 6.2 260 18:18 31.07.2019
4442 Rain 18 1011 93 5000 6.7 260 17:42 31.07.2019
4443 Rain 19 1010 88 4500 7.2 250 17:20 31.07.2019
4444 Rain 18 1010 82 10000 8.2 260 16:47 31.07.2019
4445 Rain 18 1010 93 10000 6.7 250 16:20 31.07.2019
4446 Rain 18 1010 93 10000 7.7 250 15:46 31.07.2019
4447 Rain 18 1009 82 10000 8.7 260 15:26 31.07.2019
4448 Rain 18 1009 88 10000 8.2 250 14:59 31.07.2019
4449 Rain 18 1009 88 10000 8.2 250 14:40 31.07.2019
4450 Rain 18 1009 93 10000 7.2 250 14:18 31.07.2019
4451 Rain 18 1009 100 10000 6.2 250 13:45 31.07.2019
4452 Rain 18 1009 93 4000 4.6 220 13:26 31.07.2019
4453 Rain 18 1009 93 3000 6.2 250 12:57 31.07.2019
4454 Rain 18 1009 93 3000 6.2 250 12:38 31.07.2019
4455 Rain 18 1008 93 8000 6.2 240 12:18 31.07.2019
4456 Rain 17 1008 93 7000 6.2 240 11:39 31.07.2019
4457 Rain 17 1008 100 7000 5.1 250 11:20 31.07.2019
4458 Rain 17 1008 93 8000 5.1 250 10:42 31.07.2019
4459 Rain 17 1008 93 7000 5.7 260 10:21 31.07.2019
4460 Rain 16 1007 93 9000 6.2 260 09:54 31.07.2019
4461 Rain 16 1007 93 9000 6.2 260 09:36 31.07.2019
4462 Rain 16 1007 93 9000 6.2 270 09:18 31.07.2019
4463 Rain 16 1007 93 9000 6.2 270 09:18 31.07.2019
4464 Rain 16 1007 93 10000 5.7 260 08:40 31.07.2019
4465 Rain 16 1007 100 4000 5.7 260 08:20 31.07.2019
4466 Rain 16 1006 100 6000 5.7 260 07:35 31.07.2019
4467 Rain 16 1006 93 3000 5.7 260 06:35 31.07.2019
4468 Rain 16 1005 93 3700 4.1 260 04:52 31.07.2019
4469 Rain 16 1005 93 2000 4.6 290 03:24 31.07.2019
4470 Rain 16 1004 93 10000 3.6 300 23:58 30.07.2019
4471 Rain 16 1004 93 10000 3.6 300 23:40 30.07.2019
4472 Rain 17 1003 93 10000 3.6 300 23:19 30.07.2019
4473 Rain 17 1003 88 10000 3.6 330 22:46 30.07.2019
4474 Rain 17 1003 88 10000 4.6 340 22:25 30.07.2019
4475 Rain 17 1002 88 10000 3.6 330 21:54 30.07.2019
4476 Rain 17 1002 88 10000 3.6 330 21:36 30.07.2019
4477 Rain 17 1002 88 10000 4.1 330 21:18 30.07.2019
4478 Rain 18 1002 88 10000 4.1 340 20:41 30.07.2019
4479 Rain 18 1002 88 10000 4.1 350 20:23 30.07.2019
4480 Rain 18 1002 88 10000 3.6 360 19:56 30.07.2019
4481 Rain 18 1002 88 10000 3.6 360 19:38 30.07.2019
4482 Rain 19 1003 82 10000 4.1 40 18:55 30.07.2019
4483 Rain 19 1003 82 10000 4.1 40 18:37 30.07.2019
4484 Rain 19 1002 82 10000 3.1 50 18:18 30.07.2019
4485 Thunderstorm 19 1003 82 10000 4.1 50 17:41 30.07.2019
4486 Rain 19 1003 88 10000 3.1 60 17:19 30.07.2019
4487 Rain 18 1003 82 10000 4.1 80 16:50 30.07.2019
4488 Rain 19 1004 88 10000 2.6 90 16:20 30.07.2019
4489 Rain 20 1003 68 10000 3.1 140 15:55 30.07.2019
4490 Rain 21 1003 68 10000 3.1 140 15:36 30.07.2019
4491 Rain 21 1003 60 10000 2.6 90 15:18 30.07.2019
4492 Rain 22 1003 64 10000 2.6 80 14:41 30.07.2019
4493 Rain 22 1004 60 10000 2.6 110 14:19 30.07.2019
4494 Rain 22 1004 60 10000 3.1 0 13:44 30.07.2019
4495 Rain 22 1004 60 10000 3.1 100 13:25 30.07.2019
4496 Clouds 22 1004 64 10000 2.6 0 12:57 30.07.2019
4497 Clouds 22 1004 64 10000 2.6 0 12:38 30.07.2019
4498 Clouds 21 1004 64 10000 2.6 90 12:19 30.07.2019
4499 Rain 21 1004 68 10000 2.1 90 11:38 30.07.2019
4500 Rain 20 1005 68 10000 2.6 90 11:19 30.07.2019
4501 Rain 20 1005 72 10000 2.1 90 10:42 30.07.2019
4502 Rain 19 1005 72 10000 3.1 80 10:23 30.07.2019
4503 Rain 18 1005 77 10000 3.1 90 09:49 30.07.2019
4504 Rain 18 1005 72 10000 2.1 90 09:31 30.07.2019
4505 Rain 17 1005 77 10000 2.6 0 08:47 30.07.2019
4506 Rain 16 1005 77 10000 3.1 70 08:28 30.07.2019
4507 Rain 15 1005 82 10000 2.1 60 07:47 30.07.2019
4508 Rain 15 1005 82 10000 2.1 60 07:47 30.07.2019
4509 Rain 15 1005 77 10000 2.1 80 07:28 30.07.2019
4510 Rain 15 1005 82 10000 2.1 70 06:47 30.07.2019
4511 Clouds 15 1006 77 10000 3.6 40 05:56 30.07.2019
4512 Rain 15 1006 77 10000 2.6 20 05:32 30.07.2019
4513 Rain 17 1007 87 10000 2.1 80 01:40 30.07.2019
4514 Rain 18 1008 60 10000 2.1 140 00:41 30.07.2019
4515 Rain 18 1008 64 10000 2.1 0 00:20 30.07.2019
4516 Rain 19 1008 68 10000 1.5 0 23:44 29.07.2019
4517 Clouds 19 1007 64 10000 2.1 80 23:25 29.07.2019
4518 Clouds 19 1007 64 10000 2.1 80 22:57 29.07.2019
4519 Clouds 19 1007 64 10000 2.1 80 22:38 29.07.2019
4520 Clouds 20 1007 60 10000 1.5 80 22:19 29.07.2019
4521 Clouds 19 1007 60 10000 1.5 80 22:19 29.07.2019
4522 Clear 20 1007 53 10000 0.5 0 21:55 29.07.2019
4523 Clear 20 1007 53 10000 0.5 0 21:37 29.07.2019
4524 Clouds 21 1007 53 10000 1 0 21:18 29.07.2019
4525 Rain 22 1007 53 10000 1 0 20:43 29.07.2019
4526 Rain 22 1007 46 10000 1.5 0 20:22 29.07.2019
4527 Rain 22 1007 46 10000 1 0 19:54 29.07.2019
4528 Clouds 22 1007 46 10000 2.1 190 19:36 29.07.2019
4529 Clouds 22 1007 46 10000 2.1 190 19:18 29.07.2019
4530 Clouds 23 1007 46 10000 2.1 190 19:18 29.07.2019
4531 Clouds 22 1007 46 10000 1.5 0 18:41 29.07.2019
4532 Rain 22 1008 46 10000 1.5 0 18:21 29.07.2019
4533 Rain 22 1008 53 10000 2.1 190 17:49 29.07.2019
4534 Clouds 22 1008 49 10000 2.1 200 17:31 29.07.2019
4535 Clouds 22 1008 49 10000 2.6 190 16:57 29.07.2019
4536 Clouds 22 1008 53 10000 2.1 210 16:38 29.07.2019
4537 Rain 22 1008 53 10000 2.1 210 16:20 29.07.2019
4538 Rain 22 1008 56 10000 2.1 170 15:49 29.07.2019
4539 Rain 22 1008 56 10000 2.1 220 15:30 29.07.2019
4540 Rain 21 1008 60 10000 1.5 0 14:44 29.07.2019
4541 Rain 21 1008 60 10000 2.1 240 14:21 29.07.2019
4542 Clouds 21 1008 64 10000 2.1 240 13:55 29.07.2019
4543 Clouds 21 1008 64 10000 2.1 240 13:36 29.07.2019
4544 Clouds 20 1008 64 10000 3.1 230 13:18 29.07.2019
4545 Clouds 19 1008 68 10000 2.6 220 12:40 29.07.2019
4546 Clouds 19 1008 72 10000 3.1 230 12:21 29.07.2019
4547 Clouds 18 1008 77 10000 3.6 240 11:42 29.07.2019
4548 Clouds 18 1008 82 10000 4.1 240 11:20 29.07.2019
4549 Rain 17 1008 82 10000 4.6 240 10:44 29.07.2019
4550 Rain 16 1008 93 10000 3.1 240 10:23 29.07.2019
4551 Rain 16 1008 93 10000 3.6 220 09:45 29.07.2019
4552 Rain 15 1007 93 10000 2.1 200 09:24 29.07.2019
4553 Rain 15 1007 93 10000 1.5 200 08:55 29.07.2019
4554 Rain 14 1007 93 10000 1.5 0 08:27 29.07.2019
4555 Rain 14 1007 93 10000 1.5 0 07:53 29.07.2019
4556 Rain 14 1007 93 5000 1 0 07:31 29.07.2019
4557 Rain 14 1007 93 10000 1.5 210 06:40 29.07.2019
4558 Rain 14 1006 93 5000 3.1 230 05:37 29.07.2019
4559 Rain 14 1007 93 3100 2.6 220 04:23 29.07.2019
4560 Rain 14 1007 100 4000 4.1 250 01:52 29.07.2019
4561 Rain 14 1007 100 4000 4.1 250 01:34 29.07.2019
4562 Rain 14 1007 100 7000 2.6 260 00:58 29.07.2019
4563 Rain 14 1007 100 9000 3.1 240 00:30 29.07.2019
4564 Rain 14 1006 100 10000 2.6 240 23:44 28.07.2019
4565 Rain 14 1006 100 10000 3.1 270 23:26 28.07.2019
4566 Rain 14 1006 100 6000 2.6 260 22:46 28.07.2019
4567 Rain 14 1006 100 2700 4.1 250 22:28 28.07.2019
4568 Rain 15 1006 100 4200 2.6 240 21:54 28.07.2019
4569 Rain 15 1006 100 4200 2.6 240 21:36 28.07.2019
4570 Rain 15 1006 100 6000 3.1 270 21:18 28.07.2019
4571 Rain 15 1006 93 10000 4.1 270 20:42 28.07.2019
4572 Rain 15 1006 100 7000 3.1 260 20:23 28.07.2019
4573 Rain 15 1006 100 3200 4.1 270 19:40 28.07.2019
4574 Rain 15 1006 100 2300 5.1 280 19:21 28.07.2019
4575 Rain 15 1006 93 3600 5.1 260 18:46 28.07.2019
4576 Rain 15 1006 93 2400 5.1 270 18:27 28.07.2019
4577 Rain 15 1006 93 10000 5.1 260 17:56 28.07.2019
4578 Rain 15 1006 93 10000 5.1 260 17:38 28.07.2019
4579 Rain 15 1005 93 10000 4.6 270 17:19 28.07.2019
4580 Rain 15 1005 93 10000 4.6 280 16:42 28.07.2019
4581 Rain 15 1005 93 10000 4.6 280 16:23 28.07.2019
4582 Rain 15 1005 93 6000 5.1 290 15:48 28.07.2019
4583 Rain 15 1006 93 5000 4.6 280 15:27 28.07.2019
4584 Rain 15 1006 93 10000 4.1 290 14:40 28.07.2019
4585 Rain 15 1006 93 10000 5.1 280 14:21 28.07.2019
4586 Rain 15 1006 93 10000 4.6 280 13:56 28.07.2019
4587 Rain 15 1006 93 10000 4.6 280 13:38 28.07.2019
4588 Rain 15 1006 93 10000 5.1 280 13:19 28.07.2019
4589 Rain 15 1006 93 10000 4.1 290 12:42 28.07.2019
4590 Rain 15 1006 93 10000 4.1 290 12:24 28.07.2019
4591 Rain 15 1006 100 7000 4.1 290 11:50 28.07.2019
4592 Rain 15 1006 100 3600 4.1 290 11:29 28.07.2019
4593 Rain 14 1006 100 3400 4.6 300 10:56 28.07.2019
4594 Rain 14 1006 100 3400 4.6 300 10:37 28.07.2019
4595 Rain 14 1006 93 3900 3.6 290 10:18 28.07.2019
4596 Rain 14 1006 93 2900 4.1 280 09:40 28.07.2019
4597 Rain 14 1006 93 4100 4.6 280 09:20 28.07.2019
4598 Rain 14 1006 93 4100 5.1 280 08:41 28.07.2019
4599 Rain 14 1006 100 4600 5.1 280 08:21 28.07.2019
4600 Rain 14 1006 100 4700 5.7 290 07:40 28.07.2019
4601 Rain 14 1006 100 10000 5.1 290 06:59 28.07.2019
4602 Rain 14 1006 93 7000 5.1 290 06:32 28.07.2019
4603 Rain 15 1006 93 7000 5.1 300 05:19 28.07.2019
4604 Rain 15 1007 100 10000 4.1 300 02:25 28.07.2019
4605 Rain 15 1007 100 5000 2.6 290 01:32 28.07.2019
4606 Rain 15 1007 100 6000 3.6 280 00:52 28.07.2019
4607 Rain 15 1007 100 8000 3.1 290 00:25 28.07.2019
4608 Rain 15 1008 100 10000 3.1 300 23:48 27.07.2019
4609 Rain 15 1008 93 10000 2.1 300 23:27 27.07.2019
4610 Rain 15 1008 93 10000 3.1 300 22:43 27.07.2019
4611 Rain 15 1008 93 10000 4.1 290 22:23 27.07.2019
4612 Rain 15 1008 93 10000 4.1 300 21:45 27.07.2019
4613 Rain 15 1007 87 10000 4.1 300 21:23 27.07.2019
4614 Rain 16 1007 93 10000 4.1 280 20:55 27.07.2019
4615 Rain 16 1007 93 10000 4.1 300 20:32 27.07.2019
4616 Rain 16 1007 87 10000 5.1 300 19:59 27.07.2019
4617 Rain 16 1007 87 10000 5.1 300 19:39 27.07.2019
4618 Rain 16 1007 93 10000 4.6 290 19:19 27.07.2019
4619 Rain 16 1007 93 10000 4.1 300 18:46 27.07.2019
4620 Rain 16 1008 93 7000 4.1 310 18:28 27.07.2019
4621 Rain 16 1008 93 10000 4.6 320 17:50 27.07.2019
4622 Rain 16 1008 93 7000 4.1 290 17:31 27.07.2019
4623 Rain 16 1007 93 6000 4.6 280 16:54 27.07.2019
4624 Rain 16 1007 93 6000 4.6 280 16:34 27.07.2019
4625 Rain 16 1007 100 7000 4.6 290 15:56 27.07.2019
4626 Rain 16 1008 100 5000 2.6 290 15:28 27.07.2019
4627 Rain 16 1008 93 6000 3.1 300 14:59 27.07.2019
4628 Rain 16 1008 93 6000 3.1 300 14:41 27.07.2019
4629 Rain 16 1008 93 6000 3.1 300 14:41 27.07.2019
4630 Rain 16 1008 93 6000 4.1 290 14:21 27.07.2019
4631 Rain 16 1008 93 5000 4.1 280 13:46 27.07.2019
4632 Rain 17 1008 88 10000 3.1 300 13:22 27.07.2019
4633 Rain 17 1008 88 10000 3.6 300 12:49 27.07.2019
4634 Rain 17 1009 93 10000 3.1 300 12:26 27.07.2019
4635 Rain 16 1009 93 10000 3.1 290 11:46 27.07.2019
4636 Rain 16 1009 93 10000 3.1 310 11:25 27.07.2019
4637 Rain 16 1009 93 10000 2.6 300 10:57 27.07.2019
4638 Rain 16 1009 93 10000 2.6 300 10:39 27.07.2019
4639 Rain 16 1009 93 10000 2.6 300 10:19 27.07.2019
4640 Rain 16 1009 93 10000 3.1 290 09:40 27.07.2019
4641 Rain 16 1009 93 10000 3.6 280 09:22 27.07.2019
4642 Rain 16 1008 93 10000 3.6 320 08:47 27.07.2019
4643 Rain 16 1009 87 10000 4.1 310 08:27 27.07.2019
4644 Drizzle 16 1009 93 10000 2.6 290 07:47 27.07.2019
4645 Rain 16 1009 93 10000 2.1 310 07:27 27.07.2019
4646 Rain 16 1009 93 10000 2.6 320 06:55 27.07.2019
4647 Rain 16 1009 93 10000 2.1 320 06:28 27.07.2019
4648 Rain 16 1009 93 10000 2.6 270 05:43 27.07.2019
4649 Rain 16 1008 88 10000 2.6 340 04:59 27.07.2019
4650 Rain 17 1009 88 10000 1.5 330 04:21 27.07.2019
4651 Clouds 18 1010 82 10000 1.5 0 02:44 27.07.2019
4652 Rain 18 1010 88 10000 1.5 260 02:25 27.07.2019
4653 Rain 18 1010 82 10000 2.6 320 01:42 27.07.2019
4654 Rain 18 1010 88 10000 1.5 320 00:57 27.07.2019
4655 Rain 18 1010 93 10000 1 270 00:31 27.07.2019
4656 Rain 19 1010 82 10000 2.1 330 23:50 26.07.2019
4657 Rain 19 1010 82 10000 3.1 10 23:29 26.07.2019
4658 Rain 19 1010 82 10000 2.6 350 22:45 26.07.2019
4659 Rain 19 1010 82 10000 2.1 330 22:26 26.07.2019
4660 Rain 20 1010 72 10000 2.6 340 21:58 26.07.2019
4661 Rain 20 1010 72 10000 2.6 340 21:58 26.07.2019
4662 Rain 20 1010 72 10000 2.6 340 21:37 26.07.2019
4663 Clouds 20 1011 68 10000 3.1 330 21:18 26.07.2019
4664 Clouds 21 1010 68 10000 3.6 320 20:41 26.07.2019
4665 Clouds 21 1010 68 10000 4.6 320 20:21 26.07.2019
4666 Clouds 22 1010 68 10000 4.1 300 19:42 26.07.2019
4667 Clouds 22 1009 64 10000 1 0 19:23 26.07.2019
4668 Clouds 22 1009 64 10000 1 0 18:46 26.07.2019
4669 Clouds 23 1009 64 10000 1.5 0 18:22 26.07.2019
4670 Clouds 23 1009 64 10000 3.1 230 17:58 26.07.2019
4671 Clouds 23 1009 64 10000 3.1 230 17:39 26.07.2019
4672 Rain 24 1010 60 10000 2.1 220 17:18 26.07.2019
4673 Rain 24 1010 64 10000 3.1 220 16:55 26.07.2019
4674 Rain 24 1010 64 10000 3.1 220 16:37 26.07.2019
4675 Rain 24 1010 64 10000 2.1 210 16:18 26.07.2019
4676 Clouds 23 1011 68 10000 1.5 0 15:45 26.07.2019
4677 Clouds 23 1011 68 10000 2.1 220 15:22 26.07.2019
4678 Rain 23 1011 73 10000 2.6 230 14:54 26.07.2019
4679 Rain 22 1011 73 10000 2.6 230 14:36 26.07.2019
4680 Rain 22 1011 73 10000 2.1 220 14:18 26.07.2019
4681 Rain 22 1010 73 10000 2.6 220 13:37 26.07.2019
4682 Clouds 22 1010 68 10000 3.1 210 13:19 26.07.2019
4683 Clouds 22 1010 68 10000 3.1 220 12:42 26.07.2019
4684 Rain 22 1010 68 10000 4.1 220 12:19 26.07.2019
4685 Rain 22 1009 68 10000 4.1 230 11:39 26.07.2019
4686 Rain 22 1010 68 10000 3.1 210 11:19 26.07.2019
4687 Clouds 22 1010 73 10000 2.1 210 10:49 26.07.2019
4688 Clouds 22 1010 77 10000 2.6 190 10:31 26.07.2019
4689 Clouds 21 1010 88 10000 1.5 0 09:54 26.07.2019
4690 Clouds 21 1010 88 10000 1.5 0 09:34 26.07.2019
4691 Clouds 20 1010 82 10000 1.5 0 08:43 26.07.2019
4692 Clouds 19 1009 88 10000 1 0 08:22 26.07.2019
4693 Clouds 19 1009 88 10000 1.5 0 07:54 26.07.2019
4694 Clouds 19 1009 93 10000 2.1 200 07:27 26.07.2019
4695 Clouds 19 1008 93 10000 2.1 210 06:41 26.07.2019
4696 Rain 19 1009 93 10000 0.5 0 05:19 26.07.2019
4697 Rain 19 1010 93 10000 1 0 04:21 26.07.2019
4698 Rain 21 1009 88 10000 1.5 0 02:39 26.07.2019
4699 Rain 21 1008 88 10000 2.1 270 01:35 26.07.2019
4700 Clouds 22 1008 88 10000 1 0 00:39 26.07.2019
4701 Rain 23 1008 83 10000 2.6 260 23:55 25.07.2019
4702 Rain 24 1008 73 10000 2.6 280 23:23 25.07.2019
4703 Rain 24 1008 78 10000 1 0 22:55 25.07.2019
4704 Rain 24 1008 78 10000 1 0 22:36 25.07.2019
4705 Rain 24 1008 69 10000 1 0 22:18 25.07.2019
4706 Rain 25 1007 61 10000 1 250 21:41 25.07.2019
4707 -273 0 0 0 0 0 21:20 25.07.2019
4708 Rain 27 1007 58 10000 0.5 0 21:20 25.07.2019
4709 Clouds 29 1007 58 10000 1 0 20:41 25.07.2019
4710 Clouds 30 1007 62 10000 1 0 20:21 25.07.2019
4711 Clouds 30 1007 62 10000 2.6 220 19:42 25.07.2019
4712 Rain 30 1007 55 10000 2.1 220 19:23 25.07.2019
4713 Thunderstorm 30 1007 58 10000 3.1 250 18:45 25.07.2019
4714 Thunderstorm 30 1007 55 10000 4.6 250 18:27 25.07.2019
4715 Thunderstorm 30 1007 49 10000 3.6 230 17:52 25.07.2019
4716 Thunderstorm 29 1007 49 10000 3.6 230 17:34 25.07.2019
4717 Rain 30 1008 46 10000 2.6 150 16:59 25.07.2019
4718 Rain 32 1008 46 10000 2.6 150 16:41 25.07.2019
4719 Thunderstorm 32 1008 43 10000 4.1 0 16:22 25.07.2019
4720 Rain 32 1008 46 10000 3.1 170 15:50 25.07.2019
4721 Rain 31 1008 46 10000 3.1 160 15:21 25.07.2019
4722 Clouds 31 1008 45 10000 3.1 140 14:43 25.07.2019
4723 Clouds 31 1009 48 10000 2.6 0 14:24 25.07.2019
4724 Rain 30 1009 45 10000 3.6 150 13:59 25.07.2019
4725 Rain 31 1009 45 10000 3.6 150 13:37 25.07.2019
4726 Clouds 30 1009 45 10000 3.6 150 13:19 25.07.2019
4727 Clouds 29 1009 45 10000 3.1 160 12:34 25.07.2019
4728 Clear 27 1010 39 10000 3.6 150 11:57 25.07.2019
4729 Clear 27 1010 39 10000 3.6 150 11:38 25.07.2019
4730 Clear 27 1010 39 10000 2.1 160 11:20 25.07.2019
4731 Clear 26 1010 44 10000 3.1 140 10:42 25.07.2019
4732 Clear 25 1010 50 10000 2.6 130 10:23 25.07.2019
4733 Clear 24 1010 50 10000 2.6 150 09:44 25.07.2019
4734 Clouds 22 1010 57 10000 1.5 0 09:26 25.07.2019
4735 Clouds 21 1011 64 10000 1.5 0 08:47 25.07.2019
4736 Clouds 20 1011 68 10000 2.1 90 08:26 25.07.2019
4737 Clouds 19 1011 72 10000 1.5 0 07:37 25.07.2019
4738 Clouds 18 1011 77 10000 1 120 06:45 25.07.2019
4739 Clouds 17 1011 82 10000 1.5 120 06:19 25.07.2019
4740 Clouds 18 1011 88 10000 0.5 60 05:32 25.07.2019
4741 Clouds 18 1012 82 10000 1.5 80 04:44 25.07.2019
4742 Clouds 19 1013 82 10000 1 0 02:24 25.07.2019
4743 Clouds 19 1013 88 10000 1.5 0 01:21 25.07.2019
4744 Clouds 20 1013 82 10000 1.5 110 00:23 25.07.2019
4745 Clouds 20 1013 73 10000 1.5 120 23:53 24.07.2019
4746 Clouds 20 1013 73 10000 1.5 130 23:32 24.07.2019
4747 Clouds 21 1013 68 10000 1 140 22:58 24.07.2019
4748 Clouds 22 1013 68 10000 1 140 22:40 24.07.2019
4749 Clouds 22 1012 64 10000 1 0 22:21 24.07.2019
4750 Clouds 23 1012 69 10000 2.1 210 21:43 24.07.2019
4751 Rain 23 1012 64 10000 2.6 210 21:23 24.07.2019
4752 Rain 24 1012 64 10000 2.6 200 20:59 24.07.2019
4753 Rain 25 1012 64 10000 2.6 200 20:39 24.07.2019
4754 Rain 24 1012 64 10000 2.6 220 20:20 24.07.2019
4755 Clouds 25 1012 61 10000 3.1 220 19:55 24.07.2019
4756 Clouds 25 1012 61 10000 3.1 220 19:36 24.07.2019
4757 Rain 25 1012 61 10000 3.6 220 19:18 24.07.2019
4758 Rain 25 1012 61 10000 2.6 210 18:41 24.07.2019
4759 Clouds 25 1012 64 10000 2.6 210 18:23 24.07.2019
4760 Clouds 25 1012 64 10000 3.1 210 17:43 24.07.2019
4761 Clouds 25 1012 64 10000 4.6 220 17:20 24.07.2019
4762 Clouds 25 1012 61 10000 4.6 210 16:42 24.07.2019
4763 Clouds 25 1012 65 10000 3.6 210 16:22 24.07.2019
4764 Clouds 26 1012 65 10000 3.6 210 15:42 24.07.2019
4765 Clouds 25 1011 64 10000 2.1 0 15:24 24.07.2019
4766 Clouds 25 1011 64 10000 2.6 220 14:57 24.07.2019
4767 Clouds 25 1011 64 10000 2.6 220 14:38 24.07.2019
4768 Clouds 25 1011 64 10000 2.6 220 14:38 24.07.2019
4769 Clouds 25 1011 64 10000 2.6 220 14:38 24.07.2019
4770 Clouds 25 1011 64 10000 2.6 220 14:38 24.07.2019
4771 Clouds 25 1011 64 10000 2.6 190 14:19 24.07.2019
4772 Clouds 25 1012 69 10000 3.1 230 13:37 24.07.2019
4773 Clouds 25 1012 73 10000 3.1 210 13:19 24.07.2019
4774 Clouds 24 1011 69 10000 3.6 220 12:51 24.07.2019
4775 Clouds 23 1011 78 10000 3.6 220 12:32 24.07.2019
4776 Rain 22 1011 83 10000 3.6 230 11:40 24.07.2019
4777 Rain 22 1011 83 10000 2.6 200 11:20 24.07.2019
4778 Rain 21 1011 88 10000 2.1 170 10:44 24.07.2019
4779 Rain 21 1012 94 10000 1.5 0 10:25 24.07.2019
4780 Rain 20 1012 94 10000 2.6 210 09:48 24.07.2019
4781 Rain 19 1011 100 7000 2.6 220 09:25 24.07.2019
4782 Rain 19 1010 93 7000 3.1 230 08:58 24.07.2019
4783 Rain 19 1010 93 7000 3.6 240 08:30 24.07.2019
4784 Rain 19 1009 93 10000 1 0 07:52 24.07.2019
4785 Rain 19 1009 93 10000 2.1 80 07:24 24.07.2019
4786 Rain 19 1010 93 4900 4.1 0 06:31 24.07.2019
4787 Rain 19 1011 93 10000 1 0 05:54 24.07.2019
4788 Rain 23 1010 57 10000 2.1 130 02:45 24.07.2019
4789 Rain 24 1011 54 10000 3.6 130 01:30 24.07.2019
4790 Rain 24 1011 54 10000 3.1 130 00:57 24.07.2019
4791 Clear 25 1011 57 10000 3.1 130 00:23 24.07.2019
4792 Clear 25 1012 54 10000 1.5 0 23:42 23.07.2019
4793 Clear 25 1012 54 10000 1.5 0 23:42 23.07.2019
4794 Clear 26 1012 51 10000 2.6 120 23:24 23.07.2019
4795 Clear 26 1012 51 10000 2.6 120 22:40 23.07.2019
4796 Clear 27 1012 54 10000 1.5 0 22:20 23.07.2019
4797 Clear 27 1012 54 10000 1.5 0 21:59 23.07.2019
4798 Clear 27 1012 54 10000 1.5 0 21:41 23.07.2019
4799 Clouds 28 1012 48 10000 2.6 120 21:22 23.07.2019
4800 Clear 29 1013 51 10000 2.6 130 20:47 23.07.2019
4801 Clouds 29 1013 51 10000 2.6 130 20:25 23.07.2019
4802 Clouds 29 1013 51 10000 2.6 130 19:43 23.07.2019
4803 Clouds 29 1014 51 10000 2.6 130 19:22 23.07.2019
4804 Clouds 29 1014 51 10000 3.1 0 18:52 23.07.2019
4805 Clouds 29 1015 51 10000 3.1 150 18:24 23.07.2019
4806 Clouds 29 1015 51 10000 2.1 0 17:45 23.07.2019
4807 Clouds 29 1015 54 10000 2.1 0 17:27 23.07.2019
4808 Clouds 29 1016 54 10000 2.6 170 16:58 23.07.2019
4809 Clouds 29 1016 54 10000 2.6 170 16:40 23.07.2019
4810 Clouds 28 1016 54 10000 2.6 170 16:19 23.07.2019
4811 Clouds 28 1016 57 10000 2.6 160 15:46 23.07.2019
4812 Clear 27 1017 61 10000 2.6 0 15:24 23.07.2019
4813 Clear 26 1017 61 10000 3.1 170 14:40 23.07.2019
4814 Clouds 26 1017 65 10000 5.7 160 14:21 23.07.2019
4815 Clouds 26 1018 64 10000 3.1 170 13:58 23.07.2019
4816 Clouds 26 1018 64 10000 3.1 170 13:39 23.07.2019
4817 Clouds 25 1018 64 10000 2.6 160 13:20 23.07.2019
4818 Clouds 25 1018 69 10000 3.1 170 12:48 23.07.2019
4819 Clouds 24 1019 73 10000 2.6 180 12:25 23.07.2019
4820 Clouds 23 1019 73 10000 3.1 190 11:49 23.07.2019
4821 Clouds 23 1019 77 10000 2.1 180 11:31 23.07.2019
4822 Clouds 22 1019 77 10000 2.1 180 10:57 23.07.2019
4823 Clouds 22 1019 77 10000 2.1 180 10:38 23.07.2019
4824 Clear 21 1019 77 10000 2.1 180 10:20 23.07.2019
4825 Clear 20 1019 82 10000 2.6 190 09:40 23.07.2019
4826 Clear 19 1019 88 10000 1.5 0 09:19 23.07.2019
4827 Clear 19 1019 82 10000 2.1 180 08:42 23.07.2019
4828 Clear 18 1019 88 10000 1.5 0 08:19 23.07.2019
4829 Clear 17 1019 93 10000 1 0 07:55 23.07.2019
4830 Clear 17 1019 87 10000 1.5 0 07:33 23.07.2019
4831 Clouds 16 1019 93 10000 1.5 0 06:38 23.07.2019
4832 Clouds 16 1020 93 10000 1 150 05:57 23.07.2019
4833 Clouds 18 1020 82 10000 2.6 190 02:25 23.07.2019
4834 Clouds 19 1020 82 10000 1.5 0 01:31 23.07.2019
4835 Clouds 19 1020 82 10000 3.1 230 00:30 23.07.2019
4836 Clouds 20 1020 77 10000 4.1 220 23:42 22.07.2019
4837 Clear 20 1020 72 10000 5.1 220 23:21 22.07.2019
4838 Clouds 20 1020 72 10000 4.1 220 22:58 22.07.2019
4839 Clouds 20 1020 72 10000 4.1 220 22:40 22.07.2019
4840 Clouds 21 1020 73 10000 5.7 230 22:20 22.07.2019
4841 Clouds 21 1020 73 10000 5.7 230 22:20 22.07.2019
4842 Clouds 22 1019 68 10000 6.7 240 21:42 22.07.2019
4843 Clouds 22 1019 69 10000 4.6 220 21:21 22.07.2019
4844 Clouds 23 1019 64 10000 5.7 240 20:48 22.07.2019
4845 Clouds 23 1019 64 10000 7.2 230 20:29 22.07.2019
4846 Clouds 24 1019 64 10000 5.7 240 19:55 22.07.2019
4847 Clouds 24 1019 64 10000 5.7 240 19:36 22.07.2019
4848 Clouds 24 1019 60 10000 7.2 230 19:18 22.07.2019
4849 Clouds 25 1019 61 10000 6.2 220 18:41 22.07.2019
4850 Clouds 25 1019 61 10000 7.7 230 18:22 22.07.2019
4851 Clouds 25 1019 61 10000 9.3 230 17:42 22.07.2019
4852 Clouds 25 1019 61 10000 7.2 220 17:24 22.07.2019
4853 Clouds 25 1019 64 10000 7.2 220 16:43 22.07.2019
4854 Clouds 25 1019 64 10000 7.2 220 16:22 22.07.2019
4855 Clouds 25 1019 69 10000 7.2 220 15:59 22.07.2019
4856 Clouds 25 1019 69 10000 7.2 220 15:38 22.07.2019
4857 Clouds 25 1019 64 10000 6.7 220 15:18 22.07.2019
4858 Clouds 24 1019 69 10000 5.7 210 14:43 22.07.2019
4859 Clouds 24 1019 69 10000 6.2 210 14:21 22.07.2019
4860 Clouds 24 1019 69 10000 6.2 210 14:21 22.07.2019
4861 Clouds 24 1019 64 10000 7.7 240 13:48 22.07.2019
4862 Clouds 24 1019 64 10000 9.3 240 13:29 22.07.2019
4863 Clouds 23 1018 64 10000 8.7 240 12:47 22.07.2019
4864 Clouds 23 1018 64 10000 8.7 250 12:28 22.07.2019
4865 Clouds 23 1018 73 10000 5.7 230 11:45 22.07.2019
4866 Clouds 22 1018 73 10000 5.1 210 11:25 22.07.2019
4867 Clouds 22 1018 73 10000 5.1 210 10:58 22.07.2019
4868 Clouds 22 1018 77 10000 4.6 210 10:33 22.07.2019
4869 Clouds 21 1017 77 10000 5.7 210 09:45 22.07.2019
4870 Rain 20 1017 82 10000 5.1 210 09:26 22.07.2019
4871 Clouds 20 1016 82 10000 5.7 210 08:56 22.07.2019
4872 Clouds 20 1016 82 10000 5.7 210 08:36 22.07.2019
4873 Rain 20 1016 82 10000 6.2 210 08:18 22.07.2019
4874 Rain 19 1016 88 10000 5.1 210 07:41 22.07.2019
4875 Clouds 19 1016 88 10000 3.6 190 07:22 22.07.2019
4876 Rain 18 1015 88 10000 4.1 190 03:59 22.07.2019
4877 Rain 18 1015 82 10000 4.1 190 02:45 22.07.2019
4878 Rain 17 1016 88 10000 4.1 180 00:58 22.07.2019
4879 Rain 17 1016 82 10000 3.1 190 00:29 22.07.2019
4880 Rain 18 1016 77 10000 2.6 170 23:57 21.07.2019
4881 Rain 18 1017 72 10000 3.1 180 23:36 21.07.2019
4882 Rain 18 1017 68 10000 3.6 190 22:55 21.07.2019
4883 Rain 18 1017 68 10000 3.6 190 22:36 21.07.2019
4884 Rain 19 1017 68 10000 3.1 190 22:18 21.07.2019
4885 Rain 20 1017 64 10000 3.6 200 21:44 21.07.2019
4886 Rain 20 1017 64 10000 3.6 210 21:24 21.07.2019
4887 Clouds 20 1017 60 10000 4.1 200 20:54 21.07.2019
4888 Clouds 20 1017 60 10000 4.1 200 20:36 21.07.2019
4889 Clouds 20 1017 60 10000 4.1 200 20:36 21.07.2019
4890 Clouds 21 1017 68 10000 3.6 190 20:18 21.07.2019
4891 Clouds 21 1017 68 10000 2.6 200 19:44 21.07.2019
4892 Rain 21 1017 68 10000 3.6 200 19:22 21.07.2019
4893 Clouds 21 1018 68 10000 3.6 200 18:48 21.07.2019
4894 Clouds 21 1018 68 10000 3.1 200 18:26 21.07.2019
4895 Clouds 21 1018 68 10000 3.1 200 18:26 21.07.2019
4896 Clouds 21 1018 64 10000 4.1 200 17:43 21.07.2019
4897 Clouds 21 1018 68 10000 4.6 200 17:20 21.07.2019
4898 Clouds 21 1018 68 10000 4.6 200 17:20 21.07.2019
4899 Rain 21 1018 64 10000 4.1 220 16:47 21.07.2019
4900 Rain 21 1019 64 10000 3.6 210 16:25 21.07.2019
4901 Clouds 21 1019 64 10000 5.1 220 15:57 21.07.2019
4902 Clouds 20 1019 64 10000 5.1 220 15:37 21.07.2019
4903 Clouds 21 1019 64 10000 5.1 210 15:18 21.07.2019
4904 Clouds 20 1018 60 10000 6.7 230 14:41 21.07.2019
4905 Clouds 20 1018 64 10000 6.2 220 14:22 21.07.2019
4906 Rain 20 1018 64 10000 6.2 230 13:49 21.07.2019
4907 Rain 20 1018 64 10000 5.7 240 13:29 21.07.2019
4908 Rain 20 1018 68 10000 3.6 200 12:43 21.07.2019
4909 Clouds 19 1018 68 10000 3.6 200 12:24 21.07.2019
4910 Clouds 19 1018 72 10000 4.1 200 11:49 21.07.2019
4911 Clouds 19 1018 77 10000 4.1 200 11:29 21.07.2019
4912 Clouds 18 1018 77 10000 4.1 210 10:57 21.07.2019
4913 Clouds 18 1018 77 10000 4.1 210 10:39 21.07.2019
4914 Rain 18 1017 82 10000 3.1 210 10:20 21.07.2019
4915 Rain 17 1017 82 10000 3.1 200 09:38 21.07.2019
4916 Rain 17 1017 82 10000 3.1 200 09:38 21.07.2019
4917 Clouds 17 1017 82 10000 2.6 190 09:19 21.07.2019
4918 Clouds 16 1017 87 10000 2.6 180 08:41 21.07.2019
4919 Clouds 15 1016 93 10000 1.5 0 08:23 21.07.2019
4920 Clouds 14 1016 87 10000 1.5 0 07:35 21.07.2019
4921 Clouds 14 1016 93 10000 1.5 0 06:45 21.07.2019
4922 Clear 13 1015 87 10000 2.1 180 05:27 21.07.2019
4923 Clouds 15 1015 77 10000 1.5 210 02:20 21.07.2019
4924 Clouds 15 1014 82 10000 2.6 240 00:57 21.07.2019
4925 Clouds 15 1014 77 10000 2.6 230 00:24 21.07.2019
4926 Clouds 16 1013 72 10000 3.1 250 23:57 20.07.2019
4927 Clouds 16 1013 72 10000 3.1 250 23:37 20.07.2019
4928 Clouds 16 1013 72 10000 3.1 250 23:18 20.07.2019
4929 Clouds 16 1013 72 10000 3.6 250 22:42 20.07.2019
4930 Clouds 16 1012 67 10000 3.6 260 22:20 20.07.2019
4931 Clouds 17 1012 67 10000 4.6 270 21:45 20.07.2019
4932 Clouds 17 1012 67 10000 4.6 270 21:45 20.07.2019
4933 Clouds 17 1011 67 10000 5.7 260 21:24 20.07.2019
4934 Clouds 17 1011 63 10000 5.7 270 20:44 20.07.2019
4935 Clouds 18 1010 63 10000 5.7 290 20:23 20.07.2019
4936 Clouds 18 1010 59 10000 7.2 280 19:53 20.07.2019
4937 Clouds 18 1010 59 10000 7.2 280 19:53 20.07.2019
4938 Clouds 18 1010 59 10000 6.2 290 19:34 20.07.2019
4939 Clouds 18 1009 63 10000 6.7 280 18:58 20.07.2019
4940 Clouds 18 1009 63 10000 6.7 280 18:40 20.07.2019
4941 Clouds 18 1009 63 10000 6.7 280 18:19 20.07.2019
4942 Clouds 19 1009 63 10000 7.7 280 17:47 20.07.2019
4943 Clouds 19 1008 68 10000 7.2 280 17:20 20.07.2019
4944 Clouds 19 1008 68 10000 7.2 290 16:42 20.07.2019
4945 Rain 18 1007 72 10000 7.7 280 16:24 20.07.2019
4946 Rain 18 1006 77 10000 7.2 290 15:55 20.07.2019
4947 Rain 18 1006 77 10000 7.2 290 15:37 20.07.2019
4948 Rain 18 1006 82 10000 7.2 270 15:18 20.07.2019
4949 Rain 18 1005 82 10000 8.2 270 14:42 20.07.2019
4950 Rain 18 1005 77 10000 8.7 270 14:20 20.07.2019
4951 Rain 17 1004 77 10000 8.7 280 13:38 20.07.2019
4952 Rain 17 1003 77 10000 6.7 250 13:19 20.07.2019
4953 Rain 18 1003 82 10000 7.2 230 12:51 20.07.2019
4954 Rain 18 1003 82 10000 7.2 240 12:20 20.07.2019
4955 Rain 17 1002 93 10000 5.1 230 11:52 20.07.2019
4956 Rain 17 1002 82 6000 6.2 220 11:23 20.07.2019
4957 Rain 17 1001 82 10000 5.1 210 10:49 20.07.2019
4958 Rain 17 1001 77 10000 5.7 200 10:26 20.07.2019
4959 Rain 17 1001 82 10000 4.6 200 09:52 20.07.2019
4960 Rain 17 1001 82 10000 4.1 190 09:27 20.07.2019
4961 Rain 17 1001 88 10000 3.6 190 08:55 20.07.2019
4962 Clouds 17 1001 88 10000 3.1 190 08:24 20.07.2019
4963 Rain 16 1001 88 10000 3.1 180 07:48 20.07.2019
4964 Clouds 16 1001 93 10000 1.5 0 06:47 20.07.2019
4965 Clouds 16 1002 87 10000 1.5 0 05:52 20.07.2019
4966 Rain 16 1003 87 10000 1.5 0 04:31 20.07.2019
4967 Rain 16 1003 87 10000 2.6 0 02:33 20.07.2019
4968 Clouds 16 1004 82 10000 2.1 170 01:19 20.07.2019
4969 Rain 17 1004 88 10000 2.6 180 00:39 20.07.2019
4970 Rain 17 1004 88 10000 2.6 170 00:18 20.07.2019
4971 Rain 17 1004 88 10000 2.6 180 23:40 19.07.2019
4972 Rain 17 1004 82 10000 3.1 180 23:22 19.07.2019
4973 Rain 17 1004 82 10000 2.6 180 22:43 19.07.2019
4974 Rain 17 1005 88 10000 2.6 180 22:23 19.07.2019
4975 Rain 18 1005 88 10000 3.1 190 21:45 19.07.2019
4976 Rain 18 1004 88 10000 2.6 190 21:26 19.07.2019
4977 Rain 18 1004 82 10000 3.6 200 20:49 19.07.2019
4978 Rain 18 1004 88 10000 4.1 210 20:31 19.07.2019
4979 Rain 18 1004 93 10000 2.1 200 19:48 19.07.2019
4980 Rain 18 1004 88 10000 3.1 220 19:20 19.07.2019
4981 Rain 18 1004 93 3000 2.1 110 18:42 19.07.2019
4982 Rain 18 1004 93 10000 1.5 0 18:21 19.07.2019
4983 Rain 18 1005 88 10000 2.6 150 17:52 19.07.2019
4984 Rain 18 1005 93 10000 2.6 0 17:27 19.07.2019
4985 Rain 18 1006 88 10000 2.6 170 16:49 19.07.2019
4986 Rain 17 1006 82 10000 3.1 160 16:26 19.07.2019
4987 Rain 17 1006 88 10000 2.6 170 15:50 19.07.2019
4988 Rain 17 1006 88 10000 3.1 0 15:31 19.07.2019
4989 Rain 16 1006 93 10000 2.6 140 14:57 19.07.2019
4990 Rain 16 1006 93 10000 2.6 140 14:38 19.07.2019
4991 Rain 16 1007 93 10000 2.6 140 14:20 19.07.2019
4992 Rain 15 1007 93 10000 1.5 0 13:44 19.07.2019
4993 Rain 15 1007 93 10000 1.5 0 13:44 19.07.2019
4994 Rain 15 1007 93 10000 1.5 0 13:44 19.07.2019
4995 Rain 15 1007 93 10000 1.5 0 13:44 19.07.2019
4996 Rain 15 1007 93 10000 1.5 0 13:44 19.07.2019
4997 Rain 15 1008 93 5000 2.6 120 13:25 19.07.2019
4998 Rain 15 1008 100 3600 2.6 0 12:55 19.07.2019
4999 Rain 15 1008 93 4500 3.1 140 12:31 19.07.2019
5000 Rain 14 1008 93 6000 2.1 0 11:58 19.07.2019
5001 Rain 14 1008 93 6000 2.1 0 11:40 19.07.2019
5002 Rain 15 1009 87 10000 1.5 0 11:18 19.07.2019
5003 Rain 15 1009 87 10000 2.1 150 10:41 19.07.2019
5004 Rain 14 1009 87 10000 1.5 0 10:21 19.07.2019
5005 Rain 14 1009 87 10000 1.5 0 09:44 19.07.2019
5006 Rain 14 1010 87 10000 2.1 140 09:22 19.07.2019
5007 Rain 14 1010 87 10000 1.5 0 08:59 19.07.2019
5008 Rain 14 1010 87 10000 1.5 0 08:40 19.07.2019
5009 Rain 14 1009 82 10000 1.5 0 07:48 19.07.2019
5010 Rain 14 1010 87 10000 2.1 170 07:26 19.07.2019
5011 Clouds 13 1010 82 10000 1.5 0 05:55 19.07.2019
5012 Clouds 15 1011 82 10000 1 0 02:23 19.07.2019
5013 Clouds 15 1011 82 10000 2.1 170 00:59 19.07.2019
5014 Clouds 15 1011 82 10000 1.5 0 00:31 19.07.2019
5015 Clear 16 1011 77 10000 2.1 180 23:43 18.07.2019
5016 Rain 16 1011 77 10000 2.1 220 23:23 18.07.2019
5017 Rain 16 1010 72 10000 2.6 240 22:59 18.07.2019
5018 Rain 16 1010 72 10000 2.6 240 22:39 18.07.2019
5019 Rain 17 1010 72 10000 3.1 240 22:18 18.07.2019
5020 Clouds 17 1010 72 10000 3.1 280 21:41 18.07.2019
5021 Clouds 18 1010 63 10000 4.1 250 21:22 18.07.2019
5022 Rain 19 1010 63 10000 4.6 260 20:49 18.07.2019
5023 Clouds 19 1009 59 10000 6.2 260 20:28 18.07.2019
5024 Rain 19 1009 63 10000 5.1 250 19:53 18.07.2019
5025 Clouds 19 1009 63 10000 3.6 240 19:31 18.07.2019
5026 Clouds 20 1009 63 10000 4.6 250 18:57 18.07.2019
5027 Clouds 20 1009 63 10000 4.6 250 18:37 18.07.2019
5028 Clouds 19 1009 72 10000 4.1 250 18:19 18.07.2019
5029 Clouds 19 1009 68 10000 3.1 220 17:42 18.07.2019
5030 Clouds 20 1009 68 10000 3.1 240 17:23 18.07.2019
5031 Clouds 19 1009 68 10000 4.1 240 16:54 18.07.2019
5032 Clouds 19 1009 63 10000 4.6 260 16:29 18.07.2019
5033 Clouds 19 1009 63 10000 4.1 280 15:58 18.07.2019
5034 Clouds 19 1009 63 10000 4.1 280 15:37 18.07.2019
5035 Clouds 19 1009 68 10000 4.6 270 15:19 18.07.2019
5036 Clouds 19 1009 63 10000 4.1 260 14:42 18.07.2019
5037 Clouds 18 1009 68 10000 4.6 220 14:23 18.07.2019
5038 Clouds 18 1009 67 10000 4.6 270 13:43 18.07.2019
5039 Rain 18 1009 68 10000 5.1 260 13:22 18.07.2019
5040 Rain 18 1009 68 10000 5.7 270 12:48 18.07.2019
5041 Clouds 18 1009 72 10000 5.7 260 12:21 18.07.2019
5042 Clouds 17 1009 82 10000 5.1 260 11:52 18.07.2019
5043 Clouds 17 1008 82 10000 5.1 250 11:34 18.07.2019
5044 Clouds 17 1008 82 10000 4.1 260 10:58 18.07.2019
5045 Clouds 17 1008 82 10000 4.1 260 10:38 18.07.2019
5046 Clouds 16 1008 87 10000 2.6 250 09:48 18.07.2019
5047 Clouds 15 1008 93 10000 2.1 230 09:25 18.07.2019
5048 Clouds 15 1008 93 10000 3.1 250 08:50 18.07.2019
5049 Rain 14 1008 100 10000 2.6 240 08:20 18.07.2019
5050 Clouds 14 1008 100 10000 1.5 0 07:44 18.07.2019
5051 Clouds 14 1008 100 10000 1 0 07:26 18.07.2019
5052 Clouds 14 1007 93 10000 1 0 06:38 18.07.2019
5053 Rain 14 1007 93 10000 3.1 290 05:35 18.07.2019
5054 Clouds 15 1008 87 10000 2.6 180 03:23 18.07.2019
5055 Rain 15 1008 93 10000 2.1 180 01:52 18.07.2019
5056 Clouds 16 1009 87 10000 2.1 0 00:36 18.07.2019
5057 Rain 16 1009 87 10000 1.5 0 23:49 17.07.2019
5058 Rain 16 1010 87 10000 1.5 0 23:20 17.07.2019
5059 Rain 16 1010 93 10000 1 0 22:56 17.07.2019
5060 Rain 16 1010 93 10000 1 0 22:38 17.07.2019
5061 Rain 16 1010 87 10000 1.5 0 22:18 17.07.2019
5062 Rain 16 1010 87 10000 1.5 0 21:43 17.07.2019
5063 Rain 16 1010 93 10000 2.6 220 21:25 17.07.2019
5064 Rain 16 1011 93 10000 1.5 0 20:58 17.07.2019
5065 Rain 16 1011 93 10000 1.5 0 20:39 17.07.2019
5066 Rain 17 1011 93 10000 1.5 0 20:20 17.07.2019
5067 Rain 17 1011 93 10000 1.5 0 20:20 17.07.2019
5068 Rain 17 1011 87 10000 1.5 0 19:43 17.07.2019
5069 Rain 17 1011 82 10000 2.6 220 19:22 17.07.2019
5070 Rain 17 1011 82 8000 5.1 240 18:58 17.07.2019
5071 Rain 18 1011 68 10000 5.7 250 18:39 17.07.2019
5072 Rain 19 1011 68 10000 5.7 250 18:20 17.07.2019
5073 Rain 20 1011 49 10000 5.1 210 17:45 17.07.2019
5074 Rain 20 1011 49 10000 5.1 210 17:24 17.07.2019
5075 Rain 21 1012 56 10000 6.2 230 16:43 17.07.2019
5076 Rain 21 1012 56 10000 6.2 230 16:22 17.07.2019
5077 Rain 21 1012 56 10000 5.7 220 15:52 17.07.2019
5078 Rain 21 1012 60 10000 4.6 210 15:32 17.07.2019
5079 Clouds 22 1013 64 10000 4.6 210 14:58 17.07.2019
5080 Clouds 21 1013 64 10000 5.1 230 14:40 17.07.2019
5081 Clouds 21 1013 64 10000 5.1 230 14:21 17.07.2019
5082 Clouds 21 1013 68 10000 4.1 210 13:57 17.07.2019
5083 Clouds 21 1013 64 10000 3.6 210 13:36 17.07.2019
5084 Clouds 21 1013 64 10000 3.6 210 13:18 17.07.2019
5085 Clouds 21 1014 68 10000 2.6 210 12:39 17.07.2019
5086 Clouds 20 1014 68 10000 2.6 200 12:19 17.07.2019
5087 Clouds 20 1014 72 10000 2.6 210 11:43 17.07.2019
5088 Clouds 20 1014 72 10000 2.6 210 11:19 17.07.2019
5089 Clouds 19 1014 77 10000 2.1 210 10:49 17.07.2019
5090 Clouds 19 1014 77 10000 2.1 210 10:24 17.07.2019
5091 Clouds 18 1014 82 10000 1.5 0 09:46 17.07.2019
5092 Clouds 17 1014 82 10000 1.5 0 09:28 17.07.2019
5093 Clouds 16 1014 82 10000 1.5 0 08:56 17.07.2019
5094 Clouds 15 1015 87 10000 1 0 08:37 17.07.2019
5095 Clouds 15 1015 87 10000 1 0 08:18 17.07.2019
5096 Clouds 14 1015 87 10000 1.5 130 07:41 17.07.2019
5097 Clouds 14 1015 87 10000 1.5 130 07:22 17.07.2019
5098 Clouds 14 1015 93 10000 1 140 06:46 17.07.2019
5099 Clouds 14 1015 93 10000 1 140 06:27 17.07.2019
5100 Clouds 13 1016 93 10000 1 0 05:41 17.07.2019
5101 Clouds 14 1016 87 10000 1 120 04:59 17.07.2019
5102 Clouds 14 1016 87 10000 0.27 193.373 04:22 17.07.2019
5103 Clouds 14 1017 87 10000 1 140 02:45 17.07.2019
5104 Clouds 15 1017 82 10000 1.5 100 01:43 17.07.2019
5105 Clouds 15 1017 82 10000 1.5 100 01:23 17.07.2019
5106 Clouds 16 1018 63 10000 1.5 330 00:43 17.07.2019
5107 Clouds 16 1018 63 10000 1.5 330 00:23 17.07.2019
5108 Clouds 17 1017 68 10000 2.6 340 23:47 16.07.2019
5109 Clouds 17 1017 68 10000 2.6 340 23:28 16.07.2019
5110 Clouds 18 1017 63 10000 3.1 320 22:57 16.07.2019
5111 Clouds 19 1017 60 10000 3.1 300 22:39 16.07.2019
5112 Clouds 19 1017 60 10000 3.1 300 22:19 16.07.2019
5113 Clouds 20 1017 56 10000 2.6 290 21:43 16.07.2019
5114 Clouds 21 1017 56 10000 2.6 290 21:20 16.07.2019
5115 Clouds 22 1017 56 10000 2.6 290 20:41 16.07.2019
5116 Clouds 22 1017 56 10000 2.6 290 20:41 16.07.2019
5117 Clouds 22 1017 56 10000 2.6 290 20:23 16.07.2019
5118 Clouds 22 1018 56 10000 3.1 280 19:56 16.07.2019
5119 Clouds 22 1018 56 10000 3.1 290 19:37 16.07.2019
5120 Clouds 22 1018 56 10000 3.1 290 19:19 16.07.2019
5121 Clouds 22 1018 49 10000 3.1 290 18:45 16.07.2019
5122 Clouds 23 1018 46 10000 3.6 270 18:21 16.07.2019
5123 Clouds 23 1018 49 10000 3.1 290 18:21 16.07.2019
5124 Clouds 23 1018 46 10000 3.6 270 17:55 16.07.2019
5125 Clouds 22 1018 46 10000 3.6 280 17:36 16.07.2019
5126 Clouds 23 1018 49 10000 3.1 260 16:56 16.07.2019
5127 Clouds 22 1018 53 10000 2.6 240 16:38 16.07.2019
5128 Clouds 23 1018 53 10000 2.6 240 16:18 16.07.2019
5129 Clouds 22 1019 56 10000 1.5 0 15:39 16.07.2019
5130 Clouds 22 1019 60 10000 1 0 15:20 16.07.2019
5131 Clouds 22 1019 60 10000 1 0 14:56 16.07.2019
5132 Clouds 22 1019 60 10000 1.5 0 14:38 16.07.2019
5133 Clouds 22 1019 63 10000 1 0 14:19 16.07.2019
5134 Clouds 22 1019 72 10000 1 0 13:44 16.07.2019
5135 Clouds 21 1019 77 10000 1 0 13:19 16.07.2019
5136 Rain 21 1020 82 10000 1 0 12:44 16.07.2019
5137 Rain 20 1020 82 10000 1 0 12:20 16.07.2019
5138 Clouds 19 1020 77 10000 2.1 240 11:55 16.07.2019
5139 Rain 19 1020 82 10000 2.1 250 11:37 16.07.2019
5140 Rain 19 1020 82 10000 2.1 250 11:19 16.07.2019
5141 Clouds 18 1020 82 10000 0.5 0 10:44 16.07.2019
5142 Rain 18 1020 82 10000 1 150 10:20 16.07.2019
5143 Rain 17 1020 77 10000 0.5 170 09:44 16.07.2019
5144 Rain 17 1020 82 10000 1 120 09:21 16.07.2019
5145 Rain 17 1020 82 10000 1 120 08:58 16.07.2019
5146 Clouds 16 1020 82 10000 1.5 90 08:40 16.07.2019
5147 Clouds 16 1020 87 10000 1 0 08:18 16.07.2019
5148 Clouds 16 1020 87 10000 0.5 50 07:40 16.07.2019
5149 Clouds 15 1020 87 10000 0.5 50 07:18 16.07.2019
5150 Clouds 15 1020 82 10000 0.5 0 06:43 16.07.2019
5151 Clouds 15 1020 87 10000 0.5 140 05:57 16.07.2019
5152 Clouds 15 1020 87 10000 1 160 05:31 16.07.2019
5153 Clouds 15 1020 87 10000 1 150 04:52 16.07.2019
5154 Clouds 15 1020 87 10000 1 0 03:44 16.07.2019
5155 Clouds 16 1020 77 10000 0.5 0 02:53 16.07.2019
5156 Clouds 16 1020 77 10000 0.5 0 02:28 16.07.2019
5157 Clouds 16 1021 77 10000 0.5 0 01:40 16.07.2019
5158 Clouds 17 1021 63 10000 1.5 330 00:39 16.07.2019
5159 Clouds 18 1021 63 10000 1.5 330 00:19 16.07.2019
5160 Clouds 18 1021 60 10000 2.6 330 23:42 15.07.2019
5161 Clouds 18 1021 60 10000 2.6 330 23:23 15.07.2019
5162 Clouds 19 1021 60 10000 3.6 340 22:47 15.07.2019
5163 Clouds 20 1020 60 10000 4.1 320 22:22 15.07.2019
5164 Clouds 20 1020 56 10000 3.6 320 21:57 15.07.2019
5165 Clouds 21 1020 53 10000 3.1 290 21:39 15.07.2019
5166 Clouds 21 1020 53 10000 3.1 290 21:19 15.07.2019
5167 Clouds 22 1020 53 10000 3.1 280 20:45 15.07.2019
5168 Clouds 22 1020 53 10000 3.1 280 20:24 15.07.2019
5169 Clouds 23 1020 53 10000 2.1 250 19:58 15.07.2019
5170 Rain 23 1020 49 10000 3.6 240 19:38 15.07.2019
5171 Rain 23 1020 49 10000 3.6 240 19:19 15.07.2019
5172 Rain 23 1021 53 10000 1.5 0 18:46 15.07.2019
5173 Clear 23 1021 49 10000 1.5 0 18:22 15.07.2019
5174 Clear 23 1021 49 10000 1.5 0 17:57 15.07.2019
5175 Clear 23 1021 53 10000 1 0 17:39 15.07.2019
5176 Clear 23 1021 53 10000 1 0 17:21 15.07.2019
5177 Clouds 23 1021 53 10000 2.1 230 16:57 15.07.2019
5178 Clouds 23 1022 53 10000 1.5 0 16:37 15.07.2019
5179 Clouds 23 1022 53 10000 1.5 0 16:18 15.07.2019
5180 Clouds 23 1022 53 10000 0.5 0 15:40 15.07.2019
5181 Clouds 23 1022 53 10000 0.5 0 15:22 15.07.2019
5182 Clouds 22 1022 60 10000 1.5 0 14:58 15.07.2019
5183 Clouds 22 1023 60 10000 2.1 170 14:38 15.07.2019
5184 Clouds 22 1023 60 10000 2.1 170 14:19 15.07.2019
5185 Clouds 22 1023 64 10000 2.1 0 13:46 15.07.2019
5186 Clouds 21 1023 68 10000 1.5 0 13:18 15.07.2019
5187 Clouds 21 1023 72 10000 2.1 0 12:44 15.07.2019
5188 Clouds 20 1023 72 10000 2.1 0 12:25 15.07.2019
5189 Clear 20 1023 72 10000 1.5 0 11:45 15.07.2019
5190 Clear 19 1023 72 10000 1.5 0 11:26 15.07.2019
5191 Clear 19 1023 72 10000 1.5 0 11:26 15.07.2019
5192 Clear 18 1023 77 10000 1.5 0 10:59 15.07.2019
5193 Clear 18 1023 72 10000 2.1 0 10:40 15.07.2019
5194 Clear 17 1023 72 10000 2.1 0 10:22 15.07.2019
5195 Clear 15 1023 82 10000 2.1 180 09:42 15.07.2019
5196 Clear 15 1023 87 10000 1.5 0 09:19 15.07.2019
5197 Clear 14 1023 87 10000 0.5 0 08:45 15.07.2019
5198 Clear 13 1023 87 10000 0.5 0 08:24 15.07.2019
5199 Clear 12 1024 100 10000 1.76 157.811 07:43 15.07.2019
5200 Clear 12 1024 100 10000 1.76 157.811 07:21 15.07.2019
5201 Clear 11 1024 93 10000 1.5 0 06:40 15.07.2019
5202 Clear 11 1024 93 10000 1.5 170 06:18 15.07.2019
5203 Clear 11 1024 93 10000 0.5 0 05:38 15.07.2019
5204 Clear 11 1024 93 10000 0.5 0 04:45 15.07.2019
5205 Clear 12 1024 93 10000 0.5 0 04:21 15.07.2019
5206 Clouds 13 1024 87 10000 1.29 112.356 02:49 15.07.2019
5207 Clouds 14 1024 82 10000 1 0 01:54 15.07.2019
5208 Clouds 14 1024 82 10000 0.5 0 01:32 15.07.2019
5209 Clouds 14 1024 77 10000 1 0 00:53 15.07.2019
5210 Clouds 15 1024 72 10000 1.5 0 00:26 15.07.2019
5211 Clouds 16 1024 72 10000 1 0 23:57 14.07.2019
5212 Clouds 16 1024 72 10000 1.5 0 23:39 14.07.2019
5213 Clouds 16 1024 72 10000 1.5 0 23:19 14.07.2019
5214 Clouds 17 1024 68 10000 2.1 90 22:57 14.07.2019
5215 Clouds 17 1024 68 10000 1.5 0 22:37 14.07.2019
5216 Clouds 18 1024 63 10000 1.5 0 22:18 14.07.2019
5217 Clouds 19 1024 63 10000 1 0 21:42 14.07.2019
5218 Clouds 19 1024 63 10000 1 0 21:19 14.07.2019
5219 Clouds 19 1024 63 10000 1 0 21:19 14.07.2019
5220 Rain 20 1024 60 10000 1 0 20:57 14.07.2019
5221 Rain 20 1024 60 10000 1 0 20:57 14.07.2019
5222 Rain 20 1024 60 10000 1.5 0 20:37 14.07.2019
5223 Rain 20 1024 60 10000 1.5 0 20:19 14.07.2019
5224 Clear 20 1024 60 10000 1 0 19:44 14.07.2019
5225 Clear 20 1024 60 10000 1 0 19:25 14.07.2019
5226 Rain 20 1024 60 10000 1.5 0 18:57 14.07.2019
5227 Rain 20 1024 60 10000 1.5 0 18:38 14.07.2019
5228 Rain 20 1024 60 10000 1.5 0 18:20 14.07.2019
5229 Rain 20 1024 63 10000 2.1 80 17:47 14.07.2019
5230 Clouds 20 1024 63 10000 2.6 80 17:21 14.07.2019
5231 Clouds 21 1024 60 10000 2.1 70 16:47 14.07.2019
5232 Clouds 20 1024 60 10000 2.1 70 16:24 14.07.2019
5233 Rain 21 1024 60 10000 1 0 15:54 14.07.2019
5234 Clouds 20 1025 63 10000 1.5 0 15:29 14.07.2019
5235 Rain 19 1025 63 10000 2.1 70 14:50 14.07.2019
5236 Clouds 19 1025 63 10000 1 0 14:22 14.07.2019
5237 Clouds 19 1025 63 10000 1 0 13:57 14.07.2019
5238 Clouds 19 1025 68 10000 1 0 13:37 14.07.2019
5239 Clouds 19 1025 72 10000 1.5 0 13:19 14.07.2019
5240 Clouds 18 1025 77 10000 1 0 12:42 14.07.2019
5241 Clouds 18 1025 77 10000 1 0 12:22 14.07.2019
5242 Clouds 17 1025 82 10000 2.1 110 11:53 14.07.2019
5243 Clouds 17 1025 82 10000 1.5 0 11:27 14.07.2019
5244 Clouds 17 1025 87 10000 1 0 10:58 14.07.2019
5245 Clouds 16 1024 87 10000 1 0 10:40 14.07.2019
5246 Rain 16 1024 87 10000 0.5 0 10:19 14.07.2019
5247 Rain 15 1024 93 10000 2.42 104.864 09:42 14.07.2019
5248 Rain 15 1024 93 10000 1.66 80.611 09:23 14.07.2019
5249 Clouds 14 1024 93 10000 0.5 0 08:41 14.07.2019
5250 Clouds 14 1024 100 10000 0.5 0 07:57 14.07.2019
5251 Drizzle 14 1024 93 10000 1 0 07:35 14.07.2019
5252 Rain 13 1024 100 10000 0.5 0 06:40 14.07.2019
5253 Rain 13 1024 93 10000 1.5 300 05:44 14.07.2019
5254 Clear 13 1024 100 10000 0.5 0 03:46 14.07.2019
5255 Clear 13 1024 100 10000 0.5 0 03:28 14.07.2019
5256 Clear 13 1024 93 10000 1 190 02:39 14.07.2019
5257 Clear 13 1024 93 10000 1 190 02:20 14.07.2019
5258 Clear 14 1024 93 10000 1 250 01:31 14.07.2019
5259 Clear 14 1024 87 10000 2.1 280 00:55 14.07.2019
5260 Clear 14 1024 87 10000 2.6 270 00:37 14.07.2019
5261 Clear 14 1024 87 10000 2.6 270 00:19 14.07.2019
5262 Rain 15 1024 82 10000 2.6 280 23:43 13.07.2019
5263 Rain 15 1024 82 10000 2.6 280 23:23 13.07.2019
5264 Clear 16 1024 72 10000 3.6 280 22:43 13.07.2019
5265 Clear 16 1024 72 10000 3.6 280 22:22 13.07.2019
5266 Rain 17 1024 72 10000 4.6 290 21:54 13.07.2019
5267 Rain 17 1024 72 10000 4.6 280 21:23 13.07.2019
5268 Rain 17 1024 72 10000 4.6 280 21:23 13.07.2019
5269 Clouds 18 1023 72 10000 5.1 280 20:59 13.07.2019
5270 Clouds 18 1023 72 10000 4.6 290 20:39 13.07.2019
5271 Clouds 19 1023 72 10000 4.6 290 20:21 13.07.2019
5272 Rain 19 1023 68 10000 5.7 270 19:41 13.07.2019
5273 Rain 19 1023 68 10000 5.7 270 19:23 13.07.2019
5274 Clouds 20 1023 64 10000 5.1 290 18:40 13.07.2019
5275 Clouds 20 1023 64 10000 5.1 290 18:19 13.07.2019
5276 Clouds 20 1023 72 10000 4.6 280 17:38 13.07.2019
5277 Clouds 20 1023 72 10000 4.1 280 17:19 13.07.2019
5278 Clouds 20 1023 72 10000 4.6 280 16:45 13.07.2019
5279 Clouds 20 1023 72 10000 4.6 280 16:26 13.07.2019
5280 Clouds 19 1023 72 10000 4.1 270 15:48 13.07.2019
5281 Clouds 20 1024 72 10000 4.1 270 15:25 13.07.2019
5282 Clouds 19 1024 72 10000 5.1 260 14:57 13.07.2019
5283 Clouds 19 1024 77 10000 3.6 290 14:39 13.07.2019
5284 Clouds 19 1024 77 10000 3.6 290 14:20 13.07.2019
5285 Clouds 18 1023 82 10000 5.1 290 13:43 13.07.2019
5286 Clouds 18 1023 77 10000 4.6 280 13:19 13.07.2019
5287 Clouds 18 1023 77 10000 3.1 300 12:41 13.07.2019
5288 Clouds 17 1023 77 10000 3.1 300 12:23 13.07.2019
5289 Clouds 17 1023 77 10000 3.6 300 11:57 13.07.2019
5290 Clouds 17 1023 77 10000 3.1 290 11:37 13.07.2019
5291 Clouds 17 1023 77 10000 3.1 290 11:18 13.07.2019
5292 Clouds 16 1023 82 10000 2.6 290 10:40 13.07.2019
5293 Clouds 16 1023 82 10000 2.6 290 10:22 13.07.2019
5294 Drizzle 16 1022 87 10000 1.5 0 09:42 13.07.2019
5295 Drizzle 16 1022 87 10000 1.5 0 09:24 13.07.2019
5296 Clouds 16 1022 87 10000 2.1 280 08:55 13.07.2019
5297 Clouds 15 1022 87 10000 2.6 250 08:27 13.07.2019
5298 Clouds 15 1022 87 10000 2.1 270 07:50 13.07.2019
5299 Drizzle 15 1022 87 10000 2.1 290 07:23 13.07.2019
5300 Clouds 14 1021 87 10000 2.1 280 06:29 13.07.2019
5301 Clouds 14 1021 93 10000 2.1 280 05:46 13.07.2019
5302 Clouds 15 1021 82 10000 3.6 300 04:39 13.07.2019
5303 Clouds 14 1021 82 10000 3.6 300 04:19 13.07.2019
5304 Clouds 15 1021 82 10000 3.1 290 03:40 13.07.2019
5305 Clouds 15 1021 87 10000 1.5 250 02:52 13.07.2019
5306 Clouds 15 1021 93 10000 2.1 250 01:52 13.07.2019
5307 Clouds 15 1021 93 10000 1.5 0 01:21 13.07.2019
5308 Clouds 15 1021 87 10000 1.5 0 00:58 13.07.2019
5309 Clouds 15 1021 87 10000 1.5 0 00:58 13.07.2019
5310 Clouds 15 1021 77 10000 2.6 280 00:20 13.07.2019
5311 Clouds 15 1021 77 10000 2.6 280 23:49 12.07.2019
5312 Clouds 16 1020 77 10000 4.1 300 23:30 12.07.2019
5313 Clouds 16 1020 82 10000 4.6 300 22:57 12.07.2019
5314 Clouds 16 1020 77 10000 5.1 290 22:38 12.07.2019
5315 Clouds 16 1020 77 10000 5.1 290 22:18 12.07.2019
5316 Clouds 17 1019 72 10000 6.7 300 21:41 12.07.2019
5317 Rain 18 1019 72 10000 5.7 290 21:19 12.07.2019
5318 Rain 18 1019 72 10000 5.7 290 21:19 12.07.2019
5319 Rain 18 1019 72 10000 7.2 290 20:43 12.07.2019
5320 Rain 18 1019 72 10000 7.2 290 20:22 12.07.2019
5321 Rain 18 1018 72 10000 5.7 300 19:42 12.07.2019
5322 Rain 19 1018 72 10000 5.7 300 19:24 12.07.2019
5323 Rain 19 1018 68 10000 7.2 290 18:49 12.07.2019
5324 Rain 20 1018 68 10000 7.2 290 18:22 12.07.2019
5325 Clouds 20 1017 72 10000 7.7 280 17:55 12.07.2019
5326 Clouds 20 1017 68 10000 5.7 300 17:37 12.07.2019
5327 Clouds 20 1017 64 10000 5.7 310 17:19 12.07.2019
5328 Clouds 20 1017 68 10000 6.2 290 16:36 12.07.2019
5329 Clouds 20 1017 68 10000 6.2 290 16:18 12.07.2019
5330 Clouds 19 1016 72 10000 7.7 290 15:38 12.07.2019
5331 Clouds 19 1016 72 10000 6.7 290 15:19 12.07.2019
5332 Clouds 19 1016 77 10000 7.2 290 14:44 12.07.2019
5333 Clouds 19 1016 77 10000 7.2 290 14:21 12.07.2019
5334 Rain 18 1015 82 10000 6.2 280 13:47 12.07.2019
5335 Rain 18 1015 82 10000 6.2 280 13:23 12.07.2019
5336 Clouds 18 1015 88 10000 6.2 300 12:43 12.07.2019
5337 Rain 17 1015 88 10000 6.2 300 12:23 12.07.2019
5338 Rain 17 1015 93 10000 4.6 290 11:47 12.07.2019
5339 Rain 17 1015 93 10000 4.6 290 11:24 12.07.2019
5340 Rain 17 1015 93 10000 4.6 290 11:24 12.07.2019
5341 Drizzle 16 1014 93 10000 4.1 290 10:59 12.07.2019
5342 Rain 16 1014 93 8000 4.6 290 10:41 12.07.2019
5343 Rain 16 1014 93 8000 4.6 290 10:23 12.07.2019
5344 Rain 16 1014 87 5000 4.1 260 09:53 12.07.2019
5345 Drizzle 16 1014 93 10000 3.1 270 09:27 12.07.2019
5346 Rain 15 1013 100 10000 2.6 270 08:50 12.07.2019
5347 Rain 15 1013 93 10000 2.6 270 08:24 12.07.2019
5348 Clouds 15 1013 100 10000 2.1 260 07:47 12.07.2019
5349 Clouds 15 1013 100 10000 2.1 260 07:29 12.07.2019
5350 Mist 15 1012 100 4500 1.5 230 06:30 12.07.2019
5351 Mist 15 1012 93 4500 1.5 0 05:52 12.07.2019
5352 Fog 14 1012 93 900 1.5 0 04:52 12.07.2019
5353 Fog 14 1012 93 50 1.5 0 01:52 12.07.2019
5354 Fog 14 1012 93 150 1.5 230 01:32 12.07.2019
5355 Clouds 15 1012 100 6000 1.5 210 00:36 12.07.2019
5356 Rain 16 1012 93 8000 1.5 180 23:57 11.07.2019
5357 Rain 16 1012 93 9000 1 0 23:38 11.07.2019
5358 Rain 16 1012 93 9000 1 0 23:19 11.07.2019
5359 Rain 16 1012 93 4000 2.6 290 22:43 11.07.2019
5360 Rain 17 1012 93 4000 2.6 290 22:24 11.07.2019
5361 Rain 17 1012 93 10000 3.6 310 21:44 11.07.2019
5362 Rain 18 1012 93 10000 3.6 310 21:20 11.07.2019
5363 Rain 18 1011 88 10000 3.6 300 20:59 11.07.2019
5364 Rain 18 1011 93 10000 4.1 290 20:41 11.07.2019
5365 Rain 19 1011 93 10000 4.1 290 20:22 11.07.2019
5366 Rain 19 1011 93 10000 5.1 290 19:55 11.07.2019
5367 Rain 19 1011 100 10000 4.6 300 19:36 11.07.2019
5368 Rain 19 1011 77 10000 3.6 220 19:18 11.07.2019
5369 Rain 20 1011 73 10000 4.1 230 18:39 11.07.2019
5370 Rain 21 1011 77 10000 4.1 240 18:21 11.07.2019
5371 Rain 21 1011 82 10000 3.1 250 17:46 11.07.2019
5372 Rain 21 1011 82 10000 3.1 250 17:28 11.07.2019
5373 Rain 21 1011 88 10000 4.6 290 16:52 11.07.2019
5374 Rain 21 1011 72 10000 3.1 250 16:24 11.07.2019
5375 Rain 21 1011 68 10000 3.6 270 15:55 11.07.2019
5376 Rain 21 1011 73 10000 3.1 270 15:37 11.07.2019
5377 Rain 21 1011 73 10000 3.1 270 15:37 11.07.2019
5378 Rain 21 1011 77 10000 2.6 300 15:18 11.07.2019
5379 Rain 21 1012 77 10000 2.1 280 14:43 11.07.2019
5380 Rain 21 1012 77 10000 2.1 280 14:22 11.07.2019
5381 Rain 20 1012 88 8000 2.6 210 13:47 11.07.2019
5382 Rain 19 1012 88 8000 2.6 210 13:28 11.07.2019
5383 Rain 19 1012 77 10000 3.6 230 12:46 11.07.2019
5384 Rain 19 1012 77 10000 3.6 230 12:28 11.07.2019
5385 Drizzle 19 1012 77 10000 3.1 230 11:58 11.07.2019
5386 Drizzle 19 1012 77 10000 4.6 230 11:39 11.07.2019
5387 Drizzle 19 1012 77 10000 4.6 230 11:21 11.07.2019
5388 Clouds 19 1012 82 10000 4.6 240 10:45 11.07.2019
5389 Clouds 18 1012 82 10000 4.6 240 10:19 11.07.2019
5390 Rain 18 1012 88 10000 2.1 200 09:44 11.07.2019
5391 Rain 17 1012 88 10000 2.1 200 09:26 11.07.2019
5392 Rain 17 1012 93 10000 1.5 0 08:52 11.07.2019
5393 Drizzle 16 1012 87 10000 1.5 0 08:26 11.07.2019
5394 Clouds 16 1012 93 10000 1.5 0 07:52 11.07.2019
5395 Drizzle 15 1012 93 10000 1.5 0 07:34 11.07.2019
5396 Rain 15 1012 93 10000 1.5 0 06:41 11.07.2019
5397 Clouds 15 1012 93 10000 2.1 190 05:51 11.07.2019
5398 Clouds 15 1012 93 10000 1 0 05:29 11.07.2019
5399 Clouds 15 1012 93 10000 1 0 04:54 11.07.2019
5400 Clouds 15 1014 93 10000 1 0 02:41 11.07.2019
5401 Rain 16 1014 93 10000 2.1 220 01:27 11.07.2019
5402 Rain 16 1015 87 10000 2.1 210 00:27 11.07.2019
5403 Rain 17 1014 77 10000 3.1 250 23:37 10.07.2019
5404 Rain 17 1014 77 10000 3.1 250 23:18 10.07.2019
5405 Rain 17 1014 77 10000 3.1 270 22:44 10.07.2019
5406 Rain 18 1015 77 10000 2.6 270 22:20 10.07.2019
5407 Clouds 18 1015 68 10000 2.1 280 21:45 10.07.2019
5408 Clouds 18 1015 68 10000 2.1 280 21:26 10.07.2019
5409 Clouds 19 1015 68 10000 2.6 290 20:56 10.07.2019
5410 Clouds 19 1015 68 10000 2.6 290 20:56 10.07.2019
5411 Clouds 19 1015 68 10000 2.6 290 20:38 10.07.2019
5412 Clouds 19 1015 68 10000 2.6 290 20:18 10.07.2019
5413 Clouds 20 1015 64 10000 2.6 300 19:45 10.07.2019
5414 Clouds 20 1015 64 10000 2.6 300 19:22 10.07.2019
5415 Clouds 20 1016 68 10000 2.1 290 18:55 10.07.2019
5416 Clouds 20 1016 68 10000 3.1 290 18:37 10.07.2019
5417 Clouds 21 1016 68 10000 3.1 290 18:19 10.07.2019
5418 Clouds 21 1016 68 10000 4.6 330 17:40 10.07.2019
5419 Clouds 20 1016 72 10000 6.2 310 17:19 10.07.2019
5420 Clouds 20 1016 68 10000 2.6 270 16:22 10.07.2019
5421 Clouds 20 1016 68 10000 3.6 230 15:59 10.07.2019
5422 Clouds 20 1017 68 10000 3.6 230 15:40 10.07.2019
5423 Clouds 20 1017 68 10000 3.6 230 15:18 10.07.2019
5424 Clouds 21 1017 72 10000 3.1 210 14:39 10.07.2019
5425 Clouds 20 1017 72 10000 3.1 210 14:21 10.07.2019
5426 Clouds 21 1017 72 10000 3.1 210 13:44 10.07.2019
5427 Clouds 21 1017 72 10000 3.1 210 13:19 10.07.2019
5428 Clouds 21 1017 72 10000 3.1 210 13:19 10.07.2019
5429 Clouds 20 1017 77 10000 3.6 210 12:55 10.07.2019
5430 Clouds 20 1018 77 10000 3.1 210 12:36 10.07.2019
5431 Clouds 19 1018 77 10000 3.1 210 12:18 10.07.2019
5432 Clouds 19 1018 77 10000 3.1 210 11:40 10.07.2019
5433 Clouds 19 1018 77 10000 3.1 210 11:20 10.07.2019
5434 Rain 18 1018 82 10000 2.6 180 10:41 10.07.2019
5435 Rain 17 1018 87 10000 1 0 10:19 10.07.2019
5436 Rain 17 1018 87 10000 1 0 10:19 10.07.2019
5437 Mist 17 1018 93 10000 1.5 0 09:42 10.07.2019
5438 Mist 16 1018 93 10000 1.5 0 09:20 10.07.2019
5439 Mist 16 1018 87 10000 1.5 0 08:49 10.07.2019
5440 Rain 15 1018 87 10000 1.5 0 08:28 10.07.2019
5441 Rain 15 1018 87 10000 1 0 07:53 10.07.2019
5442 Clouds 15 1018 93 10000 1 0 07:28 10.07.2019
5443 Clouds 14 1018 87 10000 1 0 06:41 10.07.2019
5444 Clouds 15 1018 93 9000 1.5 0 05:44 10.07.2019
5445 Clouds 15 1019 93 9000 1.5 0 04:35 10.07.2019
5446 Rain 15 1019 93 10000 1.5 0 03:20 10.07.2019
5447 Rain 16 1020 93 10000 1 170 00:45 10.07.2019
5448 Rain 16 1020 93 10000 1 160 23:58 09.07.2019
5449 Clouds 16 1020 93 10000 1 150 23:39 09.07.2019
5450 Clouds 16 1020 93 10000 1 150 23:20 09.07.2019
5451 Clouds 17 1020 93 10000 1 0 22:40 09.07.2019
5452 Clouds 17 1020 93 10000 1 0 22:22 09.07.2019
5453 Clouds 17 1020 93 10000 1.5 240 21:47 09.07.2019
5454 Clouds 17 1020 93 10000 1.5 240 21:27 09.07.2019
5455 Rain 17 1020 88 10000 1.5 0 20:57 09.07.2019
5456 Rain 17 1020 93 10000 1.5 0 20:39 09.07.2019
5457 Rain 17 1020 93 10000 1.5 0 20:21 09.07.2019
5458 Rain 17 1020 88 10000 2.1 240 19:39 09.07.2019
5459 Rain 17 1020 88 10000 2.1 240 19:19 09.07.2019
5460 Rain 17 1020 93 10000 3.6 270 18:40 09.07.2019
5461 Rain 17 1021 88 10000 2.1 280 18:22 09.07.2019
5462 Rain 18 1021 93 7000 2.6 290 17:44 09.07.2019
5463 Rain 18 1021 93 7000 2.6 290 17:22 09.07.2019
5464 Rain 18 1021 93 6000 2.1 270 16:59 09.07.2019
5465 Rain 18 1021 88 8000 2.1 240 16:41 09.07.2019
5466 Rain 18 1021 88 8000 2.1 240 16:22 09.07.2019
5467 Rain 18 1021 82 7000 2.6 280 15:44 09.07.2019
5468 Rain 18 1021 82 7000 2.6 280 15:25 09.07.2019
5469 Drizzle 18 1021 82 10000 3.1 250 14:45 09.07.2019
5470 Drizzle 18 1021 82 10000 3.1 250 14:24 09.07.2019
5471 Rain 18 1021 82 10000 1.5 250 13:57 09.07.2019
5472 Drizzle 18 1021 77 10000 1 0 13:39 09.07.2019
5473 Rain 18 1021 77 10000 1.5 270 13:20 09.07.2019
5474 Drizzle 17 1021 77 10000 2.1 260 12:39 09.07.2019
5475 Drizzle 17 1021 82 10000 2.1 260 12:19 09.07.2019
5476 Drizzle 17 1021 82 10000 2.1 260 11:56 09.07.2019
5477 Drizzle 17 1021 77 10000 2.1 260 11:37 09.07.2019
5478 Drizzle 16 1021 77 10000 2.1 260 11:19 09.07.2019
5479 Clouds 16 1021 82 10000 2.1 230 10:47 09.07.2019
5480 Clouds 15 1021 82 10000 2.1 220 10:26 09.07.2019
5481 Clouds 15 1021 82 10000 0.5 0 09:39 09.07.2019
5482 Clouds 15 1021 82 10000 0.5 0 09:20 09.07.2019
5483 Clouds 14 1021 87 10000 1 0 08:45 09.07.2019
5484 Clouds 14 1021 87 10000 1 0 08:45 09.07.2019
5485 Clouds 14 1021 87 10000 1 0 08:21 09.07.2019
5486 Clouds 14 1021 87 10000 2.1 270 03:52 05.07.2019
5487 Clouds 14 1021 87 10000 2.1 260 03:24 05.07.2019
5488 Clouds 15 1022 82 10000 2.6 290 02:53 05.07.2019
5489 Clouds 15 1022 82 10000 2.1 290 02:34 05.07.2019
5490 Clouds 15 1022 77 10000 3.1 290 01:37 05.07.2019
5491 Clouds 16 1022 72 10000 2.6 300 00:52 05.07.2019
5492 Clouds 16 1022 72 10000 1.5 290 00:32 05.07.2019
5493 Clouds 16 1022 67 10000 2.1 250 23:47 04.07.2019
5494 Clouds 16 1022 72 10000 1.5 220 23:19 04.07.2019
5495 Clouds 17 1022 67 10000 2.1 280 22:43 04.07.2019
5496 Clouds 17 1022 67 10000 2.1 280 22:24 04.07.2019
5497 Clouds 17 1022 59 10000 3.1 280 21:45 04.07.2019
5498 Clouds 18 1022 59 10000 3.1 280 21:26 04.07.2019
5499 Clouds 18 1023 59 10000 3.6 300 20:59 04.07.2019
5500 Clouds 18 1023 63 10000 4.1 300 20:38 04.07.2019
5501 Clouds 18 1023 55 10000 5.1 280 20:20 04.07.2019
5502 Clouds 18 1023 55 10000 5.1 290 19:42 04.07.2019
5503 Clouds 19 1023 55 10000 5.7 300 19:22 04.07.2019
5504 Clouds 19 1023 55 10000 5.7 300 19:22 04.07.2019
5505 Clouds 19 1023 55 10000 5.7 300 18:56 04.07.2019
5506 Clear 19 1023 77 10000 4.6 280 18:37 04.07.2019
5507 Clouds 20 1024 56 10000 5.1 290 18:18 04.07.2019
5508 Clouds 20 1024 52 10000 5.1 290 17:43 04.07.2019
5509 Clouds 20 1024 52 10000 5.1 290 17:19 04.07.2019
5510 Clouds 21 1024 52 10000 4.6 280 15:57 04.07.2019
5511 Clouds 21 1025 49 10000 6.7 270 15:39 04.07.2019
5512 Clouds 21 1025 49 10000 6.7 270 15:18 04.07.2019
5513 Clouds 21 1025 49 10000 6.7 270 15:18 04.07.2019
5514 Clouds 21 1025 60 10000 4.1 280 14:41 04.07.2019
5515 Clouds 21 1025 60 10000 4.1 280 14:22 04.07.2019
5516 Clouds 20 1025 60 10000 4.1 280 13:58 04.07.2019
5517 Clouds 20 1025 63 10000 4.1 260 13:39 04.07.2019
5518 Clouds 20 1026 68 10000 4.6 280 13:21 04.07.2019
5519 Clouds 20 1026 68 10000 3.6 250 12:40 04.07.2019
5520 Haze 19 1026 72 1400 3.6 250 12:21 04.07.2019
5521 Haze 18 1026 72 1400 3.6 250 11:57 04.07.2019
5522 Clouds 18 1026 82 10000 2.1 230 11:37 04.07.2019
5523 Clouds 18 1026 82 10000 2.1 230 11:18 04.07.2019
5524 Clouds 17 1027 82 10000 1.5 0 10:39 04.07.2019
5525 Clouds 17 1027 82 10000 1.5 0 10:19 04.07.2019
5526 Clouds 16 1027 93 9000 1.5 0 09:39 04.07.2019
5527 Clouds 15 1027 93 9000 1.5 0 09:20 04.07.2019
5528 Clouds 15 1027 87 9000 2.1 260 08:55 04.07.2019
5529 Clouds 14 1027 87 10000 1.5 220 08:19 04.07.2019
5530 Clouds 13 1027 93 10000 1.5 0 07:43 04.07.2019
5531 Clouds 12 1027 93 10000 1.5 0 07:21 04.07.2019
5532 Clouds 12 1027 93 10000 1 160 06:38 04.07.2019
5533 Clouds 11 1027 87 10000 1.5 170 05:50 04.07.2019
5534 Clouds 11 1027 87 10000 1.5 160 05:31 04.07.2019
5535 Clear 12 1027 81 10000 1 140 02:41 04.07.2019
5536 Clear 13 1028 76 10000 0.5 0 01:28 04.07.2019
5537 Clear 13 1028 76 10000 1 210 00:57 04.07.2019
5538 Clear 14 1028 67 10000 2.1 290 23:56 03.07.2019
5539 Clear 15 1028 63 10000 2.6 290 23:21 03.07.2019
5540 Clear 16 1028 63 10000 3.1 280 22:59 03.07.2019
5541 Clear 16 1027 59 10000 4.1 300 22:39 03.07.2019
5542 Clear 16 1027 59 10000 4.1 300 22:21 03.07.2019
5543 Clear 17 1027 55 10000 4.1 290 21:56 03.07.2019
5544 Clear 18 1027 52 10000 4.1 300 21:37 03.07.2019
5545 Clear 19 1027 55 10000 4.1 300 20:57 03.07.2019
5546 Clear 19 1027 52 10000 4.1 310 20:39 03.07.2019
5547 Clear 19 1027 52 10000 4.1 310 20:19 03.07.2019
5548 Clear 20 1028 52 10000 4.1 330 19:48 03.07.2019
5549 Clear 20 1028 52 10000 4.1 330 19:29 03.07.2019
5550 Clear 20 1028 52 10000 4.1 310 18:46 03.07.2019
5551 Clear 21 1028 43 10000 2.6 250 18:24 03.07.2019
5552 Clear 20 1028 43 10000 2.6 250 17:54 03.07.2019
5553 Clear 20 1028 45 10000 2.6 0 17:20 03.07.2019
5554 Clear 20 1028 42 10000 2.1 0 16:59 03.07.2019
5555 Clear 20 1028 45 10000 2.6 0 16:40 03.07.2019
5556 Clear 20 1028 42 10000 2.1 320 16:19 03.07.2019
5557 Clear 20 1028 45 10000 3.1 270 15:47 03.07.2019
5558 Clear 20 1028 45 10000 3.1 270 15:27 03.07.2019
5559 Clear 20 1028 45 10000 2.1 250 14:51 03.07.2019
5560 Clear 19 1028 48 10000 2.1 0 14:23 03.07.2019
5561 Clear 19 1028 48 10000 2.6 320 13:50 03.07.2019
5562 Clouds 19 1029 48 10000 3.1 260 13:31 03.07.2019
5563 Clouds 19 1029 51 10000 3.1 270 12:54 03.07.2019
5564 Clouds 18 1028 63 10000 2.1 190 12:20 03.07.2019
5565 Clear 18 1028 51 10000 1 0 11:57 03.07.2019
5566 Clear 17 1028 51 10000 1.5 0 11:39 03.07.2019
5567 Clear 17 1028 51 10000 1.5 0 11:19 03.07.2019
5568 Clear 16 1028 62 10000 1.5 0 10:40 03.07.2019
5569 Clear 16 1028 62 10000 2.1 350 10:21 03.07.2019
5570 Clear 15 1028 76 10000 0.5 0 09:42 03.07.2019
5571 Clear 14 1028 76 10000 0.5 0 09:20 03.07.2019
5572 Clear 14 1028 81 10000 0.5 0 08:53 03.07.2019
5573 Clear 13 1028 87 10000 0.5 0 08:31 03.07.2019
5574 Clouds 11 1028 87 10000 1 0 07:49 03.07.2019
5575 Clouds 11 1028 76 10000 1 340 07:31 03.07.2019
5576 Clear 9 1027 93 10000 0.5 160 06:35 03.07.2019
5577 Clear 9 1027 93 10000 1 150 05:39 03.07.2019
5578 Clear 9 1027 87 10000 1 0 04:50 03.07.2019
5579 Clear 10 1027 93 10000 0.5 0 03:27 03.07.2019
5580 Clear 11 1027 87 10000 0.5 0 02:37 03.07.2019
5581 Clear 12 1027 87 10000 2.1 150 01:22 03.07.2019
5582 Clear 12 1027 81 10000 1.5 0 00:52 03.07.2019
5583 Clear 12 1027 81 10000 1.5 0 00:33 03.07.2019
5584 Clouds 13 1027 71 10000 1.5 260 23:38 02.07.2019
5585 Clouds 13 1027 71 10000 1.5 260 23:38 02.07.2019
5586 Clear 14 1027 71 10000 4.6 300 23:20 02.07.2019
5587 Clear 14 1027 71 10000 4.6 300 22:57 02.07.2019
5588 Clouds 14 1027 62 10000 2.6 290 22:38 02.07.2019
5589 Clear 15 1027 62 10000 5.7 310 22:20 02.07.2019
5590 Clouds 16 1026 59 10000 4.6 290 21:46 02.07.2019
5591 Clouds 16 1026 59 10000 4.6 290 21:46 02.07.2019
5592 Clouds 16 1026 59 10000 4.6 290 21:24 02.07.2019
5593 Clouds 17 1027 59 10000 6.7 310 20:58 02.07.2019
5594 Clouds 17 1026 55 10000 4.6 290 20:40 02.07.2019
5595 Clouds 17 1026 51 10000 6.2 290 20:21 02.07.2019
5596 Clouds 17 1026 45 10000 6.7 290 19:44 02.07.2019
5597 Clouds 18 1026 48 10000 5.7 300 19:24 02.07.2019
5598 Clouds 18 1026 51 10000 5.1 320 18:58 02.07.2019
5599 Clouds 18 1026 48 10000 6.7 300 18:19 02.07.2019
5600 Clouds 18 1026 55 10000 6.7 300 17:45 02.07.2019
5601 Clouds 18 1026 55 10000 6.7 300 17:45 02.07.2019
5602 Clouds 18 1026 55 10000 6.7 300 17:25 02.07.2019
5603 Clouds 18 1026 55 10000 7.2 300 16:57 02.07.2019
5604 Clouds 18 1026 59 10000 7.2 300 16:39 02.07.2019
5605 Clouds 18 1026 59 10000 7.2 300 16:21 02.07.2019
5606 Clouds 18 1026 59 10000 6.2 310 15:40 02.07.2019
5607 Clouds 17 1026 55 10000 5.7 320 15:21 02.07.2019
5608 Clouds 18 1026 67 10000 6.2 310 14:45 02.07.2019
5609 Clouds 17 1026 67 10000 6.2 310 14:25 02.07.2019
5610 Clouds 17 1026 63 10000 4.6 290 13:43 02.07.2019
5611 Clouds 17 1026 59 10000 5.7 280 13:19 02.07.2019
5612 Clouds 17 1026 59 10000 4.6 310 12:44 02.07.2019
5613 Clouds 16 1026 59 10000 4.6 290 12:23 02.07.2019
5614 Clouds 16 1026 77 10000 5.1 300 11:44 02.07.2019
5615 Clouds 16 1026 77 10000 5.1 300 11:24 02.07.2019
5616 Clouds 16 1026 72 10000 4.6 310 10:59 02.07.2019
5617 Clouds 16 1026 77 10000 4.6 310 10:37 02.07.2019
5618 Clouds 15 1026 72 10000 4.1 320 10:18 02.07.2019
5619 Clouds 14 1026 87 10000 2.1 260 09:23 02.07.2019
5620 Clouds 14 1026 87 10000 1.5 260 08:59 02.07.2019
5621 Clouds 13 1026 82 10000 4.1 290 08:38 02.07.2019
5622 Clouds 13 1026 87 10000 1.5 0 08:19 02.07.2019
5623 Clouds 12 1026 93 10000 1 0 07:43 02.07.2019
5624 Clear 11 1026 93 10000 0.5 0 07:20 02.07.2019
5625 Clear 10 1026 93 10000 1.5 0 06:38 02.07.2019
5626 Clouds 10 1026 93 10000 1.5 0 05:35 02.07.2019
5627 Clear 11 1025 87 10000 1 0 02:41 02.07.2019
5628 Clouds 12 1024 81 10000 1.5 270 00:28 02.07.2019
5629 Clouds 13 1024 76 10000 5.1 300 23:39 01.07.2019
5630 Clear 13 1023 67 10000 5.1 300 23:18 01.07.2019
5631 Clouds 14 1023 67 10000 7.7 300 22:42 01.07.2019
5632 Clouds 14 1023 67 10000 7.7 300 22:23 01.07.2019
5633 Clear 15 1023 62 10000 8.2 300 21:44 01.07.2019
5634 Clouds 15 1023 62 10000 8.2 300 21:25 01.07.2019
5635 Clouds 16 1022 63 10000 6.7 290 20:47 01.07.2019
5636 Clouds 16 1022 63 10000 6.7 290 20:21 01.07.2019
5637 Clouds 16 1022 63 10000 6.7 290 20:21 01.07.2019
5638 Clouds 16 1020 63 10000 7.7 290 19:55 01.07.2019
5639 Clouds 16 1022 63 10000 7.2 290 19:36 01.07.2019
5640 Clouds 17 1023 63 10000 7.7 310 19:18 01.07.2019
5641 Clouds 17 1022 67 10000 8.2 310 18:43 01.07.2019
5642 Clouds 17 1022 67 10000 8.2 310 18:25 01.07.2019
5643 Clouds 17 1021 67 10000 7.7 280 17:46 01.07.2019
5644 Clouds 17 1021 67 10000 7.7 280 17:26 01.07.2019
5645 Clouds 17 1021 67 10000 7.7 280 17:26 01.07.2019
5646 Clouds 17 1021 67 10000 8.2 290 16:57 01.07.2019
5647 Clouds 17 1021 67 10000 8.2 290 16:39 01.07.2019
5648 Rain 17 1021 63 10000 8.2 280 16:20 01.07.2019
5649 Clouds 17 1020 67 10000 8.2 280 15:43 01.07.2019
5650 Clouds 17 1020 67 10000 8.2 270 15:23 01.07.2019
5651 Rain 17 1020 72 10000 7.7 270 14:44 01.07.2019
5652 Rain 17 1020 77 10000 6.7 270 14:20 01.07.2019
5653 Rain 16 1019 77 10000 6.7 270 13:47 01.07.2019
5654 Rain 16 1019 77 10000 6.7 270 13:24 01.07.2019
5655 Rain 15 1019 77 10000 6.7 270 12:57 01.07.2019
5656 Rain 15 1019 77 10000 8.2 270 12:38 01.07.2019
5657 Rain 15 1019 77 10000 8.2 270 12:19 01.07.2019
5658 Clouds 15 1018 77 10000 7.7 270 11:44 01.07.2019
5659 Drizzle 15 1018 77 10000 6.7 270 11:22 01.07.2019
5660 Clouds 15 1018 76 10000 7.7 260 10:48 01.07.2019
5661 Clouds 15 1017 76 10000 6.7 260 10:24 01.07.2019
5662 Clouds 15 1017 76 10000 5.7 270 09:58 01.07.2019
5663 Rain 14 1017 76 10000 5.7 270 09:40 01.07.2019
5664 Rain 14 1017 76 10000 5.7 250 09:21 01.07.2019
5665 Rain 14 1016 76 10000 6.2 260 08:38 01.07.2019
5666 Rain 14 1016 71 10000 7.2 260 07:57 01.07.2019
5667 Clouds 14 1016 76 10000 5.7 260 07:27 01.07.2019
5668 Clouds 14 1016 71 10000 6.2 260 06:27 01.07.2019
5669 Clouds 15 1015 87 10000 2.1 220 01:43 01.07.2019
5670 Rain 15 1015 77 10000 2.6 210 00:48 01.07.2019
5671 Rain 16 1015 77 10000 4.6 220 00:29 01.07.2019
5672 Rain 16 1015 77 10000 4.1 220 23:56 30.06.2019
5673 Rain 16 1015 77 10000 4.6 220 23:21 30.06.2019
5674 Clouds 17 1014 72 10000 6.7 230 22:49 30.06.2019
5675 Clouds 17 1014 67 10000 6.7 230 22:20 30.06.2019
5676 Clouds 17 1014 67 10000 6.7 230 22:20 30.06.2019
5677 Clouds 17 1014 67 10000 7.2 230 21:42 30.06.2019
5678 Clouds 18 1014 68 10000 7.2 230 21:20 30.06.2019
5679 Clouds 18 1014 63 10000 8.7 250 20:56 30.06.2019
5680 Clouds 18 1014 63 10000 8.7 250 20:38 30.06.2019
5681 Rain 18 1014 63 10000 9.3 240 20:18 30.06.2019
5682 Rain 19 1014 63 10000 8.7 240 19:44 30.06.2019
5683 Clouds 19 1014 60 10000 8.7 240 19:24 30.06.2019
5684 Clouds 20 1015 52 10000 8.7 240 18:26 30.06.2019
5685 Clouds 20 1015 56 10000 9.8 240 17:59 30.06.2019
5686 Clouds 20 1015 56 10000 9.8 240 17:39 30.06.2019
5687 Clouds 20 1015 52 10000 10.3 250 17:18 30.06.2019
5688 Clouds 20 1014 56 10000 8.7 240 16:48 30.06.2019
5689 Clouds 21 1014 56 10000 9.3 240 16:26 30.06.2019
5690 Clouds 21 1014 56 10000 8.7 240 15:38 30.06.2019
5691 Clouds 21 1014 60 10000 8.2 240 15:19 30.06.2019
5692 Clouds 20 1014 59 10000 7.2 230 14:53 30.06.2019
5693 Clouds 20 1014 63 10000 6.2 240 14:35 30.06.2019
5694 Clouds 20 1014 63 10000 6.7 230 13:49 30.06.2019
5695 Clouds 20 1014 59 10000 7.7 240 13:29 30.06.2019
5696 Clouds 19 1014 59 10000 7.2 230 12:53 30.06.2019
5697 Clouds 19 1014 63 10000 7.2 230 12:31 30.06.2019
5698 Clouds 19 1014 68 10000 6.2 240 11:59 30.06.2019
5699 Clouds 19 1014 68 10000 6.2 240 11:41 30.06.2019
5700 Clouds 19 1014 68 10000 5.7 240 11:20 30.06.2019
5701 Clouds 19 1014 68 10000 5.7 240 11:20 30.06.2019
5702 Clouds 18 1013 68 10000 6.2 230 10:54 30.06.2019
5703 Clouds 18 1013 68 10000 6.2 230 10:36 30.06.2019
5704 Clouds 18 1013 72 10000 4.1 250 10:18 30.06.2019
5705 Clouds 17 1013 77 10000 6.2 240 09:41 30.06.2019
5706 Clouds 17 1013 77 10000 6.2 250 09:19 30.06.2019
5707 Clouds 16 1013 82 10000 5.1 240 08:40 30.06.2019
5708 Clouds 16 1013 87 10000 4.6 240 08:21 30.06.2019
5709 Clouds 15 1012 82 10000 3.6 240 07:42 30.06.2019
5710 Clouds 15 1012 87 10000 4.1 220 07:22 30.06.2019
5711 Clouds 14 1012 87 10000 3.1 230 06:33 30.06.2019
5712 Clouds 15 1012 87 10000 4.1 230 03:32 30.06.2019
5713 Clouds 15 1012 87 10000 4.1 230 03:32 30.06.2019
5714 Clouds 15 1011 93 7000 1 270 01:53 30.06.2019
5715 Clouds 17 1011 88 10000 2.1 280 00:46 30.06.2019
5716 Clouds 17 1011 93 10000 3.1 290 00:24 30.06.2019
5717 Clouds 18 1011 82 10000 3.1 280 23:48 29.06.2019
5718 Haze 18 1011 82 10000 2.1 260 23:22 29.06.2019
5719 Haze 18 1011 82 10000 1.5 0 22:47 29.06.2019
5720 Clouds 18 1011 82 10000 3.6 280 22:23 29.06.2019
5721 Rain 19 1011 77 10000 5.1 300 21:55 29.06.2019
5722 Clouds 20 1010 77 10000 6.2 280 21:25 29.06.2019
5723 Clouds 22 1010 73 10000 6.7 280 20:47 29.06.2019
5724 Clouds 22 1010 73 10000 5.7 280 20:29 29.06.2019
5725 Clouds 24 1010 73 10000 5.1 280 19:59 29.06.2019
5726 Clouds 24 1010 73 10000 5.1 280 19:41 29.06.2019
5727 Rain 25 1010 69 10000 2.1 210 19:20 29.06.2019
5728 Rain 25 1010 69 10000 2.1 210 19:20 29.06.2019
5729 Rain 25 1010 61 10000 1.5 0 18:47 29.06.2019
5730 Rain 26 1011 58 10000 2.1 190 18:24 29.06.2019
5731 Clouds 28 1012 54 10000 2.1 180 17:38 29.06.2019
5732 Clouds 28 1012 54 10000 2.1 180 17:19 29.06.2019
5733 Clouds 28 1012 51 10000 3.6 190 16:43 29.06.2019
5734 Clouds 28 1012 51 10000 2.6 160 16:00 29.06.2019
5735 Clouds 28 1012 51 10000 3.1 140 15:32 29.06.2019
5736 Clouds 26 1013 58 10000 2.1 160 14:46 29.06.2019
5737 Clouds 26 1014 57 10000 2.1 0 14:27 29.06.2019
5738 Clouds 27 1014 61 10000 1.5 0 13:56 29.06.2019
5739 Clouds 26 1014 61 10000 1.5 0 13:37 29.06.2019
5740 Clouds 26 1015 61 10000 1 0 13:18 29.06.2019
5741 Clouds 25 1016 60 10000 1 0 12:40 29.06.2019
5742 Clouds 23 1016 60 10000 1.5 0 12:21 29.06.2019
5743 Clouds 23 1016 64 10000 1 0 11:43 29.06.2019
5744 Clouds 22 1016 68 10000 1.5 0 11:25 29.06.2019
5745 Clouds 21 1017 68 10000 2.1 190 10:49 29.06.2019
5746 Clouds 20 1017 68 10000 1.5 0 10:21 29.06.2019
5747 Clouds 19 1017 77 10000 1.5 0 09:57 29.06.2019
5748 Clouds 19 1017 77 10000 1.5 0 09:57 29.06.2019
5749 Clear 17 1017 77 10000 1.5 0 08:55 29.06.2019
5750 Clear 17 1017 77 10000 2.1 230 08:31 29.06.2019
5751 Clear 16 1017 72 10000 0.5 0 07:45 29.06.2019
5752 Fog 15 1018 87 10000 1.5 0 06:49 29.06.2019
5753 Fog 15 1019 77 10000 1.5 0 06:26 29.06.2019
5754 Fog 15 1019 82 10000 0.5 0 05:18 29.06.2019
5755 Clear 16 1020 82 10000 1.5 0 01:42 29.06.2019
5756 Clear 17 1020 77 10000 0.5 0 00:49 29.06.2019
5757 Clear 18 1020 77 10000 1.5 80 23:48 28.06.2019
5758 Clear 19 1020 72 10000 1.5 80 23:21 28.06.2019
5759 Clear 19 1021 72 10000 2.1 80 22:47 28.06.2019
5760 Clear 20 1021 72 10000 1.5 70 22:19 28.06.2019
5761 Clear 20 1021 68 10000 1.5 0 21:45 28.06.2019
5762 Clouds 22 1021 64 10000 2.1 90 21:19 28.06.2019
5763 Clouds 22 1021 56 10000 2.6 0 20:41 28.06.2019
5764 Clouds 22 1021 56 10000 1.5 0 20:19 28.06.2019
5765 Clouds 23 1021 56 10000 3.6 90 19:40 28.06.2019
5766 Clouds 23 1021 56 10000 3.6 90 19:21 28.06.2019
5767 Clouds 23 1022 56 10000 3.1 90 18:41 28.06.2019
5768 Clear 23 1022 56 10000 3.1 90 18:21 28.06.2019
5769 Clear 24 1022 56 10000 4.1 90 17:44 28.06.2019
5770 Clear 24 1023 56 10000 3.1 90 17:25 28.06.2019
5771 Clear 23 1023 56 10000 3.1 90 16:46 28.06.2019
5772 Clear 23 1023 53 10000 3.6 90 16:19 28.06.2019
5773 Clear 23 1023 56 10000 4.1 90 15:44 28.06.2019
5774 Clear 22 1024 53 10000 3.6 90 15:18 28.06.2019
5775 Clear 22 1024 56 10000 3.1 110 14:40 28.06.2019
5776 Clear 22 1024 56 10000 3.6 90 14:21 28.06.2019
5777 Clear 21 1024 60 10000 4.1 80 13:47 28.06.2019
5778 Clear 20 1024 56 10000 3.1 80 13:28 28.06.2019
5779 Clear 20 1025 59 10000 3.6 100 12:52 28.06.2019
5780 Rain 19 1025 63 10000 3.1 90 12:33 28.06.2019
5781 Clear 18 1026 59 10000 3.6 110 11:40 28.06.2019
5782 Clear 17 1026 67 10000 3.1 0 11:18 28.06.2019
5783 Clear 16 1026 67 10000 2.6 90 10:41 28.06.2019
5784 Clear 15 1027 72 10000 3.1 90 10:18 28.06.2019
5785 Clear 14 1027 67 10000 2.6 80 09:44 28.06.2019
5786 Clear 14 1027 71 10000 2.1 90 09:25 28.06.2019
5787 Clear 13 1027 71 10000 1.5 0 08:43 28.06.2019
5788 Clear 13 1027 76 10000 1 0 08:24 28.06.2019
5789 Clear 12 1027 81 10000 3.6 80 07:42 28.06.2019
5790 Clear 11 1027 87 10000 2.1 70 06:54 28.06.2019
5791 Clear 12 1028 76 10000 2.1 90 03:59 28.06.2019
5792 Clear 14 1028 67 10000 4.1 90 00:47 28.06.2019
5793 Clear 15 1028 67 10000 3.1 90 00:19 28.06.2019
5794 Clear 16 1029 67 10000 3.1 90 23:46 27.06.2019
5795 Clear 16 1029 67 10000 4.1 90 23:24 27.06.2019
5796 Clear 17 1029 63 10000 3.1 100 22:43 27.06.2019
5797 Clear 17 1029 59 10000 2.6 100 22:25 27.06.2019
5798 Clear 19 1029 60 10000 2.1 0 21:58 27.06.2019
5799 Clear 19 1029 60 10000 2.1 0 21:39 27.06.2019
5800 Clear 20 1028 60 10000 4.6 90 21:20 27.06.2019
5801 Clear 21 1028 52 10000 3.6 90 20:46 27.06.2019
5802 Clear 21 1028 52 10000 3.6 100 20:28 27.06.2019
5803 Clear 22 1028 49 10000 4.1 90 19:48 27.06.2019
5804 Clear 22 1028 49 10000 4.1 90 19:29 27.06.2019
5805 Clear 22 1029 49 10000 3.6 0 18:52 27.06.2019
5806 Clear 23 1029 49 10000 4.1 80 18:30 27.06.2019
5807 Clear 23 1029 46 10000 3.6 100 17:47 27.06.2019
5808 Clear 23 1029 49 10000 3.6 100 17:24 27.06.2019
5809 Clear 23 1030 53 10000 4.1 0 16:59 27.06.2019
5810 Clear 23 1030 53 10000 4.1 100 16:37 27.06.2019
5811 Clear 23 1030 53 10000 4.1 100 16:18 27.06.2019
5812 Clear 23 1030 53 10000 4.1 100 16:18 27.06.2019
5813 Clear 22 1031 53 10000 3.6 100 15:45 27.06.2019
5814 Clear 22 1031 52 10000 4.1 90 15:22 27.06.2019
5815 Clear 21 1031 56 10000 2.6 0 14:46 27.06.2019
5816 Clear 21 1031 56 10000 3.1 110 14:28 27.06.2019
5817 Clear 21 1031 59 10000 2.6 100 13:49 27.06.2019
5818 Clear 20 1031 63 10000 2.6 0 13:30 27.06.2019
5819 Clear 19 1031 63 10000 2.1 0 12:55 27.06.2019
5820 Clear 19 1032 59 10000 2.1 0 12:35 27.06.2019
5821 Clear 18 1032 63 10000 2.1 80 11:57 27.06.2019
5822 Clear 18 1032 63 10000 2.1 80 11:39 27.06.2019
5823 Clear 17 1032 59 10000 2.1 110 11:20 27.06.2019
5824 Clear 16 1032 63 10000 2.1 90 10:44 27.06.2019
5825 Clear 15 1032 67 10000 1 0 10:21 27.06.2019
5826 Clear 15 1031 71 10000 1.5 0 09:54 27.06.2019
5827 Clear 13 1031 71 10000 2.1 50 09:22 27.06.2019
5828 Clear 12 1031 76 10000 1.5 0 08:52 27.06.2019
5829 Clear 12 1031 81 10000 2.1 60 08:31 27.06.2019
5830 Clear 11 1031 81 10000 1 0 07:53 27.06.2019
5831 Clear 10 1031 87 10000 1 60 07:29 27.06.2019
5832 Clear 9 1032 87 10000 1 50 06:43 27.06.2019
5833 Clear 10 1032 87 10000 1 0 04:24 27.06.2019
5834 Clear 11 1032 87 10000 1.5 70 02:44 27.06.2019
5835 Clear 12 1031 87 10000 1.5 60 01:48 27.06.2019
5836 Clouds 12 1032 87 10000 1 0 00:56 27.06.2019
5837 Clouds 12 1032 82 10000 1.5 0 00:36 27.06.2019
5838 Clouds 12 1032 82 10000 1.5 0 00:18 27.06.2019
5839 Clouds 13 1031 82 10000 3.1 60 23:24 26.06.2019
5840 Clouds 14 1031 82 10000 3.6 60 22:59 26.06.2019
5841 Clouds 14 1031 82 10000 3.6 60 22:41 26.06.2019
5842 Clouds 14 1031 82 10000 4.1 50 22:20 26.06.2019
5843 Clouds 15 1031 77 10000 4.1 60 21:55 26.06.2019
5844 Clouds 15 1031 77 10000 3.6 60 21:37 26.06.2019
5845 Clouds 15 1031 77 10000 3.6 60 21:18 26.06.2019
5846 Clouds 16 1031 77 10000 2.6 80 20:40 26.06.2019
5847 Clouds 16 1031 77 10000 2.6 80 20:40 26.06.2019
5848 Clouds 16 1031 77 10000 1.5 0 20:22 26.06.2019
5849 Clouds 17 1031 77 10000 2.1 0 19:44 26.06.2019
5850 Clouds 17 1031 72 10000 2.1 90 19:25 26.06.2019
5851 Clouds 17 1030 72 10000 4.1 50 18:48 26.06.2019
5852 Clouds 18 1030 72 10000 4.1 50 18:24 26.06.2019
5853 Clouds 18 1030 77 10000 3.6 60 17:59 26.06.2019
5854 Clouds 18 1030 77 10000 5.1 50 17:38 26.06.2019
5855 Clouds 18 1030 77 10000 5.1 50 17:19 26.06.2019
5856 Clouds 18 1030 72 10000 5.1 50 16:46 26.06.2019
5857 Clouds 18 1030 72 10000 5.1 40 16:24 26.06.2019
5858 Clouds 19 1030 72 10000 5.7 40 15:42 26.06.2019
5859 Clouds 17 1030 72 10000 5.7 30 15:23 26.06.2019
5860 Clouds 17 1030 72 10000 5.7 30 15:23 26.06.2019
5861 Clouds 18 1030 72 10000 2.6 70 14:38 26.06.2019
5862 Clouds 17 1031 77 10000 2.1 0 14:19 26.06.2019
5863 Clouds 17 1030 72 10000 3.6 40 13:44 26.06.2019
5864 Clouds 17 1030 72 10000 3.6 40 13:20 26.06.2019
5865 Clouds 16 1030 77 10000 3.1 50 12:42 26.06.2019
5866 Clouds 16 1030 77 10000 3.6 50 12:23 26.06.2019
5867 Clouds 15 1030 77 10000 3.1 40 11:51 26.06.2019
5868 Clouds 14 1030 82 10000 3.6 30 11:23 26.06.2019
5869 Drizzle 14 1030 77 10000 3.6 30 10:47 26.06.2019
5870 Clouds 14 1030 82 10000 3.1 50 10:28 26.06.2019
5871 Haze 13 1029 82 10000 3.6 50 09:49 26.06.2019
5872 Haze 13 1029 87 10000 3.6 50 09:24 26.06.2019
5873 Haze 13 1028 87 10000 3.1 60 08:49 26.06.2019
5874 Clouds 13 1028 87 10000 4.6 40 08:20 26.06.2019
5875 Clouds 13 1028 87 10000 5.1 40 07:46 26.06.2019
5876 Clouds 13 1027 87 10000 4.1 40 06:57 26.06.2019
5877 Rain 13 1027 87 10000 3.6 40 06:31 26.06.2019
5878 Rain 14 1026 87 10000 4.1 30 01:25 26.06.2019
5879 Rain 14 1026 82 10000 4.1 40 00:25 26.06.2019
5880 Drizzle 14 1025 82 10000 3.6 30 23:46 25.06.2019
5881 Drizzle 14 1025 87 10000 4.1 30 23:27 25.06.2019
5882 Clouds 15 1024 87 10000 3.1 60 22:57 25.06.2019
5883 Clouds 15 1024 87 10000 3.1 60 22:57 25.06.2019
5884 Clouds 15 1024 87 10000 3.1 60 22:38 25.06.2019
5885 Clouds 15 1024 87 10000 4.6 40 22:20 25.06.2019
5886 Drizzle 15 1024 87 10000 4.1 30 21:43 25.06.2019
5887 Drizzle 15 1024 82 10000 3.6 50 21:22 25.06.2019
5888 Drizzle 16 1023 82 10000 3.6 50 20:45 25.06.2019
5889 Drizzle 16 1023 82 10000 3.6 50 20:45 25.06.2019
5890 Drizzle 16 1023 82 10000 3.6 50 20:45 25.06.2019
5891 Drizzle 16 1023 82 10000 5.7 40 20:22 25.06.2019
5892 Drizzle 17 1023 82 10000 5.1 30 19:46 25.06.2019
5893 Clouds 17 1023 82 10000 5.1 40 19:23 25.06.2019
5894 Clouds 17 1022 82 10000 5.7 50 18:47 25.06.2019
5895 Rain 17 1022 77 10000 6.7 40 18:29 25.06.2019
5896 -273 0 0 0 0 0 18:01 25.06.2019
5897 -273 0 0 0 0 0 18:01 25.06.2019
5898 -273 0 0 0 0 0 17:30 25.06.2019
5899 -273 0 0 0 0 0 17:29 25.06.2019
5900 Rain 17 1022 82 10000 4.6 30 16:57 25.06.2019
5901 Rain 17 1022 82 10000 4.6 30 16:39 25.06.2019
5902 Rain 17 1022 88 10000 4.1 10 16:21 25.06.2019
5903 Rain 17 1021 87 10000 3.6 20 15:42 25.06.2019
5904 Rain 16 1021 87 10000 2.6 20 15:24 25.06.2019
5905 Rain 16 1021 87 10000 3.6 30 14:54 25.06.2019
5906 Rain 16 1021 93 10000 4.6 30 14:35 25.06.2019
5907 Rain 16 1021 87 10000 4.1 30 13:47 25.06.2019
5908 Rain 15 1021 87 10000 4.1 40 13:28 25.06.2019
5909 Rain 16 1021 87 10000 2.1 60 12:44 25.06.2019
5910 Rain 16 1020 87 10000 4.1 40 12:25 25.06.2019
5911 Rain 16 1020 87 10000 3.1 60 11:55 25.06.2019
5912 Rain 16 1020 87 10000 3.1 60 11:37 25.06.2019
5913 Rain 16 1020 87 10000 3.1 60 11:18 25.06.2019
5914 Drizzle 16 1020 88 10000 3.6 60 10:42 25.06.2019
5915 Rain 16 1019 93 10000 3.1 60 10:22 25.06.2019
5916 Rain 16 1019 88 8000 2.1 60 09:55 25.06.2019
5917 Rain 16 1019 88 8000 2.1 60 09:37 25.06.2019
5918 Rain 16 1019 93 4600 3.1 30 09:18 25.06.2019
5919 Rain 16 1018 93 4000 2.1 330 08:37 25.06.2019
5920 Rain 16 1018 93 4000 2.1 330 08:19 25.06.2019
5921 Rain 16 1018 93 4500 1 0 07:39 25.06.2019
5922 Clouds 16 1019 93 6000 1.5 340 06:53 25.06.2019
5923 Haze 16 1018 100 5000 2.1 340 06:28 25.06.2019
5924 Mist 16 1019 93 7000 1.5 290 02:45 25.06.2019
5925 Mist 16 1019 88 9000 2.1 300 01:38 25.06.2019
5926 Mist 17 1019 82 10000 2.6 290 00:35 25.06.2019
5927 Mist 18 1019 82 10000 2.6 300 23:53 24.06.2019
5928 Clouds 18 1018 77 10000 3.6 300 23:34 24.06.2019
5929 Clouds 18 1018 82 10000 3.1 290 22:59 24.06.2019
5930 Clouds 19 1018 82 10000 3.1 290 22:39 24.06.2019
5931 Clouds 19 1018 82 10000 3.6 280 22:18 24.06.2019
5932 Clouds 20 1017 77 10000 3.6 290 21:39 24.06.2019
5933 Clouds 20 1017 73 10000 4.6 310 21:19 24.06.2019
5934 Clouds 20 1017 77 10000 1.5 0 20:55 24.06.2019
5935 Clouds 21 1016 73 10000 1 0 20:37 24.06.2019
5936 Clouds 21 1016 73 10000 1 0 20:18 24.06.2019
5937 Clouds 21 1017 73 10000 1.5 0 19:41 24.06.2019
5938 Haze 21 1017 77 8000 1 0 19:21 24.06.2019
5939 Haze 21 1016 77 10000 1.5 0 18:43 24.06.2019
5940 Haze 21 1016 77 10000 2.1 240 18:24 24.06.2019
5941 Haze 21 1016 77 10000 1 0 17:42 24.06.2019
5942 Haze 21 1016 77 10000 2.6 210 17:24 24.06.2019
5943 Haze 21 1016 82 9000 2.6 230 16:45 24.06.2019
5944 Haze 21 1016 82 10000 1 0 16:20 24.06.2019
5945 Haze 20 1016 82 8000 2.1 210 15:46 24.06.2019
5946 Haze 20 1016 82 8000 1.5 0 15:27 24.06.2019
5947 Rain 19 1016 88 8000 1.5 0 14:42 24.06.2019
5948 Rain 19 1016 82 8000 1.5 0 14:24 24.06.2019
5949 Rain 19 1016 82 8000 1 0 13:45 24.06.2019
5950 Haze 19 1016 82 10000 1 0 13:23 24.06.2019
5951 Haze 19 1016 82 9000 0.5 0 12:42 24.06.2019
5952 Rain 18 1016 82 9000 1 0 12:21 24.06.2019
5953 Rain 18 1016 88 10000 1 0 11:46 24.06.2019
5954 Haze 18 1015 82 10000 1 0 11:27 24.06.2019
5955 Mist 17 1015 82 10000 1 0 10:55 24.06.2019
5956 Haze 17 1015 88 10000 1 0 10:34 24.06.2019
5957 Haze 16 1015 88 10000 1.5 0 09:59 24.06.2019
5958 Haze 16 1015 88 10000 1.5 0 09:41 24.06.2019
5959 Haze 16 1015 87 10000 1.5 0 09:19 24.06.2019
5960 Fog 15 1015 87 10000 1 60 08:41 24.06.2019
5961 Mist 15 1015 93 10000 1.5 0 07:59 24.06.2019
5962 Mist 15 1015 93 10000 1.5 0 07:40 24.06.2019
5963 Rain 15 1015 93 10000 1.5 50 07:21 24.06.2019
5964 Mist 14 1014 93 10000 2.1 50 06:23 24.06.2019
5965 Drizzle 14 1014 87 10000 2.6 70 05:40 24.06.2019
5966 Rain 14 1015 93 9000 3.6 60 04:43 24.06.2019
5967 Rain 14 1015 87 9000 4.6 40 03:48 24.06.2019
5968 Rain 14 1016 87 10000 2.6 50 02:47 24.06.2019
5969 Rain 15 1016 82 10000 2.6 50 01:55 24.06.2019
5970 Rain 15 1016 82 10000 2.6 60 01:33 24.06.2019
5971 Rain 15 1016 82 10000 4.6 80 00:50 24.06.2019
5972 Rain 15 1016 82 10000 3.6 80 00:20 24.06.2019
5973 Rain 15 1016 82 10000 4.6 70 23:48 23.06.2019
5974 Rain 15 1016 82 10000 4.6 70 23:48 23.06.2019
5975 Rain 15 1016 82 10000 3.6 60 23:28 23.06.2019
5976 Rain 15 1016 87 10000 5.7 20 22:57 23.06.2019
5977 Rain 15 1016 87 10000 5.7 20 22:39 23.06.2019
5978 Rain 15 1017 87 10000 6.2 30 22:19 23.06.2019
5979 Rain 16 1017 87 6000 6.2 40 21:41 23.06.2019
5980 Rain 16 1017 87 6000 6.2 40 21:41 23.06.2019
5981 Rain 16 1017 87 10000 5.7 50 21:22 23.06.2019
5982 Rain 16 1017 87 10000 5.7 50 21:22 23.06.2019
5983 Rain 16 1017 82 10000 4.1 70 20:49 23.06.2019
5984 Rain 17 1016 82 10000 4.6 60 20:29 23.06.2019
5985 Rain 18 1017 72 10000 4.1 70 19:50 23.06.2019
5986 Rain 18 1017 72 10000 5.1 70 19:23 23.06.2019
5987 Rain 19 1017 68 10000 5.1 70 18:55 23.06.2019
5988 Rain 19 1017 64 10000 4.6 80 18:37 23.06.2019
5989 Rain 19 1017 64 10000 4.6 80 18:18 23.06.2019
5990 Rain 19 1018 64 10000 3.6 80 17:39 23.06.2019
5991 Rain 19 1018 64 10000 3.1 80 17:21 23.06.2019
5992 Drizzle 19 1018 64 10000 4.1 80 16:43 23.06.2019
5993 Rain 20 1018 68 10000 4.1 80 16:24 23.06.2019
5994 Rain 20 1018 64 10000 3.1 0 15:42 23.06.2019
5995 Clouds 20 1018 60 10000 5.7 90 15:23 23.06.2019
5996 Clouds 20 1018 64 10000 4.1 90 14:56 23.06.2019
5997 Clouds 20 1018 63 10000 4.1 90 14:37 23.06.2019
5998 Clouds 20 1018 63 10000 4.1 90 14:18 23.06.2019
5999 Clouds 20 1019 63 10000 3.1 100 13:42 23.06.2019
6000 Clouds 20 1019 68 10000 4.1 80 13:20 23.06.2019
6001 Clouds 19 1019 68 10000 3.6 100 12:54 23.06.2019
6002 Clouds 19 1019 68 10000 3.6 100 12:36 23.06.2019
6003 Clouds 18 1019 67 10000 4.1 90 12:18 23.06.2019
6004 Clouds 17 1019 67 10000 2.6 90 11:42 23.06.2019
6005 Clouds 17 1019 72 10000 3.1 90 11:24 23.06.2019
6006 Clouds 17 1019 72 10000 4.1 80 10:47 23.06.2019
6007 Clouds 16 1020 67 10000 2.1 80 10:20 23.06.2019
6008 Clouds 15 1020 67 10000 2.1 80 09:53 23.06.2019
6009 Clouds 15 1020 62 10000 2.1 80 09:21 23.06.2019
6010 Clouds 14 1019 67 10000 2.1 90 08:46 23.06.2019
6011 Clouds 14 1019 67 10000 2.1 0 08:27 23.06.2019
6012 Clouds 14 1019 67 10000 2.1 0 07:55 23.06.2019
6013 Clouds 13 1019 67 10000 2.6 100 07:25 23.06.2019
6014 Clouds 13 1019 71 10000 1 0 06:55 23.06.2019
6015 Clouds 13 1020 62 10000 1 0 05:59 23.06.2019
6016 Clouds 14 1020 58 10000 1.5 0 04:38 23.06.2019
6017 Clouds 15 1020 59 10000 3.6 140 02:20 23.06.2019
6018 Clouds 15 1020 59 10000 2.6 140 01:37 23.06.2019
6019 Clouds 16 1019 63 10000 2.6 130 00:37 23.06.2019
6020 Rain 16 1019 59 10000 1.5 0 23:57 22.06.2019
6021 Rain 16 1019 59 10000 1.5 0 23:38 22.06.2019
6022 Rain 17 1019 59 10000 1.5 0 23:20 22.06.2019
6023 Rain 18 1019 52 10000 1.5 0 22:44 22.06.2019
6024 Rain 19 1019 45 10000 1.5 0 22:22 22.06.2019
6025 Rain 20 1018 45 10000 1.5 0 21:39 22.06.2019
6026 Rain 20 1018 43 10000 2.1 150 21:20 22.06.2019
6027 Rain 21 1018 40 10000 1.5 0 20:50 22.06.2019
6028 Rain 21 1018 43 10000 2.6 0 20:25 22.06.2019
6029 Rain 21 1018 43 10000 2.6 0 20:25 22.06.2019
6030 Rain 21 1018 43 10000 2.1 160 19:50 22.06.2019
6031 Rain 22 1019 43 10000 2.6 150 19:28 22.06.2019
6032 Rain 21 1019 43 10000 2.6 200 18:55 22.06.2019
6033 Clear 22 1019 40 10000 2.6 160 18:33 22.06.2019
6034 Clear 22 1019 43 10000 2.6 190 17:57 22.06.2019
6035 Clear 22 1019 43 10000 2.6 190 17:36 22.06.2019
6036 Clear 22 1019 43 10000 2.6 130 17:18 22.06.2019
6037 Haze 22 1020 43 5000 1.5 0 16:39 22.06.2019
6038 Haze 22 1020 43 5000 1.5 0 16:20 22.06.2019
6039 Rain 22 1020 43 10000 2.1 0 15:40 22.06.2019
6040 Rain 21 1020 46 10000 2.1 190 15:22 22.06.2019
6041 Clear 21 1020 49 10000 2.1 180 14:37 22.06.2019
6042 Rain 21 1021 49 10000 2.6 160 14:18 22.06.2019
6043 Rain 21 1021 45 10000 2.6 200 13:42 22.06.2019
6044 Clouds 21 1021 48 10000 2.6 0 13:22 22.06.2019
6045 Clouds 20 1021 48 10000 2.6 210 12:52 22.06.2019
6046 Clouds 20 1021 52 10000 2.1 0 12:33 22.06.2019
6047 Clouds 19 1021 52 10000 3.1 190 11:58 22.06.2019
6048 Clouds 19 1021 55 10000 1.5 0 11:33 22.06.2019
6049 Clouds 18 1021 59 10000 2.1 160 10:50 22.06.2019
6050 Clouds 17 1022 59 10000 1.5 0 10:21 22.06.2019
6051 Clouds 15 1022 62 10000 0.5 0 09:49 22.06.2019
6052 Clouds 14 1022 58 10000 1.5 0 09:22 22.06.2019
6053 Clouds 13 1021 66 10000 1 60 08:42 22.06.2019
6054 Clouds 11 1021 71 10000 1.5 0 08:20 22.06.2019
6055 Clouds 10 1021 87 10000 1 80 07:31 22.06.2019
6056 Clouds 9 1022 87 10000 1 0 06:47 22.06.2019
6057 Clouds 8 1022 87 10000 1 50 05:22 22.06.2019
6058 Clouds 9 1022 87 10000 1 130 02:33 22.06.2019
6059 Clear 10 1022 81 10000 1.18 26.195 01:18 22.06.2019
6060 Clear 11 1022 76 10000 0.5 0 00:38 22.06.2019
6061 Clear 11 1022 58 10000 1 0 23:59 21.06.2019
6062 Clear 12 1022 58 10000 1 0 23:39 21.06.2019
6063 Clear 13 1022 54 10000 0.5 0 23:19 21.06.2019
6064 Clear 13 1022 54 10000 0.5 0 23:19 21.06.2019
6065 Clear 13 1021 54 10000 1.5 280 22:43 21.06.2019
6066 Clear 14 1021 51 10000 2.1 280 22:23 21.06.2019
6067 Clear 15 1021 51 10000 2.6 280 21:40 21.06.2019
6068 Clear 16 1021 48 10000 3.1 270 21:22 21.06.2019
6069 Clear 16 1021 48 10000 3.6 280 20:53 21.06.2019
6070 Clear 16 1021 48 10000 3.6 280 20:53 21.06.2019
6071 Clear 16 1021 48 10000 3.1 300 20:27 21.06.2019
6072 Clouds 16 1021 45 10000 4.1 290 19:55 21.06.2019
6073 Clear 17 1021 45 10000 4.1 290 19:23 21.06.2019
6074 Clouds 17 1021 48 10000 4.1 270 18:43 21.06.2019
6075 Clouds 17 1021 48 10000 4.1 270 18:43 21.06.2019
6076 Clear 17 1020 45 10000 3.6 290 18:25 21.06.2019
6077 Clear 17 1020 45 10000 4.6 290 17:41 21.06.2019
6078 Clouds 17 1020 48 10000 4.6 280 17:23 21.06.2019
6079 Clouds 17 1020 48 10000 5.1 290 16:38 21.06.2019
6080 Clouds 17 1020 48 10000 5.1 290 16:19 21.06.2019
6081 Clouds 17 1020 48 10000 5.7 290 15:39 21.06.2019
6082 Clouds 17 1020 48 10000 5.7 260 15:18 21.06.2019
6083 Clouds 16 1019 48 10000 6.7 260 14:44 21.06.2019
6084 Clouds 16 1019 51 10000 6.2 280 14:24 21.06.2019
6085 Clouds 16 1019 48 10000 6.2 290 13:42 21.06.2019
6086 Clouds 16 1019 55 10000 5.7 270 13:23 21.06.2019
6087 Clear 16 1019 58 10000 5.1 280 12:54 21.06.2019
6088 Clouds 15 1018 58 10000 5.7 260 12:23 21.06.2019
6089 Clouds 15 1018 67 10000 6.2 260 11:58 21.06.2019
6090 Clouds 15 1018 67 10000 6.2 260 11:40 21.06.2019
6091 Rain 14 1018 71 10000 5.1 270 11:22 21.06.2019
6092 Clouds 14 1018 76 10000 4.6 270 10:44 21.06.2019
6093 Clouds 14 1018 76 10000 4.6 270 10:44 21.06.2019
6094 Clouds 14 1017 76 10000 4.6 270 10:21 21.06.2019
6095 Clouds 14 1017 76 10000 4.1 250 09:43 21.06.2019
6096 Rain 13 1017 76 10000 3.1 220 09:25 21.06.2019
6097 Rain 13 1016 81 10000 2.6 220 08:58 21.06.2019
6098 Rain 13 1016 81 10000 2.6 220 08:40 21.06.2019
6099 Clouds 12 1016 87 10000 2.1 170 08:19 21.06.2019
6100 Clouds 11 1016 87 10000 2.1 170 07:45 21.06.2019
6101 Clouds 11 1016 87 10000 2.1 170 07:45 21.06.2019
6102 Clouds 10 1016 87 10000 2.1 180 07:22 21.06.2019
6103 Clouds 10 1015 93 10000 1.5 0 06:29 21.06.2019
6104 Clouds 10 1015 93 10000 2.1 180 05:48 21.06.2019
6105 Clouds 10 1015 93 10000 2.1 180 04:48 21.06.2019
6106 Clouds 10 1015 87 10000 2.1 180 03:47 21.06.2019
6107 Clouds 10 1014 81 10000 2.1 180 03:24 21.06.2019
6108 Clouds 11 1014 87 10000 2.6 180 02:26 21.06.2019
6109 Clear 11 1014 87 10000 2.6 190 01:32 21.06.2019
6110 Clear 11 1014 87 10000 1.5 160 00:36 21.06.2019
6111 Rain 12 1014 87 10000 1.5 170 23:56 20.06.2019
6112 Rain 12 1014 71 10000 0.5 0 23:37 20.06.2019
6113 Rain 12 1014 71 10000 0.5 0 23:19 20.06.2019
6114 Rain 13 1013 71 10000 1.5 270 22:41 20.06.2019
6115 Rain 13 1013 66 10000 1.5 260 22:23 20.06.2019
6116 Rain 14 1013 62 10000 2.6 280 21:56 20.06.2019
6117 Rain 14 1013 62 10000 2.6 280 21:37 20.06.2019
6118 Rain 15 1013 67 10000 3.1 270 21:19 20.06.2019
6119 Rain 15 1012 58 10000 3.6 280 20:41 20.06.2019
6120 Clear 15 1012 58 10000 4.1 260 20:22 20.06.2019
6121 Rain 16 1012 54 10000 4.1 290 19:45 20.06.2019
6122 Rain 16 1012 58 10000 3.6 280 19:19 20.06.2019
6123 Rain 16 1012 55 10000 4.1 270 18:57 20.06.2019
6124 Rain 16 1012 55 10000 4.1 270 18:38 20.06.2019
6125 Rain 16 1012 67 10000 4.6 260 18:20 20.06.2019
6126 Rain 16 1012 58 10000 5.1 280 17:46 20.06.2019
6127 Rain 16 1012 58 10000 5.7 290 17:25 20.06.2019
6128 Rain 16 1012 54 10000 5.7 280 16:42 20.06.2019
6129 Rain 16 1012 58 10000 4.1 260 16:19 20.06.2019
6130 Clouds 16 1011 58 10000 5.7 270 15:44 20.06.2019
6131 Clouds 15 1011 55 10000 5.7 280 15:24 20.06.2019
6132 -273 0 0 0 0 0 14:58 20.06.2019
6133 Rain 16 1011 58 10000 5.7 280 14:39 20.06.2019
6134 Clouds 15 1011 58 10000 5.7 270 14:19 20.06.2019
6135 Clouds 15 1011 58 10000 5.7 270 13:39 20.06.2019
6136 Clouds 15 1011 58 10000 5.7 270 13:19 20.06.2019
6137 Rain 15 1011 67 10000 6.7 260 12:43 20.06.2019
6138 Rain 14 1011 76 10000 4.6 280 12:22 20.06.2019
6139 Rain 14 1010 82 10000 4.1 270 11:43 20.06.2019
6140 Rain 14 1010 87 10000 3.6 220 11:23 20.06.2019
6141 Rain 13 1010 82 10000 5.1 260 10:45 20.06.2019
6142 Rain 13 1010 82 10000 5.1 260 10:45 20.06.2019
6143 Rain 13 1010 82 10000 5.1 260 10:45 20.06.2019
6144 Rain 13 1010 82 10000 3.6 220 10:24 20.06.2019
6145 Rain 13 1010 87 10000 2.6 210 09:57 20.06.2019
6146 Rain 13 1010 87 10000 2.6 210 09:38 20.06.2019
6147 Rain 13 1009 87 10000 2.6 200 09:20 20.06.2019
6148 Rain 12 1009 93 10000 2.1 190 08:44 20.06.2019
6149 Rain 12 1009 87 10000 2.1 200 08:25 20.06.2019
6150 Rain 12 1009 93 10000 2.6 190 07:50 20.06.2019
6151 Rain 11 1009 93 10000 2.6 180 07:25 20.06.2019
6152 Clouds 11 1009 93 10000 2.6 170 06:22 20.06.2019
6153 Clouds 11 1009 93 10000 1.5 0 03:41 20.06.2019
6154 Clear 11 1009 87 10000 2.1 160 02:28 20.06.2019
6155 Clouds 12 1009 66 10000 1.5 280 00:33 20.06.2019
6156 Clouds 13 1009 62 10000 1.5 290 23:48 19.06.2019
6157 Clouds 13 1009 62 10000 1.5 280 23:29 19.06.2019
6158 Clear 14 1008 54 10000 2.1 270 22:49 19.06.2019
6159 Clear 15 1008 51 10000 2.1 290 22:25 19.06.2019
6160 Clear 16 1008 59 10000 2.1 270 21:58 19.06.2019
6161 Clear 16 1008 59 10000 2.1 270 21:38 19.06.2019
6162 Clouds 16 1008 59 10000 3.6 270 21:20 19.06.2019
6163 Clouds 17 1008 55 10000 2.6 280 20:41 19.06.2019
6164 Clouds 17 1008 55 10000 4.1 290 20:21 19.06.2019
6165 Clouds 17 1008 55 10000 5.7 290 19:46 19.06.2019
6166 Clouds 17 1008 55 10000 4.6 280 19:26 19.06.2019
6167 Clouds 17 1008 59 10000 5.1 280 18:56 19.06.2019
6168 Clouds 18 1008 63 10000 5.1 280 18:24 19.06.2019
6169 Clouds 18 1008 68 10000 5.7 270 17:48 19.06.2019
6170 -273 0 0 0 0 0 17:27 19.06.2019
6171 Rain 18 1008 55 10000 3.1 290 16:56 19.06.2019
6172 Rain 18 1008 55 10000 3.1 290 16:37 19.06.2019
6173 Clouds 19 1008 59 10000 4.1 280 16:19 19.06.2019
6174 Clouds 18 1008 59 10000 4.1 260 15:44 19.06.2019
6175 Clouds 17 1008 63 10000 4.1 280 15:24 19.06.2019
6176 Rain 17 1008 59 10000 3.6 280 14:43 19.06.2019
6177 Rain 17 1008 59 10000 4.6 280 14:25 19.06.2019
6178 Clouds 18 1008 59 10000 3.6 270 13:48 19.06.2019
6179 Clouds 17 1008 67 10000 3.1 270 13:29 19.06.2019
6180 Rain 17 1008 67 10000 2.1 0 12:59 19.06.2019
6181 Rain 17 1008 67 10000 2.1 0 12:40 19.06.2019
6182 Rain 16 1008 72 10000 3.1 280 12:18 19.06.2019
6183 Clouds 15 1008 77 10000 2.1 290 11:42 19.06.2019
6184 Rain 15 1008 77 10000 0.5 0 11:21 19.06.2019
6185 Clouds 14 1008 76 10000 1.5 0 10:49 19.06.2019
6186 Clouds 14 1008 87 10000 2.6 310 10:28 19.06.2019
6187 Clouds 14 1008 87 10000 2.1 280 09:56 19.06.2019
6188 Rain 14 1008 87 10000 3.1 340 09:37 19.06.2019
6189 Rain 13 1008 87 10000 3.1 340 09:18 19.06.2019
6190 Rain 13 1008 93 10000 2.6 340 08:43 19.06.2019
6191 Rain 12 1008 93 10000 2.6 280 08:25 19.06.2019
6192 Rain 12 1009 93 10000 2.1 270 07:43 19.06.2019
6193 Rain 12 1009 100 8000 2.6 250 07:23 19.06.2019
6194 Rain 12 1008 93 6000 2.1 260 06:37 19.06.2019
6195 Mist 12 1008 93 5000 2.1 280 06:18 19.06.2019
6196 Rain 12 1008 100 5000 2.6 280 05:27 19.06.2019
6197 Rain 13 1010 93 6000 0.5 210 03:53 19.06.2019
6198 Rain 13 1010 93 10000 1.5 290 02:40 19.06.2019
6199 Rain 13 1010 100 9000 2.1 300 01:39 19.06.2019
6200 Rain 14 1011 93 10000 1 0 00:54 19.06.2019
6201 Rain 14 1011 93 10000 1 0 00:36 19.06.2019
6202 Rain 14 1011 93 10000 1 210 23:59 18.06.2019
6203 Rain 14 1011 87 10000 1 0 23:37 18.06.2019
6204 Rain 14 1011 87 10000 1 0 23:19 18.06.2019
6205 Rain 15 1011 93 10000 1.5 0 22:41 18.06.2019
6206 Rain 15 1011 93 8000 1 0 22:21 18.06.2019
6207 Rain 16 1011 87 10000 1 0 21:44 18.06.2019
6208 Rain 16 1011 77 10000 1.5 0 21:22 18.06.2019
6209 -273 0 0 0 0 0 20:58 18.06.2019
6210 Rain 17 1011 72 10000 0.5 0 20:38 18.06.2019
6211 Rain 18 1011 68 10000 1.5 0 20:18 18.06.2019
6212 Rain 18 1011 63 10000 1 0 19:39 18.06.2019
6213 Rain 18 1012 63 10000 1 0 19:21 18.06.2019
6214 Rain 19 1012 63 10000 1.5 0 18:48 18.06.2019
6215 Rain 19 1012 63 10000 1.5 0 18:25 18.06.2019
6216 Rain 19 1012 68 10000 1.5 0 17:46 18.06.2019
6217 Rain 19 1012 63 10000 2.6 220 17:22 18.06.2019
6218 Rain 18 1013 63 10000 2.6 200 16:57 18.06.2019
6219 Rain 18 1013 63 10000 2.6 200 16:39 18.06.2019
6220 Rain 18 1013 68 10000 2.6 210 16:20 18.06.2019
6221 Clouds 18 1013 63 10000 2.6 220 15:38 18.06.2019
6222 Clouds 18 1013 63 10000 2.6 200 15:20 18.06.2019
6223 Clouds 18 1013 63 10000 3.1 210 14:55 18.06.2019
6224 Clouds 18 1013 63 10000 3.1 210 14:36 18.06.2019
6225 Clouds 18 1013 63 10000 4.1 220 14:18 18.06.2019
6226 Clouds 18 1013 67 10000 3.1 230 13:41 18.06.2019
6227 Clouds 18 1013 67 10000 3.1 250 13:22 18.06.2019
6228 Clouds 18 1013 67 10000 3.1 240 12:44 18.06.2019
6229 Clouds 17 1013 67 10000 2.6 210 12:25 18.06.2019
6230 Clouds 17 1014 72 10000 3.6 240 11:47 18.06.2019
6231 Clouds 16 1014 67 10000 3.6 240 11:23 18.06.2019
6232 Clouds 16 1014 72 10000 3.1 230 10:57 18.06.2019
6233 Clouds 16 1014 82 10000 3.6 230 10:38 18.06.2019
6234 Clouds 16 1014 82 10000 3.6 230 10:19 18.06.2019
6235 Clouds 15 1014 76 10000 2.6 220 09:49 18.06.2019
6236 Clouds 14 1014 82 10000 2.6 200 09:24 18.06.2019
6237 Clouds 14 1014 87 10000 2.6 190 08:47 18.06.2019
6238 Clouds 13 1014 87 10000 2.1 180 08:22 18.06.2019
6239 Clouds 12 1014 93 10000 1 0 07:45 18.06.2019
6240 Clouds 12 1014 93 10000 2.1 180 07:24 18.06.2019
6241 Clouds 11 1014 87 10000 2.1 190 06:45 18.06.2019
6242 Clear 11 1014 93 10000 3.1 180 05:21 18.06.2019
6243 Clear 11 1014 93 10000 2.1 180 03:59 18.06.2019
6244 Clouds 12 1015 93 10000 1.5 160 01:59 18.06.2019
6245 Clouds 12 1015 93 10000 2.1 180 01:25 18.06.2019
6246 Clouds 12 1015 87 10000 2.1 210 00:56 18.06.2019
6247 Clouds 13 1015 87 10000 2.1 200 00:30 18.06.2019
6248 Clouds 13 1015 87 10000 2.1 200 23:41 17.06.2019
6249 Clouds 13 1014 87 10000 1.5 210 23:20 17.06.2019
6250 Rain 14 1014 87 10000 2.6 190 22:56 17.06.2019
6251 Rain 14 1014 87 10000 2.6 190 22:38 17.06.2019
6252 Rain 15 1014 82 10000 2.6 190 22:20 17.06.2019
6253 Rain 15 1014 87 10000 3.1 210 21:42 17.06.2019
6254 Rain 15 1014 87 10000 2.6 210 21:21 17.06.2019
6255 Rain 16 1014 87 10000 3.1 200 20:38 17.06.2019
6256 Drizzle 16 1014 87 10000 3.1 220 20:20 17.06.2019
6257 Rain 16 1014 93 10000 4.6 230 19:43 17.06.2019
6258 Rain 17 1014 93 10000 4.6 230 19:24 17.06.2019
6259 Rain 17 1014 82 10000 2.6 210 18:58 17.06.2019
6260 Rain 17 1014 87 10000 5.7 230 18:38 17.06.2019
6261 Rain 17 1014 87 10000 5.7 230 18:18 17.06.2019
6262 Rain 17 1013 68 10000 6.7 240 17:47 17.06.2019
6263 Rain 17 1013 68 10000 6.7 240 17:29 17.06.2019
6264 Clouds 18 1014 77 10000 4.1 220 16:55 17.06.2019
6265 Clouds 18 1014 77 10000 4.1 190 16:36 17.06.2019
6266 Clouds 18 1013 68 10000 7.7 230 16:18 17.06.2019
6267 Rain 17 1014 72 10000 5.7 200 15:40 17.06.2019
6268 Rain 17 1014 72 10000 5.7 200 15:19 17.06.2019
6269 Rain 17 1014 67 10000 4.1 200 14:53 17.06.2019
6270 Clouds 16 1014 72 10000 4.6 200 14:34 17.06.2019
6271 Clouds 16 1013 72 10000 5.1 210 13:57 17.06.2019
6272 Rain 16 1013 77 10000 4.6 200 13:39 17.06.2019
6273 Rain 16 1013 77 10000 4.6 200 13:20 17.06.2019
6274 Rain 15 1013 82 10000 4.6 190 12:33 17.06.2019
6275 -273 0 0 0 0 0 11:59 17.06.2019
6276 Rain 15 1014 93 10000 3.1 220 11:39 17.06.2019
6277 Rain 14 1014 93 10000 2.6 200 11:18 17.06.2019
6278 Drizzle 14 1013 93 10000 4.6 190 10:46 17.06.2019
6279 Drizzle 14 1013 93 10000 4.6 190 10:28 17.06.2019
6280 Rain 13 1013 93 10000 1.5 0 09:56 17.06.2019
6281 Rain 13 1012 93 10000 3.6 190 09:32 17.06.2019
6282 Rain 12 1012 93 10000 4.1 180 08:46 17.06.2019
6283 Rain 12 1012 93 10000 4.1 180 08:24 17.06.2019
6284 Rain 12 1013 93 10000 2.1 200 07:52 17.06.2019
6285 Rain 12 1013 100 5000 2.6 210 07:32 17.06.2019
6286 Rain 12 1013 87 10000 4.1 210 06:50 17.06.2019
6287 Rain 13 1012 82 10000 4.6 200 05:55 17.06.2019
6288 Rain 13 1012 82 10000 5.1 180 04:59 17.06.2019
6289 Rain 13 1012 82 10000 4.1 190 03:52 17.06.2019
6290 Rain 13 1012 82 10000 4.6 180 03:25 17.06.2019
6291 Rain 13 1013 82 10000 4.6 190 02:42 17.06.2019
6292 Rain 13 1012 76 10000 4.1 190 02:19 17.06.2019
6293 Rain 14 1012 82 10000 4.1 190 01:35 17.06.2019
6294 Rain 14 1013 77 10000 4.1 200 00:48 17.06.2019
6295 Rain 14 1013 77 10000 4.1 200 00:26 17.06.2019
6296 Rain 14 1013 77 10000 3.1 190 23:58 16.06.2019
6297 Rain 15 1012 77 10000 4.1 190 23:37 16.06.2019
6298 Rain 15 1012 77 10000 4.1 190 23:19 16.06.2019
6299 Rain 15 1012 82 10000 3.1 200 22:43 16.06.2019
6300 Rain 15 1012 82 10000 3.1 200 22:19 16.06.2019
6301 Rain 15 1013 82 10000 3.6 190 21:56 16.06.2019
6302 Rain 15 1013 72 10000 3.6 190 21:38 16.06.2019
6303 Rain 15 1013 72 10000 3.6 190 21:20 16.06.2019
6304 Rain 16 1013 77 10000 3.1 210 20:38 16.06.2019
6305 Rain 16 1013 77 10000 3.1 210 20:19 16.06.2019
6306 Rain 16 1013 77 10000 4.6 200 19:58 16.06.2019
6307 Rain 16 1012 63 10000 4.1 210 19:37 16.06.2019
6308 Rain 16 1012 63 10000 4.1 210 19:37 16.06.2019
6309 Rain 16 1012 59 10000 6.2 210 19:19 16.06.2019
6310 Rain 16 1012 59 10000 6.2 210 19:19 16.06.2019
6311 Rain 17 1012 59 10000 6.2 210 18:41 16.06.2019
6312 Rain 17 1012 59 10000 6.2 210 18:21 16.06.2019
6313 Clouds 18 1012 63 10000 6.7 210 17:49 16.06.2019
6314 Clouds 18 1012 63 10000 6.7 210 17:49 16.06.2019
6315 Clouds 17 1012 63 10000 6.7 210 17:24 16.06.2019
6316 Rain 17 1012 77 10000 3.6 200 16:58 16.06.2019
6317 Rain 17 1012 82 10000 2.6 180 16:39 16.06.2019
6318 Rain 17 1012 82 10000 3.1 190 16:21 16.06.2019
6319 Rain 17 1011 67 10000 5.1 190 15:45 16.06.2019
6320 Rain 17 1011 67 10000 5.1 190 15:26 16.06.2019
6321 Rain 17 1012 72 10000 2.6 210 14:56 16.06.2019
6322 Clouds 17 1012 67 10000 4.1 190 14:36 16.06.2019
6323 Rain 17 1012 72 10000 3.1 200 14:18 16.06.2019
6324 Clouds 17 1013 77 10000 3.6 190 13:44 16.06.2019
6325 Clouds 16 1013 77 10000 3.6 190 13:24 16.06.2019
6326 Clouds 15 1013 76 10000 4.6 180 12:43 16.06.2019
6327 Clouds 15 1013 76 10000 4.6 180 12:21 16.06.2019
6328 Clouds 14 1013 82 10000 3.6 180 11:54 16.06.2019
6329 Clouds 14 1013 82 10000 3.1 180 11:36 16.06.2019
6330 Clouds 13 1013 76 10000 3.1 170 11:18 16.06.2019
6331 Rain 13 1012 81 10000 2.6 160 10:43 16.06.2019
6332 Rain 12 1012 81 10000 3.1 160 10:19 16.06.2019
6333 Clouds 12 1012 87 10000 1.5 0 09:42 16.06.2019
6334 Clouds 12 1012 87 10000 1.5 0 09:42 16.06.2019
6335 Clouds 11 1012 87 10000 2.6 170 09:23 16.06.2019
6336 Clouds 11 1012 87 10000 2.1 170 08:46 16.06.2019
6337 Clouds 10 1012 87 10000 2.1 170 08:20 16.06.2019
6338 Clouds 10 1012 87 10000 2.1 170 07:45 16.06.2019
6339 -273 0 0 0 0 0 07:27 16.06.2019
6340 Clouds 9 1012 87 10000 1 0 06:52 16.06.2019
6341 Clouds 8 1012 87 10000 1.5 0 05:55 16.06.2019
6342 Clouds 8 1012 81 10000 1.5 0 05:20 16.06.2019
6343 Clouds 9 1012 87 10000 1 0 04:21 16.06.2019
6344 Clouds 9 1012 87 10000 1 0 03:38 16.06.2019
6345 Clouds 9 1012 87 10000 1.5 0 03:18 16.06.2019
6346 Fog 9 1012 93 10000 1.5 0 01:48 16.06.2019
6347 Fog 9 1012 93 10000 1.5 0 01:28 16.06.2019
6348 Rain 10 1012 87 10000 1.5 0 00:43 16.06.2019
6349 Rain 10 1012 87 10000 1.5 0 00:23 16.06.2019
6350 Rain 11 1011 93 10000 2.6 240 23:55 15.06.2019
6351 Rain 11 1011 93 10000 1 0 23:37 15.06.2019
6352 Clouds 11 1011 93 10000 1 90 23:18 15.06.2019
6353 Rain 12 1011 76 10000 1 80 22:43 15.06.2019
6354 Rain 12 1011 76 10000 1 80 22:24 15.06.2019
6355 Rain 13 1011 71 10000 1 0 21:43 15.06.2019
6356 Rain 14 1011 71 10000 1 0 21:20 15.06.2019
6357 Clouds 14 1010 76 10000 2.6 350 20:45 15.06.2019
6358 Clouds 14 1010 76 10000 2.6 350 20:22 15.06.2019
6359 Rain 14 1010 76 10000 4.6 320 19:47 15.06.2019
6360 Rain 14 1010 76 10000 4.6 320 19:26 15.06.2019
6361 Rain 14 1009 77 10000 2.1 190 18:42 15.06.2019
6362 Rain 15 1009 77 10000 2.1 190 18:23 15.06.2019
6363 Rain 15 1010 87 10000 1.5 0 17:44 15.06.2019
6364 Rain 15 1010 87 10000 1.5 0 17:44 15.06.2019
6365 Rain 15 1010 87 10000 1.5 0 17:26 15.06.2019
6366 Drizzle 15 1010 87 10000 2.1 0 16:49 15.06.2019
6367 Drizzle 15 1010 87 10000 2.1 0 16:49 15.06.2019
6368 Rain 15 1010 87 10000 2.1 0 16:21 15.06.2019
6369 Rain 15 1010 87 1700 5.7 230 15:45 15.06.2019
6370 Rain 15 1010 87 1700 5.7 230 15:25 15.06.2019
6371 Rain 15 1010 72 10000 3.1 160 14:56 15.06.2019
6372 Rain 15 1009 72 10000 3.6 160 14:37 15.06.2019
6373 Rain 15 1009 72 10000 4.1 180 14:18 15.06.2019
6374 Rain 15 1009 72 10000 4.1 170 13:42 15.06.2019
6375 Rain 15 1009 72 10000 3.6 160 13:20 15.06.2019
6376 Rain 16 1009 72 10000 3.6 160 12:53 15.06.2019
6377 Rain 15 1009 72 10000 4.1 180 12:27 15.06.2019
6378 -273 0 0 0 0 0 12:27 15.06.2019
6379 Rain 15 1009 76 10000 4.1 180 11:54 15.06.2019
6380 Rain 14 1009 76 10000 3.6 180 11:35 15.06.2019
6381 Rain 14 1009 82 10000 3.6 0 10:55 15.06.2019
6382 Clouds 14 1009 82 10000 4.1 180 10:37 15.06.2019
6383 Clouds 13 1009 76 10000 2.6 170 10:19 15.06.2019
6384 Clouds 13 1009 87 10000 3.1 0 09:43 15.06.2019
6385 Clouds 12 1009 87 10000 3.1 0 09:23 15.06.2019
6386 Clouds 12 1009 81 10000 3.6 160 08:50 15.06.2019
6387 Clouds 11 1009 87 10000 2.6 0 08:31 15.06.2019
6388 Clouds 11 1009 87 10000 2.1 0 07:49 15.06.2019
6389 Clouds 11 1009 87 10000 2.6 140 07:22 15.06.2019
6390 Mist 11 1009 87 10000 2.1 0 06:39 15.06.2019
6391 Mist 11 1009 87 10000 2.1 0 06:39 15.06.2019
6392 Fog 11 1009 87 10000 2.1 140 05:56 15.06.2019
6393 Fog 11 1009 87 10000 2.6 140 05:23 15.06.2019
6394 Clouds 11 1009 87 10000 2.1 130 04:37 15.06.2019
6395 Clouds 11 1010 93 10000 1.5 0 03:41 15.06.2019
6396 Clouds 11 1010 93 10000 0.5 0 02:49 15.06.2019
6397 Clouds 11 1010 93 10000 0.5 0 02:20 15.06.2019
6398 Clouds 11 1009 87 10000 1.5 0 01:40 15.06.2019
6399 Clouds 12 1009 93 10000 1 0 00:47 15.06.2019
6400 Clouds 12 1009 93 10000 1 0 00:28 15.06.2019
6401 Clouds 12 1009 93 10000 1.5 0 23:53 14.06.2019
6402 Rain 12 1009 93 10000 1.5 0 23:25 14.06.2019
6403 Rain 13 1008 93 10000 2.1 190 22:43 14.06.2019
6404 Rain 13 1008 93 10000 2.1 190 22:23 14.06.2019
6405 Rain 13 1008 93 10000 1.5 0 22:23 14.06.2019
6406 Rain 13 1008 93 10000 2.1 190 22:23 14.06.2019
6407 Rain 13 1008 93 10000 2.1 190 22:23 14.06.2019
6408 Rain 13 1008 93 10000 1.5 0 21:57 14.06.2019
6409 Rain 13 1008 93 10000 1 0 21:38 14.06.2019
6410 Rain 14 1008 93 10000 1 0 21:20 14.06.2019
6411 Rain 14 1008 87 10000 2.1 180 20:41 14.06.2019
6412 Rain 14 1008 87 10000 2.1 130 20:18 14.06.2019
6413 Rain 15 1008 63 10000 1.5 0 19:44 14.06.2019
6414 Clouds 15 1008 63 10000 1 0 19:23 14.06.2019
6415 Clouds 15 1008 63 10000 1 0 18:58 14.06.2019
6416 Clouds 15 1008 63 10000 1.5 0 18:40 14.06.2019
6417 Clouds 15 1007 72 10000 3.6 190 18:21 14.06.2019
6418 Rain 15 1008 59 10000 2.6 230 17:46 14.06.2019
6419 Rain 16 1008 59 10000 2.6 230 17:25 14.06.2019
6420 Rain 16 1008 59 10000 2.6 190 16:54 14.06.2019
6421 Rain 16 1007 72 10000 1.5 0 16:29 14.06.2019
6422 Clouds 16 1008 63 10000 2.6 190 15:59 14.06.2019
6423 Clouds 16 1007 59 10000 2.6 180 15:39 14.06.2019
6424 Clouds 16 1007 59 10000 2.6 180 15:20 14.06.2019
6425 Clouds 16 1007 59 10000 2.6 180 15:20 14.06.2019
6426 Clouds 16 1007 63 10000 2.6 200 15:20 14.06.2019
6427 Clouds 16 1007 59 10000 2.6 180 15:20 14.06.2019
6428 Clouds 15 1007 63 10000 2.6 200 14:50 14.06.2019
6429 Clouds 15 1007 62 10000 3.6 230 14:31 14.06.2019
6430 Rain 15 1007 67 10000 3.1 230 13:49 14.06.2019
6431 Rain 14 1007 71 10000 4.1 250 13:30 14.06.2019
6432 Clouds 14 1007 76 10000 3.6 250 13:00 14.06.2019
6433 Rain 13 1006 71 10000 2.1 220 12:40 14.06.2019
6434 Rain 13 1006 71 10000 2.1 220 12:22 14.06.2019
6435 Rain 12 1006 87 10000 2.6 180 11:43 14.06.2019
6436 Rain 11 1006 87 10000 2.6 180 11:24 14.06.2019
6437 Rain 11 1006 93 10000 2.1 180 10:50 14.06.2019
6438 Rain 11 1005 100 10000 1 0 10:22 14.06.2019
6439 Rain 10 1005 93 10000 1.5 0 09:56 14.06.2019
6440 Rain 10 1005 93 10000 2.1 140 09:34 14.06.2019
6441 Rain 10 1005 93 8000 2.1 0 08:56 14.06.2019
6442 Rain 10 1005 93 9000 2.1 180 08:38 14.06.2019
6443 Rain 10 1005 93 8000 2.1 160 08:18 14.06.2019
6444 Rain 10 1005 93 7000 1.5 0 07:43 14.06.2019
6445 Rain 9 1005 93 5000 1.5 0 07:19 14.06.2019
6446 Rain 9 1005 93 7000 1 0 06:27 14.06.2019
6447 Rain 9 1005 93 7000 1 0 05:53 14.06.2019
6448 Rain 9 1005 93 10000 1 0 04:56 14.06.2019
6449 Rain 9 1005 100 10000 1 0 04:31 14.06.2019
6450 Rain 9 1006 93 5000 1 0 03:41 14.06.2019
6451 Rain 9 1006 93 5000 1 0 03:23 14.06.2019
6452 Rain 9 1006 93 10000 1.5 0 02:41 14.06.2019
6453 Rain 9 1006 93 10000 1 0 01:53 14.06.2019
6454 Rain 10 1006 93 10000 0.5 0 00:41 14.06.2019
6455 Rain 10 1006 93 10000 0.5 0 00:22 14.06.2019
6456 Rain 10 1006 93 10000 1 160 23:50 13.06.2019
6457 Rain 10 1006 87 10000 1 160 23:26 13.06.2019
6458 Rain 10 1005 87 10000 1 220 22:57 13.06.2019
6459 Rain 10 1005 81 10000 2.1 250 22:37 13.06.2019
6460 Rain 10 1005 81 10000 3.1 290 22:18 13.06.2019
6461 Rain 11 1004 81 10000 3.6 280 21:38 13.06.2019
6462 Rain 11 1004 81 10000 3.6 280 21:19 13.06.2019
6463 Rain 11 1004 87 10000 3.1 270 20:45 13.06.2019
6464 Rain 11 1004 87 10000 3.1 270 20:20 13.06.2019
6465 Rain 11 1004 93 10000 3.6 260 19:43 13.06.2019
6466 Rain 11 1004 93 10000 3.6 260 19:25 13.06.2019
6467 Rain 11 1003 93 10000 3.6 260 19:00 13.06.2019
6468 Rain 11 1003 93 9000 4.6 290 18:41 13.06.2019
6469 Rain 11 1003 93 9000 4.6 290 18:22 13.06.2019
6470 Rain 11 1003 93 10000 3.6 300 17:45 13.06.2019
6471 Rain 11 1003 93 10000 3.6 300 17:22 13.06.2019
6472 Rain 11 1003 87 10000 3.6 320 16:59 13.06.2019
6473 Rain 11 1003 87 10000 3.1 330 16:41 13.06.2019
6474 Rain 11 1003 87 10000 3.1 330 16:20 13.06.2019
6475 Drizzle 11 1003 81 10000 3.1 340 15:41 13.06.2019
6476 Drizzle 11 1003 81 10000 3.1 340 15:22 13.06.2019
6477 Drizzle 11 1003 81 10000 4.1 340 14:52 13.06.2019
6478 Drizzle 11 1002 81 10000 4.1 360 14:31 13.06.2019
6479 Rain 11 1002 81 10000 5.1 10 13:57 13.06.2019
6480 Rain 11 1002 81 10000 5.1 10 13:57 13.06.2019
6481 Rain 11 1002 81 10000 5.1 10 13:57 13.06.2019
6482 Rain 12 1002 81 10000 5.7 360 13:39 13.06.2019
6483 Rain 12 1002 81 10000 5.7 360 13:20 13.06.2019
6484 Rain 11 1002 93 10000 5.7 20 12:41 13.06.2019
6485 Rain 11 1002 93 10000 5.7 20 12:21 13.06.2019
6486 Rain 11 1002 93 4300 3.6 350 11:46 13.06.2019
6487 Rain 11 1002 93 4300 3.6 350 11:28 13.06.2019
6488 Drizzle 11 1002 87 4700 3.1 340 10:51 13.06.2019
6489 Rain 11 1002 87 10000 2.1 310 10:31 13.06.2019
6490 Rain 11 1002 87 10000 1.5 320 09:56 13.06.2019
6491 Rain 11 1002 93 10000 1.5 0 09:38 13.06.2019
6492 Rain 11 1002 93 10000 1.5 0 09:20 13.06.2019
6493 Rain 11 1002 93 10000 2.1 350 08:43 13.06.2019
6494 Drizzle 11 1002 93 10000 1 0 08:22 13.06.2019
6495 Rain 10 1002 93 10000 2.6 340 07:41 13.06.2019
6496 Rain 10 1002 93 10000 2.6 340 07:22 13.06.2019
6497 Rain 10 1002 100 10000 3.1 360 06:45 13.06.2019
6498 Rain 10 1003 100 10000 2.1 330 06:22 13.06.2019
6499 Rain 10 1003 93 10000 3.1 350 05:52 13.06.2019
6500 Rain 10 1003 93 10000 3.1 350 05:34 13.06.2019
6501 Rain 11 1004 93 10000 2.1 10 03:50 13.06.2019
6502 Rain 11 1005 93 6000 2.1 50 02:22 13.06.2019
6503 Rain 12 1006 87 10000 3.1 40 00:44 13.06.2019
6504 Rain 12 1007 93 10000 2.6 10 23:38 12.06.2019
6505 Rain 12 1007 93 10000 2.6 10 23:38 12.06.2019
6506 Rain 12 1007 93 9000 5.7 20 23:20 12.06.2019
6507 Rain 12 1007 93 10000 3.6 350 22:41 12.06.2019
6508 Rain 12 1007 93 10000 3.6 350 22:22 12.06.2019
6509 Drizzle 13 1007 93 6000 3.1 340 21:47 12.06.2019
6510 Drizzle 13 1007 93 6000 3.1 340 21:29 12.06.2019
6511 Drizzle 13 1007 93 7000 2.6 330 20:50 12.06.2019
6512 Drizzle 13 1008 93 5000 2.6 350 20:31 12.06.2019
6513 Drizzle 13 1008 87 10000 3.1 20 19:59 12.06.2019
6514 Drizzle 13 1008 87 10000 3.6 20 19:41 12.06.2019
6515 Drizzle 13 1008 87 10000 3.6 20 19:22 12.06.2019
6516 Drizzle 13 1009 82 10000 3.6 10 18:51 12.06.2019
6517 Rain 13 1009 87 10000 3.6 40 18:29 12.06.2019
6518 Rain 13 1009 87 10000 3.6 40 18:29 12.06.2019
6519 Rain 13 1009 87 10000 3.6 40 17:58 12.06.2019
6520 Rain 13 1009 87 10000 3.1 10 17:39 12.06.2019
6521 Rain 13 1009 82 10000 4.1 10 17:18 12.06.2019
6522 Rain 13 1010 82 10000 4.1 360 16:40 12.06.2019
6523 Rain 13 1010 82 10000 4.1 360 16:22 12.06.2019
6524 Rain 13 1010 82 10000 3.1 20 15:47 12.06.2019
6525 Rain 13 1010 82 10000 3.1 20 15:29 12.06.2019
6526 Rain 12 1011 87 10000 3.1 10 14:42 12.06.2019
6527 Drizzle 12 1011 93 5000 3.1 350 14:22 12.06.2019
6528 Rain 12 1011 93 10000 2.6 340 13:42 12.06.2019
6529 Rain 12 1011 93 10000 2.1 330 13:20 12.06.2019
6530 Rain 12 1011 93 10000 2.1 330 12:56 12.06.2019
6531 Drizzle 11 1011 93 9000 2.6 310 12:38 12.06.2019
6532 Rain 11 1011 93 8000 2.6 320 12:19 12.06.2019
6533 Rain 11 1011 93 8000 2.6 320 12:19 12.06.2019
6534 Drizzle 11 1011 100 7000 3.1 300 11:45 12.06.2019
6535 Drizzle 11 1011 100 7000 3.1 300 11:27 12.06.2019
6536 Drizzle 10 1011 93 6000 3.1 310 10:50 12.06.2019
6537 Drizzle 10 1012 100 4000 3.1 310 10:26 12.06.2019
6538 Rain 10 1012 93 3000 3.1 300 09:45 12.06.2019
6539 Rain 9 1012 93 3000 3.1 300 09:23 12.06.2019
6540 Rain 9 1012 93 3500 3.1 300 08:55 12.06.2019
6541 Rain 9 1012 93 6000 2.6 300 08:21 12.06.2019
6542 Rain 9 1013 93 5000 2.6 300 07:46 12.06.2019
6543 Rain 9 1013 93 6000 2.6 310 06:54 12.06.2019
6544 Rain 9 1013 93 9000 4.6 340 05:27 12.06.2019
6545 Rain 9 1014 93 9000 3.1 330 04:54 12.06.2019
6546 Rain 9 1016 93 7000 2.1 320 01:44 12.06.2019
6547 Rain 9 1017 93 8000 2.6 350 00:40 12.06.2019
6548 Rain 9 1017 93 4300 3.1 330 23:48 11.06.2019
6549 Rain 9 1017 93 4300 3.1 330 23:30 11.06.2019
6550 Rain 9 1017 93 6000 3.1 330 22:44 11.06.2019
6551 Rain 9 1017 93 10000 3.1 340 22:21 11.06.2019
6552 Rain 9 1017 93 10000 3.1 340 21:58 11.06.2019
6553 Rain 9 1017 93 10000 3.6 340 21:39 11.06.2019
6554 Rain 9 1017 93 10000 3.6 340 21:20 11.06.2019
6555 Rain 9 1017 93 10000 4.1 350 20:49 11.06.2019
6556 Rain 9 1017 87 7000 5.7 10 20:26 11.06.2019
6557 Rain 10 1018 93 9000 2.1 30 19:56 11.06.2019
6558 Rain 10 1017 87 7000 5.1 10 19:37 11.06.2019
6559 -273 0 0 0 0 0 19:37 11.06.2019
6560 -273 0 0 0 0 0 19:37 11.06.2019
6561 Rain 10 1017 87 7000 5.1 10 19:36 11.06.2019
6562 Rain 10 1017 87 7000 4.6 10 18:58 11.06.2019
6563 Rain 10 1017 87 7000 4.6 10 18:56 11.06.2019
6564 Rain 10 1017 87 7000 4.6 10 18:56 11.06.2019
6565 Rain 10 1018 87 10000 4.6 10 18:22 11.06.2019
6566 Rain 10 1018 87 7000 6.7 20 17:42 11.06.2019
6567 Rain 10 1018 81 10000 2.6 30 17:22 11.06.2019
6568 Rain 10 1018 87 5000 6.2 10 16:57 11.06.2019
6569 Rain 10 1018 87 8000 5.7 20 16:39 11.06.2019
6570 Rain 10 1018 87 8000 5.7 20 16:21 11.06.2019
6571 Rain 10 1017 81 10000 7.2 20 15:42 11.06.2019
6572 Rain 10 1017 81 10000 7.2 20 15:22 11.06.2019
6573 Rain 10 1018 81 10000 4.1 40 14:47 11.06.2019
6574 Rain 10 1018 81 10000 4.1 40 14:21 11.06.2019
6575 Rain 10 1017 81 10000 7.2 20 13:51 11.06.2019
6576 Rain 10 1017 81 10000 7.2 20 13:24 11.06.2019
6577 Rain 10 1017 81 10000 8.2 30 12:55 11.06.2019
6578 Rain 10 1017 81 10000 8.2 30 12:55 11.06.2019
6579 Rain 10 1017 81 10000 5.7 20 12:37 11.06.2019
6580 Rain 10 1017 76 10000 7.7 20 12:18 11.06.2019
6581 Rain 10 1017 76 10000 6.2 20 11:39 11.06.2019
6582 Rain 10 1017 87 10000 7.2 20 11:19 11.06.2019
6583 Rain 10 1017 87 10000 6.2 20 10:45 11.06.2019
6584 Rain 10 1017 87 10000 6.2 20 10:25 11.06.2019
6585 Rain 10 1017 76 10000 7.7 20 09:48 11.06.2019
6586 Rain 10 1017 76 10000 8.2 30 09:24 11.06.2019
6587 Rain 10 1016 81 10000 9.3 20 08:44 11.06.2019
6588 Rain 10 1016 81 10000 9.3 20 08:24 11.06.2019
6589 Rain 10 1017 81 10000 6.7 20 07:37 11.06.2019
6590 Rain 10 1017 81 10000 6.2 10 06:55 11.06.2019
6591 Rain 10 1017 81 10000 6.2 10 06:25 11.06.2019
6592 Rain 10 1018 87 10000 5.1 360 04:52 11.06.2019
6593 Rain 11 1018 87 10000 4.6 10 02:54 11.06.2019
6594 Rain 11 1018 87 10000 4.6 350 01:25 11.06.2019
6595 Drizzle 11 1018 93 10000 3.6 340 00:45 11.06.2019
6596 Rain 11 1018 93 10000 2.1 350 23:47 10.06.2019
6597 Rain 11 1018 93 10000 2.1 350 23:21 10.06.2019
6598 Rain 11 1018 81 7000 4.6 10 22:49 10.06.2019
6599 Rain 11 1018 81 7000 4.6 10 22:31 10.06.2019
6600 Rain 11 1018 81 10000 4.6 30 21:59 10.06.2019
6601 Rain 11 1018 87 10000 3.6 60 21:39 10.06.2019
6602 Rain 11 1018 87 10000 3.6 60 21:21 10.06.2019
6603 Rain 11 1018 81 10000 3.6 50 20:44 10.06.2019
6604 Rain 11 1018 81 10000 3.6 50 20:44 10.06.2019
6605 Rain 12 1018 81 10000 3.6 50 20:23 10.06.2019
6606 Rain 12 1018 72 10000 5.1 80 19:51 10.06.2019
6607 Rain 13 1018 72 10000 5.1 80 19:27 10.06.2019
6608 Rain 13 1017 67 10000 4.1 60 18:59 10.06.2019
6609 Rain 13 1017 77 10000 1.5 20 18:40 10.06.2019
6610 Rain 13 1017 77 10000 1.5 20 18:20 10.06.2019
6611 Rain 14 1017 67 10000 6.2 70 17:44 10.06.2019
6612 Rain 14 1017 67 10000 6.2 70 17:25 10.06.2019
6613 Rain 15 1017 71 10000 5.7 60 16:56 10.06.2019
6614 Rain 15 1017 71 10000 5.1 80 16:38 10.06.2019
6615 Rain 15 1017 59 10000 5.1 70 16:18 10.06.2019
6616 Rain 15 1017 55 10000 4.6 60 15:41 10.06.2019
6617 Rain 15 1017 55 10000 4.6 60 15:23 10.06.2019
6618 Rain 16 1017 51 10000 5.7 40 14:49 10.06.2019
6619 Clouds 16 1017 55 10000 5.1 30 14:30 10.06.2019
6620 Clouds 16 1017 55 10000 4.1 30 13:56 10.06.2019
6621 Clouds 16 1018 55 10000 2.1 70 13:38 10.06.2019
6622 Clouds 16 1018 55 10000 3.6 40 13:19 10.06.2019
6623 Rain 16 1018 59 10000 4.6 40 12:40 10.06.2019
6624 Clear 15 1018 59 10000 4.6 40 12:22 10.06.2019
6625 Clear 15 1018 67 10000 3.1 30 11:43 10.06.2019
6626 Clouds 15 1018 67 10000 2.6 360 11:19 10.06.2019
6627 Clouds 15 1018 67 10000 2.6 360 11:19 10.06.2019
6628 Clear 14 1018 71 10000 2.1 10 10:42 10.06.2019
6629 Fog 13 1018 76 10000 2.1 360 10:20 10.06.2019
6630 Fog 12 1018 76 10000 1.5 0 09:55 10.06.2019
6631 Fog 12 1018 76 10000 1.5 0 09:32 10.06.2019
6632 Fog 10 1018 87 10000 1 0 08:50 10.06.2019
6633 Fog 10 1018 81 10000 2.6 70 08:27 10.06.2019
6634 Fog 8 1018 93 10000 0.5 60 07:46 10.06.2019
6635 Fog 7 1018 93 10000 1 0 06:33 10.06.2019
6636 Fog 8 1019 100 10000 1.41 25.164 03:59 10.06.2019
6637 Clear 9 1019 93 10000 1 40 01:57 10.06.2019
6638 Mist 9 1019 100 1400 0.5 0 01:23 10.06.2019
6639 Clouds 9 1019 93 10000 0.5 0 00:48 10.06.2019
6640 Clouds 10 1019 100 9000 1 130 23:58 09.06.2019
6641 Rain 10 1019 93 10000 1 180 23:38 09.06.2019
6642 Rain 11 1019 87 10000 1 0 23:18 09.06.2019
6643 Rain 11 1019 81 10000 1 130 22:41 09.06.2019
6644 Rain 12 1019 81 10000 1.5 50 22:21 09.06.2019
6645 Rain 13 1019 81 10000 1.5 0 21:40 09.06.2019
6646 Rain 13 1019 81 10000 1.5 0 21:22 09.06.2019
6647 Rain 13 1019 87 10000 1.5 0 20:42 09.06.2019
6648 Rain 13 1019 87 10000 1.5 0 20:22 09.06.2019
6649 Rain 13 1019 87 10000 4.1 240 19:46 09.06.2019
6650 Rain 13 1019 87 10000 4.1 240 19:46 09.06.2019
6651 Rain 13 1019 87 6000 6.7 220 19:19 09.06.2019
6652 Rain 14 1019 87 6000 6.7 220 18:56 09.06.2019
6653 Rain 14 1018 58 10000 1 0 18:37 09.06.2019
6654 Rain 15 1018 55 10000 2.6 290 18:19 09.06.2019
6655 Haze 15 1018 62 1900 3.1 250 17:43 09.06.2019
6656 Rain 15 1018 62 1900 3.1 250 17:24 09.06.2019
6657 Rain 16 1019 67 10000 2.1 190 16:41 09.06.2019
6658 Rain 16 1019 67 10000 2.1 190 16:21 09.06.2019
6659 Clouds 16 1019 76 10000 1.5 0 15:56 09.06.2019
6660 Rain 16 1019 62 10000 1 0 15:38 09.06.2019
6661 Rain 16 1019 76 9000 1 0 15:20 09.06.2019
6662 Rain 16 1019 58 10000 2.6 220 14:42 09.06.2019
6663 Rain 16 1019 58 10000 2.6 220 14:21 09.06.2019
6664 Rain 16 1019 62 10000 1.5 0 13:50 09.06.2019
6665 Rain 16 1019 58 10000 5.1 250 13:19 09.06.2019
6666 Clouds 15 1019 62 10000 3.6 220 12:40 09.06.2019
6667 Clouds 15 1019 62 10000 3.6 220 12:21 09.06.2019
6668 Clouds 15 1019 67 10000 4.1 210 11:39 09.06.2019
6669 Clouds 15 1019 67 10000 4.1 210 11:20 09.06.2019
6670 Clouds 14 1019 76 10000 3.1 220 10:44 09.06.2019
6671 Clouds 14 1019 76 10000 3.1 220 10:22 09.06.2019
6672 Clouds 13 1019 87 10000 2.6 210 09:40 09.06.2019
6673 Clouds 13 1019 87 10000 2.6 210 09:40 09.06.2019
6674 Clouds 12 1019 87 10000 2.6 210 09:21 09.06.2019
6675 Clear 11 1019 87 10000 2.6 210 08:46 09.06.2019
6676 Clear 11 1019 87 10000 2.6 210 08:27 09.06.2019
6677 Clouds 8 1018 93 10000 3.1 190 06:55 09.06.2019
6678 Clear 8 1018 93 10000 2.6 170 06:30 09.06.2019
6679 Clear 9 1017 93 10000 2.6 180 04:34 09.06.2019
6680 Clouds 10 1017 87 10000 2.1 180 01:38 09.06.2019
6681 Clouds 10 1017 87 10000 2.6 180 01:19 09.06.2019
6682 Clouds 11 1017 87 10000 2.6 180 00:58 09.06.2019
6683 Clouds 11 1016 87 10000 2.6 190 23:43 08.06.2019
6684 Clouds 11 1016 87 10000 2.6 190 23:24 08.06.2019
6685 Clouds 11 1015 81 10000 2.1 190 22:56 08.06.2019
6686 Clouds 11 1015 81 10000 2.1 210 22:38 08.06.2019
6687 Clouds 12 1015 87 10000 2.1 190 22:19 08.06.2019
6688 Clouds 12 1015 87 10000 2.1 190 21:50 08.06.2019
6689 Rain 12 1015 87 10000 2.1 210 21:26 08.06.2019
6690 Clouds 12 1014 81 10000 4.6 230 20:47 08.06.2019
6691 Clouds 12 1014 81 10000 4.6 230 20:25 08.06.2019
6692 Clouds 12 1014 81 10000 5.1 250 19:58 08.06.2019
6693 Rain 12 1014 81 10000 6.2 260 19:39 08.06.2019
6694 Rain 12 1013 76 10000 5.7 270 19:19 08.06.2019
6695 Rain 12 1013 87 10000 5.1 270 18:51 08.06.2019
6696 Rain 12 1013 87 10000 5.1 270 18:32 08.06.2019
6697 Rain 12 1012 93 10000 4.6 290 17:48 08.06.2019
6698 Rain 12 1012 93 10000 4.6 290 17:23 08.06.2019
6699 Rain 12 1011 87 10000 6.2 260 16:54 08.06.2019
6700 Rain 12 1011 87 10000 6.2 260 16:35 08.06.2019
6701 Rain 11 1011 93 9000 5.7 270 15:54 08.06.2019
6702 Rain 11 1010 87 9000 7.7 270 15:35 08.06.2019
6703 Rain 11 1009 87 10000 7.2 270 14:49 08.06.2019
6704 Rain 11 1009 87 10000 7.2 270 14:31 08.06.2019
6705 Rain 11 1008 87 10000 6.7 270 13:51 08.06.2019
6706 Rain 11 1007 87 7000 7.2 270 12:54 08.06.2019
6707 Rain 11 1006 93 10000 7.7 270 12:35 08.06.2019
6708 Rain 11 1005 93 6000 6.7 280 11:56 08.06.2019
6709 Rain 11 1005 93 10000 7.2 280 11:37 08.06.2019
6710 Rain 11 1004 93 10000 5.7 280 11:19 08.06.2019
6711 Rain 11 1003 93 10000 5.1 280 10:42 08.06.2019
6712 Rain 11 1003 100 9000 5.7 290 10:19 08.06.2019
6713 Rain 11 1002 93 6000 5.1 290 09:33 08.06.2019
6714 Rain 11 1001 100 6000 4.1 260 08:52 08.06.2019
6715 Rain 11 1001 100 7000 4.1 260 08:22 08.06.2019
6716 Rain 11 1000 100 2900 3.1 270 07:27 08.06.2019
6717 Rain 11 999 100 600 1.5 200 06:45 08.06.2019
6718 Rain 11 999 93 6000 1.5 0 03:37 08.06.2019
6719 Rain 11 999 93 5000 1 0